<?xml version='1.0' encoding='UTF-8'?><gpx version="1.1" creator="JPX - https://github.com/jenetics/jpx" xmlns="http://www.topografix.com/GPX/1/1"><trk><trkseg><trkpt lat="45.288984877012965" lon="10.475315722960927"><ele>50.0</ele><time>2026-04-04T14:09:37.972Z</time></trkpt><trkpt lat="45.28892277845937" lon="10.475348331844206"><ele>50.0</ele><time>2026-04-04T14:10:09.971Z</time></trkpt><trkpt lat="45.288996419082935" lon="10.475336338536883"><ele>50.0</ele><time>2026-04-04T14:11:33.973Z</time></trkpt><trkpt lat="45.28910075727385" lon="10.475335912212826"><ele>50.0</ele><time>2026-04-04T14:11:51.972Z</time></trkpt><trkpt lat="45.28904505839831" lon="10.475516475591006"><ele>50.0</ele><time>2026-04-04T14:12:25.972Z</time></trkpt><trkpt lat="45.28897326803704" lon="10.475627826607024"><ele>50.5</ele><time>2026-04-04T14:12:26.972Z</time></trkpt><trkpt lat="45.28888108673553" lon="10.475715970596944"><ele>51.0</ele><time>2026-04-04T14:12:27.972Z</time></trkpt><trkpt lat="45.2887906631405" lon="10.4758213724803"><ele>51.5</ele><time>2026-04-04T14:12:28.972Z</time></trkpt><trkpt lat="45.28869132620563" lon="10.47594844992686"><ele>52.0</ele><time>2026-04-04T14:12:29.972Z</time></trkpt><trkpt lat="45.288591236960706" lon="10.476078678956503"><ele>52.0</ele><time>2026-04-04T14:12:30.971Z</time></trkpt><trkpt lat="45.28848511624018" lon="10.47620648394054"><ele>52.0</ele><time>2026-04-04T14:12:31.971Z</time></trkpt><trkpt lat="45.288386678416735" lon="10.476348183192727"><ele>52.0</ele><time>2026-04-04T14:12:32.971Z</time></trkpt><trkpt lat="45.288286752255715" lon="10.476495393277348"><ele>52.0</ele><time>2026-04-04T14:12:33.971Z</time></trkpt><trkpt lat="45.288174452926036" lon="10.476645011063857"><ele>51.33333333333333</ele><time>2026-04-04T14:12:34.971Z</time></trkpt><trkpt lat="45.28806556325078" lon="10.476823676550682"><ele>50.66666666666667</ele><time>2026-04-04T14:12:35.971Z</time></trkpt><trkpt lat="45.287956029425054" lon="10.476998739261738"><ele>50.0</ele><time>2026-04-04T14:12:36.971Z</time></trkpt><trkpt lat="45.28786152592117" lon="10.477193821565951"><ele>49.66666666666667</ele><time>2026-04-04T14:12:37.971Z</time></trkpt><trkpt lat="45.28778917136702" lon="10.47739694570898"><ele>49.33333333333333</ele><time>2026-04-04T14:12:38.971Z</time></trkpt><trkpt lat="45.28772019100697" lon="10.47760829509341"><ele>49.0</ele><time>2026-04-04T14:12:39.971Z</time></trkpt><trkpt lat="45.287654881498824" lon="10.477818756288777"><ele>49.5</ele><time>2026-04-04T14:12:40.971Z</time></trkpt><trkpt lat="45.28760826842248" lon="10.478023406774277"><ele>50.0</ele><time>2026-04-04T14:12:41.971Z</time></trkpt><trkpt lat="45.287576608230836" lon="10.478205232485134"><ele>50.5</ele><time>2026-04-04T14:12:42.971Z</time></trkpt><trkpt lat="45.287573459605085" lon="10.478367107875952"><ele>51.0</ele><time>2026-04-04T14:12:43.971Z</time></trkpt><trkpt lat="45.28757648317792" lon="10.478478732665769"><ele>51.0</ele><time>2026-04-04T14:12:44.971Z</time></trkpt><trkpt lat="45.28754704919349" lon="10.478668946183232"><ele>51.0</ele><time>2026-04-04T14:12:46.971Z</time></trkpt><trkpt lat="45.287541935273026" lon="10.478810682136444"><ele>51.0</ele><time>2026-04-04T14:12:47.971Z</time></trkpt><trkpt lat="45.287551761429505" lon="10.478985745089965"><ele>51.0</ele><time>2026-04-04T14:12:48.971Z</time></trkpt><trkpt lat="45.287546466369264" lon="10.479158290387426"><ele>50.5</ele><time>2026-04-04T14:12:49.971Z</time></trkpt><trkpt lat="45.2875406492623" lon="10.479350325350184"><ele>50.0</ele><time>2026-04-04T14:12:50.971Z</time></trkpt><trkpt lat="45.28753164041615" lon="10.479532943565433"><ele>49.5</ele><time>2026-04-04T14:12:51.971Z</time></trkpt><trkpt lat="45.287482866517294" lon="10.479720189537206"><ele>49.0</ele><time>2026-04-04T14:12:52.971Z</time></trkpt><trkpt lat="45.28738775039613" lon="10.479892210370142"><ele>49.0</ele><time>2026-04-04T14:12:53.971Z</time></trkpt><trkpt lat="45.287286329232494" lon="10.480075987755045"><ele>49.0</ele><time>2026-04-04T14:12:54.971Z</time></trkpt><trkpt lat="45.28718194015171" lon="10.480262092150461"><ele>49.0</ele><time>2026-04-04T14:12:55.971Z</time></trkpt><trkpt lat="45.287076864116294" lon="10.48045361039662"><ele>48.33333333333333</ele><time>2026-04-04T14:12:56.971Z</time></trkpt><trkpt lat="45.28698693199574" lon="10.48065780223674"><ele>47.666666666666664</ele><time>2026-04-04T14:12:57.971Z</time></trkpt><trkpt lat="45.28689809398752" lon="10.480866766802"><ele>47.0</ele><time>2026-04-04T14:12:58.971Z</time></trkpt><trkpt lat="45.2868155907978" lon="10.481077942459036"><ele>47.0</ele><time>2026-04-04T14:12:59.971Z</time></trkpt><trkpt lat="45.28673932175978" lon="10.481290832348572"><ele>47.0</ele><time>2026-04-04T14:13:00.971Z</time></trkpt><trkpt lat="45.28666183348357" lon="10.481501144151398"><ele>47.0</ele><time>2026-04-04T14:13:01.971Z</time></trkpt><trkpt lat="45.286583155701365" lon="10.481708892127761"><ele>47.0</ele><time>2026-04-04T14:13:02.971Z</time></trkpt><trkpt lat="45.28650982425731" lon="10.481916446076614"><ele>47.0</ele><time>2026-04-04T14:13:03.971Z</time></trkpt><trkpt lat="45.286436646107205" lon="10.482115448925276"><ele>47.0</ele><time>2026-04-04T14:13:04.971Z</time></trkpt><trkpt lat="45.28636592533822" lon="10.482312328853052"><ele>47.25</ele><time>2026-04-04T14:13:05.971Z</time></trkpt><trkpt lat="45.28629418248826" lon="10.48250038255481"><ele>47.5</ele><time>2026-04-04T14:13:06.971Z</time></trkpt><trkpt lat="45.28622825792791" lon="10.482663410812586"><ele>47.75</ele><time>2026-04-04T14:13:07.971Z</time></trkpt><trkpt lat="45.2861779707658" lon="10.482779314804846"><ele>48.0</ele><time>2026-04-04T14:13:08.971Z</time></trkpt><trkpt lat="45.286135213241465" lon="10.482884616084931"><ele>48.0</ele><time>2026-04-04T14:13:10.971Z</time></trkpt><trkpt lat="45.28611628460353" lon="10.482991535213694"><ele>48.0</ele><time>2026-04-04T14:13:13.971Z</time></trkpt><trkpt lat="45.28612224834982" lon="10.483092896025225"><ele>48.0</ele><time>2026-04-04T14:13:14.971Z</time></trkpt><trkpt lat="45.2861551665171" lon="10.483216151391945"><ele>48.0</ele><time>2026-04-04T14:13:15.974Z</time></trkpt><trkpt lat="45.286226008589026" lon="10.483335501029758"><ele>48.0</ele><time>2026-04-04T14:13:16.974Z</time></trkpt><trkpt lat="45.286317787986455" lon="10.48343678727545"><ele>48.0</ele><time>2026-04-04T14:13:17.974Z</time></trkpt><trkpt lat="45.28639669853268" lon="10.483564038408987"><ele>48.0</ele><time>2026-04-04T14:13:18.974Z</time></trkpt><trkpt lat="45.28647048183696" lon="10.483692711438273"><ele>48.0</ele><time>2026-04-04T14:13:19.974Z</time></trkpt><trkpt lat="45.28651541113763" lon="10.483814546499833"><ele>48.0</ele><time>2026-04-04T14:13:20.974Z</time></trkpt><trkpt lat="45.28658341422027" lon="10.48391493601631"><ele>48.0</ele><time>2026-04-04T14:13:21.974Z</time></trkpt><trkpt lat="45.28669027649892" lon="10.484005691300611"><ele>48.0</ele><time>2026-04-04T14:13:22.974Z</time></trkpt><trkpt lat="45.28682056933377" lon="10.484091562386489"><ele>48.0</ele><time>2026-04-04T14:13:23.974Z</time></trkpt><trkpt lat="45.28694844776112" lon="10.484182990391275"><ele>48.0</ele><time>2026-04-04T14:13:24.975Z</time></trkpt><trkpt lat="45.287084182244776" lon="10.484291162301174"><ele>48.0</ele><time>2026-04-04T14:13:25.974Z</time></trkpt><trkpt lat="45.28721846543229" lon="10.484394866613842"><ele>47.666666666666664</ele><time>2026-04-04T14:13:26.974Z</time></trkpt><trkpt lat="45.287354841454814" lon="10.484487426312024"><ele>47.33333333333333</ele><time>2026-04-04T14:13:27.974Z</time></trkpt><trkpt lat="45.28750202293513" lon="10.48457686067407"><ele>47.0</ele><time>2026-04-04T14:13:28.975Z</time></trkpt><trkpt lat="45.28765060062133" lon="10.484628875193902"><ele>47.0</ele><time>2026-04-04T14:13:29.975Z</time></trkpt><trkpt lat="45.28780229588788" lon="10.484699122353067"><ele>47.0</ele><time>2026-04-04T14:13:30.975Z</time></trkpt><trkpt lat="45.28794837687609" lon="10.48476390378262"><ele>47.0</ele><time>2026-04-04T14:13:31.975Z</time></trkpt><trkpt lat="45.28809221498491" lon="10.484817865537538"><ele>47.33333333333333</ele><time>2026-04-04T14:13:32.975Z</time></trkpt><trkpt lat="45.28825065810062" lon="10.484867207171176"><ele>47.666666666666664</ele><time>2026-04-04T14:13:33.975Z</time></trkpt><trkpt lat="45.288406966382844" lon="10.484925676898998"><ele>48.0</ele><time>2026-04-04T14:13:34.975Z</time></trkpt><trkpt lat="45.288569527648406" lon="10.48498674306762"><ele>48.0</ele><time>2026-04-04T14:13:35.975Z</time></trkpt><trkpt lat="45.28872886996218" lon="10.485044358207228"><ele>48.0</ele><time>2026-04-04T14:13:36.975Z</time></trkpt><trkpt lat="45.288889618669195" lon="10.485112353517778"><ele>48.0</ele><time>2026-04-04T14:13:37.975Z</time></trkpt><trkpt lat="45.28905600710021" lon="10.485180465037368"><ele>47.666666666666664</ele><time>2026-04-04T14:13:38.975Z</time></trkpt><trkpt lat="45.289220122098605" lon="10.485240999747848"><ele>47.33333333333333</ele><time>2026-04-04T14:13:39.975Z</time></trkpt><trkpt lat="45.28938259729466" lon="10.485296478141928"><ele>47.0</ele><time>2026-04-04T14:13:40.975Z</time></trkpt><trkpt lat="45.289540271989985" lon="10.4853374328814"><ele>47.0</ele><time>2026-04-04T14:13:41.975Z</time></trkpt><trkpt lat="45.28970263876084" lon="10.48539248912223"><ele>47.0</ele><time>2026-04-04T14:13:42.975Z</time></trkpt><trkpt lat="45.28985537696408" lon="10.485440406058336"><ele>47.0</ele><time>2026-04-04T14:13:43.974Z</time></trkpt><trkpt lat="45.289994463012874" lon="10.485472766123138"><ele>47.400000000000006</ele><time>2026-04-04T14:13:44.974Z</time></trkpt><trkpt lat="45.29012500352639" lon="10.48548145907511"><ele>47.800000000000004</ele><time>2026-04-04T14:13:45.974Z</time></trkpt><trkpt lat="45.29023052471532" lon="10.485482595065855"><ele>48.2</ele><time>2026-04-04T14:13:46.974Z</time></trkpt><trkpt lat="45.29031961931638" lon="10.485480011663991"><ele>48.6</ele><time>2026-04-04T14:13:47.974Z</time></trkpt><trkpt lat="45.29039344863102" lon="10.485478948078157"><ele>49.0</ele><time>2026-04-04T14:13:48.974Z</time></trkpt><trkpt lat="45.290505439250374" lon="10.485486745988217"><ele>48.99999999999999</ele><time>2026-04-04T14:13:50.974Z</time></trkpt><trkpt lat="45.290594601617244" lon="10.485498157383711"><ele>49.0</ele><time>2026-04-04T14:13:52.974Z</time></trkpt><trkpt lat="45.29067822044528" lon="10.485511217962987"><ele>49.0</ele><time>2026-04-04T14:13:54.974Z</time></trkpt><trkpt lat="45.290793376486455" lon="10.485545322993506"><ele>49.0</ele><time>2026-04-04T14:13:56.974Z</time></trkpt><trkpt lat="45.290862201737625" lon="10.485554530193436"><ele>48.99999999999999</ele><time>2026-04-04T14:13:57.974Z</time></trkpt><trkpt lat="45.290936105443166" lon="10.485564704171924"><ele>49.0</ele><time>2026-04-04T14:13:58.974Z</time></trkpt><trkpt lat="45.29101965844249" lon="10.485557264896897"><ele>49.0</ele><time>2026-04-04T14:13:59.974Z</time></trkpt><trkpt lat="45.29112140153462" lon="10.485576276494012"><ele>49.0</ele><time>2026-04-04T14:14:00.974Z</time></trkpt><trkpt lat="45.291234001703224" lon="10.485592318461503"><ele>49.0</ele><time>2026-04-04T14:14:01.974Z</time></trkpt><trkpt lat="45.29134617125868" lon="10.485606971292428"><ele>49.0</ele><time>2026-04-04T14:14:02.974Z</time></trkpt><trkpt lat="45.29146450166073" lon="10.48563394830203"><ele>49.0</ele><time>2026-04-04T14:14:03.974Z</time></trkpt><trkpt lat="45.291592100147334" lon="10.485667665210359"><ele>49.0</ele><time>2026-04-04T14:14:04.974Z</time></trkpt><trkpt lat="45.29173288888832" lon="10.48572737652959"><ele>49.0</ele><time>2026-04-04T14:14:05.974Z</time></trkpt><trkpt lat="45.29186860659838" lon="10.485794706830962"><ele>49.0</ele><time>2026-04-04T14:14:06.974Z</time></trkpt><trkpt lat="45.292003997090426" lon="10.485873223649294"><ele>49.0</ele><time>2026-04-04T14:14:07.974Z</time></trkpt><trkpt lat="45.29213092658343" lon="10.485948367494627"><ele>48.75</ele><time>2026-04-04T14:14:08.974Z</time></trkpt><trkpt lat="45.292261615176656" lon="10.48601528284343"><ele>48.5</ele><time>2026-04-04T14:14:09.974Z</time></trkpt><trkpt lat="45.292393184089384" lon="10.486086889520086"><ele>48.25</ele><time>2026-04-04T14:14:10.974Z</time></trkpt><trkpt lat="45.29252620761119" lon="10.48616855872816"><ele>48.0</ele><time>2026-04-04T14:14:11.974Z</time></trkpt><trkpt lat="45.292653490505415" lon="10.486236807870338"><ele>48.75</ele><time>2026-04-04T14:14:12.974Z</time></trkpt><trkpt lat="45.29278705285617" lon="10.486300038008988"><ele>49.5</ele><time>2026-04-04T14:14:13.974Z</time></trkpt><trkpt lat="45.292916809631095" lon="10.486346262040234"><ele>50.25</ele><time>2026-04-04T14:14:14.974Z</time></trkpt><trkpt lat="45.29305405120833" lon="10.486380672334064"><ele>51.0</ele><time>2026-04-04T14:14:15.974Z</time></trkpt><trkpt lat="45.29318423640808" lon="10.486408227277753"><ele>51.0</ele><time>2026-04-04T14:14:16.974Z</time></trkpt><trkpt lat="45.293321317428756" lon="10.486444923873465"><ele>51.0</ele><time>2026-04-04T14:14:17.974Z</time></trkpt><trkpt lat="45.293447521043845" lon="10.486482930852626"><ele>51.0</ele><time>2026-04-04T14:14:18.974Z</time></trkpt><trkpt lat="45.293571616136816" lon="10.486525477291895"><ele>51.0</ele><time>2026-04-04T14:14:19.974Z</time></trkpt><trkpt lat="45.29368621252501" lon="10.486569794522076"><ele>51.0</ele><time>2026-04-04T14:14:20.974Z</time></trkpt><trkpt lat="45.2937898711681" lon="10.48660556180786"><ele>51.0</ele><time>2026-04-04T14:14:21.974Z</time></trkpt><trkpt lat="45.293891350987444" lon="10.486638804818"><ele>51.0</ele><time>2026-04-04T14:14:22.974Z</time></trkpt><trkpt lat="45.29399633664054" lon="10.486678621388247"><ele>51.0</ele><time>2026-04-04T14:14:23.974Z</time></trkpt><trkpt lat="45.294093462133304" lon="10.486715831448416"><ele>51.0</ele><time>2026-04-04T14:14:24.974Z</time></trkpt><trkpt lat="45.29418281220193" lon="10.486747708507728"><ele>51.0</ele><time>2026-04-04T14:14:25.974Z</time></trkpt><trkpt lat="45.294256221473056" lon="10.486770562144958"><ele>51.0</ele><time>2026-04-04T14:14:26.974Z</time></trkpt><trkpt lat="45.29436462293355" lon="10.486797131263579"><ele>51.0</ele><time>2026-04-04T14:14:28.974Z</time></trkpt><trkpt lat="45.29443919571884" lon="10.486843159893148"><ele>51.0</ele><time>2026-04-04T14:14:31.974Z</time></trkpt><trkpt lat="45.29447013966592" lon="10.486989385832928"><ele>51.0</ele><time>2026-04-04T14:14:33.973Z</time></trkpt><trkpt lat="45.29447412765723" lon="10.487114165161278"><ele>51.199999999999996</ele><time>2026-04-04T14:14:34.973Z</time></trkpt><trkpt lat="45.29449519453715" lon="10.487265896792982"><ele>51.4</ele><time>2026-04-04T14:14:35.973Z</time></trkpt><trkpt lat="45.294522585021134" lon="10.487417377706501"><ele>51.6</ele><time>2026-04-04T14:14:36.973Z</time></trkpt><trkpt lat="45.294552798512704" lon="10.487560470136353"><ele>51.8</ele><time>2026-04-04T14:14:37.973Z</time></trkpt><trkpt lat="45.29457803065596" lon="10.487691743864787"><ele>52.0</ele><time>2026-04-04T14:14:38.973Z</time></trkpt><trkpt lat="45.29457997780332" lon="10.48778642161172"><ele>52.0</ele><time>2026-04-04T14:14:39.973Z</time></trkpt><trkpt lat="45.29475825809533" lon="10.487831043621252"><ele>52.0</ele><time>2026-04-04T14:14:41.973Z</time></trkpt><trkpt lat="45.29486635371407" lon="10.487832300935658"><ele>52.0</ele><time>2026-04-04T14:14:42.973Z</time></trkpt><trkpt lat="45.294955562589095" lon="10.487931738659023"><ele>52.0</ele><time>2026-04-04T14:14:43.973Z</time></trkpt><trkpt lat="45.29506130914632" lon="10.48802920874057"><ele>52.75</ele><time>2026-04-04T14:14:44.973Z</time></trkpt><trkpt lat="45.295182060372646" lon="10.488114260472013"><ele>53.5</ele><time>2026-04-04T14:14:45.973Z</time></trkpt><trkpt lat="45.295298806723274" lon="10.488225549917523"><ele>54.25</ele><time>2026-04-04T14:14:46.973Z</time></trkpt><trkpt lat="45.29541342162177" lon="10.488333678058602"><ele>55.0</ele><time>2026-04-04T14:14:47.973Z</time></trkpt><trkpt lat="45.295529414744685" lon="10.488437882190683"><ele>54.25</ele><time>2026-04-04T14:14:48.973Z</time></trkpt><trkpt lat="45.2956414929211" lon="10.488543767048387"><ele>53.5</ele><time>2026-04-04T14:14:49.973Z</time></trkpt><trkpt lat="45.2957471193909" lon="10.488637506295653"><ele>52.75</ele><time>2026-04-04T14:14:50.973Z</time></trkpt><trkpt lat="45.2958516066791" lon="10.488725551573111"><ele>52.0</ele><time>2026-04-04T14:14:51.973Z</time></trkpt><trkpt lat="45.29594740712485" lon="10.488814106336577"><ele>51.6</ele><time>2026-04-04T14:14:52.973Z</time></trkpt><trkpt lat="45.296040331298826" lon="10.488896242410162"><ele>51.2</ele><time>2026-04-04T14:14:53.973Z</time></trkpt><trkpt lat="45.296115317520595" lon="10.488993962352149"><ele>50.8</ele><time>2026-04-04T14:14:54.973Z</time></trkpt><trkpt lat="45.29617177901782" lon="10.48912502384565"><ele>50.4</ele><time>2026-04-04T14:14:55.973Z</time></trkpt><trkpt lat="45.2962213774162" lon="10.489274935037871"><ele>50.0</ele><time>2026-04-04T14:14:56.973Z</time></trkpt><trkpt lat="45.29627775853115" lon="10.489425066745449"><ele>50.0</ele><time>2026-04-04T14:14:57.973Z</time></trkpt><trkpt lat="45.29634296812393" lon="10.489561178331988"><ele>50.0</ele><time>2026-04-04T14:14:58.973Z</time></trkpt><trkpt lat="45.29642577856473" lon="10.489672228602197"><ele>50.0</ele><time>2026-04-04T14:14:59.973Z</time></trkpt><trkpt lat="45.296532957640416" lon="10.489746246055695"><ele>50.0</ele><time>2026-04-04T14:15:00.973Z</time></trkpt><trkpt lat="45.29665434601212" lon="10.489810372982221"><ele>49.75</ele><time>2026-04-04T14:15:01.973Z</time></trkpt><trkpt lat="45.29678493429101" lon="10.489879406107672"><ele>49.5</ele><time>2026-04-04T14:15:02.973Z</time></trkpt><trkpt lat="45.29690884643172" lon="10.489945102238503"><ele>49.25</ele><time>2026-04-04T14:15:03.973Z</time></trkpt><trkpt lat="45.297034794084475" lon="10.49001919924608"><ele>49.0</ele><time>2026-04-04T14:15:04.973Z</time></trkpt><trkpt lat="45.29716900738316" lon="10.49009212578794"><ele>49.0</ele><time>2026-04-04T14:15:05.973Z</time></trkpt><trkpt lat="45.29729799879942" lon="10.49015935792386"><ele>49.0</ele><time>2026-04-04T14:15:06.973Z</time></trkpt><trkpt lat="45.297435978614594" lon="10.490242449195303"><ele>49.0</ele><time>2026-04-04T14:15:07.973Z</time></trkpt><trkpt lat="45.297568373954036" lon="10.490317027789736"><ele>49.0</ele><time>2026-04-04T14:15:08.973Z</time></trkpt><trkpt lat="45.297699103862584" lon="10.490393732417639"><ele>49.5</ele><time>2026-04-04T14:15:09.973Z</time></trkpt><trkpt lat="45.29782648978002" lon="10.490467465344889"><ele>50.0</ele><time>2026-04-04T14:15:10.973Z</time></trkpt><trkpt lat="45.297958254989624" lon="10.490545075690545"><ele>50.5</ele><time>2026-04-04T14:15:11.973Z</time></trkpt><trkpt lat="45.298087775140615" lon="10.490621931643602"><ele>51.0</ele><time>2026-04-04T14:15:12.973Z</time></trkpt><trkpt lat="45.29821592243718" lon="10.490697566947183"><ele>51.0</ele><time>2026-04-04T14:15:13.973Z</time></trkpt><trkpt lat="45.29833717122338" lon="10.490770597123404"><ele>51.0</ele><time>2026-04-04T14:15:14.973Z</time></trkpt><trkpt lat="45.29845941767694" lon="10.490829601701005"><ele>51.0</ele><time>2026-04-04T14:15:15.973Z</time></trkpt><trkpt lat="45.29856936130051" lon="10.490914012310235"><ele>51.0</ele><time>2026-04-04T14:15:16.973Z</time></trkpt><trkpt lat="45.29868371897344" lon="10.49099381474992"><ele>51.0</ele><time>2026-04-04T14:15:17.973Z</time></trkpt><trkpt lat="45.298808113995705" lon="10.491071362713074"><ele>51.0</ele><time>2026-04-04T14:15:18.973Z</time></trkpt><trkpt lat="45.29893217045518" lon="10.491144703399254"><ele>51.0</ele><time>2026-04-04T14:15:19.973Z</time></trkpt><trkpt lat="45.29906178580972" lon="10.491220818030127"><ele>51.0</ele><time>2026-04-04T14:15:20.975Z</time></trkpt><trkpt lat="45.299194805632354" lon="10.49128450061298"><ele>51.0</ele><time>2026-04-04T14:15:21.975Z</time></trkpt><trkpt lat="45.2993246737034" lon="10.49133730955712"><ele>51.0</ele><time>2026-04-04T14:15:22.975Z</time></trkpt><trkpt lat="45.29947584503244" lon="10.491397737160607"><ele>51.0</ele><time>2026-04-04T14:15:23.975Z</time></trkpt><trkpt lat="45.29962699449814" lon="10.491450137923247"><ele>51.0</ele><time>2026-04-04T14:15:24.975Z</time></trkpt><trkpt lat="45.29975084833891" lon="10.491488321840476"><ele>51.0</ele><time>2026-04-04T14:15:25.975Z</time></trkpt><trkpt lat="45.29985782025655" lon="10.49151056823468"><ele>51.0</ele><time>2026-04-04T14:15:26.975Z</time></trkpt><trkpt lat="45.29995747642481" lon="10.49154043491577"><ele>51.0</ele><time>2026-04-04T14:15:27.975Z</time></trkpt><trkpt lat="45.30004315550547" lon="10.491567672484306"><ele>51.0</ele><time>2026-04-04T14:15:28.975Z</time></trkpt><trkpt lat="45.300119795077364" lon="10.491586458523589"><ele>51.0</ele><time>2026-04-04T14:15:29.975Z</time></trkpt><trkpt lat="45.30018607402773" lon="10.491604866502847"><ele>51.0</ele><time>2026-04-04T14:15:30.975Z</time></trkpt><trkpt lat="45.300267667346326" lon="10.49166201972025"><ele>51.0</ele><time>2026-04-04T14:15:32.974Z</time></trkpt><trkpt lat="45.30029305357665" lon="10.491857307877543"><ele>51.0</ele><time>2026-04-04T14:15:34.975Z</time></trkpt><trkpt lat="45.300307827550675" lon="10.491997668945016"><ele>51.0</ele><time>2026-04-04T14:15:35.975Z</time></trkpt><trkpt lat="45.300338476215614" lon="10.492146576234104"><ele>51.0</ele><time>2026-04-04T14:15:36.975Z</time></trkpt><trkpt lat="45.30034603739593" lon="10.492358233010274"><ele>51.0</ele><time>2026-04-04T14:15:37.975Z</time></trkpt><trkpt lat="45.3003683270427" lon="10.492554369607383"><ele>51.0</ele><time>2026-04-04T14:15:38.975Z</time></trkpt><trkpt lat="45.300408788907035" lon="10.49276064828798"><ele>51.0</ele><time>2026-04-04T14:15:39.974Z</time></trkpt><trkpt lat="45.300478293237006" lon="10.492981218140297"><ele>50.66666666666667</ele><time>2026-04-04T14:15:40.974Z</time></trkpt><trkpt lat="45.300557739119114" lon="10.493215867890813"><ele>50.333333333333336</ele><time>2026-04-04T14:15:41.974Z</time></trkpt><trkpt lat="45.300625628322486" lon="10.493445887120645"><ele>50.0</ele><time>2026-04-04T14:15:42.974Z</time></trkpt><trkpt lat="45.30068346898291" lon="10.493659764101846"><ele>50.333333333333336</ele><time>2026-04-04T14:15:43.974Z</time></trkpt><trkpt lat="45.300760053245654" lon="10.493871312575722"><ele>50.66666666666667</ele><time>2026-04-04T14:15:44.974Z</time></trkpt><trkpt lat="45.30083854128592" lon="10.494076744804472"><ele>51.0</ele><time>2026-04-04T14:15:45.974Z</time></trkpt><trkpt lat="45.300929116752094" lon="10.494255258882136"><ele>51.0</ele><time>2026-04-04T14:15:46.974Z</time></trkpt><trkpt lat="45.3009993096927" lon="10.494417618164045"><ele>51.0</ele><time>2026-04-04T14:15:47.974Z</time></trkpt><trkpt lat="45.301058202657224" lon="10.494576923123065"><ele>51.0</ele><time>2026-04-04T14:15:48.974Z</time></trkpt><trkpt lat="45.30110925585682" lon="10.49474343264759"><ele>51.0</ele><time>2026-04-04T14:15:49.974Z</time></trkpt><trkpt lat="45.30115221823645" lon="10.494914386132985"><ele>51.0</ele><time>2026-04-04T14:15:50.974Z</time></trkpt><trkpt lat="45.30118540476838" lon="10.495065496357801"><ele>51.0</ele><time>2026-04-04T14:15:51.974Z</time></trkpt><trkpt lat="45.301221554583336" lon="10.495200337110035"><ele>51.0</ele><time>2026-04-04T14:15:52.974Z</time></trkpt><trkpt lat="45.30125926154139" lon="10.49532431726226"><ele>51.0</ele><time>2026-04-04T14:15:53.974Z</time></trkpt><trkpt lat="45.30130172650681" lon="10.495435879110337"><ele>51.0</ele><time>2026-04-04T14:15:54.974Z</time></trkpt><trkpt lat="45.30134755600203" lon="10.495517982647037"><ele>51.4</ele><time>2026-04-04T14:15:55.974Z</time></trkpt><trkpt lat="45.30144196657723" lon="10.495569921458062"><ele>51.8</ele><time>2026-04-04T14:15:56.974Z</time></trkpt><trkpt lat="45.30154633476927" lon="10.495598156578756"><ele>52.199999999999996</ele><time>2026-04-04T14:15:57.974Z</time></trkpt><trkpt lat="45.30165998685707" lon="10.495631505787541"><ele>52.599999999999994</ele><time>2026-04-04T14:15:58.974Z</time></trkpt><trkpt lat="45.30177470081492" lon="10.495661929850238"><ele>53.0</ele><time>2026-04-04T14:15:59.974Z</time></trkpt><trkpt lat="45.301893110658135" lon="10.495708246677252"><ele>53.0</ele><time>2026-04-04T14:16:00.974Z</time></trkpt><trkpt lat="45.30200729534856" lon="10.495738140579302"><ele>53.0</ele><time>2026-04-04T14:16:01.974Z</time></trkpt><trkpt lat="45.30212836568656" lon="10.495779296959862"><ele>53.0</ele><time>2026-04-04T14:16:02.974Z</time></trkpt><trkpt lat="45.30224970630203" lon="10.495820595535301"><ele>53.0</ele><time>2026-04-04T14:16:03.974Z</time></trkpt><trkpt lat="45.30236294030054" lon="10.495857288674747"><ele>52.75</ele><time>2026-04-04T14:16:04.974Z</time></trkpt><trkpt lat="45.302502399342984" lon="10.495920679351778"><ele>52.5</ele><time>2026-04-04T14:16:05.974Z</time></trkpt><trkpt lat="45.302640293836674" lon="10.495971590129164"><ele>52.25</ele><time>2026-04-04T14:16:06.974Z</time></trkpt><trkpt lat="45.302776558808056" lon="10.496032044158538"><ele>52.0</ele><time>2026-04-04T14:16:07.974Z</time></trkpt><trkpt lat="45.30290205425654" lon="10.496083961550962"><ele>52.0</ele><time>2026-04-04T14:16:08.974Z</time></trkpt><trkpt lat="45.30301531397914" lon="10.496121365265035"><ele>52.0</ele><time>2026-04-04T14:16:09.974Z</time></trkpt><trkpt lat="45.30311960098671" lon="10.496165597330277"><ele>52.0</ele><time>2026-04-04T14:16:10.974Z</time></trkpt><trkpt lat="45.30322379669013" lon="10.496209250560883"><ele>52.0</ele><time>2026-04-04T14:16:11.974Z</time></trkpt><trkpt lat="45.30332338514412" lon="10.49624863582385"><ele>52.0</ele><time>2026-04-04T14:16:12.974Z</time></trkpt><trkpt lat="45.30341245634897" lon="10.496290751595442"><ele>52.0</ele><time>2026-04-04T14:16:13.974Z</time></trkpt><trkpt lat="45.30349060545421" lon="10.496326191583874"><ele>52.0</ele><time>2026-04-04T14:16:14.974Z</time></trkpt><trkpt lat="45.30357051787388" lon="10.496358074723654"><ele>52.0</ele><time>2026-04-04T14:16:15.974Z</time></trkpt><trkpt lat="45.303673799379546" lon="10.496385666824722"><ele>52.0</ele><time>2026-04-04T14:16:16.974Z</time></trkpt><trkpt lat="45.30379544011642" lon="10.496435173078675"><ele>52.0</ele><time>2026-04-04T14:16:17.974Z</time></trkpt><trkpt lat="45.30392511632317" lon="10.496479104057885"><ele>51.75</ele><time>2026-04-04T14:16:18.974Z</time></trkpt><trkpt lat="45.30406303586275" lon="10.496518668657218"><ele>51.5</ele><time>2026-04-04T14:16:19.974Z</time></trkpt><trkpt lat="45.30420817807828" lon="10.496562494321157"><ele>51.25</ele><time>2026-04-04T14:16:20.974Z</time></trkpt><trkpt lat="45.304353161564116" lon="10.496636317531536"><ele>51.0</ele><time>2026-04-04T14:16:21.974Z</time></trkpt><trkpt lat="45.30450039835406" lon="10.496685398416782"><ele>51.0</ele><time>2026-04-04T14:16:22.974Z</time></trkpt><trkpt lat="45.304645390408844" lon="10.496741878323128"><ele>51.0</ele><time>2026-04-04T14:16:23.974Z</time></trkpt><trkpt lat="45.30479547506977" lon="10.496815691663306"><ele>51.0</ele><time>2026-04-04T14:16:24.974Z</time></trkpt><trkpt lat="45.3049405886198" lon="10.496892986157231"><ele>51.0</ele><time>2026-04-04T14:16:25.974Z</time></trkpt><trkpt lat="45.30509226500094" lon="10.496974717154528"><ele>51.0</ele><time>2026-04-04T14:16:26.974Z</time></trkpt><trkpt lat="45.30524683879546" lon="10.497058010048079"><ele>51.0</ele><time>2026-04-04T14:16:27.974Z</time></trkpt><trkpt lat="45.30540060095716" lon="10.497140037058013"><ele>50.66666666666667</ele><time>2026-04-04T14:16:28.974Z</time></trkpt><trkpt lat="45.30555137370469" lon="10.497218056749574"><ele>50.333333333333336</ele><time>2026-04-04T14:16:29.973Z</time></trkpt><trkpt lat="45.30570768892725" lon="10.497301930269586"><ele>50.0</ele><time>2026-04-04T14:16:30.973Z</time></trkpt><trkpt lat="45.30585610501802" lon="10.497382882906141"><ele>50.0</ele><time>2026-04-04T14:16:31.973Z</time></trkpt><trkpt lat="45.305996324571126" lon="10.49745894847649"><ele>50.0</ele><time>2026-04-04T14:16:32.973Z</time></trkpt><trkpt lat="45.30613296136749" lon="10.497532495663876"><ele>50.0</ele><time>2026-04-04T14:16:33.973Z</time></trkpt><trkpt lat="45.30626510170704" lon="10.497602138684126"><ele>50.0</ele><time>2026-04-04T14:16:34.973Z</time></trkpt><trkpt lat="45.30638069507963" lon="10.497663060716297"><ele>50.0</ele><time>2026-04-04T14:16:35.973Z</time></trkpt><trkpt lat="45.30648588472262" lon="10.497718605335361"><ele>50.0</ele><time>2026-04-04T14:16:36.973Z</time></trkpt><trkpt lat="45.30658250467185" lon="10.49777008206585"><ele>50.0</ele><time>2026-04-04T14:16:37.973Z</time></trkpt><trkpt lat="45.30666097904702" lon="10.49781378374214"><ele>50.0</ele><time>2026-04-04T14:16:38.973Z</time></trkpt><trkpt lat="45.30669817345808" lon="10.49789262285817"><ele>50.0</ele><time>2026-04-04T14:16:39.973Z</time></trkpt><trkpt lat="45.306680086707914" lon="10.498051009962085"><ele>50.0</ele><time>2026-04-04T14:16:41.973Z</time></trkpt><trkpt lat="45.30666526673753" lon="10.4981491810269"><ele>50.0</ele><time>2026-04-04T14:16:42.973Z</time></trkpt><trkpt lat="45.30664629835001" lon="10.498282368189322"><ele>50.0</ele><time>2026-04-04T14:16:43.973Z</time></trkpt><trkpt lat="45.30662966789536" lon="10.498427811854818"><ele>50.0</ele><time>2026-04-04T14:16:44.973Z</time></trkpt><trkpt lat="45.30661274115298" lon="10.498575435736194"><ele>50.0</ele><time>2026-04-04T14:16:45.973Z</time></trkpt><trkpt lat="45.30661177723726" lon="10.498728074443324"><ele>50.6</ele><time>2026-04-04T14:16:46.973Z</time></trkpt><trkpt lat="45.30657892295059" lon="10.498873433592985"><ele>51.2</ele><time>2026-04-04T14:16:47.973Z</time></trkpt><trkpt lat="45.306560746853535" lon="10.499020505982818"><ele>51.8</ele><time>2026-04-04T14:16:48.973Z</time></trkpt><trkpt lat="45.30654193888362" lon="10.499173096018179"><ele>52.4</ele><time>2026-04-04T14:16:49.973Z</time></trkpt><trkpt lat="45.306522380160494" lon="10.49933177704447"><ele>53.0</ele><time>2026-04-04T14:16:50.973Z</time></trkpt><trkpt lat="45.306501941716284" lon="10.499497595167448"><ele>52.5</ele><time>2026-04-04T14:16:51.973Z</time></trkpt><trkpt lat="45.30649614707531" lon="10.499673387419275"><ele>52.0</ele><time>2026-04-04T14:16:52.973Z</time></trkpt><trkpt lat="45.30647484375997" lon="10.499842362316882"><ele>51.5</ele><time>2026-04-04T14:16:53.973Z</time></trkpt><trkpt lat="45.30643956648099" lon="10.500014589386796"><ele>51.0</ele><time>2026-04-04T14:16:54.973Z</time></trkpt><trkpt lat="45.30641946407777" lon="10.50018271997098"><ele>51.0</ele><time>2026-04-04T14:16:55.973Z</time></trkpt><trkpt lat="45.30640176596891" lon="10.500332614085174"><ele>51.0</ele><time>2026-04-04T14:16:56.973Z</time></trkpt><trkpt lat="45.30639478455628" lon="10.50047100202866"><ele>51.0</ele><time>2026-04-04T14:16:57.973Z</time></trkpt><trkpt lat="45.306377731120705" lon="10.500583469249653"><ele>51.0</ele><time>2026-04-04T14:16:58.973Z</time></trkpt><trkpt lat="45.30635689539124" lon="10.500698286456425"><ele>51.0</ele><time>2026-04-04T14:16:59.973Z</time></trkpt><trkpt lat="45.30634050829078" lon="10.500789047346894"><ele>51.0</ele><time>2026-04-04T14:17:00.973Z</time></trkpt><trkpt lat="45.306315915177734" lon="10.50089267083443"><ele>51.199999999999996</ele><time>2026-04-04T14:17:02.973Z</time></trkpt><trkpt lat="45.30633098826595" lon="10.500984025647762"><ele>51.4</ele><time>2026-04-04T14:17:04.973Z</time></trkpt><trkpt lat="45.306451801500785" lon="10.501159412006922"><ele>51.6</ele><time>2026-04-04T14:17:06.973Z</time></trkpt><trkpt lat="45.30653305528507" lon="10.501178757494934"><ele>51.8</ele><time>2026-04-04T14:17:07.973Z</time></trkpt><trkpt lat="45.306636379515005" lon="10.501204927146631"><ele>52.0</ele><time>2026-04-04T14:17:08.973Z</time></trkpt><trkpt lat="45.306753813584756" lon="10.501234670462015"><ele>52.25</ele><time>2026-04-04T14:17:09.973Z</time></trkpt><trkpt lat="45.30688693645191" lon="10.501272032438962"><ele>52.5</ele><time>2026-04-04T14:17:10.973Z</time></trkpt><trkpt lat="45.30701815274437" lon="10.501281999271002"><ele>52.75</ele><time>2026-04-04T14:17:11.973Z</time></trkpt><trkpt lat="45.3071509180518" lon="10.50132347732009"><ele>53.0</ele><time>2026-04-04T14:17:12.973Z</time></trkpt><trkpt lat="45.30727652910399" lon="10.50135367062824"><ele>53.0</ele><time>2026-04-04T14:17:13.973Z</time></trkpt><trkpt lat="45.30740843256306" lon="10.501389248918604"><ele>53.0</ele><time>2026-04-04T14:17:14.973Z</time></trkpt><trkpt lat="45.30753586482232" lon="10.501425877480965"><ele>53.0</ele><time>2026-04-04T14:17:15.973Z</time></trkpt><trkpt lat="45.30765422467628" lon="10.501470056884262"><ele>53.0</ele><time>2026-04-04T14:17:16.973Z</time></trkpt><trkpt lat="45.307767651671185" lon="10.501517786416354"><ele>53.0</ele><time>2026-04-04T14:17:17.973Z</time></trkpt><trkpt lat="45.30789437011274" lon="10.501592540135807"><ele>53.0</ele><time>2026-04-04T14:17:18.973Z</time></trkpt><trkpt lat="45.30804373692674" lon="10.501670664306811"><ele>53.0</ele><time>2026-04-04T14:17:19.972Z</time></trkpt><trkpt lat="45.30818716852749" lon="10.501758882620766"><ele>52.66666666666667</ele><time>2026-04-04T14:17:20.972Z</time></trkpt><trkpt lat="45.30832840043928" lon="10.50183639479725"><ele>52.33333333333333</ele><time>2026-04-04T14:17:21.972Z</time></trkpt><trkpt lat="45.3084716353371" lon="10.501906122930743"><ele>52.0</ele><time>2026-04-04T14:17:22.972Z</time></trkpt><trkpt lat="45.308614661829665" lon="10.501972225844707"><ele>52.0</ele><time>2026-04-04T14:17:23.972Z</time></trkpt><trkpt lat="45.30875566026773" lon="10.502044656281917"><ele>52.0</ele><time>2026-04-04T14:17:24.972Z</time></trkpt><trkpt lat="45.3089003729798" lon="10.502117618180666"><ele>52.0</ele><time>2026-04-04T14:17:25.972Z</time></trkpt><trkpt lat="45.30904666420423" lon="10.502187385382275"><ele>52.0</ele><time>2026-04-04T14:17:26.976Z</time></trkpt><trkpt lat="45.30918957826348" lon="10.502251086296916"><ele>52.0</ele><time>2026-04-04T14:17:27.975Z</time></trkpt><trkpt lat="45.30933679808716" lon="10.502319766983343"><ele>52.0</ele><time>2026-04-04T14:17:28.975Z</time></trkpt><trkpt lat="45.309482112658905" lon="10.502383596872361"><ele>52.0</ele><time>2026-04-04T14:17:29.976Z</time></trkpt><trkpt lat="45.309631515359015" lon="10.502452952322763"><ele>52.0</ele><time>2026-04-04T14:17:30.976Z</time></trkpt><trkpt lat="45.30977981851763" lon="10.502519232812428"><ele>52.0</ele><time>2026-04-04T14:17:31.976Z</time></trkpt><trkpt lat="45.30992781446869" lon="10.502583454389564"><ele>52.0</ele><time>2026-04-04T14:17:32.976Z</time></trkpt><trkpt lat="45.3100804155104" lon="10.502651495270344"><ele>52.0</ele><time>2026-04-04T14:17:33.976Z</time></trkpt><trkpt lat="45.310228385709344" lon="10.502718681768007"><ele>52.0</ele><time>2026-04-04T14:17:34.976Z</time></trkpt><trkpt lat="45.310379812791446" lon="10.502782654204124"><ele>52.0</ele><time>2026-04-04T14:17:35.976Z</time></trkpt><trkpt lat="45.31052834204433" lon="10.502846700813297"><ele>52.0</ele><time>2026-04-04T14:17:36.976Z</time></trkpt><trkpt lat="45.31067585242363" lon="10.502911580442506"><ele>52.0</ele><time>2026-04-04T14:17:37.976Z</time></trkpt><trkpt lat="45.31082606553861" lon="10.50297968725131"><ele>51.666666666666664</ele><time>2026-04-04T14:17:38.976Z</time></trkpt><trkpt lat="45.310977120066475" lon="10.503046994817"><ele>51.33333333333333</ele><time>2026-04-04T14:17:39.976Z</time></trkpt><trkpt lat="45.31112730173994" lon="10.503113141539716"><ele>51.0</ele><time>2026-04-04T14:17:40.976Z</time></trkpt><trkpt lat="45.3112767727049" lon="10.503177649150045"><ele>51.33333333333333</ele><time>2026-04-04T14:17:41.976Z</time></trkpt><trkpt lat="45.31142749700585" lon="10.503242951982596"><ele>51.666666666666664</ele><time>2026-04-04T14:17:42.976Z</time></trkpt><trkpt lat="45.31157763887285" lon="10.5033066223593"><ele>52.0</ele><time>2026-04-04T14:17:43.976Z</time></trkpt><trkpt lat="45.311728878851135" lon="10.50337044260518"><ele>52.0</ele><time>2026-04-04T14:17:44.976Z</time></trkpt><trkpt lat="45.31187816400634" lon="10.503435340699818"><ele>52.0</ele><time>2026-04-04T14:17:45.976Z</time></trkpt><trkpt lat="45.31202646538953" lon="10.503501229067787"><ele>52.0</ele><time>2026-04-04T14:17:46.976Z</time></trkpt><trkpt lat="45.3121744882991" lon="10.503564620368616"><ele>51.666666666666664</ele><time>2026-04-04T14:17:47.976Z</time></trkpt><trkpt lat="45.31232324772264" lon="10.503629120618239"><ele>51.33333333333333</ele><time>2026-04-04T14:17:48.976Z</time></trkpt><trkpt lat="45.312476371610536" lon="10.503693619937396"><ele>51.0</ele><time>2026-04-04T14:17:49.976Z</time></trkpt><trkpt lat="45.3126287375352" lon="10.503760565319318"><ele>51.33333333333333</ele><time>2026-04-04T14:17:50.976Z</time></trkpt><trkpt lat="45.3127816933681" lon="10.503828410680443"><ele>51.666666666666664</ele><time>2026-04-04T14:17:51.976Z</time></trkpt><trkpt lat="45.3129345902424" lon="10.50389265697456"><ele>52.0</ele><time>2026-04-04T14:17:52.976Z</time></trkpt><trkpt lat="45.313086658459795" lon="10.503956346075958"><ele>52.0</ele><time>2026-04-04T14:17:53.976Z</time></trkpt><trkpt lat="45.313235701590045" lon="10.504019894842882"><ele>52.0</ele><time>2026-04-04T14:17:54.976Z</time></trkpt><trkpt lat="45.313385885020644" lon="10.504085222207284"><ele>52.0</ele><time>2026-04-04T14:17:55.975Z</time></trkpt><trkpt lat="45.313533014808456" lon="10.50414755190688"><ele>52.0</ele><time>2026-04-04T14:17:56.975Z</time></trkpt><trkpt lat="45.31367950860781" lon="10.504208948133169"><ele>52.0</ele><time>2026-04-04T14:17:57.975Z</time></trkpt><trkpt lat="45.3138197837891" lon="10.504268631018869"><ele>52.0</ele><time>2026-04-04T14:17:58.975Z</time></trkpt><trkpt lat="45.31395499303391" lon="10.504319968140019"><ele>52.0</ele><time>2026-04-04T14:17:59.975Z</time></trkpt><trkpt lat="45.31408199280064" lon="10.504362128099908"><ele>52.6</ele><time>2026-04-04T14:18:00.975Z</time></trkpt><trkpt lat="45.31419536640098" lon="10.504396699007453"><ele>53.2</ele><time>2026-04-04T14:18:01.975Z</time></trkpt><trkpt lat="45.31429749823849" lon="10.504429215339849"><ele>53.8</ele><time>2026-04-04T14:18:02.975Z</time></trkpt><trkpt lat="45.31438781557158" lon="10.50445823767481"><ele>54.4</ele><time>2026-04-04T14:18:03.975Z</time></trkpt><trkpt lat="45.314464586110844" lon="10.504479281629049"><ele>55.0</ele><time>2026-04-04T14:18:04.975Z</time></trkpt><trkpt lat="45.314557528512566" lon="10.504512966361862"><ele>55.0</ele><time>2026-04-04T14:18:06.975Z</time></trkpt><trkpt lat="45.3145640466453" lon="10.504909716335781"><ele>55.0</ele><time>2026-04-04T14:18:12.975Z</time></trkpt><trkpt lat="45.314586991888575" lon="10.504999158481578"><ele>55.0</ele><time>2026-04-04T14:18:13.975Z</time></trkpt><trkpt lat="45.31462676487753" lon="10.50509556899737"><ele>55.0</ele><time>2026-04-04T14:18:14.975Z</time></trkpt><trkpt lat="45.31468638641733" lon="10.505194410927613"><ele>55.25</ele><time>2026-04-04T14:18:15.975Z</time></trkpt><trkpt lat="45.31475482294582" lon="10.505308526184953"><ele>55.5</ele><time>2026-04-04T14:18:16.975Z</time></trkpt><trkpt lat="45.3148250283653" lon="10.505437308583675"><ele>55.75</ele><time>2026-04-04T14:18:17.975Z</time></trkpt><trkpt lat="45.31489656479492" lon="10.505570208530147"><ele>56.0</ele><time>2026-04-04T14:18:18.975Z</time></trkpt><trkpt lat="45.31497275473289" lon="10.505710741032173"><ele>56.25</ele><time>2026-04-04T14:18:19.975Z</time></trkpt><trkpt lat="45.31505072721992" lon="10.505852235707817"><ele>56.5</ele><time>2026-04-04T14:18:20.975Z</time></trkpt><trkpt lat="45.31512985140148" lon="10.505997955957918"><ele>56.75</ele><time>2026-04-04T14:18:21.975Z</time></trkpt><trkpt lat="45.31521071177798" lon="10.506144886281236"><ele>57.0</ele><time>2026-04-04T14:18:22.975Z</time></trkpt><trkpt lat="45.31528823424246" lon="10.506294933380465"><ele>56.25</ele><time>2026-04-04T14:18:23.975Z</time></trkpt><trkpt lat="45.31536693576627" lon="10.506442895895246"><ele>55.5</ele><time>2026-04-04T14:18:24.975Z</time></trkpt><trkpt lat="45.315442053981066" lon="10.506579575911571"><ele>54.75</ele><time>2026-04-04T14:18:25.975Z</time></trkpt><trkpt lat="45.31551851011832" lon="10.50671983150994"><ele>54.0</ele><time>2026-04-04T14:18:26.975Z</time></trkpt><trkpt lat="45.31559226139394" lon="10.506855599223258"><ele>54.0</ele><time>2026-04-04T14:18:27.975Z</time></trkpt><trkpt lat="45.31566442384337" lon="10.506983365876913"><ele>54.00000000000001</ele><time>2026-04-04T14:18:28.975Z</time></trkpt><trkpt lat="45.315725593749924" lon="10.507095593816766"><ele>54.00000000000001</ele><time>2026-04-04T14:18:29.975Z</time></trkpt><trkpt lat="45.31578805825055" lon="10.50721974875807"><ele>54.0</ele><time>2026-04-04T14:18:30.975Z</time></trkpt><trkpt lat="45.315844303684855" lon="10.507359980590218"><ele>54.0</ele><time>2026-04-04T14:18:31.975Z</time></trkpt><trkpt lat="45.31592063623853" lon="10.507501780487415"><ele>53.5</ele><time>2026-04-04T14:18:32.975Z</time></trkpt><trkpt lat="45.316011289763246" lon="10.507639706586884"><ele>53.0</ele><time>2026-04-04T14:18:33.975Z</time></trkpt><trkpt lat="45.3161008165366" lon="10.507785813650159"><ele>52.5</ele><time>2026-04-04T14:18:34.975Z</time></trkpt><trkpt lat="45.31618071332541" lon="10.507934388406028"><ele>52.0</ele><time>2026-04-04T14:18:35.975Z</time></trkpt><trkpt lat="45.31626124320242" lon="10.508090092821606"><ele>52.0</ele><time>2026-04-04T14:18:36.975Z</time></trkpt><trkpt lat="45.31634729077912" lon="10.508243685080751"><ele>52.0</ele><time>2026-04-04T14:18:37.975Z</time></trkpt><trkpt lat="45.31643054662014" lon="10.508397654923101"><ele>52.0</ele><time>2026-04-04T14:18:38.975Z</time></trkpt><trkpt lat="45.316513667704676" lon="10.508554166191894"><ele>52.0</ele><time>2026-04-04T14:18:39.975Z</time></trkpt><trkpt lat="45.31659273181086" lon="10.508706855406656"><ele>52.25</ele><time>2026-04-04T14:18:40.975Z</time></trkpt><trkpt lat="45.316679288227164" lon="10.508865201962244"><ele>52.5</ele><time>2026-04-04T14:18:41.975Z</time></trkpt><trkpt lat="45.316760378997955" lon="10.509016095724062"><ele>52.75</ele><time>2026-04-04T14:18:42.975Z</time></trkpt><trkpt lat="45.31684276446622" lon="10.509161339386187"><ele>53.0</ele><time>2026-04-04T14:18:43.975Z</time></trkpt><trkpt lat="45.31691527851355" lon="10.509311206182593"><ele>53.0</ele><time>2026-04-04T14:18:44.975Z</time></trkpt><trkpt lat="45.3169885202905" lon="10.509458222242406"><ele>53.0</ele><time>2026-04-04T14:18:45.974Z</time></trkpt><trkpt lat="45.31704740023731" lon="10.509623987973237"><ele>53.0</ele><time>2026-04-04T14:18:46.974Z</time></trkpt><trkpt lat="45.317085100926214" lon="10.509810490309215"><ele>53.0</ele><time>2026-04-04T14:18:47.974Z</time></trkpt><trkpt lat="45.317105380703595" lon="10.51000082436787"><ele>53.5</ele><time>2026-04-04T14:18:48.974Z</time></trkpt><trkpt lat="45.31711103682592" lon="10.510200442172124"><ele>54.0</ele><time>2026-04-04T14:18:49.974Z</time></trkpt><trkpt lat="45.317096293857595" lon="10.510397284978943"><ele>54.5</ele><time>2026-04-04T14:18:50.974Z</time></trkpt><trkpt lat="45.31707879357929" lon="10.510597253634002"><ele>55.0</ele><time>2026-04-04T14:18:51.974Z</time></trkpt><trkpt lat="45.3170684287667" lon="10.510790293680778"><ele>55.0</ele><time>2026-04-04T14:18:52.974Z</time></trkpt><trkpt lat="45.31706570620685" lon="10.510999863702278"><ele>55.0</ele><time>2026-04-04T14:18:53.974Z</time></trkpt><trkpt lat="45.31706266214688" lon="10.511207711848261"><ele>55.0</ele><time>2026-04-04T14:18:54.974Z</time></trkpt><trkpt lat="45.31705400404709" lon="10.511422107415632"><ele>55.0</ele><time>2026-04-04T14:18:55.974Z</time></trkpt><trkpt lat="45.31704279199395" lon="10.511638452505824"><ele>54.33333333333333</ele><time>2026-04-04T14:18:56.974Z</time></trkpt><trkpt lat="45.31702992913921" lon="10.511853311543367"><ele>53.66666666666667</ele><time>2026-04-04T14:18:57.974Z</time></trkpt><trkpt lat="45.31702125887712" lon="10.512071880839073"><ele>53.0</ele><time>2026-04-04T14:18:58.974Z</time></trkpt><trkpt lat="45.31700748587709" lon="10.512290821011192"><ele>53.0</ele><time>2026-04-04T14:18:59.974Z</time></trkpt><trkpt lat="45.31699142072425" lon="10.512501842201734"><ele>53.0</ele><time>2026-04-04T14:19:00.974Z</time></trkpt><trkpt lat="45.31697869734704" lon="10.512708957187394"><ele>53.0</ele><time>2026-04-04T14:19:01.974Z</time></trkpt><trkpt lat="45.316973193650426" lon="10.512919163604444"><ele>53.0</ele><time>2026-04-04T14:19:02.974Z</time></trkpt><trkpt lat="45.316964320463434" lon="10.513148226182569"><ele>53.0</ele><time>2026-04-04T14:19:03.974Z</time></trkpt><trkpt lat="45.31695258061226" lon="10.51336900025253"><ele>53.0</ele><time>2026-04-04T14:19:04.974Z</time></trkpt><trkpt lat="45.316942521763146" lon="10.513589078873055"><ele>53.0</ele><time>2026-04-04T14:19:05.974Z</time></trkpt><trkpt lat="45.31693257185398" lon="10.5138080724179"><ele>53.25</ele><time>2026-04-04T14:19:06.974Z</time></trkpt><trkpt lat="45.31692082743719" lon="10.514027851923647"><ele>53.5</ele><time>2026-04-04T14:19:07.974Z</time></trkpt><trkpt lat="45.316910077252146" lon="10.514239681333125"><ele>53.75</ele><time>2026-04-04T14:19:08.974Z</time></trkpt><trkpt lat="45.3169003773881" lon="10.514443309444024"><ele>54.0</ele><time>2026-04-04T14:19:09.974Z</time></trkpt><trkpt lat="45.31688962862818" lon="10.514647026712248"><ele>54.0</ele><time>2026-04-04T14:19:10.974Z</time></trkpt><trkpt lat="45.31688021909013" lon="10.514853227081188"><ele>54.0</ele><time>2026-04-04T14:19:11.974Z</time></trkpt><trkpt lat="45.316871222418825" lon="10.515052386300903"><ele>54.0</ele><time>2026-04-04T14:19:12.974Z</time></trkpt><trkpt lat="45.316861902401065" lon="10.515251594500965"><ele>54.0</ele><time>2026-04-04T14:19:13.974Z</time></trkpt><trkpt lat="45.31685132312309" lon="10.515447816959295"><ele>54.0</ele><time>2026-04-04T14:19:14.974Z</time></trkpt><trkpt lat="45.316841412492444" lon="10.515649101233377"><ele>54.0</ele><time>2026-04-04T14:19:15.975Z</time></trkpt><trkpt lat="45.31683128151119" lon="10.515854814091885"><ele>54.0</ele><time>2026-04-04T14:19:16.975Z</time></trkpt><trkpt lat="45.31682043243235" lon="10.516050131936742"><ele>54.0</ele><time>2026-04-04T14:19:17.975Z</time></trkpt><trkpt lat="45.31681006548848" lon="10.516243440168497"><ele>54.0</ele><time>2026-04-04T14:19:18.975Z</time></trkpt><trkpt lat="45.31680131611853" lon="10.516438928460353"><ele>54.0</ele><time>2026-04-04T14:19:19.975Z</time></trkpt><trkpt lat="45.31679169856943" lon="10.516637527917895"><ele>54.0</ele><time>2026-04-04T14:19:20.976Z</time></trkpt><trkpt lat="45.31678261275647" lon="10.516824828821534"><ele>54.0</ele><time>2026-04-04T14:19:21.976Z</time></trkpt><trkpt lat="45.31677372342646" lon="10.51699160215298"><ele>54.2</ele><time>2026-04-04T14:19:22.976Z</time></trkpt><trkpt lat="45.31676599553234" lon="10.517140537719854"><ele>54.400000000000006</ele><time>2026-04-04T14:19:23.976Z</time></trkpt><trkpt lat="45.31675729776876" lon="10.517269678441721"><ele>54.6</ele><time>2026-04-04T14:19:24.976Z</time></trkpt><trkpt lat="45.31675083486267" lon="10.517368255521534"><ele>54.8</ele><time>2026-04-04T14:19:25.976Z</time></trkpt><trkpt lat="45.31676515003116" lon="10.517495272791486"><ele>55.0</ele><time>2026-04-04T14:19:27.976Z</time></trkpt><trkpt lat="45.31689504243492" lon="10.517588434280068"><ele>55.0</ele><time>2026-04-04T14:19:29.977Z</time></trkpt><trkpt lat="45.31698754288591" lon="10.517636030359348"><ele>55.0</ele><time>2026-04-04T14:19:30.977Z</time></trkpt><trkpt lat="45.31708385889918" lon="10.517713222586634"><ele>55.0</ele><time>2026-04-04T14:19:31.977Z</time></trkpt><trkpt lat="45.31718053706125" lon="10.517803015669468"><ele>55.0</ele><time>2026-04-04T14:19:32.98Z</time></trkpt><trkpt lat="45.317287269823325" lon="10.517897508683898"><ele>55.25</ele><time>2026-04-04T14:19:33.98Z</time></trkpt><trkpt lat="45.31738971399186" lon="10.517994674146212"><ele>55.5</ele><time>2026-04-04T14:19:34.98Z</time></trkpt><trkpt lat="45.317493780197196" lon="10.518094502626862"><ele>55.75</ele><time>2026-04-04T14:19:35.98Z</time></trkpt><trkpt lat="45.31759416332248" lon="10.518195150743741"><ele>56.0</ele><time>2026-04-04T14:19:36.98Z</time></trkpt><trkpt lat="45.31769822412263" lon="10.518276738526438"><ele>56.0</ele><time>2026-04-04T14:19:37.98Z</time></trkpt><trkpt lat="45.317806935352465" lon="10.51836082599571"><ele>56.0</ele><time>2026-04-04T14:19:38.981Z</time></trkpt><trkpt lat="45.317920558116505" lon="10.518450175265201"><ele>56.0</ele><time>2026-04-04T14:19:39.981Z</time></trkpt><trkpt lat="45.31802561223065" lon="10.518543098747251"><ele>56.0</ele><time>2026-04-04T14:19:40.981Z</time></trkpt><trkpt lat="45.31812711697145" lon="10.518640351371896"><ele>55.8</ele><time>2026-04-04T14:19:41.98Z</time></trkpt><trkpt lat="45.31822427003428" lon="10.518730276843963"><ele>55.599999999999994</ele><time>2026-04-04T14:19:42.98Z</time></trkpt><trkpt lat="45.31832107177579" lon="10.51881561501334"><ele>55.4</ele><time>2026-04-04T14:19:43.98Z</time></trkpt><trkpt lat="45.31840573642258" lon="10.518884420298752"><ele>55.2</ele><time>2026-04-04T14:19:44.981Z</time></trkpt><trkpt lat="45.31847760192203" lon="10.518952189497659"><ele>55.0</ele><time>2026-04-04T14:19:45.98Z</time></trkpt><trkpt lat="45.31853802379717" lon="10.519007536053604"><ele>55.4</ele><time>2026-04-04T14:19:46.98Z</time></trkpt><trkpt lat="45.3185948308639" lon="10.519057404420405"><ele>55.8</ele><time>2026-04-04T14:19:47.98Z</time></trkpt><trkpt lat="45.31872309805156" lon="10.519068369414882"><ele>56.2</ele><time>2026-04-04T14:19:49.98Z</time></trkpt><trkpt lat="45.31878739667675" lon="10.519011812180453"><ele>56.6</ele><time>2026-04-04T14:19:50.98Z</time></trkpt><trkpt lat="45.31884221529499" lon="10.518897235917684"><ele>57.0</ele><time>2026-04-04T14:19:51.98Z</time></trkpt><trkpt lat="45.318885535321584" lon="10.518773646139213"><ele>56.6</ele><time>2026-04-04T14:19:52.98Z</time></trkpt><trkpt lat="45.31894101468308" lon="10.518643205961009"><ele>56.2</ele><time>2026-04-04T14:19:53.98Z</time></trkpt><trkpt lat="45.31900695110346" lon="10.518521824746264"><ele>55.8</ele><time>2026-04-04T14:19:54.98Z</time></trkpt><trkpt lat="45.31907542418595" lon="10.51841063227508"><ele>55.4</ele><time>2026-04-04T14:19:55.98Z</time></trkpt><trkpt lat="45.31913478099762" lon="10.518318157993212"><ele>55.0</ele><time>2026-04-04T14:19:56.98Z</time></trkpt><trkpt lat="45.319194597145874" lon="10.518256692612159"><ele>55.0</ele><time>2026-04-04T14:19:57.98Z</time></trkpt><trkpt lat="45.31927322732287" lon="10.518234765352647"><ele>55.0</ele><time>2026-04-04T14:19:58.98Z</time></trkpt><trkpt lat="45.319361680249045" lon="10.518261171570467"><ele>55.0</ele><time>2026-04-04T14:19:59.98Z</time></trkpt><trkpt lat="45.31945524613054" lon="10.518344794536894"><ele>55.0</ele><time>2026-04-04T14:20:00.98Z</time></trkpt><trkpt lat="45.31954192174388" lon="10.518456035224155"><ele>55.0</ele><time>2026-04-04T14:20:01.98Z</time></trkpt><trkpt lat="45.31962933599711" lon="10.518554522004804"><ele>55.0</ele><time>2026-04-04T14:20:02.98Z</time></trkpt><trkpt lat="45.31973221437657" lon="10.518646228520169"><ele>55.0</ele><time>2026-04-04T14:20:03.98Z</time></trkpt><trkpt lat="45.319840710742696" lon="10.518738878959011"><ele>55.0</ele><time>2026-04-04T14:20:04.98Z</time></trkpt><trkpt lat="45.31994789733325" lon="10.518828513306822"><ele>55.0</ele><time>2026-04-04T14:20:05.98Z</time></trkpt><trkpt lat="45.32004868164735" lon="10.518920052595616"><ele>55.666666666666664</ele><time>2026-04-04T14:20:06.98Z</time></trkpt><trkpt lat="45.32014098995074" lon="10.51900593082132"><ele>56.33333333333333</ele><time>2026-04-04T14:20:07.98Z</time></trkpt><trkpt lat="45.320223784077164" lon="10.519080170847444"><ele>57.0</ele><time>2026-04-04T14:20:08.98Z</time></trkpt><trkpt lat="45.32029329489707" lon="10.519144346143376"><ele>57.66666666666667</ele><time>2026-04-04T14:20:09.98Z</time></trkpt><trkpt lat="45.32035386354692" lon="10.519198895917716"><ele>58.333333333333336</ele><time>2026-04-04T14:20:10.98Z</time></trkpt><trkpt lat="45.32042488338205" lon="10.519268940856541"><ele>59.0</ele><time>2026-04-04T14:20:12.98Z</time></trkpt><trkpt lat="45.32050156326929" lon="10.519288337768014"><ele>58.800000000000004</ele><time>2026-04-04T14:20:18.98Z</time></trkpt><trkpt lat="45.32057757183659" lon="10.519311726169601"><ele>58.60000000000001</ele><time>2026-04-04T14:20:19.98Z</time></trkpt><trkpt lat="45.32065496142483" lon="10.519367376674133"><ele>58.4</ele><time>2026-04-04T14:20:20.98Z</time></trkpt><trkpt lat="45.320737573019535" lon="10.519462091006003"><ele>58.2</ele><time>2026-04-04T14:20:21.98Z</time></trkpt><trkpt lat="45.32082500649619" lon="10.519555786578342"><ele>58.0</ele><time>2026-04-04T14:20:22.98Z</time></trkpt><trkpt lat="45.32093889045661" lon="10.519637038313475"><ele>58.0</ele><time>2026-04-04T14:20:23.98Z</time></trkpt><trkpt lat="45.32105887951697" lon="10.51971886591183"><ele>58.0</ele><time>2026-04-04T14:20:24.98Z</time></trkpt><trkpt lat="45.32118765868198" lon="10.519806720014913"><ele>58.0</ele><time>2026-04-04T14:20:25.98Z</time></trkpt><trkpt lat="45.32131126341883" lon="10.519898763235128"><ele>58.0</ele><time>2026-04-04T14:20:26.98Z</time></trkpt><trkpt lat="45.32143548168743" lon="10.519990592369208"><ele>58.0</ele><time>2026-04-04T14:20:27.98Z</time></trkpt><trkpt lat="45.32155797965107" lon="10.520079537736914"><ele>58.0</ele><time>2026-04-04T14:20:28.98Z</time></trkpt><trkpt lat="45.321660405632635" lon="10.520154052866017"><ele>58.0</ele><time>2026-04-04T14:20:29.98Z</time></trkpt><trkpt lat="45.3217477993243" lon="10.520222454802942"><ele>58.0</ele><time>2026-04-04T14:20:30.98Z</time></trkpt><trkpt lat="45.321820880387" lon="10.520302491065904"><ele>58.0</ele><time>2026-04-04T14:20:31.98Z</time></trkpt><trkpt lat="45.321888583297095" lon="10.520405198454345"><ele>58.2</ele><time>2026-04-04T14:20:32.98Z</time></trkpt><trkpt lat="45.321954497875765" lon="10.520517574584966"><ele>58.4</ele><time>2026-04-04T14:20:33.98Z</time></trkpt><trkpt lat="45.32203158208126" lon="10.520581496694273"><ele>58.60000000000001</ele><time>2026-04-04T14:20:34.98Z</time></trkpt><trkpt lat="45.32213213811333" lon="10.520591398510323"><ele>58.800000000000004</ele><time>2026-04-04T14:20:35.98Z</time></trkpt><trkpt lat="45.32225237018271" lon="10.520555048108047"><ele>59.0</ele><time>2026-04-04T14:20:36.98Z</time></trkpt><trkpt lat="45.3223793464369" lon="10.520545475478821"><ele>59.0</ele><time>2026-04-04T14:20:37.98Z</time></trkpt><trkpt lat="45.32251629300671" lon="10.520591811166026"><ele>59.0</ele><time>2026-04-04T14:20:38.98Z</time></trkpt><trkpt lat="45.322660383122376" lon="10.520678439236685"><ele>59.0</ele><time>2026-04-04T14:20:39.98Z</time></trkpt><trkpt lat="45.3227991007997" lon="10.520759155280944"><ele>59.0</ele><time>2026-04-04T14:20:40.98Z</time></trkpt><trkpt lat="45.322942418432866" lon="10.52083503511415"><ele>58.333333333333336</ele><time>2026-04-04T14:20:41.98Z</time></trkpt><trkpt lat="45.3231015407289" lon="10.520910259219951"><ele>57.66666666666667</ele><time>2026-04-04T14:20:42.98Z</time></trkpt><trkpt lat="45.32326002479804" lon="10.520985400319299"><ele>57.0</ele><time>2026-04-04T14:20:43.98Z</time></trkpt><trkpt lat="45.32341579437367" lon="10.52106596507997"><ele>57.0</ele><time>2026-04-04T14:20:44.98Z</time></trkpt><trkpt lat="45.32358246747762" lon="10.5211490455408"><ele>57.0</ele><time>2026-04-04T14:20:45.98Z</time></trkpt><trkpt lat="45.3237395196945" lon="10.521219683218899"><ele>57.0</ele><time>2026-04-04T14:20:46.98Z</time></trkpt><trkpt lat="45.3238985254392" lon="10.521298769429835"><ele>57.66666666666667</ele><time>2026-04-04T14:20:47.98Z</time></trkpt><trkpt lat="45.32405720556567" lon="10.521368369625693"><ele>58.333333333333336</ele><time>2026-04-04T14:20:48.98Z</time></trkpt><trkpt lat="45.32421908345846" lon="10.521443545231802"><ele>59.0</ele><time>2026-04-04T14:20:49.98Z</time></trkpt><trkpt lat="45.32437568482026" lon="10.521515925085938"><ele>59.0</ele><time>2026-04-04T14:20:50.98Z</time></trkpt><trkpt lat="45.32453571977986" lon="10.521591431501106"><ele>59.0</ele><time>2026-04-04T14:20:51.98Z</time></trkpt><trkpt lat="45.32469207995128" lon="10.521658652940681"><ele>59.0</ele><time>2026-04-04T14:20:52.98Z</time></trkpt><trkpt lat="45.324846749233544" lon="10.521730982592075"><ele>60.0</ele><time>2026-04-04T14:20:53.98Z</time></trkpt><trkpt lat="45.325000848935765" lon="10.521809965979362"><ele>61.0</ele><time>2026-04-04T14:20:54.98Z</time></trkpt><trkpt lat="45.32514970216901" lon="10.5218895610454"><ele>62.0</ele><time>2026-04-04T14:20:55.979Z</time></trkpt><trkpt lat="45.32528673427544" lon="10.521966828650829"><ele>62.0</ele><time>2026-04-04T14:20:56.979Z</time></trkpt><trkpt lat="45.32541307631465" lon="10.522028443117444"><ele>62.0</ele><time>2026-04-04T14:20:57.979Z</time></trkpt><trkpt lat="45.32552854007371" lon="10.52208118875446"><ele>62.0</ele><time>2026-04-04T14:20:58.979Z</time></trkpt><trkpt lat="45.325642516677874" lon="10.522132220537276"><ele>62.0</ele><time>2026-04-04T14:20:59.979Z</time></trkpt><trkpt lat="45.325758523825506" lon="10.522182240237235"><ele>62.0</ele><time>2026-04-04T14:21:00.979Z</time></trkpt><trkpt lat="45.32587187798939" lon="10.522232917899888"><ele>62.0</ele><time>2026-04-04T14:21:01.979Z</time></trkpt><trkpt lat="45.32599875627306" lon="10.52229123442257"><ele>62.0</ele><time>2026-04-04T14:21:02.979Z</time></trkpt><trkpt lat="45.32610911964723" lon="10.522351491088498"><ele>62.0</ele><time>2026-04-04T14:21:03.979Z</time></trkpt><trkpt lat="45.326208871859" lon="10.52239587790499"><ele>62.00000000000001</ele><time>2026-04-04T14:21:04.979Z</time></trkpt><trkpt lat="45.326298723715865" lon="10.522441507174845"><ele>62.0</ele><time>2026-04-04T14:21:05.979Z</time></trkpt><trkpt lat="45.3263704367252" lon="10.522470313971683"><ele>62.0</ele><time>2026-04-04T14:21:06.979Z</time></trkpt><trkpt lat="45.32643832840223" lon="10.52249085866554"><ele>62.0</ele><time>2026-04-04T14:21:08.979Z</time></trkpt><trkpt lat="45.326519794724355" lon="10.522434664418297"><ele>62.00000000000001</ele><time>2026-04-04T14:21:12.979Z</time></trkpt><trkpt lat="45.32653759421628" lon="10.522320624681951"><ele>62.0</ele><time>2026-04-04T14:21:13.979Z</time></trkpt><trkpt lat="45.32653814372498" lon="10.522184232748039"><ele>62.400000000000006</ele><time>2026-04-04T14:21:14.979Z</time></trkpt><trkpt lat="45.32654580774872" lon="10.522032314039965"><ele>62.800000000000004</ele><time>2026-04-04T14:21:15.979Z</time></trkpt><trkpt lat="45.326546417086824" lon="10.521883134655125"><ele>63.2</ele><time>2026-04-04T14:21:16.979Z</time></trkpt><trkpt lat="45.32655315678737" lon="10.521757878911806"><ele>63.6</ele><time>2026-04-04T14:21:17.979Z</time></trkpt><trkpt lat="45.326601225576155" lon="10.521659101003557"><ele>64.0</ele><time>2026-04-04T14:21:19.979Z</time></trkpt><trkpt lat="45.326745520800195" lon="10.521704941756422"><ele>64.0</ele><time>2026-04-04T14:21:21.979Z</time></trkpt><trkpt lat="45.32682988424347" lon="10.521752317232556"><ele>64.0</ele><time>2026-04-04T14:21:22.979Z</time></trkpt><trkpt lat="45.32691401954686" lon="10.52180294243679"><ele>64.0</ele><time>2026-04-04T14:21:23.979Z</time></trkpt><trkpt lat="45.32702249722311" lon="10.521872778149083"><ele>64.0</ele><time>2026-04-04T14:21:24.979Z</time></trkpt><trkpt lat="45.32712517670033" lon="10.52194579621032"><ele>64.0</ele><time>2026-04-04T14:21:25.979Z</time></trkpt><trkpt lat="45.32720148690632" lon="10.521996154496634"><ele>63.83333333333333</ele><time>2026-04-04T14:21:26.979Z</time></trkpt><trkpt lat="45.327285271342255" lon="10.522012456032154"><ele>63.666666666666664</ele><time>2026-04-04T14:21:27.979Z</time></trkpt><trkpt lat="45.327380990709" lon="10.521983460253386"><ele>63.5</ele><time>2026-04-04T14:21:28.979Z</time></trkpt><trkpt lat="45.327464304675324" lon="10.52194027727879"><ele>63.33333333333333</ele><time>2026-04-04T14:21:29.979Z</time></trkpt><trkpt lat="45.327528633865924" lon="10.521948796647877"><ele>63.166666666666664</ele><time>2026-04-04T14:21:30.979Z</time></trkpt><trkpt lat="45.32759233902359" lon="10.521994220507302"><ele>63.0</ele><time>2026-04-04T14:21:31.979Z</time></trkpt><trkpt lat="45.327678873694204" lon="10.522078687748927"><ele>62.75</ele><time>2026-04-04T14:21:32.979Z</time></trkpt><trkpt lat="45.32777678227351" lon="10.522186206376796"><ele>62.5</ele><time>2026-04-04T14:21:33.979Z</time></trkpt><trkpt lat="45.32787627335041" lon="10.522283709737893"><ele>62.25</ele><time>2026-04-04T14:21:34.979Z</time></trkpt><trkpt lat="45.32797422170316" lon="10.522384696698488"><ele>62.0</ele><time>2026-04-04T14:21:35.979Z</time></trkpt><trkpt lat="45.32808225766162" lon="10.522484362567296"><ele>61.5</ele><time>2026-04-04T14:21:36.979Z</time></trkpt><trkpt lat="45.32820009691933" lon="10.52257632253375"><ele>61.0</ele><time>2026-04-04T14:21:37.979Z</time></trkpt><trkpt lat="45.32831628617459" lon="10.522690832428216"><ele>60.5</ele><time>2026-04-04T14:21:38.982Z</time></trkpt><trkpt lat="45.32843583873322" lon="10.522810998184742"><ele>60.0</ele><time>2026-04-04T14:21:39.982Z</time></trkpt><trkpt lat="45.32855279937159" lon="10.52292765828739"><ele>60.0</ele><time>2026-04-04T14:21:40.982Z</time></trkpt><trkpt lat="45.328665757227945" lon="10.52304461070603"><ele>60.0</ele><time>2026-04-04T14:21:41.982Z</time></trkpt><trkpt lat="45.328779067413436" lon="10.52317104438538"><ele>60.0</ele><time>2026-04-04T14:21:42.982Z</time></trkpt><trkpt lat="45.32889626595141" lon="10.523309002392509"><ele>60.0</ele><time>2026-04-04T14:21:43.982Z</time></trkpt><trkpt lat="45.329006564993406" lon="10.523451089889498"><ele>60.0</ele><time>2026-04-04T14:21:44.982Z</time></trkpt><trkpt lat="45.329116839981225" lon="10.523596642949462"><ele>60.0</ele><time>2026-04-04T14:21:45.981Z</time></trkpt><trkpt lat="45.3292301346568" lon="10.523745057697562"><ele>60.0</ele><time>2026-04-04T14:21:46.981Z</time></trkpt><trkpt lat="45.32933981241646" lon="10.523898044340594"><ele>60.0</ele><time>2026-04-04T14:21:47.982Z</time></trkpt><trkpt lat="45.329449347807476" lon="10.524050800101707"><ele>60.0</ele><time>2026-04-04T14:21:48.982Z</time></trkpt><trkpt lat="45.32955916686876" lon="10.524196418895357"><ele>60.0</ele><time>2026-04-04T14:21:49.982Z</time></trkpt><trkpt lat="45.32966862705289" lon="10.524350990753724"><ele>61.0</ele><time>2026-04-04T14:21:50.982Z</time></trkpt><trkpt lat="45.329774193564305" lon="10.524506996402145"><ele>62.0</ele><time>2026-04-04T14:21:51.981Z</time></trkpt><trkpt lat="45.32988266001832" lon="10.524657725100889"><ele>63.0</ele><time>2026-04-04T14:21:52.981Z</time></trkpt><trkpt lat="45.330010101418814" lon="10.524795129951462"><ele>63.33333333333333</ele><time>2026-04-04T14:21:53.981Z</time></trkpt><trkpt lat="45.330130454016256" lon="10.524924608013484"><ele>63.666666666666664</ele><time>2026-04-04T14:21:54.981Z</time></trkpt><trkpt lat="45.33025320381245" lon="10.525050463106457"><ele>64.0</ele><time>2026-04-04T14:21:55.981Z</time></trkpt><trkpt lat="45.33038052033826" lon="10.525189415896628"><ele>64.0</ele><time>2026-04-04T14:21:56.981Z</time></trkpt><trkpt lat="45.33050669967277" lon="10.525329302938077"><ele>64.0</ele><time>2026-04-04T14:21:57.981Z</time></trkpt><trkpt lat="45.33063605895071" lon="10.525464399757922"><ele>64.0</ele><time>2026-04-04T14:21:58.981Z</time></trkpt><trkpt lat="45.33076130313867" lon="10.525597694501123"><ele>64.33333333333333</ele><time>2026-04-04T14:21:59.981Z</time></trkpt><trkpt lat="45.33088795218396" lon="10.52573493815468"><ele>64.66666666666667</ele><time>2026-04-04T14:22:00.981Z</time></trkpt><trkpt lat="45.33101656727895" lon="10.525874005903363"><ele>65.0</ele><time>2026-04-04T14:22:01.981Z</time></trkpt><trkpt lat="45.33113940162423" lon="10.52601150630967"><ele>65.0</ele><time>2026-04-04T14:22:02.981Z</time></trkpt><trkpt lat="45.3312539476218" lon="10.526151650489858"><ele>65.0</ele><time>2026-04-04T14:22:03.981Z</time></trkpt><trkpt lat="45.3313806553307" lon="10.526300259918363"><ele>65.0</ele><time>2026-04-04T14:22:04.981Z</time></trkpt><trkpt lat="45.331501762713" lon="10.526449327906573"><ele>64.33333333333334</ele><time>2026-04-04T14:22:05.981Z</time></trkpt><trkpt lat="45.331621810946665" lon="10.52660172583325"><ele>63.66666666666667</ele><time>2026-04-04T14:22:06.981Z</time></trkpt><trkpt lat="45.331741212967835" lon="10.526750519118693"><ele>63.0</ele><time>2026-04-04T14:22:07.981Z</time></trkpt><trkpt lat="45.33186358102513" lon="10.526907643108753"><ele>63.0</ele><time>2026-04-04T14:22:08.981Z</time></trkpt><trkpt lat="45.33198231379883" lon="10.527060774148435"><ele>63.0</ele><time>2026-04-04T14:22:09.981Z</time></trkpt><trkpt lat="45.332104266147404" lon="10.527213233658534"><ele>63.0</ele><time>2026-04-04T14:22:10.981Z</time></trkpt><trkpt lat="45.33222937190236" lon="10.52737082988433"><ele>63.33333333333333</ele><time>2026-04-04T14:22:11.981Z</time></trkpt><trkpt lat="45.33235083957704" lon="10.527522812211982"><ele>63.666666666666664</ele><time>2026-04-04T14:22:12.981Z</time></trkpt><trkpt lat="45.33247589428894" lon="10.527681362998006"><ele>64.0</ele><time>2026-04-04T14:22:13.981Z</time></trkpt><trkpt lat="45.332601130884576" lon="10.527835538816952"><ele>63.666666666666664</ele><time>2026-04-04T14:22:14.981Z</time></trkpt><trkpt lat="45.3327247670121" lon="10.527983607208343"><ele>63.33333333333333</ele><time>2026-04-04T14:22:15.981Z</time></trkpt><trkpt lat="45.332850459458015" lon="10.52813301758182"><ele>63.0</ele><time>2026-04-04T14:22:16.981Z</time></trkpt><trkpt lat="45.332974181649604" lon="10.528289575665472"><ele>63.33333333333333</ele><time>2026-04-04T14:22:17.981Z</time></trkpt><trkpt lat="45.33309740969752" lon="10.528440934350513"><ele>63.666666666666664</ele><time>2026-04-04T14:22:18.981Z</time></trkpt><trkpt lat="45.333218909303724" lon="10.52859346471742"><ele>64.0</ele><time>2026-04-04T14:22:19.981Z</time></trkpt><trkpt lat="45.333341076028475" lon="10.528745602848275"><ele>64.33333333333333</ele><time>2026-04-04T14:22:20.981Z</time></trkpt><trkpt lat="45.33346485180885" lon="10.528900129883654"><ele>64.66666666666667</ele><time>2026-04-04T14:22:21.981Z</time></trkpt><trkpt lat="45.33358541693423" lon="10.529037838300484"><ele>65.0</ele><time>2026-04-04T14:22:22.981Z</time></trkpt><trkpt lat="45.33370761331207" lon="10.529196396639964"><ele>65.0</ele><time>2026-04-04T14:22:23.981Z</time></trkpt><trkpt lat="45.33382874473084" lon="10.529341689345252"><ele>65.0</ele><time>2026-04-04T14:22:24.981Z</time></trkpt><trkpt lat="45.333949038285226" lon="10.529483831328744"><ele>65.0</ele><time>2026-04-04T14:22:25.981Z</time></trkpt><trkpt lat="45.33406453526302" lon="10.529640349760667"><ele>65.33333333333334</ele><time>2026-04-04T14:22:26.981Z</time></trkpt><trkpt lat="45.334185697009" lon="10.529785165778469"><ele>65.66666666666667</ele><time>2026-04-04T14:22:27.981Z</time></trkpt><trkpt lat="45.33430506863974" lon="10.529933471984751"><ele>66.0</ele><time>2026-04-04T14:22:28.981Z</time></trkpt><trkpt lat="45.33442269327523" lon="10.530067455237088"><ele>66.0</ele><time>2026-04-04T14:22:29.981Z</time></trkpt><trkpt lat="45.33452531616061" lon="10.530202553348424"><ele>66.0</ele><time>2026-04-04T14:22:30.98Z</time></trkpt><trkpt lat="45.33462780725879" lon="10.530323516433276"><ele>66.0</ele><time>2026-04-04T14:22:31.98Z</time></trkpt><trkpt lat="45.33472689725628" lon="10.530441376924301"><ele>66.0</ele><time>2026-04-04T14:22:32.98Z</time></trkpt><trkpt lat="45.33481334349587" lon="10.530578893507553"><ele>66.5</ele><time>2026-04-04T14:22:33.98Z</time></trkpt><trkpt lat="45.3349205318614" lon="10.530710221006077"><ele>67.0</ele><time>2026-04-04T14:22:34.98Z</time></trkpt><trkpt lat="45.335019605828286" lon="10.53083617644978"><ele>67.5</ele><time>2026-04-04T14:22:35.98Z</time></trkpt><trkpt lat="45.33511097494149" lon="10.530960892287236"><ele>68.0</ele><time>2026-04-04T14:22:36.98Z</time></trkpt><trkpt lat="45.33520976088045" lon="10.531099352032596"><ele>68.0</ele><time>2026-04-04T14:22:37.98Z</time></trkpt><trkpt lat="45.33530720393363" lon="10.531219748222915"><ele>68.0</ele><time>2026-04-04T14:22:38.98Z</time></trkpt><trkpt lat="45.33541112462018" lon="10.531345160529382"><ele>68.0</ele><time>2026-04-04T14:22:39.98Z</time></trkpt><trkpt lat="45.33551535769988" lon="10.53146561113059"><ele>68.0</ele><time>2026-04-04T14:22:40.98Z</time></trkpt><trkpt lat="45.3356212687803" lon="10.531595405420878"><ele>68.0</ele><time>2026-04-04T14:22:41.98Z</time></trkpt><trkpt lat="45.335716746278266" lon="10.531727313721365"><ele>68.0</ele><time>2026-04-04T14:22:42.98Z</time></trkpt><trkpt lat="45.33581621295351" lon="10.53185372517561"><ele>68.0</ele><time>2026-04-04T14:22:43.98Z</time></trkpt><trkpt lat="45.33590895274023" lon="10.531985540726975"><ele>68.0</ele><time>2026-04-04T14:22:44.98Z</time></trkpt><trkpt lat="45.335997766732525" lon="10.532108476425485"><ele>68.0</ele><time>2026-04-04T14:22:45.98Z</time></trkpt><trkpt lat="45.33609709399892" lon="10.532219571943536"><ele>68.0</ele><time>2026-04-04T14:22:46.98Z</time></trkpt><trkpt lat="45.33619344900726" lon="10.532339290708956"><ele>68.0</ele><time>2026-04-04T14:22:47.98Z</time></trkpt><trkpt lat="45.33628939153234" lon="10.5324654127669"><ele>68.0</ele><time>2026-04-04T14:22:48.98Z</time></trkpt><trkpt lat="45.33637751099303" lon="10.532572939686023"><ele>68.0</ele><time>2026-04-04T14:22:49.98Z</time></trkpt><trkpt lat="45.33646182871862" lon="10.532681102528736"><ele>68.0</ele><time>2026-04-04T14:22:50.98Z</time></trkpt><trkpt lat="45.336538209864734" lon="10.532794197755262"><ele>68.0</ele><time>2026-04-04T14:22:51.98Z</time></trkpt><trkpt lat="45.336610674714734" lon="10.532895482597997"><ele>68.0</ele><time>2026-04-04T14:22:52.98Z</time></trkpt><trkpt lat="45.33667809911524" lon="10.533007977660596"><ele>68.0</ele><time>2026-04-04T14:22:53.98Z</time></trkpt><trkpt lat="45.336747597696316" lon="10.533133140869852"><ele>68.4</ele><time>2026-04-04T14:22:54.98Z</time></trkpt><trkpt lat="45.33682482634338" lon="10.533248130916707"><ele>68.8</ele><time>2026-04-04T14:22:55.98Z</time></trkpt><trkpt lat="45.33690049893845" lon="10.53336562361824"><ele>69.2</ele><time>2026-04-04T14:22:56.98Z</time></trkpt><trkpt lat="45.33696900041838" lon="10.533489231610286"><ele>69.6</ele><time>2026-04-04T14:22:57.98Z</time></trkpt><trkpt lat="45.337038316124655" lon="10.533607667088797"><ele>70.0</ele><time>2026-04-04T14:22:58.98Z</time></trkpt><trkpt lat="45.337115178895736" lon="10.533729207963011"><ele>70.0</ele><time>2026-04-04T14:22:59.98Z</time></trkpt><trkpt lat="45.337185426157774" lon="10.533851483295352"><ele>70.0</ele><time>2026-04-04T14:23:00.98Z</time></trkpt><trkpt lat="45.33725064403733" lon="10.533971793001355"><ele>70.0</ele><time>2026-04-04T14:23:01.98Z</time></trkpt><trkpt lat="45.337320059095404" lon="10.534099772629283"><ele>70.0</ele><time>2026-04-04T14:23:02.98Z</time></trkpt><trkpt lat="45.33739101327099" lon="10.53423145842973"><ele>70.0</ele><time>2026-04-04T14:23:03.98Z</time></trkpt><trkpt lat="45.33746565286872" lon="10.534361955671017"><ele>70.0</ele><time>2026-04-04T14:23:04.98Z</time></trkpt><trkpt lat="45.337535937085825" lon="10.534484334135252"><ele>70.0</ele><time>2026-04-04T14:23:05.98Z</time></trkpt><trkpt lat="45.33760234606704" lon="10.534589910059882"><ele>70.0</ele><time>2026-04-04T14:23:06.98Z</time></trkpt><trkpt lat="45.33765855623756" lon="10.534684885229678"><ele>70.0</ele><time>2026-04-04T14:23:07.98Z</time></trkpt><trkpt lat="45.337711689419265" lon="10.53477921524272"><ele>70.0</ele><time>2026-04-04T14:23:08.98Z</time></trkpt><trkpt lat="45.33776997601639" lon="10.534896834779916"><ele>70.25</ele><time>2026-04-04T14:23:09.98Z</time></trkpt><trkpt lat="45.33783208764168" lon="10.535035443391589"><ele>70.5</ele><time>2026-04-04T14:23:10.98Z</time></trkpt><trkpt lat="45.33790792184404" lon="10.535171035863534"><ele>70.75</ele><time>2026-04-04T14:23:11.98Z</time></trkpt><trkpt lat="45.33799212825201" lon="10.535292466034138"><ele>71.0</ele><time>2026-04-04T14:23:12.98Z</time></trkpt><trkpt lat="45.338089815116824" lon="10.535411435272952"><ele>71.75</ele><time>2026-04-04T14:23:13.98Z</time></trkpt><trkpt lat="45.338179686713275" lon="10.53554037664784"><ele>72.5</ele><time>2026-04-04T14:23:14.98Z</time></trkpt><trkpt lat="45.33825906117441" lon="10.535679480484305"><ele>73.25</ele><time>2026-04-04T14:23:15.98Z</time></trkpt><trkpt lat="45.33833808545309" lon="10.535824343135213"><ele>74.0</ele><time>2026-04-04T14:23:16.98Z</time></trkpt><trkpt lat="45.338418251147864" lon="10.535959970296668"><ele>74.0</ele><time>2026-04-04T14:23:17.98Z</time></trkpt><trkpt lat="45.33850139502509" lon="10.536083633659258"><ele>74.0</ele><time>2026-04-04T14:23:18.98Z</time></trkpt><trkpt lat="45.33858957144781" lon="10.536222578386099"><ele>74.0</ele><time>2026-04-04T14:23:19.98Z</time></trkpt><trkpt lat="45.33867588318843" lon="10.536361552484951"><ele>74.0</ele><time>2026-04-04T14:23:20.98Z</time></trkpt><trkpt lat="45.33876241856038" lon="10.536498017530121"><ele>74.0</ele><time>2026-04-04T14:23:21.98Z</time></trkpt><trkpt lat="45.33882696490121" lon="10.536674100010474"><ele>74.0</ele><time>2026-04-04T14:23:22.98Z</time></trkpt><trkpt lat="45.33890786090917" lon="10.536808040098725"><ele>74.0</ele><time>2026-04-04T14:23:23.979Z</time></trkpt><trkpt lat="45.33900859068888" lon="10.536923607218705"><ele>74.0</ele><time>2026-04-04T14:23:24.979Z</time></trkpt><trkpt lat="45.33907965204354" lon="10.537046323742505"><ele>74.0</ele><time>2026-04-04T14:23:25.979Z</time></trkpt><trkpt lat="45.33915011370342" lon="10.53717525257677"><ele>74.0</ele><time>2026-04-04T14:23:26.979Z</time></trkpt><trkpt lat="45.33922408716436" lon="10.537302151740358"><ele>74.0</ele><time>2026-04-04T14:23:27.979Z</time></trkpt><trkpt lat="45.33930037792542" lon="10.537434222066997"><ele>74.0</ele><time>2026-04-04T14:23:28.979Z</time></trkpt><trkpt lat="45.33937465633212" lon="10.537561944092765"><ele>74.0</ele><time>2026-04-04T14:23:29.979Z</time></trkpt><trkpt lat="45.33944748719963" lon="10.537679955796595"><ele>74.0</ele><time>2026-04-04T14:23:30.979Z</time></trkpt><trkpt lat="45.3395092306662" lon="10.537789351095403"><ele>74.0</ele><time>2026-04-04T14:23:31.979Z</time></trkpt><trkpt lat="45.33956595852377" lon="10.537885687603403"><ele>74.0</ele><time>2026-04-04T14:23:32.979Z</time></trkpt><trkpt lat="45.33960941513403" lon="10.537966638248156"><ele>74.0</ele><time>2026-04-04T14:23:33.979Z</time></trkpt><trkpt lat="45.33965939092686" lon="10.538068530702848"><ele>73.83333333333334</ele><time>2026-04-04T14:23:34.979Z</time></trkpt><trkpt lat="45.339711761254776" lon="10.538158469794526"><ele>73.66666666666667</ele><time>2026-04-04T14:23:35.979Z</time></trkpt><trkpt lat="45.33975712907662" lon="10.538236397304088"><ele>73.5</ele><time>2026-04-04T14:23:36.979Z</time></trkpt><trkpt lat="45.33979922937585" lon="10.538314033211318"><ele>73.33333333333333</ele><time>2026-04-04T14:23:37.979Z</time></trkpt><trkpt lat="45.339874348126095" lon="10.53840672508568"><ele>73.16666666666666</ele><time>2026-04-04T14:23:39.979Z</time></trkpt><trkpt lat="45.33997500837731" lon="10.538403810803407"><ele>73.0</ele><time>2026-04-04T14:23:41.979Z</time></trkpt><trkpt lat="45.34005927508926" lon="10.53825981267778"><ele>73.0</ele><time>2026-04-04T14:23:43.979Z</time></trkpt><trkpt lat="45.34010745694047" lon="10.53813759361376"><ele>73.0</ele><time>2026-04-04T14:23:44.983Z</time></trkpt><trkpt lat="45.34017586594598" lon="10.538031163554063"><ele>73.0</ele><time>2026-04-04T14:23:45.983Z</time></trkpt><trkpt lat="45.340206815509745" lon="10.537893449111253"><ele>73.0</ele><time>2026-04-04T14:23:46.983Z</time></trkpt><trkpt lat="45.340264368396284" lon="10.53775666542526"><ele>73.0</ele><time>2026-04-04T14:23:47.983Z</time></trkpt><trkpt lat="45.340321741997336" lon="10.53761964368916"><ele>73.5</ele><time>2026-04-04T14:23:48.983Z</time></trkpt><trkpt lat="45.34038476637456" lon="10.537482520771842"><ele>74.0</ele><time>2026-04-04T14:23:49.982Z</time></trkpt><trkpt lat="45.340454675825384" lon="10.53735507817452"><ele>74.5</ele><time>2026-04-04T14:23:50.983Z</time></trkpt><trkpt lat="45.34053298437788" lon="10.53722227728514"><ele>75.0</ele><time>2026-04-04T14:23:51.983Z</time></trkpt><trkpt lat="45.34061067942622" lon="10.537076904985689"><ele>76.0</ele><time>2026-04-04T14:23:52.983Z</time></trkpt><trkpt lat="45.340685837030506" lon="10.536931827908024"><ele>77.0</ele><time>2026-04-04T14:23:53.983Z</time></trkpt><trkpt lat="45.340761286054835" lon="10.536793954281437"><ele>78.0</ele><time>2026-04-04T14:23:54.983Z</time></trkpt><trkpt lat="45.34083357957379" lon="10.536646844990639"><ele>79.0</ele><time>2026-04-04T14:23:55.983Z</time></trkpt><trkpt lat="45.3409034579768" lon="10.536490400861256"><ele>79.0</ele><time>2026-04-04T14:23:56.983Z</time></trkpt><trkpt lat="45.340979531705834" lon="10.536344571869837"><ele>79.0</ele><time>2026-04-04T14:23:57.982Z</time></trkpt><trkpt lat="45.34106274350796" lon="10.53619057449767"><ele>79.0</ele><time>2026-04-04T14:23:58.982Z</time></trkpt><trkpt lat="45.34114026198733" lon="10.536035151299396"><ele>79.0</ele><time>2026-04-04T14:23:59.982Z</time></trkpt><trkpt lat="45.34121079471303" lon="10.53587081982234"><ele>78.75</ele><time>2026-04-04T14:24:00.982Z</time></trkpt><trkpt lat="45.34129122550345" lon="10.535717294322605"><ele>78.5</ele><time>2026-04-04T14:24:01.982Z</time></trkpt><trkpt lat="45.34136737335423" lon="10.535563670133634"><ele>78.25</ele><time>2026-04-04T14:24:02.982Z</time></trkpt><trkpt lat="45.34144248984313" lon="10.535398760714918"><ele>78.0</ele><time>2026-04-04T14:24:03.982Z</time></trkpt><trkpt lat="45.34151631678785" lon="10.53525233271906"><ele>77.75</ele><time>2026-04-04T14:24:04.982Z</time></trkpt><trkpt lat="45.34158904470668" lon="10.53511104766967"><ele>77.5</ele><time>2026-04-04T14:24:05.982Z</time></trkpt><trkpt lat="45.341665339812906" lon="10.53496756529114"><ele>77.25</ele><time>2026-04-04T14:24:06.982Z</time></trkpt><trkpt lat="45.34173297623651" lon="10.534823450906003"><ele>77.0</ele><time>2026-04-04T14:24:07.982Z</time></trkpt><trkpt lat="45.34180233564518" lon="10.534686929137438"><ele>77.25</ele><time>2026-04-04T14:24:08.982Z</time></trkpt><trkpt lat="45.34187267025055" lon="10.534541152697"><ele>77.5</ele><time>2026-04-04T14:24:09.982Z</time></trkpt><trkpt lat="45.34194232755721" lon="10.53440500165126"><ele>77.75</ele><time>2026-04-04T14:24:10.982Z</time></trkpt><trkpt lat="45.34200957546219" lon="10.534268686728687"><ele>78.0</ele><time>2026-04-04T14:24:11.982Z</time></trkpt><trkpt lat="45.342079037628146" lon="10.534129639934566"><ele>78.0</ele><time>2026-04-04T14:24:12.982Z</time></trkpt><trkpt lat="45.342148288940585" lon="10.533991054799587"><ele>78.0</ele><time>2026-04-04T14:24:13.982Z</time></trkpt><trkpt lat="45.34222282329972" lon="10.533843685009797"><ele>78.0</ele><time>2026-04-04T14:24:14.982Z</time></trkpt><trkpt lat="45.34229096938219" lon="10.53368725763064"><ele>78.0</ele><time>2026-04-04T14:24:15.982Z</time></trkpt><trkpt lat="45.34236647097532" lon="10.53353929640609"><ele>78.0</ele><time>2026-04-04T14:24:16.982Z</time></trkpt><trkpt lat="45.34244314442745" lon="10.533394417274941"><ele>78.0</ele><time>2026-04-04T14:24:17.982Z</time></trkpt><trkpt lat="45.34251929833726" lon="10.533248337728569"><ele>78.0</ele><time>2026-04-04T14:24:18.982Z</time></trkpt><trkpt lat="45.342590730812574" lon="10.533104856522524"><ele>78.0</ele><time>2026-04-04T14:24:19.982Z</time></trkpt><trkpt lat="45.34266323378463" lon="10.53296538516075"><ele>77.6</ele><time>2026-04-04T14:24:20.982Z</time></trkpt><trkpt lat="45.34272505962646" lon="10.532837699292628"><ele>77.19999999999999</ele><time>2026-04-04T14:24:21.982Z</time></trkpt><trkpt lat="45.34278478808396" lon="10.532721278177508"><ele>76.8</ele><time>2026-04-04T14:24:22.982Z</time></trkpt><trkpt lat="45.34284349322335" lon="10.532597486681459"><ele>76.39999999999999</ele><time>2026-04-04T14:24:23.982Z</time></trkpt><trkpt lat="45.34290917618018" lon="10.532463500361976"><ele>76.0</ele><time>2026-04-04T14:24:24.982Z</time></trkpt><trkpt lat="45.342975137640686" lon="10.532331545201384"><ele>76.0</ele><time>2026-04-04T14:24:25.982Z</time></trkpt><trkpt lat="45.34303573454567" lon="10.532190742141722"><ele>76.0</ele><time>2026-04-04T14:24:26.982Z</time></trkpt><trkpt lat="45.34310376985675" lon="10.532045057948983"><ele>76.0</ele><time>2026-04-04T14:24:27.982Z</time></trkpt><trkpt lat="45.343176459534746" lon="10.531907369007374"><ele>76.0</ele><time>2026-04-04T14:24:28.982Z</time></trkpt><trkpt lat="45.34324757842917" lon="10.53177314816015"><ele>76.0</ele><time>2026-04-04T14:24:29.982Z</time></trkpt><trkpt lat="45.343314371855264" lon="10.531636624512103"><ele>76.0</ele><time>2026-04-04T14:24:30.982Z</time></trkpt><trkpt lat="45.343381269627294" lon="10.531504287693993"><ele>76.0</ele><time>2026-04-04T14:24:31.982Z</time></trkpt><trkpt lat="45.34345021955217" lon="10.53136965419375"><ele>76.0</ele><time>2026-04-04T14:24:32.982Z</time></trkpt><trkpt lat="45.34351525613735" lon="10.53123289445445"><ele>76.0</ele><time>2026-04-04T14:24:33.982Z</time></trkpt><trkpt lat="45.343571801608455" lon="10.531110322026583"><ele>76.0</ele><time>2026-04-04T14:24:34.982Z</time></trkpt><trkpt lat="45.34362520279224" lon="10.53100958374434"><ele>76.0</ele><time>2026-04-04T14:24:35.982Z</time></trkpt><trkpt lat="45.343671592378264" lon="10.530919585266181"><ele>76.0</ele><time>2026-04-04T14:24:36.982Z</time></trkpt><trkpt lat="45.343713097158584" lon="10.530836165121265"><ele>76.0</ele><time>2026-04-04T14:24:37.982Z</time></trkpt><trkpt lat="45.34375291721805" lon="10.530761396379313"><ele>76.0</ele><time>2026-04-04T14:24:38.982Z</time></trkpt><trkpt lat="45.34379244367084" lon="10.530687724087777"><ele>76.0</ele><time>2026-04-04T14:24:39.982Z</time></trkpt><trkpt lat="45.3438358583618" lon="10.53057181001573"><ele>76.0</ele><time>2026-04-04T14:24:41.982Z</time></trkpt><trkpt lat="45.34388291653708" lon="10.530467921916225"><ele>76.0</ele><time>2026-04-04T14:24:44.982Z</time></trkpt><trkpt lat="45.34393448227473" lon="10.530380079759022"><ele>76.0</ele><time>2026-04-04T14:25:03.981Z</time></trkpt><trkpt lat="45.343970851435465" lon="10.530306746501733"><ele>76.0</ele><time>2026-04-04T14:25:04.981Z</time></trkpt><trkpt lat="45.34402116846092" lon="10.530201355839253"><ele>76.0</ele><time>2026-04-04T14:25:05.981Z</time></trkpt><trkpt lat="45.34407295772911" lon="10.530090143335148"><ele>76.25</ele><time>2026-04-04T14:25:06.981Z</time></trkpt><trkpt lat="45.3441321943828" lon="10.529979258110059"><ele>76.5</ele><time>2026-04-04T14:25:07.981Z</time></trkpt><trkpt lat="45.34419930327454" lon="10.529849510356689"><ele>76.75</ele><time>2026-04-04T14:25:08.981Z</time></trkpt><trkpt lat="45.34428248384974" lon="10.529707366335293"><ele>77.0</ele><time>2026-04-04T14:25:09.981Z</time></trkpt><trkpt lat="45.344360248698564" lon="10.529566544827583"><ele>76.75</ele><time>2026-04-04T14:25:10.981Z</time></trkpt><trkpt lat="45.344435956483686" lon="10.529435668053454"><ele>76.5</ele><time>2026-04-04T14:25:11.981Z</time></trkpt><trkpt lat="45.34451226332984" lon="10.529292660259676"><ele>76.25</ele><time>2026-04-04T14:25:12.981Z</time></trkpt><trkpt lat="45.344587230721096" lon="10.52914311958176"><ele>76.0</ele><time>2026-04-04T14:25:13.981Z</time></trkpt><trkpt lat="45.344663535370614" lon="10.52899132242783"><ele>76.25</ele><time>2026-04-04T14:25:14.981Z</time></trkpt><trkpt lat="45.34473743794091" lon="10.528847419491667"><ele>76.5</ele><time>2026-04-04T14:25:15.981Z</time></trkpt><trkpt lat="45.34482050366563" lon="10.52870683658894"><ele>76.75</ele><time>2026-04-04T14:25:16.981Z</time></trkpt><trkpt lat="45.3448941104849" lon="10.528562900544143"><ele>77.0</ele><time>2026-04-04T14:25:17.981Z</time></trkpt><trkpt lat="45.34496410976512" lon="10.528408960676254"><ele>77.0</ele><time>2026-04-04T14:25:18.981Z</time></trkpt><trkpt lat="45.34503247480796" lon="10.52825135569011"><ele>77.0</ele><time>2026-04-04T14:25:19.981Z</time></trkpt><trkpt lat="45.34510973774884" lon="10.528092279356134"><ele>77.0</ele><time>2026-04-04T14:25:20.981Z</time></trkpt><trkpt lat="45.345198364787066" lon="10.527941543695269"><ele>77.0</ele><time>2026-04-04T14:25:21.981Z</time></trkpt><trkpt lat="45.345280090801396" lon="10.527785431829228"><ele>76.75</ele><time>2026-04-04T14:25:22.981Z</time></trkpt><trkpt lat="45.34535693100303" lon="10.527627910561796"><ele>76.5</ele><time>2026-04-04T14:25:23.981Z</time></trkpt><trkpt lat="45.34542997266759" lon="10.527474855071027"><ele>76.25</ele><time>2026-04-04T14:25:24.981Z</time></trkpt><trkpt lat="45.34550409015205" lon="10.52733088531685"><ele>76.0</ele><time>2026-04-04T14:25:25.981Z</time></trkpt><trkpt lat="45.3455822768822" lon="10.527182319495726"><ele>76.25</ele><time>2026-04-04T14:25:26.981Z</time></trkpt><trkpt lat="45.345658243584815" lon="10.5270290826168"><ele>76.5</ele><time>2026-04-04T14:25:27.981Z</time></trkpt><trkpt lat="45.34573341556971" lon="10.526873672905667"><ele>76.75</ele><time>2026-04-04T14:25:28.981Z</time></trkpt><trkpt lat="45.34581130232373" lon="10.526718832566628"><ele>77.0</ele><time>2026-04-04T14:25:29.981Z</time></trkpt><trkpt lat="45.345885535478985" lon="10.526569375209013"><ele>77.0</ele><time>2026-04-04T14:25:30.981Z</time></trkpt><trkpt lat="45.345967056259475" lon="10.526422256926987"><ele>77.0</ele><time>2026-04-04T14:25:31.981Z</time></trkpt><trkpt lat="45.34604355280821" lon="10.526268230974798"><ele>77.0</ele><time>2026-04-04T14:25:32.981Z</time></trkpt><trkpt lat="45.346118225015566" lon="10.52611858337109"><ele>77.0</ele><time>2026-04-04T14:25:33.981Z</time></trkpt><trkpt lat="45.34619303088576" lon="10.525969144514432"><ele>77.0</ele><time>2026-04-04T14:25:34.981Z</time></trkpt><trkpt lat="45.34627137920472" lon="10.525827700769444"><ele>77.0</ele><time>2026-04-04T14:25:35.981Z</time></trkpt><trkpt lat="45.34635019369889" lon="10.52567223890234"><ele>77.0</ele><time>2026-04-04T14:25:36.981Z</time></trkpt><trkpt lat="45.34643138294621" lon="10.525509351880107"><ele>77.0</ele><time>2026-04-04T14:25:37.981Z</time></trkpt><trkpt lat="45.3465072612025" lon="10.525345138526381"><ele>77.25</ele><time>2026-04-04T14:25:38.981Z</time></trkpt><trkpt lat="45.34658401665537" lon="10.525181688705082"><ele>77.5</ele><time>2026-04-04T14:25:39.981Z</time></trkpt><trkpt lat="45.34666054967748" lon="10.525035844307927"><ele>77.75</ele><time>2026-04-04T14:25:40.98Z</time></trkpt><trkpt lat="45.34674320347572" lon="10.524883418488631"><ele>78.0</ele><time>2026-04-04T14:25:41.98Z</time></trkpt><trkpt lat="45.34681529579372" lon="10.524719902536933"><ele>77.75</ele><time>2026-04-04T14:25:42.98Z</time></trkpt><trkpt lat="45.34688906657585" lon="10.52456103812314"><ele>77.5</ele><time>2026-04-04T14:25:43.98Z</time></trkpt><trkpt lat="45.346966134164376" lon="10.524402970578313"><ele>77.25</ele><time>2026-04-04T14:25:44.98Z</time></trkpt><trkpt lat="45.34703986660485" lon="10.524242518664627"><ele>77.0</ele><time>2026-04-04T14:25:45.98Z</time></trkpt><trkpt lat="45.347111977943996" lon="10.524098287033553"><ele>77.0</ele><time>2026-04-04T14:25:46.98Z</time></trkpt><trkpt lat="45.34719018580618" lon="10.523953885055047"><ele>77.0</ele><time>2026-04-04T14:25:47.98Z</time></trkpt><trkpt lat="45.34726607013022" lon="10.523807749758562"><ele>77.0</ele><time>2026-04-04T14:25:48.98Z</time></trkpt><trkpt lat="45.347331384144034" lon="10.523655043570487"><ele>77.0</ele><time>2026-04-04T14:25:49.98Z</time></trkpt><trkpt lat="45.34739625283757" lon="10.523497588806714"><ele>77.5</ele><time>2026-04-04T14:25:50.984Z</time></trkpt><trkpt lat="45.347470406842305" lon="10.523360282248602"><ele>78.0</ele><time>2026-04-04T14:25:51.984Z</time></trkpt><trkpt lat="45.34754186769699" lon="10.523223588528005"><ele>78.5</ele><time>2026-04-04T14:25:52.984Z</time></trkpt><trkpt lat="45.347609226638426" lon="10.52308142931015"><ele>79.0</ele><time>2026-04-04T14:25:53.983Z</time></trkpt><trkpt lat="45.347672781266475" lon="10.522957367631415"><ele>78.8</ele><time>2026-04-04T14:25:54.983Z</time></trkpt><trkpt lat="45.34775095975162" lon="10.522874865017059"><ele>78.60000000000001</ele><time>2026-04-04T14:25:55.983Z</time></trkpt><trkpt lat="45.347775987255076" lon="10.522750110881907"><ele>78.4</ele><time>2026-04-04T14:25:56.984Z</time></trkpt><trkpt lat="45.34782916826039" lon="10.522637954729847"><ele>78.2</ele><time>2026-04-04T14:25:57.984Z</time></trkpt><trkpt lat="45.34788907311847" lon="10.522522418954978"><ele>78.0</ele><time>2026-04-04T14:25:58.984Z</time></trkpt><trkpt lat="45.34795258988131" lon="10.522399875302952"><ele>78.0</ele><time>2026-04-04T14:25:59.983Z</time></trkpt><trkpt lat="45.34801753344537" lon="10.522274521810969"><ele>78.0</ele><time>2026-04-04T14:26:00.983Z</time></trkpt><trkpt lat="45.348077351880086" lon="10.522140529698483"><ele>78.0</ele><time>2026-04-04T14:26:01.983Z</time></trkpt><trkpt lat="45.34814287621097" lon="10.522007117242085"><ele>78.0</ele><time>2026-04-04T14:26:02.983Z</time></trkpt><trkpt lat="45.348206177229955" lon="10.521871939970334"><ele>77.5</ele><time>2026-04-04T14:26:03.984Z</time></trkpt><trkpt lat="45.348269510564926" lon="10.521737353023932"><ele>77.0</ele><time>2026-04-04T14:26:04.984Z</time></trkpt><trkpt lat="45.34834234236907" lon="10.521598428392007"><ele>76.5</ele><time>2026-04-04T14:26:05.984Z</time></trkpt><trkpt lat="45.34842369774608" lon="10.521466742455203"><ele>76.0</ele><time>2026-04-04T14:26:06.984Z</time></trkpt><trkpt lat="45.348498155247164" lon="10.521336435485289"><ele>76.25</ele><time>2026-04-04T14:26:07.984Z</time></trkpt><trkpt lat="45.34855479110791" lon="10.52118920263216"><ele>76.5</ele><time>2026-04-04T14:26:08.984Z</time></trkpt><trkpt lat="45.34862268309204" lon="10.521042754938428"><ele>76.75</ele><time>2026-04-04T14:26:09.984Z</time></trkpt><trkpt lat="45.348696790507155" lon="10.520902935494522"><ele>77.0</ele><time>2026-04-04T14:26:10.984Z</time></trkpt><trkpt lat="45.34876936129258" lon="10.52076270062709"><ele>77.0</ele><time>2026-04-04T14:26:11.984Z</time></trkpt><trkpt lat="45.34884138241502" lon="10.52062217637891"><ele>77.0</ele><time>2026-04-04T14:26:12.984Z</time></trkpt><trkpt lat="45.34891671451375" lon="10.520472999268073"><ele>77.0</ele><time>2026-04-04T14:26:13.984Z</time></trkpt><trkpt lat="45.34898689400881" lon="10.520337188101323"><ele>77.0</ele><time>2026-04-04T14:26:14.984Z</time></trkpt><trkpt lat="45.349061889779364" lon="10.520197201212993"><ele>76.8</ele><time>2026-04-04T14:26:15.984Z</time></trkpt><trkpt lat="45.34913547424791" lon="10.520063903059539"><ele>76.6</ele><time>2026-04-04T14:26:16.984Z</time></trkpt><trkpt lat="45.3492045832384" lon="10.519937183387427"><ele>76.39999999999999</ele><time>2026-04-04T14:26:17.984Z</time></trkpt><trkpt lat="45.349260167520804" lon="10.5198215462228"><ele>76.2</ele><time>2026-04-04T14:26:18.984Z</time></trkpt><trkpt lat="45.34930629126152" lon="10.519723176676678"><ele>76.0</ele><time>2026-04-04T14:26:19.984Z</time></trkpt><trkpt lat="45.349348976031756" lon="10.519644817914603"><ele>76.0</ele><time>2026-04-04T14:26:20.984Z</time></trkpt><trkpt lat="45.34940409694598" lon="10.519566326115067"><ele>76.0</ele><time>2026-04-04T14:26:22.984Z</time></trkpt><trkpt lat="45.34948609822797" lon="10.519553284876709"><ele>76.0</ele><time>2026-04-04T14:26:25.984Z</time></trkpt><trkpt lat="45.34960138143717" lon="10.519657728987907"><ele>76.0</ele><time>2026-04-04T14:26:27.984Z</time></trkpt><trkpt lat="45.34966318906408" lon="10.519745559930998"><ele>76.0</ele><time>2026-04-04T14:26:28.984Z</time></trkpt><trkpt lat="45.34973643665576" lon="10.519844625067064"><ele>76.0</ele><time>2026-04-04T14:26:29.984Z</time></trkpt><trkpt lat="45.349824973846324" lon="10.519945405645842"><ele>76.0</ele><time>2026-04-04T14:26:30.984Z</time></trkpt><trkpt lat="45.349923034909615" lon="10.520049940585528"><ele>76.0</ele><time>2026-04-04T14:26:31.984Z</time></trkpt><trkpt lat="45.350019733551115" lon="10.520153069160054"><ele>76.0</ele><time>2026-04-04T14:26:32.984Z</time></trkpt><trkpt lat="45.350121851893014" lon="10.520265503260932"><ele>76.0</ele><time>2026-04-04T14:26:33.984Z</time></trkpt><trkpt lat="45.35022760594933" lon="10.52037744680701"><ele>76.0</ele><time>2026-04-04T14:26:34.984Z</time></trkpt><trkpt lat="45.35033253825399" lon="10.520491034866941"><ele>76.0</ele><time>2026-04-04T14:26:35.984Z</time></trkpt><trkpt lat="45.35044000725294" lon="10.520612528504827"><ele>76.0</ele><time>2026-04-04T14:26:36.984Z</time></trkpt><trkpt lat="45.35055007754622" lon="10.520734677725407"><ele>77.5</ele><time>2026-04-04T14:26:37.984Z</time></trkpt><trkpt lat="45.3506591820057" lon="10.520856654838205"><ele>79.0</ele><time>2026-04-04T14:26:38.984Z</time></trkpt><trkpt lat="45.35077009101243" lon="10.520975706559831"><ele>80.5</ele><time>2026-04-04T14:26:39.984Z</time></trkpt><trkpt lat="45.35088514843721" lon="10.521101167892924"><ele>82.0</ele><time>2026-04-04T14:26:40.983Z</time></trkpt><trkpt lat="45.35099459404564" lon="10.521220969545308"><ele>81.66666666666666</ele><time>2026-04-04T14:26:41.983Z</time></trkpt><trkpt lat="45.35110980992402" lon="10.521349079366193"><ele>81.33333333333333</ele><time>2026-04-04T14:26:42.983Z</time></trkpt><trkpt lat="45.35123002169262" lon="10.521480059775346"><ele>81.0</ele><time>2026-04-04T14:26:43.983Z</time></trkpt><trkpt lat="45.351352861712805" lon="10.521614338191101"><ele>81.0</ele><time>2026-04-04T14:26:44.983Z</time></trkpt><trkpt lat="45.351477183015874" lon="10.521750538237612"><ele>81.0</ele><time>2026-04-04T14:26:45.983Z</time></trkpt><trkpt lat="45.35160002273042" lon="10.521888306892185"><ele>81.0</ele><time>2026-04-04T14:26:46.983Z</time></trkpt><trkpt lat="45.351721582560636" lon="10.522027404421157"><ele>81.33333333333333</ele><time>2026-04-04T14:26:47.983Z</time></trkpt><trkpt lat="45.35184345667574" lon="10.522165446840384"><ele>81.66666666666666</ele><time>2026-04-04T14:26:48.983Z</time></trkpt><trkpt lat="45.35196497471619" lon="10.522310820338054"><ele>82.0</ele><time>2026-04-04T14:26:49.983Z</time></trkpt><trkpt lat="45.35208779075341" lon="10.522453857566159"><ele>82.66666666666666</ele><time>2026-04-04T14:26:50.983Z</time></trkpt><trkpt lat="45.35221519964033" lon="10.522597745272241"><ele>83.33333333333333</ele><time>2026-04-04T14:26:51.983Z</time></trkpt><trkpt lat="45.35233858722916" lon="10.522740726846754"><ele>84.0</ele><time>2026-04-04T14:26:52.983Z</time></trkpt><trkpt lat="45.35247010675647" lon="10.522874790228983"><ele>85.0</ele><time>2026-04-04T14:26:53.983Z</time></trkpt><trkpt lat="45.352597838688844" lon="10.523022454637177"><ele>86.0</ele><time>2026-04-04T14:26:54.983Z</time></trkpt><trkpt lat="45.35272832068655" lon="10.523156954877608"><ele>87.0</ele><time>2026-04-04T14:26:55.983Z</time></trkpt><trkpt lat="45.35285264393928" lon="10.523306312140633"><ele>87.0</ele><time>2026-04-04T14:26:56.983Z</time></trkpt><trkpt lat="45.352984080244376" lon="10.523439380196528"><ele>87.0</ele><time>2026-04-04T14:26:57.983Z</time></trkpt><trkpt lat="45.35312221140745" lon="10.523574610875658"><ele>87.0</ele><time>2026-04-04T14:26:58.983Z</time></trkpt><trkpt lat="45.35325535151762" lon="10.523702262682772"><ele>85.66666666666667</ele><time>2026-04-04T14:26:59.983Z</time></trkpt><trkpt lat="45.353394304734906" lon="10.523830165379062"><ele>84.33333333333334</ele><time>2026-04-04T14:27:00.983Z</time></trkpt><trkpt lat="45.353528577910026" lon="10.523963879661071"><ele>83.0</ele><time>2026-04-04T14:27:01.983Z</time></trkpt><trkpt lat="45.35365614567135" lon="10.524088170039485"><ele>83.0</ele><time>2026-04-04T14:27:02.983Z</time></trkpt><trkpt lat="45.353782565556244" lon="10.524212142636173"><ele>83.0</ele><time>2026-04-04T14:27:03.983Z</time></trkpt><trkpt lat="45.3539020305283" lon="10.524329567312776"><ele>83.0</ele><time>2026-04-04T14:27:04.983Z</time></trkpt><trkpt lat="45.354007371876556" lon="10.524430798820276"><ele>83.0</ele><time>2026-04-04T14:27:05.983Z</time></trkpt><trkpt lat="45.35412221369356" lon="10.524533607752687"><ele>83.0</ele><time>2026-04-04T14:27:06.983Z</time></trkpt><trkpt lat="45.35423030964986" lon="10.524637704791823"><ele>83.0</ele><time>2026-04-04T14:27:07.983Z</time></trkpt><trkpt lat="45.354333416647265" lon="10.524741375438538"><ele>83.0</ele><time>2026-04-04T14:27:08.983Z</time></trkpt><trkpt lat="45.354430483904245" lon="10.52483854868234"><ele>83.0</ele><time>2026-04-04T14:27:09.983Z</time></trkpt><trkpt lat="45.35451777162189" lon="10.524925751831116"><ele>83.0</ele><time>2026-04-04T14:27:10.983Z</time></trkpt><trkpt lat="45.354607748411645" lon="10.525012003852325"><ele>83.0</ele><time>2026-04-04T14:27:11.983Z</time></trkpt><trkpt lat="45.35469687917273" lon="10.525098442819925"><ele>83.0</ele><time>2026-04-04T14:27:12.983Z</time></trkpt><trkpt lat="45.35477084841487" lon="10.52516819119536"><ele>83.0</ele><time>2026-04-04T14:27:13.983Z</time></trkpt><trkpt lat="45.35482645877691" lon="10.525221787695347"><ele>83.0</ele><time>2026-04-04T14:27:14.983Z</time></trkpt><trkpt lat="45.354874954682714" lon="10.525309522240676"><ele>83.57142857142857</ele><time>2026-04-04T14:27:16.983Z</time></trkpt><trkpt lat="45.35490418088977" lon="10.525400767156476"><ele>84.14285714285715</ele><time>2026-04-04T14:27:18.983Z</time></trkpt><trkpt lat="45.354958158813695" lon="10.525451394628556"><ele>84.71428571428572</ele><time>2026-04-04T14:27:19.983Z</time></trkpt><trkpt lat="45.35502487370453" lon="10.525513941862467"><ele>85.28571428571428</ele><time>2026-04-04T14:27:20.983Z</time></trkpt><trkpt lat="45.35508520349486" lon="10.525564252670218"><ele>85.85714285714286</ele><time>2026-04-04T14:27:21.983Z</time></trkpt><trkpt lat="45.35514170772032" lon="10.525617715546586"><ele>86.42857142857143</ele><time>2026-04-04T14:27:22.983Z</time></trkpt><trkpt lat="45.355196975946335" lon="10.525674229516575"><ele>87.0</ele><time>2026-04-04T14:27:23.983Z</time></trkpt><trkpt lat="45.35525366188003" lon="10.525727299493187"><ele>87.0</ele><time>2026-04-04T14:27:24.983Z</time></trkpt><trkpt lat="45.35530909246412" lon="10.525777596976543"><ele>87.0</ele><time>2026-04-04T14:27:25.983Z</time></trkpt><trkpt lat="45.355250969299085" lon="10.525885308151853"><ele>87.0</ele><time>2026-04-04T14:27:28.983Z</time></trkpt><trkpt lat="45.35516620038682" lon="10.526004462973875"><ele>87.0</ele><time>2026-04-04T14:27:30.983Z</time></trkpt><trkpt lat="45.355165258196294" lon="10.526118928985532"><ele>87.0</ele><time>2026-04-04T14:27:33.982Z</time></trkpt><trkpt lat="45.35527240590105" lon="10.526113284727188"><ele>87.0</ele><time>2026-04-04T14:27:35.982Z</time></trkpt><trkpt lat="45.35533746954842" lon="10.526046677062464"><ele>87.0</ele><time>2026-04-04T14:27:36.982Z</time></trkpt><trkpt lat="45.355406905773904" lon="10.525952638271498"><ele>87.0</ele><time>2026-04-04T14:27:37.982Z</time></trkpt><trkpt lat="45.355485520877664" lon="10.525880274409786"><ele>87.0</ele><time>2026-04-04T14:27:38.982Z</time></trkpt><trkpt lat="45.35557153900854" lon="10.525835118800451"><ele>87.0</ele><time>2026-04-04T14:27:39.982Z</time></trkpt><trkpt lat="45.35565021198364" lon="10.525840402418863"><ele>87.0</ele><time>2026-04-04T14:27:40.982Z</time></trkpt><trkpt lat="45.355723846801496" lon="10.525894805200993"><ele>87.0</ele><time>2026-04-04T14:27:41.982Z</time></trkpt><trkpt lat="45.35579429352895" lon="10.525989015684175"><ele>87.0</ele><time>2026-04-04T14:27:42.982Z</time></trkpt><trkpt lat="45.355874363283625" lon="10.526093166306838"><ele>87.0</ele><time>2026-04-04T14:27:43.982Z</time></trkpt><trkpt lat="45.355969308085136" lon="10.526182048567707"><ele>87.0</ele><time>2026-04-04T14:27:44.982Z</time></trkpt><trkpt lat="45.35607331475222" lon="10.526278857937845"><ele>87.0</ele><time>2026-04-04T14:27:45.982Z</time></trkpt><trkpt lat="45.356187718205156" lon="10.526387488117841"><ele>87.0</ele><time>2026-04-04T14:27:46.982Z</time></trkpt><trkpt lat="45.3563053918451" lon="10.52649728117041"><ele>87.0</ele><time>2026-04-04T14:27:47.982Z</time></trkpt><trkpt lat="45.356423518103675" lon="10.526611224323904"><ele>87.0</ele><time>2026-04-04T14:27:48.982Z</time></trkpt><trkpt lat="45.356544020643014" lon="10.52672743103872"><ele>87.0</ele><time>2026-04-04T14:27:49.982Z</time></trkpt><trkpt lat="45.356666487519796" lon="10.526846681139522"><ele>87.25</ele><time>2026-04-04T14:27:50.982Z</time></trkpt><trkpt lat="45.356791726863506" lon="10.526962121283741"><ele>87.5</ele><time>2026-04-04T14:27:51.982Z</time></trkpt><trkpt lat="45.356915864810205" lon="10.52707884938758"><ele>87.75</ele><time>2026-04-04T14:27:52.982Z</time></trkpt><trkpt lat="45.35703223051833" lon="10.527203869480116"><ele>88.0</ele><time>2026-04-04T14:27:53.982Z</time></trkpt><trkpt lat="45.35715765416606" lon="10.52732023619361"><ele>87.66666666666666</ele><time>2026-04-04T14:27:54.982Z</time></trkpt><trkpt lat="45.35728522823106" lon="10.527439798881804"><ele>87.33333333333333</ele><time>2026-04-04T14:27:55.984Z</time></trkpt><trkpt lat="45.357409134338056" lon="10.527559180808966"><ele>87.0</ele><time>2026-04-04T14:27:56.984Z</time></trkpt><trkpt lat="45.357541865755216" lon="10.52767090980034"><ele>87.0</ele><time>2026-04-04T14:27:57.984Z</time></trkpt><trkpt lat="45.35767292412023" lon="10.5277885961417"><ele>87.0</ele><time>2026-04-04T14:27:58.985Z</time></trkpt><trkpt lat="45.35780373991533" lon="10.527909891600379"><ele>87.0</ele><time>2026-04-04T14:27:59.984Z</time></trkpt><trkpt lat="45.357933358689905" lon="10.528033732403113"><ele>87.33333333333333</ele><time>2026-04-04T14:28:00.984Z</time></trkpt><trkpt lat="45.358071308496186" lon="10.528157299400707"><ele>87.66666666666666</ele><time>2026-04-04T14:28:01.984Z</time></trkpt><trkpt lat="45.35820721862397" lon="10.52827690156447"><ele>88.0</ele><time>2026-04-04T14:28:02.984Z</time></trkpt><trkpt lat="45.35833664534917" lon="10.52839589208562"><ele>88.0</ele><time>2026-04-04T14:28:03.984Z</time></trkpt><trkpt lat="45.35845952430016" lon="10.528509822602908"><ele>88.0</ele><time>2026-04-04T14:28:04.983Z</time></trkpt><trkpt lat="45.35857742353132" lon="10.528620806419305"><ele>88.0</ele><time>2026-04-04T14:28:05.985Z</time></trkpt><trkpt lat="45.358702604019385" lon="10.528717485152828"><ele>88.0</ele><time>2026-04-04T14:28:06.984Z</time></trkpt><trkpt lat="45.35882319286661" lon="10.528819003783841"><ele>88.75</ele><time>2026-04-04T14:28:07.984Z</time></trkpt><trkpt lat="45.358939333135034" lon="10.528931452378897"><ele>89.5</ele><time>2026-04-04T14:28:08.984Z</time></trkpt><trkpt lat="45.35905466281563" lon="10.529044096820511"><ele>90.25</ele><time>2026-04-04T14:28:09.984Z</time></trkpt><trkpt lat="45.3591524785082" lon="10.529154904642"><ele>91.0</ele><time>2026-04-04T14:28:10.984Z</time></trkpt><trkpt lat="45.35923949991585" lon="10.529258560309643"><ele>91.0</ele><time>2026-04-04T14:28:11.984Z</time></trkpt><trkpt lat="45.359311172083" lon="10.529345696084924"><ele>91.0</ele><time>2026-04-04T14:28:12.984Z</time></trkpt><trkpt lat="45.35938416213697" lon="10.529418607622663"><ele>91.0</ele><time>2026-04-04T14:28:13.984Z</time></trkpt><trkpt lat="45.35944764820055" lon="10.529493660652133"><ele>91.0</ele><time>2026-04-04T14:28:14.984Z</time></trkpt><trkpt lat="45.35951737684099" lon="10.529532785218423"><ele>91.0</ele><time>2026-04-04T14:28:15.984Z</time></trkpt><trkpt lat="45.359583199641214" lon="10.529544205593325"><ele>91.0</ele><time>2026-04-04T14:28:16.984Z</time></trkpt><trkpt lat="45.3596937637133" lon="10.529516091072203"><ele>91.0</ele><time>2026-04-04T14:28:18.984Z</time></trkpt><trkpt lat="45.35975923116329" lon="10.529517982827107"><ele>91.0</ele><time>2026-04-04T14:28:20.984Z</time></trkpt><trkpt lat="45.359736654663266" lon="10.529674285418919"><ele>91.0</ele><time>2026-04-04T14:28:23.984Z</time></trkpt><trkpt lat="45.35968039549909" lon="10.529754586851425"><ele>91.0</ele><time>2026-04-04T14:28:24.984Z</time></trkpt><trkpt lat="45.359614577253474" lon="10.529842279248465"><ele>91.0</ele><time>2026-04-04T14:28:25.984Z</time></trkpt><trkpt lat="45.359553807625026" lon="10.529950141262953"><ele>91.0</ele><time>2026-04-04T14:28:26.984Z</time></trkpt><trkpt lat="45.35949629698819" lon="10.530060867694182"><ele>91.0</ele><time>2026-04-04T14:28:27.984Z</time></trkpt><trkpt lat="45.35943385464234" lon="10.53018154189962"><ele>91.0</ele><time>2026-04-04T14:28:28.984Z</time></trkpt><trkpt lat="45.35936785926088" lon="10.530311103199589"><ele>91.0</ele><time>2026-04-04T14:28:29.984Z</time></trkpt><trkpt lat="45.359302741070366" lon="10.53043953867651"><ele>91.0</ele><time>2026-04-04T14:28:30.984Z</time></trkpt><trkpt lat="45.359233807548165" lon="10.530569520600684"><ele>91.0</ele><time>2026-04-04T14:28:31.984Z</time></trkpt><trkpt lat="45.35916379131771" lon="10.530703550318249"><ele>91.25</ele><time>2026-04-04T14:28:32.984Z</time></trkpt><trkpt lat="45.35908884312676" lon="10.530836376420995"><ele>91.5</ele><time>2026-04-04T14:28:33.984Z</time></trkpt><trkpt lat="45.35902225623422" lon="10.530975065192344"><ele>91.75</ele><time>2026-04-04T14:28:34.984Z</time></trkpt><trkpt lat="45.35894976102457" lon="10.53111219470069"><ele>92.0</ele><time>2026-04-04T14:28:35.984Z</time></trkpt><trkpt lat="45.35887489107114" lon="10.53124686855161"><ele>92.0</ele><time>2026-04-04T14:28:36.984Z</time></trkpt><trkpt lat="45.358799283492004" lon="10.531390876691654"><ele>92.0</ele><time>2026-04-04T14:28:37.984Z</time></trkpt><trkpt lat="45.3587249341398" lon="10.531532849305242"><ele>92.0</ele><time>2026-04-04T14:28:38.984Z</time></trkpt><trkpt lat="45.358645207307504" lon="10.531676565449512"><ele>92.0</ele><time>2026-04-04T14:28:39.984Z</time></trkpt><trkpt lat="45.35856312691319" lon="10.531816014027955"><ele>92.0</ele><time>2026-04-04T14:28:40.984Z</time></trkpt><trkpt lat="45.35848216021688" lon="10.53196579951988"><ele>92.0</ele><time>2026-04-04T14:28:41.984Z</time></trkpt><trkpt lat="45.35839555473713" lon="10.532114618026961"><ele>92.0</ele><time>2026-04-04T14:28:42.984Z</time></trkpt><trkpt lat="45.35831345868035" lon="10.532269715052111"><ele>92.0</ele><time>2026-04-04T14:28:43.984Z</time></trkpt><trkpt lat="45.358231931201985" lon="10.532426735150489"><ele>92.0</ele><time>2026-04-04T14:28:44.984Z</time></trkpt><trkpt lat="45.358148486387705" lon="10.53258453304179"><ele>92.0</ele><time>2026-04-04T14:28:45.984Z</time></trkpt><trkpt lat="45.35806717827627" lon="10.532736890045644"><ele>92.0</ele><time>2026-04-04T14:28:46.984Z</time></trkpt><trkpt lat="45.35798333218676" lon="10.53289519381621"><ele>92.0</ele><time>2026-04-04T14:28:47.984Z</time></trkpt><trkpt lat="45.35790025384711" lon="10.533055162869223"><ele>91.75</ele><time>2026-04-04T14:28:48.984Z</time></trkpt><trkpt lat="45.35781837477787" lon="10.533211552475729"><ele>91.5</ele><time>2026-04-04T14:28:49.984Z</time></trkpt><trkpt lat="45.357735981471805" lon="10.533368148015333"><ele>91.25</ele><time>2026-04-04T14:28:50.984Z</time></trkpt><trkpt lat="45.357659710385356" lon="10.533512465782405"><ele>91.0</ele><time>2026-04-04T14:28:51.984Z</time></trkpt><trkpt lat="45.35759337133927" lon="10.533633238907829"><ele>91.19999999999999</ele><time>2026-04-04T14:28:52.984Z</time></trkpt><trkpt lat="45.357527060537976" lon="10.5337553541693"><ele>91.39999999999999</ele><time>2026-04-04T14:28:53.984Z</time></trkpt><trkpt lat="45.35745256878154" lon="10.533888351261274"><ele>91.6</ele><time>2026-04-04T14:28:54.984Z</time></trkpt><trkpt lat="45.35738686077974" lon="10.534004844666063"><ele>91.8</ele><time>2026-04-04T14:28:55.983Z</time></trkpt><trkpt lat="45.35732716680944" lon="10.534111825573085"><ele>92.0</ele><time>2026-04-04T14:28:56.983Z</time></trkpt><trkpt lat="45.35728181616061" lon="10.534194560416159"><ele>92.0</ele><time>2026-04-04T14:28:57.983Z</time></trkpt><trkpt lat="45.35722875599317" lon="10.534319971578984"><ele>92.0</ele><time>2026-04-04T14:28:59.983Z</time></trkpt><trkpt lat="45.35726977166157" lon="10.534441869824871"><ele>92.0</ele><time>2026-04-04T14:29:01.983Z</time></trkpt><trkpt lat="45.357416046158804" lon="10.53446704608915"><ele>92.0</ele><time>2026-04-04T14:29:03.983Z</time></trkpt><trkpt lat="45.35752312499508" lon="10.534468660456783"><ele>92.0</ele><time>2026-04-04T14:29:04.983Z</time></trkpt><trkpt lat="45.357636973899865" lon="10.534492769925368"><ele>92.0</ele><time>2026-04-04T14:29:05.983Z</time></trkpt><trkpt lat="45.357756566121196" lon="10.534508235679242"><ele>92.0</ele><time>2026-04-04T14:29:06.983Z</time></trkpt><trkpt lat="45.357894661432226" lon="10.53450368277489"><ele>92.0</ele><time>2026-04-04T14:29:07.983Z</time></trkpt><trkpt lat="45.35803714567903" lon="10.534501352414567"><ele>92.33333333333334</ele><time>2026-04-04T14:29:08.983Z</time></trkpt><trkpt lat="45.35819126275773" lon="10.534523071647993"><ele>92.66666666666667</ele><time>2026-04-04T14:29:09.983Z</time></trkpt><trkpt lat="45.358352816001705" lon="10.534531381616803"><ele>93.0</ele><time>2026-04-04T14:29:10.983Z</time></trkpt><trkpt lat="45.3585160311271" lon="10.534546788736655"><ele>93.0</ele><time>2026-04-04T14:29:11.983Z</time></trkpt><trkpt lat="45.35869112355704" lon="10.534564943909666"><ele>93.0</ele><time>2026-04-04T14:29:12.983Z</time></trkpt><trkpt lat="45.358880891816035" lon="10.534580419731187"><ele>93.0</ele><time>2026-04-04T14:29:13.983Z</time></trkpt><trkpt lat="45.359056192964594" lon="10.53459931176068"><ele>93.0</ele><time>2026-04-04T14:29:14.983Z</time></trkpt><trkpt lat="45.359225130687015" lon="10.534616923902165"><ele>93.0</ele><time>2026-04-04T14:29:15.983Z</time></trkpt><trkpt lat="45.35939264370953" lon="10.534634222371935"><ele>93.0</ele><time>2026-04-04T14:29:16.983Z</time></trkpt><trkpt lat="45.35955907808396" lon="10.534648300049348"><ele>94.0</ele><time>2026-04-04T14:29:17.983Z</time></trkpt><trkpt lat="45.35971776673168" lon="10.53466008852757"><ele>95.0</ele><time>2026-04-04T14:29:18.983Z</time></trkpt><trkpt lat="45.359880028959395" lon="10.534667328983266"><ele>96.0</ele><time>2026-04-04T14:29:19.983Z</time></trkpt><trkpt lat="45.36004220351887" lon="10.534675529548007"><ele>96.0</ele><time>2026-04-04T14:29:20.983Z</time></trkpt><trkpt lat="45.36019914224408" lon="10.534687871685271"><ele>96.0</ele><time>2026-04-04T14:29:21.983Z</time></trkpt><trkpt lat="45.36035459700254" lon="10.534700408518756"><ele>96.0</ele><time>2026-04-04T14:29:22.983Z</time></trkpt><trkpt lat="45.36050167538942" lon="10.534709890316574"><ele>95.25</ele><time>2026-04-04T14:29:23.983Z</time></trkpt><trkpt lat="45.36063573629529" lon="10.53472207079681"><ele>94.5</ele><time>2026-04-04T14:29:24.983Z</time></trkpt><trkpt lat="45.36075678919468" lon="10.534738612172713"><ele>93.75</ele><time>2026-04-04T14:29:25.983Z</time></trkpt><trkpt lat="45.36088745579704" lon="10.534753234661896"><ele>93.0</ele><time>2026-04-04T14:29:26.983Z</time></trkpt><trkpt lat="45.361028293534346" lon="10.534766607064931"><ele>93.0</ele><time>2026-04-04T14:29:27.983Z</time></trkpt><trkpt lat="45.36118397577078" lon="10.534765974531238"><ele>93.0</ele><time>2026-04-04T14:29:28.983Z</time></trkpt><trkpt lat="45.36133434153308" lon="10.534788457232157"><ele>93.0</ele><time>2026-04-04T14:29:29.983Z</time></trkpt><trkpt lat="45.36148245062447" lon="10.53478833597142"><ele>93.5</ele><time>2026-04-04T14:29:30.983Z</time></trkpt><trkpt lat="45.36163124525423" lon="10.534800755768085"><ele>94.0</ele><time>2026-04-04T14:29:31.983Z</time></trkpt><trkpt lat="45.361778292205976" lon="10.534811591713405"><ele>94.5</ele><time>2026-04-04T14:29:32.983Z</time></trkpt><trkpt lat="45.36192967477407" lon="10.534830535300841"><ele>95.0</ele><time>2026-04-04T14:29:33.983Z</time></trkpt><trkpt lat="45.362087900455656" lon="10.534845649897612"><ele>96.0</ele><time>2026-04-04T14:29:34.983Z</time></trkpt><trkpt lat="45.36224766433533" lon="10.534850388829724"><ele>97.0</ele><time>2026-04-04T14:29:35.983Z</time></trkpt><trkpt lat="45.36240362384496" lon="10.534860028585998"><ele>98.0</ele><time>2026-04-04T14:29:36.983Z</time></trkpt><trkpt lat="45.36255777199292" lon="10.534868804003269"><ele>98.0</ele><time>2026-04-04T14:29:37.983Z</time></trkpt><trkpt lat="45.36271461934467" lon="10.534879368228081"><ele>98.0</ele><time>2026-04-04T14:29:38.983Z</time></trkpt><trkpt lat="45.36286769100885" lon="10.534888816800713"><ele>98.0</ele><time>2026-04-04T14:29:39.983Z</time></trkpt><trkpt lat="45.36302148273487" lon="10.534901017804048"><ele>98.0</ele><time>2026-04-04T14:29:40.983Z</time></trkpt><trkpt lat="45.36317149653017" lon="10.53491344069062"><ele>98.0</ele><time>2026-04-04T14:29:41.983Z</time></trkpt><trkpt lat="45.36332161252766" lon="10.534920947254799"><ele>98.0</ele><time>2026-04-04T14:29:42.983Z</time></trkpt><trkpt lat="45.36347375690813" lon="10.53493414324326"><ele>98.0</ele><time>2026-04-04T14:29:43.983Z</time></trkpt><trkpt lat="45.36362972664282" lon="10.53493904338433"><ele>98.0</ele><time>2026-04-04T14:29:44.983Z</time></trkpt><trkpt lat="45.36378868486128" lon="10.534947475428728"><ele>98.0</ele><time>2026-04-04T14:29:45.983Z</time></trkpt><trkpt lat="45.363949172715756" lon="10.534948149254602"><ele>98.0</ele><time>2026-04-04T14:29:46.983Z</time></trkpt><trkpt lat="45.364101813378646" lon="10.53495708194509"><ele>98.0</ele><time>2026-04-04T14:29:47.982Z</time></trkpt><trkpt lat="45.36425565893608" lon="10.534970697642795"><ele>98.0</ele><time>2026-04-04T14:29:48.982Z</time></trkpt><trkpt lat="45.364413969280655" lon="10.534979302716215"><ele>98.0</ele><time>2026-04-04T14:29:49.982Z</time></trkpt><trkpt lat="45.364577652089814" lon="10.534988891802177"><ele>98.0</ele><time>2026-04-04T14:29:50.982Z</time></trkpt><trkpt lat="45.364745891717845" lon="10.535010634794578"><ele>98.0</ele><time>2026-04-04T14:29:51.982Z</time></trkpt><trkpt lat="45.364915280218966" lon="10.535025416975587"><ele>97.66666666666666</ele><time>2026-04-04T14:29:52.982Z</time></trkpt><trkpt lat="45.36508463272459" lon="10.535030536550018"><ele>97.33333333333334</ele><time>2026-04-04T14:29:53.982Z</time></trkpt><trkpt lat="45.36525206425806" lon="10.53503269464827"><ele>97.0</ele><time>2026-04-04T14:29:54.982Z</time></trkpt><trkpt lat="45.365413188821684" lon="10.53504970807757"><ele>98.0</ele><time>2026-04-04T14:29:55.982Z</time></trkpt><trkpt lat="45.36557433209214" lon="10.535062325024283"><ele>99.0</ele><time>2026-04-04T14:29:56.982Z</time></trkpt><trkpt lat="45.3657328207142" lon="10.535072995055213"><ele>100.0</ele><time>2026-04-04T14:29:57.982Z</time></trkpt><trkpt lat="45.3658914122955" lon="10.53508815217928"><ele>100.0</ele><time>2026-04-04T14:29:58.982Z</time></trkpt><trkpt lat="45.36605521813184" lon="10.53510400924701"><ele>100.0</ele><time>2026-04-04T14:29:59.982Z</time></trkpt><trkpt lat="45.36621586920278" lon="10.535114344196229"><ele>100.0</ele><time>2026-04-04T14:30:00.982Z</time></trkpt><trkpt lat="45.366385863626455" lon="10.535115629859344"><ele>100.5</ele><time>2026-04-04T14:30:01.985Z</time></trkpt><trkpt lat="45.36654764055914" lon="10.535133633752116"><ele>101.0</ele><time>2026-04-04T14:30:02.984Z</time></trkpt><trkpt lat="45.36669567603109" lon="10.535130832798181"><ele>101.5</ele><time>2026-04-04T14:30:03.984Z</time></trkpt><trkpt lat="45.36682843348267" lon="10.535144679375106"><ele>102.0</ele><time>2026-04-04T14:30:04.985Z</time></trkpt><trkpt lat="45.36695139554866" lon="10.535149756626936"><ele>102.0</ele><time>2026-04-04T14:30:05.985Z</time></trkpt><trkpt lat="45.36707515536936" lon="10.53515501555146"><ele>102.0</ele><time>2026-04-04T14:30:06.985Z</time></trkpt><trkpt lat="45.36719401394505" lon="10.535165891879105"><ele>102.0</ele><time>2026-04-04T14:30:07.985Z</time></trkpt><trkpt lat="45.36731117361304" lon="10.535186878830178"><ele>102.0</ele><time>2026-04-04T14:30:08.986Z</time></trkpt><trkpt lat="45.367428362744654" lon="10.535206309958683"><ele>102.75</ele><time>2026-04-04T14:30:09.986Z</time></trkpt><trkpt lat="45.367550937953006" lon="10.53521497350528"><ele>103.5</ele><time>2026-04-04T14:30:10.985Z</time></trkpt><trkpt lat="45.36767605065426" lon="10.535217719932097"><ele>104.25</ele><time>2026-04-04T14:30:11.984Z</time></trkpt><trkpt lat="45.3677838334728" lon="10.535217410491828"><ele>105.0</ele><time>2026-04-04T14:30:12.984Z</time></trkpt><trkpt lat="45.367881254233616" lon="10.535225551089331"><ele>105.0</ele><time>2026-04-04T14:30:13.985Z</time></trkpt><trkpt lat="45.367980112138596" lon="10.535236621064772"><ele>105.0</ele><time>2026-04-04T14:30:14.985Z</time></trkpt><trkpt lat="45.368096720624294" lon="10.535235313797696"><ele>105.0</ele><time>2026-04-04T14:30:15.985Z</time></trkpt><trkpt lat="45.36821059577047" lon="10.535238074463322"><ele>105.0</ele><time>2026-04-04T14:30:16.985Z</time></trkpt><trkpt lat="45.368313868820515" lon="10.535238436698357"><ele>105.0</ele><time>2026-04-04T14:30:17.985Z</time></trkpt><trkpt lat="45.36840486327944" lon="10.535230199809062"><ele>105.0</ele><time>2026-04-04T14:30:18.985Z</time></trkpt><trkpt lat="45.368491351139575" lon="10.535238064589793"><ele>105.0</ele><time>2026-04-04T14:30:19.985Z</time></trkpt><trkpt lat="45.36856287461468" lon="10.535240145489153"><ele>105.0</ele><time>2026-04-04T14:30:20.985Z</time></trkpt><trkpt lat="45.36862884617168" lon="10.535237972847183"><ele>105.0</ele><time>2026-04-04T14:30:21.985Z</time></trkpt><trkpt lat="45.368693510265466" lon="10.535255233140617"><ele>105.0</ele><time>2026-04-04T14:30:22.985Z</time></trkpt><trkpt lat="45.36878601293483" lon="10.535308632446602"><ele>105.0</ele><time>2026-04-04T14:30:24.985Z</time></trkpt><trkpt lat="45.368808682053164" lon="10.535476889773475"><ele>105.25</ele><time>2026-04-04T14:30:27.985Z</time></trkpt><trkpt lat="45.36876869281636" lon="10.535600797431469"><ele>105.5</ele><time>2026-04-04T14:30:28.985Z</time></trkpt><trkpt lat="45.368697951270036" lon="10.535754379521036"><ele>105.75</ele><time>2026-04-04T14:30:29.985Z</time></trkpt><trkpt lat="45.36862573658813" lon="10.535931903678986"><ele>106.0</ele><time>2026-04-04T14:30:30.985Z</time></trkpt><trkpt lat="45.36855647641013" lon="10.536130757431986"><ele>106.0</ele><time>2026-04-04T14:30:31.985Z</time></trkpt><trkpt lat="45.36848590823619" lon="10.536349706368897"><ele>106.0</ele><time>2026-04-04T14:30:32.985Z</time></trkpt><trkpt lat="45.368417916179716" lon="10.536562429194301"><ele>106.0</ele><time>2026-04-04T14:30:33.985Z</time></trkpt><trkpt lat="45.368350775160984" lon="10.536781474264014"><ele>106.0</ele><time>2026-04-04T14:30:34.985Z</time></trkpt><trkpt lat="45.36828477189716" lon="10.5370056746746"><ele>106.0</ele><time>2026-04-04T14:30:35.985Z</time></trkpt><trkpt lat="45.36821925514494" lon="10.53722504460893"><ele>106.0</ele><time>2026-04-04T14:30:36.985Z</time></trkpt><trkpt lat="45.36815802645253" lon="10.537427336264201"><ele>106.25</ele><time>2026-04-04T14:30:37.985Z</time></trkpt><trkpt lat="45.368102465287045" lon="10.537616236228459"><ele>106.5</ele><time>2026-04-04T14:30:38.985Z</time></trkpt><trkpt lat="45.368053012787456" lon="10.537786822354988"><ele>106.75</ele><time>2026-04-04T14:30:39.985Z</time></trkpt><trkpt lat="45.36800640405213" lon="10.537940489352415"><ele>107.0</ele><time>2026-04-04T14:30:40.985Z</time></trkpt><trkpt lat="45.36796057309046" lon="10.538078277035869"><ele>106.8</ele><time>2026-04-04T14:30:41.985Z</time></trkpt><trkpt lat="45.36791986846523" lon="10.538191968862472"><ele>106.6</ele><time>2026-04-04T14:30:42.985Z</time></trkpt><trkpt lat="45.36789366221375" lon="10.538276187546707"><ele>106.39999999999999</ele><time>2026-04-04T14:30:43.985Z</time></trkpt><trkpt lat="45.36798550577635" lon="10.538391351256111"><ele>106.19999999999999</ele><time>2026-04-04T14:30:46.985Z</time></trkpt><trkpt lat="45.36805729452617" lon="10.538484739231665"><ele>106.0</ele><time>2026-04-04T14:30:47.985Z</time></trkpt><trkpt lat="45.36813248260351" lon="10.538614285288132"><ele>106.6</ele><time>2026-04-04T14:30:48.985Z</time></trkpt><trkpt lat="45.36821137916792" lon="10.538747106923273"><ele>107.19999999999999</ele><time>2026-04-04T14:30:49.985Z</time></trkpt><trkpt lat="45.368279957314236" lon="10.538867888389756"><ele>107.80000000000001</ele><time>2026-04-04T14:30:50.985Z</time></trkpt><trkpt lat="45.36833698168179" lon="10.53898578052208"><ele>108.4</ele><time>2026-04-04T14:30:51.985Z</time></trkpt><trkpt lat="45.36837886735282" lon="10.539114635205372"><ele>109.0</ele><time>2026-04-04T14:30:52.985Z</time></trkpt><trkpt lat="45.36841386264703" lon="10.539233702890145"><ele>109.00000000000001</ele><time>2026-04-04T14:30:53.985Z</time></trkpt><trkpt lat="45.36843510861753" lon="10.539345395422341"><ele>109.0</ele><time>2026-04-04T14:30:54.985Z</time></trkpt><trkpt lat="45.36845283294444" lon="10.539466708583321"><ele>109.0</ele><time>2026-04-04T14:30:55.985Z</time></trkpt><trkpt lat="45.368451791906836" lon="10.539600724622035"><ele>109.0</ele><time>2026-04-04T14:30:56.985Z</time></trkpt><trkpt lat="45.3684509923312" lon="10.539719407999826"><ele>109.00000000000001</ele><time>2026-04-04T14:30:57.985Z</time></trkpt><trkpt lat="45.368452459604605" lon="10.539830568924442"><ele>109.0</ele><time>2026-04-04T14:30:58.985Z</time></trkpt><trkpt lat="45.3684710913694" lon="10.53997204095993"><ele>109.16666666666667</ele><time>2026-04-04T14:31:00.985Z</time></trkpt><trkpt lat="45.36856773626193" lon="10.540050779876589"><ele>109.33333333333334</ele><time>2026-04-04T14:31:02.985Z</time></trkpt><trkpt lat="45.36863891088391" lon="10.540068747041532"><ele>109.5</ele><time>2026-04-04T14:31:03.984Z</time></trkpt><trkpt lat="45.36871337765006" lon="10.540090879533771"><ele>109.66666666666666</ele><time>2026-04-04T14:31:04.984Z</time></trkpt><trkpt lat="45.36878886817727" lon="10.54012985045767"><ele>109.83333333333333</ele><time>2026-04-04T14:31:05.984Z</time></trkpt><trkpt lat="45.3688706803561" lon="10.540164331832674"><ele>110.0</ele><time>2026-04-04T14:31:06.984Z</time></trkpt><trkpt lat="45.36896120022278" lon="10.540182893215563"><ele>111.66666666666666</ele><time>2026-04-04T14:31:07.984Z</time></trkpt><trkpt lat="45.36904631274503" lon="10.54020584837723"><ele>113.33333333333333</ele><time>2026-04-04T14:31:08.984Z</time></trkpt><trkpt lat="45.36912973906352" lon="10.540242333077842"><ele>115.0</ele><time>2026-04-04T14:31:09.984Z</time></trkpt><trkpt lat="45.369228379019134" lon="10.540272206321992"><ele>116.66666666666666</ele><time>2026-04-04T14:31:10.984Z</time></trkpt><trkpt lat="45.3693136382299" lon="10.540306347002785"><ele>118.33333333333333</ele><time>2026-04-04T14:31:11.984Z</time></trkpt><trkpt lat="45.36938476976844" lon="10.5403426190207"><ele>120.0</ele><time>2026-04-04T14:31:12.984Z</time></trkpt><trkpt lat="45.36945328414556" lon="10.540368257248883"><ele>120.8</ele><time>2026-04-04T14:31:13.984Z</time></trkpt><trkpt lat="45.369518118305045" lon="10.540392358352202"><ele>121.6</ele><time>2026-04-04T14:31:14.984Z</time></trkpt><trkpt lat="45.3696158385988" lon="10.540452902591479"><ele>122.4</ele><time>2026-04-04T14:31:16.984Z</time></trkpt><trkpt lat="45.3697026910587" lon="10.540516986230768"><ele>123.2</ele><time>2026-04-04T14:31:18.984Z</time></trkpt><trkpt lat="45.36979965766541" lon="10.54056584768539"><ele>124.0</ele><time>2026-04-04T14:31:20.984Z</time></trkpt><trkpt lat="45.36990905948564" lon="10.540610010438721"><ele>127.5</ele><time>2026-04-04T14:31:22.984Z</time></trkpt><trkpt lat="45.370015635206265" lon="10.540613899060006"><ele>131.0</ele><time>2026-04-04T14:31:24.984Z</time></trkpt><trkpt lat="45.370124184788374" lon="10.540693089268606"><ele>134.5</ele><time>2026-04-04T14:31:26.984Z</time></trkpt><trkpt lat="45.37024668404835" lon="10.54074733627624"><ele>138.0</ele><time>2026-04-04T14:31:28.984Z</time></trkpt><trkpt lat="45.37034849928745" lon="10.540802728097809"><ele>138.0</ele><time>2026-04-04T14:31:30.984Z</time></trkpt><trkpt lat="45.37045560878357" lon="10.540836265672066"><ele>138.0</ele><time>2026-04-04T14:31:32.984Z</time></trkpt><trkpt lat="45.370517615996995" lon="10.540888797855022"><ele>138.0</ele><time>2026-04-04T14:31:34.984Z</time></trkpt><trkpt lat="45.370515225495865" lon="10.540992132011493"><ele>138.0</ele><time>2026-04-04T14:31:37.984Z</time></trkpt><trkpt lat="45.370524012550035" lon="10.541092164986967"><ele>138.0</ele><time>2026-04-04T14:31:40.984Z</time></trkpt><trkpt lat="45.37054253662258" lon="10.541194425612467"><ele>138.0</ele><time>2026-04-04T14:33:38.984Z</time></trkpt><trkpt lat="45.370541153721064" lon="10.541421800816208"><ele>137.5</ele><time>2026-04-04T14:33:40.984Z</time></trkpt><trkpt lat="45.370547756876" lon="10.541531219038971"><ele>137.0</ele><time>2026-04-04T14:33:41.984Z</time></trkpt><trkpt lat="45.37056293220522" lon="10.541633950753289"><ele>136.5</ele><time>2026-04-04T14:33:42.984Z</time></trkpt><trkpt lat="45.37060990362718" lon="10.541729551349826"><ele>136.0</ele><time>2026-04-04T14:33:43.984Z</time></trkpt><trkpt lat="45.370690025897794" lon="10.541800510587755"><ele>135.5</ele><time>2026-04-04T14:33:44.984Z</time></trkpt><trkpt lat="45.370771969117335" lon="10.541857380260156"><ele>135.0</ele><time>2026-04-04T14:33:45.984Z</time></trkpt><trkpt lat="45.37085052828746" lon="10.541889919051751"><ele>135.0</ele><time>2026-04-04T14:33:46.984Z</time></trkpt><trkpt lat="45.370935653153" lon="10.541928399516646"><ele>135.0</ele><time>2026-04-04T14:33:47.984Z</time></trkpt><trkpt lat="45.37102831899676" lon="10.541962082206279"><ele>135.0</ele><time>2026-04-04T14:33:48.984Z</time></trkpt><trkpt lat="45.371095912378145" lon="10.542002427315165"><ele>135.0</ele><time>2026-04-04T14:33:49.984Z</time></trkpt><trkpt lat="45.37115679533704" lon="10.542039388066597"><ele>135.0</ele><time>2026-04-04T14:33:50.984Z</time></trkpt><trkpt lat="45.37124577800965" lon="10.542126380009993"><ele>135.0</ele><time>2026-04-04T14:33:52.984Z</time></trkpt><trkpt lat="45.37128718498023" lon="10.542249578113509"><ele>134.66666666666666</ele><time>2026-04-04T14:33:54.984Z</time></trkpt><trkpt lat="45.37128816269365" lon="10.542393823683783"><ele>134.33333333333334</ele><time>2026-04-04T14:33:56.984Z</time></trkpt><trkpt lat="45.37133231399149" lon="10.542460903034309"><ele>134.0</ele><time>2026-04-04T14:33:58.984Z</time></trkpt><trkpt lat="45.371376130467304" lon="10.542528310514852"><ele>133.66666666666669</ele><time>2026-04-04T14:34:00.984Z</time></trkpt><trkpt lat="45.37135626223156" lon="10.542699663273734"><ele>133.33333333333334</ele><time>2026-04-04T14:34:02.984Z</time></trkpt><trkpt lat="45.37132786195632" lon="10.54280545004633"><ele>133.0</ele><time>2026-04-04T14:34:03.984Z</time></trkpt><trkpt lat="45.37131103255371" lon="10.542931310275335"><ele>133.0</ele><time>2026-04-04T14:34:04.984Z</time></trkpt><trkpt lat="45.371289682092495" lon="10.543041768740924"><ele>133.0</ele><time>2026-04-04T14:34:05.984Z</time></trkpt><trkpt lat="45.37126072664633" lon="10.543137347759751"><ele>133.0</ele><time>2026-04-04T14:34:06.984Z</time></trkpt><trkpt lat="45.37124646866547" lon="10.54324163652106"><ele>133.0</ele><time>2026-04-04T14:34:07.984Z</time></trkpt><trkpt lat="45.371225657525805" lon="10.543338979325949"><ele>133.0</ele><time>2026-04-04T14:34:08.984Z</time></trkpt><trkpt lat="45.371206959509024" lon="10.543428723122931"><ele>133.0</ele><time>2026-04-04T14:34:09.984Z</time></trkpt><trkpt lat="45.371193584809646" lon="10.543528692610778"><ele>133.0</ele><time>2026-04-04T14:34:10.984Z</time></trkpt><trkpt lat="45.37117883158058" lon="10.543628523712039"><ele>132.16666666666669</ele><time>2026-04-04T14:34:11.984Z</time></trkpt><trkpt lat="45.37116229962793" lon="10.54372274023722"><ele>131.33333333333334</ele><time>2026-04-04T14:34:12.984Z</time></trkpt><trkpt lat="45.37114901689668" lon="10.543813119471013"><ele>130.5</ele><time>2026-04-04T14:34:13.987Z</time></trkpt><trkpt lat="45.37109097789674" lon="10.543952902862038"><ele>129.66666666666666</ele><time>2026-04-04T14:34:15.986Z</time></trkpt><trkpt lat="45.37103874736105" lon="10.54402066025106"><ele>128.83333333333331</ele><time>2026-04-04T14:34:16.986Z</time></trkpt><trkpt lat="45.37097520588832" lon="10.544093259725598"><ele>128.0</ele><time>2026-04-04T14:34:17.986Z</time></trkpt><trkpt lat="45.37090924933765" lon="10.544146873828339"><ele>127.99999999999999</ele><time>2026-04-04T14:34:18.986Z</time></trkpt><trkpt lat="45.370850033537266" lon="10.544212264825028"><ele>128.0</ele><time>2026-04-04T14:34:19.986Z</time></trkpt><trkpt lat="45.3707884970878" lon="10.544285587202523"><ele>128.0</ele><time>2026-04-04T14:34:20.987Z</time></trkpt><trkpt lat="45.37072289847209" lon="10.544361760867984"><ele>128.0</ele><time>2026-04-04T14:34:21.987Z</time></trkpt><trkpt lat="45.37066460234139" lon="10.544464019075319"><ele>127.99999999999999</ele><time>2026-04-04T14:34:22.987Z</time></trkpt><trkpt lat="45.37061220589533" lon="10.544566993170251"><ele>128.0</ele><time>2026-04-04T14:34:23.986Z</time></trkpt><trkpt lat="45.37056775634632" lon="10.544686315297838"><ele>127.80000000000001</ele><time>2026-04-04T14:34:24.986Z</time></trkpt><trkpt lat="45.37052921029083" lon="10.544812534786624"><ele>127.60000000000001</ele><time>2026-04-04T14:34:25.986Z</time></trkpt><trkpt lat="45.37049256650324" lon="10.544937908612756"><ele>127.39999999999999</ele><time>2026-04-04T14:34:26.987Z</time></trkpt><trkpt lat="45.3704462789397" lon="10.54506068513237"><ele>127.19999999999999</ele><time>2026-04-04T14:34:27.987Z</time></trkpt><trkpt lat="45.37041006306935" lon="10.545174049514303"><ele>127.0</ele><time>2026-04-04T14:34:28.987Z</time></trkpt><trkpt lat="45.37038119761106" lon="10.54527810097252"><ele>125.19999999999999</ele><time>2026-04-04T14:34:29.986Z</time></trkpt><trkpt lat="45.37035271235101" lon="10.545382271243438"><ele>123.39999999999999</ele><time>2026-04-04T14:34:30.986Z</time></trkpt><trkpt lat="45.37033471822478" lon="10.545482061806773"><ele>121.60000000000001</ele><time>2026-04-04T14:34:31.986Z</time></trkpt><trkpt lat="45.37029527238401" lon="10.545634809354526"><ele>119.80000000000001</ele><time>2026-04-04T14:34:33.986Z</time></trkpt><trkpt lat="45.37025359159345" lon="10.545794129283935"><ele>118.0</ele><time>2026-04-04T14:34:35.986Z</time></trkpt><trkpt lat="45.370195645138885" lon="10.545851098771621"><ele>118.00000000000001</ele><time>2026-04-04T14:34:36.986Z</time></trkpt><trkpt lat="45.3701258085419" lon="10.545890327662605"><ele>118.0</ele><time>2026-04-04T14:34:37.986Z</time></trkpt><trkpt lat="45.37004755058847" lon="10.545943152230056"><ele>118.0</ele><time>2026-04-04T14:34:38.986Z</time></trkpt><trkpt lat="45.369985960412954" lon="10.546003570324485"><ele>118.0</ele><time>2026-04-04T14:34:39.986Z</time></trkpt><trkpt lat="45.369934201706094" lon="10.546070924823841"><ele>118.00000000000001</ele><time>2026-04-04T14:34:40.986Z</time></trkpt><trkpt lat="45.36989647888006" lon="10.546181405908449"><ele>118.0</ele><time>2026-04-04T14:34:41.986Z</time></trkpt><trkpt lat="45.36987785361162" lon="10.546318971115006"><ele>117.4</ele><time>2026-04-04T14:34:42.986Z</time></trkpt><trkpt lat="45.36985046408462" lon="10.54646718166597"><ele>116.80000000000001</ele><time>2026-04-04T14:34:43.986Z</time></trkpt><trkpt lat="45.36981735011144" lon="10.546595500951156"><ele>116.2</ele><time>2026-04-04T14:34:44.986Z</time></trkpt><trkpt lat="45.3697634796375" lon="10.546707738199785"><ele>115.6</ele><time>2026-04-04T14:34:45.986Z</time></trkpt><trkpt lat="45.369687217527634" lon="10.546790839090798"><ele>115.0</ele><time>2026-04-04T14:34:46.986Z</time></trkpt><trkpt lat="45.369601042407474" lon="10.546848017478299"><ele>114.66666666666667</ele><time>2026-04-04T14:34:47.986Z</time></trkpt><trkpt lat="45.369500899444766" lon="10.546855562800815"><ele>114.33333333333334</ele><time>2026-04-04T14:34:48.986Z</time></trkpt><trkpt lat="45.36940304168041" lon="10.546845251872437"><ele>114.0</ele><time>2026-04-04T14:34:49.986Z</time></trkpt><trkpt lat="45.36930954976136" lon="10.54682903549392"><ele>113.66666666666666</ele><time>2026-04-04T14:34:50.986Z</time></trkpt><trkpt lat="45.36923067701828" lon="10.54680283983928"><ele>113.33333333333333</ele><time>2026-04-04T14:34:51.986Z</time></trkpt><trkpt lat="45.369162968860294" lon="10.546787885726216"><ele>113.0</ele><time>2026-04-04T14:34:52.986Z</time></trkpt><trkpt lat="45.36905175065233" lon="10.546755522169478"><ele>113.0</ele><time>2026-04-04T14:34:54.986Z</time></trkpt><trkpt lat="45.36895849740224" lon="10.546869062461933"><ele>113.00000000000001</ele><time>2026-04-04T14:34:56.986Z</time></trkpt><trkpt lat="45.36894012435251" lon="10.547068871435663"><ele>113.00000000000001</ele><time>2026-04-04T14:34:58.986Z</time></trkpt><trkpt lat="45.368935806018534" lon="10.547197026723342"><ele>113.0</ele><time>2026-04-04T14:34:59.986Z</time></trkpt><trkpt lat="45.36892932157192" lon="10.54733010395302"><ele>113.0</ele><time>2026-04-04T14:35:00.986Z</time></trkpt><trkpt lat="45.36891989378022" lon="10.547457375216387"><ele>113.16666666666666</ele><time>2026-04-04T14:35:01.986Z</time></trkpt><trkpt lat="45.368906602697116" lon="10.54758206304577"><ele>113.33333333333333</ele><time>2026-04-04T14:35:02.986Z</time></trkpt><trkpt lat="45.36889221179545" lon="10.547708904175119"><ele>113.5</ele><time>2026-04-04T14:35:03.986Z</time></trkpt><trkpt lat="45.3688800043206" lon="10.547808378767968"><ele>113.66666666666666</ele><time>2026-04-04T14:35:04.986Z</time></trkpt><trkpt lat="45.368872248942594" lon="10.547904775481538"><ele>113.83333333333333</ele><time>2026-04-04T14:35:05.986Z</time></trkpt><trkpt lat="45.36889360619292" lon="10.548027326829937"><ele>114.0</ele><time>2026-04-04T14:35:07.986Z</time></trkpt><trkpt lat="45.36900997634284" lon="10.548074788574857"><ele>115.6</ele><time>2026-04-04T14:35:09.986Z</time></trkpt><trkpt lat="45.36908353826186" lon="10.548040016840226"><ele>117.2</ele><time>2026-04-04T14:35:10.986Z</time></trkpt><trkpt lat="45.3691639817594" lon="10.547988318811857"><ele>118.79999999999998</ele><time>2026-04-04T14:35:11.986Z</time></trkpt><trkpt lat="45.36925354157978" lon="10.547956919801333"><ele>120.39999999999999</ele><time>2026-04-04T14:35:12.986Z</time></trkpt><trkpt lat="45.369360661261254" lon="10.54794364513861"><ele>122.0</ele><time>2026-04-04T14:35:13.985Z</time></trkpt><trkpt lat="45.36946969866433" lon="10.547949086619957"><ele>122.0</ele><time>2026-04-04T14:35:14.985Z</time></trkpt><trkpt lat="45.36956990148481" lon="10.547941146192018"><ele>121.99999999999999</ele><time>2026-04-04T14:35:15.985Z</time></trkpt><trkpt lat="45.369675743545365" lon="10.547935499916472"><ele>121.99999999999999</ele><time>2026-04-04T14:35:16.984Z</time></trkpt><trkpt lat="45.369766433486994" lon="10.547923150638471"><ele>122.0</ele><time>2026-04-04T14:35:17.984Z</time></trkpt><trkpt lat="45.36985588618322" lon="10.547921204731479"><ele>122.0</ele><time>2026-04-04T14:35:18.984Z</time></trkpt><trkpt lat="45.369948922888575" lon="10.547920149552057"><ele>122.8</ele><time>2026-04-04T14:35:19.984Z</time></trkpt><trkpt lat="45.370043748726616" lon="10.547929263412987"><ele>123.6</ele><time>2026-04-04T14:35:20.983Z</time></trkpt><trkpt lat="45.370135471784046" lon="10.547962357916768"><ele>124.39999999999999</ele><time>2026-04-04T14:35:21.983Z</time></trkpt><trkpt lat="45.37022303910642" lon="10.548007452896016"><ele>125.19999999999999</ele><time>2026-04-04T14:35:22.983Z</time></trkpt><trkpt lat="45.37031816645654" lon="10.548072574742887"><ele>126.0</ele><time>2026-04-04T14:35:23.983Z</time></trkpt><trkpt lat="45.370415097073334" lon="10.548123812588608"><ele>126.0</ele><time>2026-04-04T14:35:24.983Z</time></trkpt><trkpt lat="45.3705088487659" lon="10.548150872296413"><ele>126.0</ele><time>2026-04-04T14:35:25.982Z</time></trkpt><trkpt lat="45.37060940493807" lon="10.54816892248695"><ele>126.0</ele><time>2026-04-04T14:35:26.982Z</time></trkpt><trkpt lat="45.37070286464342" lon="10.548161027394015"><ele>126.0</ele><time>2026-04-04T14:35:27.982Z</time></trkpt><trkpt lat="45.37078278416762" lon="10.548146674258541"><ele>126.0</ele><time>2026-04-04T14:35:28.982Z</time></trkpt><trkpt lat="45.37086459897922" lon="10.548136304756285"><ele>126.16666666666667</ele><time>2026-04-04T14:35:29.982Z</time></trkpt><trkpt lat="45.37094165531033" lon="10.548139770059796"><ele>126.33333333333334</ele><time>2026-04-04T14:35:30.982Z</time></trkpt><trkpt lat="45.371019162530864" lon="10.548147717830167"><ele>126.5</ele><time>2026-04-04T14:35:31.982Z</time></trkpt><trkpt lat="45.371095304634075" lon="10.548145578538284"><ele>126.66666666666667</ele><time>2026-04-04T14:35:32.981Z</time></trkpt><trkpt lat="45.371174533608134" lon="10.54813655318521"><ele>126.83333333333334</ele><time>2026-04-04T14:35:33.981Z</time></trkpt><trkpt lat="45.3712524919136" lon="10.54814019073999"><ele>127.0</ele><time>2026-04-04T14:35:34.981Z</time></trkpt><trkpt lat="45.37133125276732" lon="10.548156480096122"><ele>127.19999999999999</ele><time>2026-04-04T14:35:35.981Z</time></trkpt><trkpt lat="45.371407825303756" lon="10.548166981312855"><ele>127.39999999999999</ele><time>2026-04-04T14:35:36.981Z</time></trkpt><trkpt lat="45.37150184942215" lon="10.548161438382285"><ele>127.60000000000001</ele><time>2026-04-04T14:35:37.981Z</time></trkpt><trkpt lat="45.37159460149145" lon="10.54815429855503"><ele>127.80000000000001</ele><time>2026-04-04T14:35:38.981Z</time></trkpt><trkpt lat="45.37169597261849" lon="10.54814781707127"><ele>128.0</ele><time>2026-04-04T14:35:39.981Z</time></trkpt><trkpt lat="45.371792580601074" lon="10.548144842686222"><ele>127.99999999999999</ele><time>2026-04-04T14:35:40.981Z</time></trkpt><trkpt lat="45.37187939117166" lon="10.548143587048449"><ele>128.0</ele><time>2026-04-04T14:35:41.981Z</time></trkpt><trkpt lat="45.37197898746994" lon="10.548141710975973"><ele>128.0</ele><time>2026-04-04T14:35:42.981Z</time></trkpt><trkpt lat="45.372057875068016" lon="10.548124094082544"><ele>128.0</ele><time>2026-04-04T14:35:43.981Z</time></trkpt><trkpt lat="45.37213970517627" lon="10.54809768437963"><ele>127.99999999999999</ele><time>2026-04-04T14:35:44.98Z</time></trkpt><trkpt lat="45.37221064287377" lon="10.548034495443144"><ele>128.0</ele><time>2026-04-04T14:35:45.98Z</time></trkpt><trkpt lat="45.3722741224705" lon="10.54793664886586"><ele>127.2</ele><time>2026-04-04T14:35:46.98Z</time></trkpt><trkpt lat="45.3723439813566" lon="10.547840647774061"><ele>126.4</ele><time>2026-04-04T14:35:47.98Z</time></trkpt><trkpt lat="45.372423966403396" lon="10.547759610461632"><ele>125.60000000000001</ele><time>2026-04-04T14:35:48.98Z</time></trkpt><trkpt lat="45.37250596717817" lon="10.547683902156873"><ele>124.80000000000001</ele><time>2026-04-04T14:35:49.98Z</time></trkpt><trkpt lat="45.3725918103632" lon="10.547612009223647"><ele>124.0</ele><time>2026-04-04T14:35:50.98Z</time></trkpt><trkpt lat="45.37267244342327" lon="10.54754017729456"><ele>124.0</ele><time>2026-04-04T14:35:51.98Z</time></trkpt><trkpt lat="45.37274884229453" lon="10.547466679764339"><ele>124.0</ele><time>2026-04-04T14:35:52.98Z</time></trkpt><trkpt lat="45.37282923286284" lon="10.547397962133035"><ele>124.0</ele><time>2026-04-04T14:35:53.98Z</time></trkpt><trkpt lat="45.37290673037511" lon="10.547324348579698"><ele>124.0</ele><time>2026-04-04T14:35:54.98Z</time></trkpt><trkpt lat="45.37298301151094" lon="10.547257833678097"><ele>124.0</ele><time>2026-04-04T14:35:55.98Z</time></trkpt><trkpt lat="45.3730587501814" lon="10.547176400098301"><ele>125.00000000000001</ele><time>2026-04-04T14:35:56.98Z</time></trkpt><trkpt lat="45.3731301633536" lon="10.547106589404262"><ele>126.0</ele><time>2026-04-04T14:35:57.98Z</time></trkpt><trkpt lat="45.3732076572643" lon="10.54704009548381"><ele>127.0</ele><time>2026-04-04T14:35:58.98Z</time></trkpt><trkpt lat="45.37328331133479" lon="10.546969024092114"><ele>128.0</ele><time>2026-04-04T14:35:59.98Z</time></trkpt><trkpt lat="45.373351830043376" lon="10.5469063735405"><ele>129.0</ele><time>2026-04-04T14:36:00.98Z</time></trkpt><trkpt lat="45.37341782491514" lon="10.546860069470005"><ele>130.0</ele><time>2026-04-04T14:36:01.98Z</time></trkpt><trkpt lat="45.37350143584852" lon="10.546755814821843"><ele>130.0</ele><time>2026-04-04T14:36:03.98Z</time></trkpt><trkpt lat="45.37353258570612" lon="10.54664886110798"><ele>130.0</ele><time>2026-04-04T14:36:05.98Z</time></trkpt><trkpt lat="45.373465753176056" lon="10.546529998402804"><ele>130.0</ele><time>2026-04-04T14:36:07.979Z</time></trkpt><trkpt lat="45.37336781803913" lon="10.54644274557388"><ele>130.0</ele><time>2026-04-04T14:36:09.979Z</time></trkpt><trkpt lat="45.373300149747635" lon="10.546363302724519"><ele>130.0</ele><time>2026-04-04T14:36:11.979Z</time></trkpt><trkpt lat="45.37324500433846" lon="10.546312897135483"><ele>129.5</ele><time>2026-04-04T14:36:14.979Z</time></trkpt><trkpt lat="45.37332542866879" lon="10.546202666385227"><ele>129.0</ele><time>2026-04-04T14:36:17.979Z</time></trkpt><trkpt lat="45.37338628209083" lon="10.546140114068915"><ele>128.5</ele><time>2026-04-04T14:36:18.979Z</time></trkpt><trkpt lat="45.37344947961807" lon="10.546070853749839"><ele>128.0</ele><time>2026-04-04T14:36:19.982Z</time></trkpt><trkpt lat="45.373510239191496" lon="10.54599475477916"><ele>127.50000000000001</ele><time>2026-04-04T14:36:20.982Z</time></trkpt><trkpt lat="45.373568394661625" lon="10.545920095218726"><ele>127.0</ele><time>2026-04-04T14:36:21.982Z</time></trkpt><trkpt lat="45.3736709584157" lon="10.545813485412953"><ele>127.0</ele><time>2026-04-04T14:36:23.982Z</time></trkpt><trkpt lat="45.37374395426316" lon="10.545723653829942"><ele>126.99999999999999</ele><time>2026-04-04T14:36:25.982Z</time></trkpt><trkpt lat="45.3738125644938" lon="10.545652331815248"><ele>126.99999999999999</ele><time>2026-04-04T14:36:27.982Z</time></trkpt><trkpt lat="45.37386370632468" lon="10.545531076840215"><ele>127.0</ele><time>2026-04-04T14:36:30.981Z</time></trkpt><trkpt lat="45.373821023363114" lon="10.545422128710044"><ele>127.0</ele><time>2026-04-04T14:36:32.982Z</time></trkpt><trkpt lat="45.37382111485052" lon="10.545290590217748"><ele>126.33333333333334</ele><time>2026-04-04T14:36:34.982Z</time></trkpt><trkpt lat="45.37385295063732" lon="10.545205312505683"><ele>125.66666666666667</ele><time>2026-04-04T14:36:36.981Z</time></trkpt><trkpt lat="45.37394884563202" lon="10.545092614696078"><ele>125.0</ele><time>2026-04-04T14:36:38.981Z</time></trkpt><trkpt lat="45.3740172847863" lon="10.545017256456221"><ele>124.33333333333334</ele><time>2026-04-04T14:36:39.981Z</time></trkpt><trkpt lat="45.3740822310766" lon="10.544959680541373"><ele>123.66666666666667</ele><time>2026-04-04T14:36:40.981Z</time></trkpt><trkpt lat="45.37414667688633" lon="10.54489592000203"><ele>123.0</ele><time>2026-04-04T14:36:41.981Z</time></trkpt><trkpt lat="45.37421056101134" lon="10.544820911515274"><ele>123.33333333333333</ele><time>2026-04-04T14:36:42.981Z</time></trkpt><trkpt lat="45.37426714017713" lon="10.544744265970047"><ele>123.66666666666666</ele><time>2026-04-04T14:36:43.981Z</time></trkpt><trkpt lat="45.374316133455174" lon="10.544671834842692"><ele>124.0</ele><time>2026-04-04T14:36:44.981Z</time></trkpt><trkpt lat="45.37438382150282" lon="10.544598942940091"><ele>124.33333333333333</ele><time>2026-04-04T14:36:45.981Z</time></trkpt><trkpt lat="45.374456494845916" lon="10.54452286173582"><ele>124.66666666666666</ele><time>2026-04-04T14:36:46.981Z</time></trkpt><trkpt lat="45.37451979030428" lon="10.54444290102778"><ele>125.0</ele><time>2026-04-04T14:36:47.981Z</time></trkpt><trkpt lat="45.37459222214026" lon="10.544368539274906"><ele>124.99999999999999</ele><time>2026-04-04T14:36:48.981Z</time></trkpt><trkpt lat="45.37465693174404" lon="10.544297184093118"><ele>125.0</ele><time>2026-04-04T14:36:49.981Z</time></trkpt><trkpt lat="45.374726036616885" lon="10.544232435155175"><ele>125.0</ele><time>2026-04-04T14:36:50.981Z</time></trkpt><trkpt lat="45.374790574799164" lon="10.54416825638644"><ele>125.0</ele><time>2026-04-04T14:36:51.981Z</time></trkpt><trkpt lat="45.37486163716666" lon="10.544089588088333"><ele>124.99999999999999</ele><time>2026-04-04T14:36:52.981Z</time></trkpt><trkpt lat="45.37492495084249" lon="10.544024358998337"><ele>125.0</ele><time>2026-04-04T14:36:53.981Z</time></trkpt><trkpt lat="45.37502881048937" lon="10.543900596541823"><ele>125.2</ele><time>2026-04-04T14:36:55.981Z</time></trkpt><trkpt lat="45.375120364733114" lon="10.543816166664092"><ele>125.4</ele><time>2026-04-04T14:36:57.981Z</time></trkpt><trkpt lat="45.37522447795855" lon="10.543741823514873"><ele>125.6</ele><time>2026-04-04T14:36:59.981Z</time></trkpt><trkpt lat="45.37528565167264" lon="10.543699924737851"><ele>125.8</ele><time>2026-04-04T14:37:00.981Z</time></trkpt><trkpt lat="45.37537659266507" lon="10.543645432124327"><ele>126.0</ele><time>2026-04-04T14:37:02.981Z</time></trkpt><trkpt lat="45.37555012166165" lon="10.543728901772074"><ele>126.66666666666667</ele><time>2026-04-04T14:37:06.981Z</time></trkpt><trkpt lat="45.37559765681274" lon="10.543815334328318"><ele>127.33333333333334</ele><time>2026-04-04T14:37:07.981Z</time></trkpt><trkpt lat="45.37563489443828" lon="10.543902718242155"><ele>128.0</ele><time>2026-04-04T14:37:08.981Z</time></trkpt><trkpt lat="45.37564917628139" lon="10.543991194447873"><ele>128.66666666666669</ele><time>2026-04-04T14:37:09.981Z</time></trkpt><trkpt lat="45.37565509351299" lon="10.544090624084804"><ele>129.33333333333334</ele><time>2026-04-04T14:37:10.981Z</time></trkpt><trkpt lat="45.37564829307825" lon="10.544185085097562"><ele>130.0</ele><time>2026-04-04T14:37:11.981Z</time></trkpt><trkpt lat="45.375655048529424" lon="10.544375234611703"><ele>130.0</ele><time>2026-04-04T14:37:13.981Z</time></trkpt><trkpt lat="45.37567492054274" lon="10.544499000485635"><ele>130.0</ele><time>2026-04-04T14:37:14.981Z</time></trkpt><trkpt lat="45.375696081598505" lon="10.544616164570202"><ele>130.0</ele><time>2026-04-04T14:37:15.981Z</time></trkpt><trkpt lat="45.375701594907746" lon="10.544736595384878"><ele>130.0</ele><time>2026-04-04T14:37:16.981Z</time></trkpt><trkpt lat="45.37570336520337" lon="10.544866880045221"><ele>130.0</ele><time>2026-04-04T14:37:17.981Z</time></trkpt><trkpt lat="45.37571402757038" lon="10.545029436258995"><ele>131.5</ele><time>2026-04-04T14:37:18.981Z</time></trkpt><trkpt lat="45.37571630694811" lon="10.545185395217608"><ele>133.0</ele><time>2026-04-04T14:37:19.981Z</time></trkpt><trkpt lat="45.37573092330022" lon="10.545352285143858"><ele>134.5</ele><time>2026-04-04T14:37:20.981Z</time></trkpt><trkpt lat="45.375728463852255" lon="10.545506040514205"><ele>136.0</ele><time>2026-04-04T14:37:21.981Z</time></trkpt><trkpt lat="45.37572169276186" lon="10.545667938794166"><ele>136.8</ele><time>2026-04-04T14:37:22.981Z</time></trkpt><trkpt lat="45.37572879482755" lon="10.545824854416331"><ele>137.6</ele><time>2026-04-04T14:37:23.98Z</time></trkpt><trkpt lat="45.37573256175143" lon="10.545963556167811"><ele>138.4</ele><time>2026-04-04T14:37:24.98Z</time></trkpt><trkpt lat="45.37573205219712" lon="10.546094675525996"><ele>139.2</ele><time>2026-04-04T14:37:25.98Z</time></trkpt><trkpt lat="45.375731561427074" lon="10.54625117569879"><ele>140.0</ele><time>2026-04-04T14:37:26.98Z</time></trkpt><trkpt lat="45.37573193099325" lon="10.546390692918111"><ele>140.6</ele><time>2026-04-04T14:37:27.98Z</time></trkpt><trkpt lat="45.37573711842918" lon="10.546528249624286"><ele>141.2</ele><time>2026-04-04T14:37:28.98Z</time></trkpt><trkpt lat="45.375750609420116" lon="10.546636527430852"><ele>141.8</ele><time>2026-04-04T14:37:29.98Z</time></trkpt><trkpt lat="45.37574150565769" lon="10.546741033702427"><ele>142.4</ele><time>2026-04-04T14:37:30.98Z</time></trkpt><trkpt lat="45.37576338382027" lon="10.546870181415654"><ele>143.0</ele><time>2026-04-04T14:37:32.98Z</time></trkpt><trkpt lat="45.37587324198729" lon="10.546967524168224"><ele>143.0</ele><time>2026-04-04T14:37:34.98Z</time></trkpt><trkpt lat="45.37594639631824" lon="10.54696473070345"><ele>143.0</ele><time>2026-04-04T14:37:35.98Z</time></trkpt><trkpt lat="45.37601557491336" lon="10.546934925842343"><ele>143.0</ele><time>2026-04-04T14:37:36.98Z</time></trkpt><trkpt lat="45.37610647853392" lon="10.546847413354886"><ele>143.0</ele><time>2026-04-04T14:37:37.98Z</time></trkpt><trkpt lat="45.37619359042327" lon="10.546773690808779"><ele>143.0</ele><time>2026-04-04T14:37:38.98Z</time></trkpt><trkpt lat="45.37627823168485" lon="10.546731502996249"><ele>143.0</ele><time>2026-04-04T14:37:39.98Z</time></trkpt><trkpt lat="45.37637164057488" lon="10.546671601133216"><ele>142.6</ele><time>2026-04-04T14:37:40.98Z</time></trkpt><trkpt lat="45.37648166665716" lon="10.546632488915199"><ele>142.20000000000002</ele><time>2026-04-04T14:37:41.98Z</time></trkpt><trkpt lat="45.37659466202966" lon="10.546601302560475"><ele>141.8</ele><time>2026-04-04T14:37:42.98Z</time></trkpt><trkpt lat="45.376690511532985" lon="10.546568954230336"><ele>141.4</ele><time>2026-04-04T14:37:43.98Z</time></trkpt><trkpt lat="45.376789584659065" lon="10.54655066319842"><ele>141.0</ele><time>2026-04-04T14:37:44.98Z</time></trkpt><trkpt lat="45.37688472730072" lon="10.546489773434429"><ele>141.0</ele><time>2026-04-04T14:37:45.98Z</time></trkpt><trkpt lat="45.37696552823134" lon="10.546433373060532"><ele>141.0</ele><time>2026-04-04T14:37:46.98Z</time></trkpt><trkpt lat="45.37702529055311" lon="10.546371391418578"><ele>141.0</ele><time>2026-04-04T14:37:47.98Z</time></trkpt><trkpt lat="45.37712234365175" lon="10.546274861833634"><ele>141.0</ele><time>2026-04-04T14:37:49.98Z</time></trkpt><trkpt lat="45.37720321103386" lon="10.54621759892811"><ele>141.0</ele><time>2026-04-04T14:37:51.98Z</time></trkpt><trkpt lat="45.377310721112664" lon="10.546256499339362"><ele>141.0</ele><time>2026-04-04T14:37:54.98Z</time></trkpt><trkpt lat="45.377374475573916" lon="10.546306951885297"><ele>141.0</ele><time>2026-04-04T14:37:55.98Z</time></trkpt><trkpt lat="45.37745175329485" lon="10.546326921038741"><ele>141.0</ele><time>2026-04-04T14:37:56.98Z</time></trkpt><trkpt lat="45.377541790586136" lon="10.546307882922111"><ele>141.0</ele><time>2026-04-04T14:37:57.98Z</time></trkpt><trkpt lat="45.377638488306374" lon="10.546274611234598"><ele>141.0</ele><time>2026-04-04T14:37:58.98Z</time></trkpt><trkpt lat="45.377735003277" lon="10.546242599154565"><ele>141.0</ele><time>2026-04-04T14:37:59.98Z</time></trkpt><trkpt lat="45.37783725691256" lon="10.546190925247295"><ele>140.2</ele><time>2026-04-04T14:38:00.98Z</time></trkpt><trkpt lat="45.377922919447826" lon="10.54611580915317"><ele>139.39999999999998</ele><time>2026-04-04T14:38:01.98Z</time></trkpt><trkpt lat="45.378000352748735" lon="10.546027643984427"><ele>138.6</ele><time>2026-04-04T14:38:02.98Z</time></trkpt><trkpt lat="45.37808180292544" lon="10.545954149036483"><ele>137.79999999999998</ele><time>2026-04-04T14:38:03.98Z</time></trkpt><trkpt lat="45.37816217319593" lon="10.545856391324731"><ele>137.0</ele><time>2026-04-04T14:38:04.98Z</time></trkpt><trkpt lat="45.37824104819438" lon="10.545762871452817"><ele>136.2</ele><time>2026-04-04T14:38:05.98Z</time></trkpt><trkpt lat="45.37832422960305" lon="10.545684146180522"><ele>135.39999999999998</ele><time>2026-04-04T14:38:06.98Z</time></trkpt><trkpt lat="45.378417957815735" lon="10.545589432465055"><ele>134.60000000000002</ele><time>2026-04-04T14:38:07.98Z</time></trkpt><trkpt lat="45.378521777042224" lon="10.545496263352495"><ele>133.8</ele><time>2026-04-04T14:38:08.98Z</time></trkpt><trkpt lat="45.378617546757965" lon="10.545440654279997"><ele>133.0</ele><time>2026-04-04T14:38:09.98Z</time></trkpt><trkpt lat="45.378723153534565" lon="10.545393859671892"><ele>133.0</ele><time>2026-04-04T14:38:10.98Z</time></trkpt><trkpt lat="45.37883400658146" lon="10.545409030801215"><ele>133.0</ele><time>2026-04-04T14:38:11.98Z</time></trkpt><trkpt lat="45.378958408926685" lon="10.545474283951819"><ele>133.0</ele><time>2026-04-04T14:38:12.98Z</time></trkpt><trkpt lat="45.37908745573243" lon="10.545559029897529"><ele>133.0</ele><time>2026-04-04T14:38:13.979Z</time></trkpt><trkpt lat="45.37919918145262" lon="10.545655301704087"><ele>131.8</ele><time>2026-04-04T14:38:14.979Z</time></trkpt><trkpt lat="45.37930850279051" lon="10.545746632288115"><ele>130.60000000000002</ele><time>2026-04-04T14:38:15.979Z</time></trkpt><trkpt lat="45.379406368721014" lon="10.545829245599863"><ele>129.39999999999998</ele><time>2026-04-04T14:38:16.979Z</time></trkpt><trkpt lat="45.379497467805415" lon="10.545907556281026"><ele>128.2</ele><time>2026-04-04T14:38:17.979Z</time></trkpt><trkpt lat="45.37957886513006" lon="10.54598273958854"><ele>127.0</ele><time>2026-04-04T14:38:18.979Z</time></trkpt><trkpt lat="45.379659640929276" lon="10.546036960552845"><ele>126.83333333333334</ele><time>2026-04-04T14:38:19.979Z</time></trkpt><trkpt lat="45.379733206567664" lon="10.54608870544446"><ele>126.66666666666667</ele><time>2026-04-04T14:38:20.979Z</time></trkpt><trkpt lat="45.379798655812294" lon="10.546132423738111"><ele>126.5</ele><time>2026-04-04T14:38:21.979Z</time></trkpt><trkpt lat="45.379848545916545" lon="10.546189593846076"><ele>126.33333333333334</ele><time>2026-04-04T14:38:22.979Z</time></trkpt><trkpt lat="45.37987959163739" lon="10.546268643269961"><ele>126.16666666666667</ele><time>2026-04-04T14:38:23.979Z</time></trkpt><trkpt lat="45.379875966091014" lon="10.546385440275552"><ele>126.0</ele><time>2026-04-04T14:38:24.979Z</time></trkpt><trkpt lat="45.37984002349949" lon="10.546521297873488"><ele>126.0</ele><time>2026-04-04T14:38:25.982Z</time></trkpt><trkpt lat="45.37979347556975" lon="10.546644956284558"><ele>126.0</ele><time>2026-04-04T14:38:26.982Z</time></trkpt><trkpt lat="45.37973009052756" lon="10.546763832046295"><ele>126.0</ele><time>2026-04-04T14:38:27.982Z</time></trkpt><trkpt lat="45.37965392519896" lon="10.546876483703803"><ele>126.0</ele><time>2026-04-04T14:38:28.982Z</time></trkpt><trkpt lat="45.37957532492741" lon="10.546992178840775"><ele>126.0</ele><time>2026-04-04T14:38:29.982Z</time></trkpt><trkpt lat="45.3794981826345" lon="10.547092784640926"><ele>125.19999999999999</ele><time>2026-04-04T14:38:30.982Z</time></trkpt><trkpt lat="45.37941954827577" lon="10.547183031704888"><ele>124.39999999999999</ele><time>2026-04-04T14:38:31.982Z</time></trkpt><trkpt lat="45.37934726559248" lon="10.547264837681878"><ele>123.6</ele><time>2026-04-04T14:38:32.982Z</time></trkpt><trkpt lat="45.3792699881535" lon="10.547329176018465"><ele>122.8</ele><time>2026-04-04T14:38:33.982Z</time></trkpt><trkpt lat="45.379203232846756" lon="10.54738136569967"><ele>122.0</ele><time>2026-04-04T14:38:34.983Z</time></trkpt><trkpt lat="45.379099298729564" lon="10.547463250544865"><ele>122.0</ele><time>2026-04-04T14:38:36.983Z</time></trkpt><trkpt lat="45.37905220335582" lon="10.547568218505331"><ele>121.99999999999999</ele><time>2026-04-04T14:38:37.982Z</time></trkpt><trkpt lat="45.37901667590616" lon="10.547716434402524"><ele>121.99999999999999</ele><time>2026-04-04T14:38:38.982Z</time></trkpt><trkpt lat="45.37901429803526" lon="10.547864316627612"><ele>122.0</ele><time>2026-04-04T14:38:39.982Z</time></trkpt><trkpt lat="45.3790175339721" lon="10.548008197554736"><ele>122.0</ele><time>2026-04-04T14:38:40.982Z</time></trkpt><trkpt lat="45.37900272029705" lon="10.548154716437493"><ele>121.19999999999999</ele><time>2026-04-04T14:38:41.982Z</time></trkpt><trkpt lat="45.378979360344466" lon="10.548302794563892"><ele>120.39999999999999</ele><time>2026-04-04T14:38:42.982Z</time></trkpt><trkpt lat="45.378958593404484" lon="10.54844308190271"><ele>119.60000000000001</ele><time>2026-04-04T14:38:43.982Z</time></trkpt><trkpt lat="45.37894411567163" lon="10.548553845158354"><ele>118.80000000000001</ele><time>2026-04-04T14:38:44.982Z</time></trkpt><trkpt lat="45.378945897126755" lon="10.548663915273261"><ele>118.0</ele><time>2026-04-04T14:38:45.982Z</time></trkpt><trkpt lat="45.378950168634404" lon="10.548789119619874"><ele>118.00000000000001</ele><time>2026-04-04T14:38:46.982Z</time></trkpt><trkpt lat="45.37895603605374" lon="10.548931623526894"><ele>118.0</ele><time>2026-04-04T14:38:47.982Z</time></trkpt><trkpt lat="45.378981173789796" lon="10.549053706676586"><ele>118.0</ele><time>2026-04-04T14:38:48.982Z</time></trkpt><trkpt lat="45.37900008292091" lon="10.54916093481176"><ele>118.0</ele><time>2026-04-04T14:38:49.982Z</time></trkpt><trkpt lat="45.37899620530894" lon="10.549275690870141"><ele>118.00000000000001</ele><time>2026-04-04T14:38:50.982Z</time></trkpt><trkpt lat="45.37898909487847" lon="10.549387994488125"><ele>118.0</ele><time>2026-04-04T14:38:51.982Z</time></trkpt><trkpt lat="45.37897234110007" lon="10.549496706596981"><ele>118.0</ele><time>2026-04-04T14:38:52.982Z</time></trkpt><trkpt lat="45.378932623189534" lon="10.549621113255485"><ele>118.00000000000001</ele><time>2026-04-04T14:38:53.982Z</time></trkpt><trkpt lat="45.37889456225445" lon="10.549748301194944"><ele>118.00000000000001</ele><time>2026-04-04T14:38:54.982Z</time></trkpt><trkpt lat="45.37884748535617" lon="10.549871355293297"><ele>118.0</ele><time>2026-04-04T14:38:55.982Z</time></trkpt><trkpt lat="45.37879709605191" lon="10.550013886264983"><ele>118.0</ele><time>2026-04-04T14:38:56.982Z</time></trkpt><trkpt lat="45.37875763203643" lon="10.550152931509084"><ele>119.2</ele><time>2026-04-04T14:38:57.982Z</time></trkpt><trkpt lat="45.37872359979936" lon="10.550296698013653"><ele>120.4</ele><time>2026-04-04T14:38:58.982Z</time></trkpt><trkpt lat="45.3786934237858" lon="10.550432447916158"><ele>121.60000000000001</ele><time>2026-04-04T14:38:59.982Z</time></trkpt><trkpt lat="45.37866822431235" lon="10.550561413126008"><ele>122.80000000000001</ele><time>2026-04-04T14:39:00.982Z</time></trkpt><trkpt lat="45.37866046454103" lon="10.55070211538042"><ele>124.0</ele><time>2026-04-04T14:39:01.982Z</time></trkpt><trkpt lat="45.3786605936124" lon="10.550851123043559"><ele>124.6</ele><time>2026-04-04T14:39:02.982Z</time></trkpt><trkpt lat="45.37864972103209" lon="10.550995815890976"><ele>125.2</ele><time>2026-04-04T14:39:03.982Z</time></trkpt><trkpt lat="45.37863279391448" lon="10.551131929351827"><ele>125.79999999999998</ele><time>2026-04-04T14:39:04.982Z</time></trkpt><trkpt lat="45.37862516010893" lon="10.551258635082128"><ele>126.39999999999999</ele><time>2026-04-04T14:39:05.982Z</time></trkpt><trkpt lat="45.378612107378245" lon="10.551382440439246"><ele>127.0</ele><time>2026-04-04T14:39:06.982Z</time></trkpt><trkpt lat="45.37860714477625" lon="10.551496491549173"><ele>127.19999999999999</ele><time>2026-04-04T14:39:07.982Z</time></trkpt><trkpt lat="45.37859865785694" lon="10.551588126119851"><ele>127.39999999999999</ele><time>2026-04-04T14:39:08.982Z</time></trkpt><trkpt lat="45.37858856142866" lon="10.5517694675168"><ele>127.60000000000001</ele><time>2026-04-04T14:39:10.981Z</time></trkpt><trkpt lat="45.37866661568061" lon="10.551923238087626"><ele>127.80000000000001</ele><time>2026-04-04T14:39:12.981Z</time></trkpt><trkpt lat="45.37875702600829" lon="10.552007360775724"><ele>128.0</ele><time>2026-04-04T14:39:13.981Z</time></trkpt><trkpt lat="45.378857393440065" lon="10.552092073070629"><ele>126.0</ele><time>2026-04-04T14:39:14.981Z</time></trkpt><trkpt lat="45.37895264999522" lon="10.552190069631518"><ele>124.00000000000001</ele><time>2026-04-04T14:39:15.981Z</time></trkpt><trkpt lat="45.37903460783941" lon="10.552296560801711"><ele>122.00000000000001</ele><time>2026-04-04T14:39:16.981Z</time></trkpt><trkpt lat="45.37910923953093" lon="10.552392467557382"><ele>120.0</ele><time>2026-04-04T14:39:17.981Z</time></trkpt><trkpt lat="45.37918393694113" lon="10.552522638692617"><ele>118.0</ele><time>2026-04-04T14:39:18.981Z</time></trkpt><trkpt lat="45.379260868653034" lon="10.552637351668643"><ele>118.00000000000001</ele><time>2026-04-04T14:39:19.981Z</time></trkpt><trkpt lat="45.37932009529195" lon="10.552723993017219"><ele>118.0</ele><time>2026-04-04T14:39:20.981Z</time></trkpt><trkpt lat="45.37938207186787" lon="10.55278100887168"><ele>118.0</ele><time>2026-04-04T14:39:21.981Z</time></trkpt><trkpt lat="45.37945421464392" lon="10.552822012792012"><ele>118.0</ele><time>2026-04-04T14:39:22.981Z</time></trkpt><trkpt lat="45.37953965043444" lon="10.552861013756363"><ele>118.00000000000001</ele><time>2026-04-04T14:39:23.981Z</time></trkpt><trkpt lat="45.379628491896284" lon="10.552901591804787"><ele>118.0</ele><time>2026-04-04T14:39:24.981Z</time></trkpt><trkpt lat="45.37971680843353" lon="10.5529497381428"><ele>118.83333333333334</ele><time>2026-04-04T14:39:25.981Z</time></trkpt><trkpt lat="45.379803896312154" lon="10.553002150766428"><ele>119.66666666666667</ele><time>2026-04-04T14:39:26.981Z</time></trkpt><trkpt lat="45.37988755191238" lon="10.553057244170079"><ele>120.5</ele><time>2026-04-04T14:39:27.981Z</time></trkpt><trkpt lat="45.37996745073416" lon="10.553113167202758"><ele>121.33333333333334</ele><time>2026-04-04T14:39:28.981Z</time></trkpt><trkpt lat="45.380042141572105" lon="10.553162646932291"><ele>122.16666666666667</ele><time>2026-04-04T14:39:29.981Z</time></trkpt><trkpt lat="45.38010107748282" lon="10.553204983262132"><ele>123.0</ele><time>2026-04-04T14:39:30.981Z</time></trkpt><trkpt lat="45.380165627050346" lon="10.55324045022341"><ele>123.0</ele><time>2026-04-04T14:39:31.981Z</time></trkpt><trkpt lat="45.38022722482736" lon="10.553267981880028"><ele>123.0</ele><time>2026-04-04T14:39:32.981Z</time></trkpt><trkpt lat="45.3803165868538" lon="10.553307485780152"><ele>123.0</ele><time>2026-04-04T14:39:34.981Z</time></trkpt><trkpt lat="45.380370198888855" lon="10.55317109765653"><ele>123.0</ele><time>2026-04-04T14:39:37.981Z</time></trkpt><trkpt lat="45.38036128367517" lon="10.553048976778689"><ele>123.0</ele><time>2026-04-04T14:39:38.981Z</time></trkpt><trkpt lat="45.38035326985423" lon="10.55291602515627"><ele>123.0</ele><time>2026-04-04T14:39:39.981Z</time></trkpt><trkpt lat="45.380357025337354" lon="10.552782912802666"><ele>123.2</ele><time>2026-04-04T14:39:40.981Z</time></trkpt><trkpt lat="45.380379662964216" lon="10.552658670987622"><ele>123.4</ele><time>2026-04-04T14:39:41.981Z</time></trkpt><trkpt lat="45.380425405260084" lon="10.552549075360801"><ele>123.60000000000001</ele><time>2026-04-04T14:39:42.981Z</time></trkpt><trkpt lat="45.38048535322348" lon="10.55244708285246"><ele>123.80000000000001</ele><time>2026-04-04T14:39:43.981Z</time></trkpt><trkpt lat="45.380559486324664" lon="10.55235273772081"><ele>124.0</ele><time>2026-04-04T14:39:44.981Z</time></trkpt><trkpt lat="45.380654338070606" lon="10.552270310143964"><ele>124.0</ele><time>2026-04-04T14:39:45.981Z</time></trkpt><trkpt lat="45.380760503334066" lon="10.552198258594668"><ele>124.0</ele><time>2026-04-04T14:39:46.981Z</time></trkpt><trkpt lat="45.38086715863032" lon="10.552121025243178"><ele>124.0</ele><time>2026-04-04T14:39:47.981Z</time></trkpt><trkpt lat="45.38097116240102" lon="10.552033690919302"><ele>124.0</ele><time>2026-04-04T14:39:48.981Z</time></trkpt><trkpt lat="45.38107231952596" lon="10.551955358990169"><ele>124.25</ele><time>2026-04-04T14:39:49.981Z</time></trkpt><trkpt lat="45.38116972111179" lon="10.551869667235486"><ele>124.5</ele><time>2026-04-04T14:39:50.981Z</time></trkpt><trkpt lat="45.381267783931605" lon="10.551791102718326"><ele>124.75</ele><time>2026-04-04T14:39:51.981Z</time></trkpt><trkpt lat="45.38136823165419" lon="10.551719619510036"><ele>125.0</ele><time>2026-04-04T14:39:52.981Z</time></trkpt><trkpt lat="45.381470565996125" lon="10.551651753545125"><ele>125.0</ele><time>2026-04-04T14:39:53.981Z</time></trkpt><trkpt lat="45.38157180091664" lon="10.551591195922276"><ele>125.0</ele><time>2026-04-04T14:39:54.981Z</time></trkpt><trkpt lat="45.38167456965406" lon="10.551525925227995"><ele>125.0</ele><time>2026-04-04T14:39:55.981Z</time></trkpt><trkpt lat="45.38177334100877" lon="10.551467531967463"><ele>125.0</ele><time>2026-04-04T14:39:56.981Z</time></trkpt><trkpt lat="45.38187423434743" lon="10.551415407019975"><ele>125.0</ele><time>2026-04-04T14:39:57.981Z</time></trkpt><trkpt lat="45.381980516561015" lon="10.551368236011122"><ele>125.0</ele><time>2026-04-04T14:39:58.981Z</time></trkpt><trkpt lat="45.38208557132266" lon="10.551326745243786"><ele>125.0</ele><time>2026-04-04T14:39:59.98Z</time></trkpt><trkpt lat="45.382189305537686" lon="10.551285274796662"><ele>125.0</ele><time>2026-04-04T14:40:00.98Z</time></trkpt><trkpt lat="45.382294513756825" lon="10.551236703258425"><ele>125.0</ele><time>2026-04-04T14:40:01.98Z</time></trkpt><trkpt lat="45.382401679778894" lon="10.551186690181126"><ele>125.0</ele><time>2026-04-04T14:40:02.98Z</time></trkpt><trkpt lat="45.38250892170545" lon="10.551132417019701"><ele>125.5</ele><time>2026-04-04T14:40:03.98Z</time></trkpt><trkpt lat="45.382616725887836" lon="10.55107832580464"><ele>126.0</ele><time>2026-04-04T14:40:04.98Z</time></trkpt><trkpt lat="45.38272353411396" lon="10.551014737708854"><ele>126.5</ele><time>2026-04-04T14:40:05.98Z</time></trkpt><trkpt lat="45.38282749613819" lon="10.550943094984884"><ele>127.0</ele><time>2026-04-04T14:40:06.98Z</time></trkpt><trkpt lat="45.382928836697296" lon="10.550866070284696"><ele>127.5</ele><time>2026-04-04T14:40:07.98Z</time></trkpt><trkpt lat="45.383026869070626" lon="10.550785437909443"><ele>128.0</ele><time>2026-04-04T14:40:08.98Z</time></trkpt><trkpt lat="45.3831217141666" lon="10.550695954330623"><ele>128.5</ele><time>2026-04-04T14:40:09.98Z</time></trkpt><trkpt lat="45.383213678661" lon="10.550602043821542"><ele>129.0</ele><time>2026-04-04T14:40:10.98Z</time></trkpt><trkpt lat="45.383307897994214" lon="10.550515705035034"><ele>129.0</ele><time>2026-04-04T14:40:11.98Z</time></trkpt><trkpt lat="45.38339995664865" lon="10.550449475629147"><ele>129.0</ele><time>2026-04-04T14:40:12.98Z</time></trkpt><trkpt lat="45.38348842104841" lon="10.550378882405727"><ele>129.0</ele><time>2026-04-04T14:40:13.98Z</time></trkpt><trkpt lat="45.383572025094296" lon="10.55030620623158"><ele>129.0</ele><time>2026-04-04T14:40:14.98Z</time></trkpt><trkpt lat="45.38366419238724" lon="10.550242224393928"><ele>129.0</ele><time>2026-04-04T14:40:15.98Z</time></trkpt><trkpt lat="45.38375372525689" lon="10.550192602043472"><ele>130.0</ele><time>2026-04-04T14:40:16.98Z</time></trkpt><trkpt lat="45.383849170198935" lon="10.550136375303492"><ele>131.0</ele><time>2026-04-04T14:40:17.98Z</time></trkpt><trkpt lat="45.38393738355965" lon="10.550091618017301"><ele>132.0</ele><time>2026-04-04T14:40:18.98Z</time></trkpt><trkpt lat="45.384013293730526" lon="10.55005352112063"><ele>133.0</ele><time>2026-04-04T14:40:19.98Z</time></trkpt><trkpt lat="45.38409634952248" lon="10.550008232618504"><ele>134.0</ele><time>2026-04-04T14:40:20.98Z</time></trkpt><trkpt lat="45.384184146159136" lon="10.549971658137531"><ele>134.0</ele><time>2026-04-04T14:40:21.98Z</time></trkpt><trkpt lat="45.38425696787036" lon="10.54993732406671"><ele>134.0</ele><time>2026-04-04T14:40:22.98Z</time></trkpt><trkpt lat="45.38432535916697" lon="10.549908115331043"><ele>134.0</ele><time>2026-04-04T14:40:23.98Z</time></trkpt><trkpt lat="45.38440917610313" lon="10.549863315387299"><ele>134.0</ele><time>2026-04-04T14:40:24.98Z</time></trkpt><trkpt lat="45.38447843256649" lon="10.549819542033982"><ele>134.0</ele><time>2026-04-04T14:40:25.98Z</time></trkpt><trkpt lat="45.3845432265286" lon="10.549787911666485"><ele>134.0</ele><time>2026-04-04T14:40:26.98Z</time></trkpt><trkpt lat="45.3846125565117" lon="10.549751369629238"><ele>134.0</ele><time>2026-04-04T14:40:27.98Z</time></trkpt><trkpt lat="45.3846745782328" lon="10.54971108634457"><ele>134.0</ele><time>2026-04-04T14:40:28.98Z</time></trkpt><trkpt lat="45.38474075964992" lon="10.54966696608295"><ele>134.0</ele><time>2026-04-04T14:40:29.98Z</time></trkpt><trkpt lat="45.3847971667033" lon="10.549613131283557"><ele>134.0</ele><time>2026-04-04T14:40:30.98Z</time></trkpt><trkpt lat="45.38485617327213" lon="10.549565753320161"><ele>134.0</ele><time>2026-04-04T14:40:31.983Z</time></trkpt><trkpt lat="45.38491343423581" lon="10.549515197570395"><ele>134.0</ele><time>2026-04-04T14:40:32.982Z</time></trkpt><trkpt lat="45.384970110000694" lon="10.549454252755398"><ele>134.0</ele><time>2026-04-04T14:40:33.982Z</time></trkpt><trkpt lat="45.38504107171018" lon="10.549376186276252"><ele>133.0</ele><time>2026-04-04T14:40:35.983Z</time></trkpt><trkpt lat="45.38504542334473" lon="10.549271054911399"><ele>132.0</ele><time>2026-04-04T14:40:39.983Z</time></trkpt><trkpt lat="45.38497549992637" lon="10.549243912677781"><ele>131.0</ele><time>2026-04-04T14:40:41.983Z</time></trkpt><trkpt lat="45.38485024220059" lon="10.54919943598559"><ele>130.0</ele><time>2026-04-04T14:40:43.983Z</time></trkpt><trkpt lat="45.384785691671375" lon="10.549196175033158"><ele>129.0</ele><time>2026-04-04T14:40:44.983Z</time></trkpt><trkpt lat="45.384661100866964" lon="10.549173785762026"><ele>129.0</ele><time>2026-04-04T14:40:46.983Z</time></trkpt><trkpt lat="45.38459711556631" lon="10.549145060169852"><ele>129.0</ele><time>2026-04-04T14:40:47.983Z</time></trkpt><trkpt lat="45.38448983676574" lon="10.549082060939902"><ele>129.0</ele><time>2026-04-04T14:40:49.983Z</time></trkpt><trkpt lat="45.38438784337422" lon="10.549013670351302"><ele>129.0</ele><time>2026-04-04T14:40:51.983Z</time></trkpt><trkpt lat="45.384324867713374" lon="10.548958169100048"><ele>129.0</ele><time>2026-04-04T14:40:52.983Z</time></trkpt><trkpt lat="45.38426140876711" lon="10.548914454588266"><ele>129.0</ele><time>2026-04-04T14:40:53.983Z</time></trkpt><trkpt lat="45.38416346203639" lon="10.54884207388373"><ele>129.0</ele><time>2026-04-04T14:40:55.983Z</time></trkpt><trkpt lat="45.384112681008126" lon="10.54877545324328"><ele>129.0</ele><time>2026-04-04T14:40:57.983Z</time></trkpt><trkpt lat="45.38407213769832" lon="10.548692644871068"><ele>129.0</ele><time>2026-04-04T14:40:59.983Z</time></trkpt><trkpt lat="45.38410298973662" lon="10.548590379854359"><ele>129.0</ele><time>2026-04-04T14:41:02.983Z</time></trkpt><trkpt lat="45.38424134581834" lon="10.548579263260777"><ele>129.0</ele><time>2026-04-04T14:41:04.983Z</time></trkpt><trkpt lat="45.3843177593484" lon="10.548564508897782"><ele>129.0</ele><time>2026-04-04T14:41:05.983Z</time></trkpt><trkpt lat="45.3844076932994" lon="10.54857505328307"><ele>127.6</ele><time>2026-04-04T14:41:06.983Z</time></trkpt><trkpt lat="45.38450014064447" lon="10.54859844193233"><ele>126.2</ele><time>2026-04-04T14:41:07.983Z</time></trkpt><trkpt lat="45.38459746938769" lon="10.548627671816437"><ele>124.79999999999998</ele><time>2026-04-04T14:41:08.983Z</time></trkpt><trkpt lat="45.384683065802726" lon="10.548625882264284"><ele>123.39999999999999</ele><time>2026-04-04T14:41:09.982Z</time></trkpt><trkpt lat="45.384759268854424" lon="10.548580527617476"><ele>122.0</ele><time>2026-04-04T14:41:10.982Z</time></trkpt><trkpt lat="45.38482095099635" lon="10.548482465197583"><ele>122.0</ele><time>2026-04-04T14:41:11.982Z</time></trkpt><trkpt lat="45.384871764112575" lon="10.548371232315585"><ele>121.99999999999999</ele><time>2026-04-04T14:41:12.982Z</time></trkpt><trkpt lat="45.38492596758422" lon="10.548259759379214"><ele>121.99999999999999</ele><time>2026-04-04T14:41:13.982Z</time></trkpt><trkpt lat="45.38498282197487" lon="10.548157515744435"><ele>122.0</ele><time>2026-04-04T14:41:14.982Z</time></trkpt><trkpt lat="45.38505092433527" lon="10.548060585696565"><ele>122.0</ele><time>2026-04-04T14:41:15.982Z</time></trkpt><trkpt lat="45.38512546835439" lon="10.547974361751761"><ele>122.0</ele><time>2026-04-04T14:41:16.982Z</time></trkpt><trkpt lat="45.38520977364414" lon="10.547888315025572"><ele>121.99999999999999</ele><time>2026-04-04T14:41:17.982Z</time></trkpt><trkpt lat="45.385293577056494" lon="10.54779843899728"><ele>121.99999999999999</ele><time>2026-04-04T14:41:18.982Z</time></trkpt><trkpt lat="45.385388179669945" lon="10.547717286370512"><ele>122.0</ele><time>2026-04-04T14:41:19.982Z</time></trkpt><trkpt lat="45.38548306357014" lon="10.547636047121951"><ele>122.0</ele><time>2026-04-04T14:41:20.982Z</time></trkpt><trkpt lat="45.385577392522826" lon="10.547544949476439"><ele>121.8</ele><time>2026-04-04T14:41:21.982Z</time></trkpt><trkpt lat="45.38566310442495" lon="10.547457585632669"><ele>121.6</ele><time>2026-04-04T14:41:22.982Z</time></trkpt><trkpt lat="45.38574780950646" lon="10.547364255451958"><ele>121.39999999999999</ele><time>2026-04-04T14:41:23.982Z</time></trkpt><trkpt lat="45.38581494390045" lon="10.547248517623295"><ele>121.19999999999999</ele><time>2026-04-04T14:41:24.982Z</time></trkpt><trkpt lat="45.38587102885243" lon="10.547124260852728"><ele>121.0</ele><time>2026-04-04T14:41:25.982Z</time></trkpt><trkpt lat="45.385926886340044" lon="10.5470094562418"><ele>120.85714285714285</ele><time>2026-04-04T14:41:26.982Z</time></trkpt><trkpt lat="45.38598091365044" lon="10.546921043332866"><ele>120.7142857142857</ele><time>2026-04-04T14:41:27.982Z</time></trkpt><trkpt lat="45.38604398136592" lon="10.546850842840925"><ele>120.57142857142857</ele><time>2026-04-04T14:41:28.982Z</time></trkpt><trkpt lat="45.38610805659935" lon="10.546798807125514"><ele>120.42857142857142</ele><time>2026-04-04T14:41:29.982Z</time></trkpt><trkpt lat="45.38617049390449" lon="10.546780061220893"><ele>120.28571428571428</ele><time>2026-04-04T14:41:30.982Z</time></trkpt><trkpt lat="45.38623832914442" lon="10.546806059030464"><ele>120.14285714285714</ele><time>2026-04-04T14:41:31.982Z</time></trkpt><trkpt lat="45.38630225166626" lon="10.546872710606895"><ele>120.0</ele><time>2026-04-04T14:41:32.982Z</time></trkpt><trkpt lat="45.38636141334462" lon="10.546980748050302"><ele>120.83333333333333</ele><time>2026-04-04T14:41:33.982Z</time></trkpt><trkpt lat="45.386425499763575" lon="10.54711928999622"><ele>121.66666666666666</ele><time>2026-04-04T14:41:34.982Z</time></trkpt><trkpt lat="45.386495392321635" lon="10.547236998721445"><ele>122.5</ele><time>2026-04-04T14:41:35.982Z</time></trkpt><trkpt lat="45.386551142916936" lon="10.547326891854143"><ele>123.33333333333333</ele><time>2026-04-04T14:41:36.982Z</time></trkpt><trkpt lat="45.38660112856442" lon="10.547402266158558"><ele>124.16666666666666</ele><time>2026-04-04T14:41:37.982Z</time></trkpt><trkpt lat="45.38664904462796" lon="10.547466726994314"><ele>125.0</ele><time>2026-04-04T14:41:38.982Z</time></trkpt><trkpt lat="45.386758664363775" lon="10.547492090165122"><ele>125.0</ele><time>2026-04-04T14:41:40.982Z</time></trkpt><trkpt lat="45.38683021178821" lon="10.547451662116053"><ele>125.0</ele><time>2026-04-04T14:41:41.982Z</time></trkpt><trkpt lat="45.38690752570313" lon="10.547370849501307"><ele>125.0</ele><time>2026-04-04T14:41:42.982Z</time></trkpt><trkpt lat="45.38699927076614" lon="10.547251111570768"><ele>125.0</ele><time>2026-04-04T14:41:43.982Z</time></trkpt><trkpt lat="45.38709700481848" lon="10.547140189422802"><ele>125.0</ele><time>2026-04-04T14:41:44.982Z</time></trkpt><trkpt lat="45.38719542814368" lon="10.547034563369092"><ele>124.75</ele><time>2026-04-04T14:41:45.982Z</time></trkpt><trkpt lat="45.38729388038775" lon="10.546941135413151"><ele>124.5</ele><time>2026-04-04T14:41:46.982Z</time></trkpt><trkpt lat="45.38739839886061" lon="10.546849007809683"><ele>124.25</ele><time>2026-04-04T14:41:47.982Z</time></trkpt><trkpt lat="45.38750383347708" lon="10.5467586328816"><ele>124.0</ele><time>2026-04-04T14:41:48.982Z</time></trkpt><trkpt lat="45.38760329113426" lon="10.546669043419824"><ele>124.0</ele><time>2026-04-04T14:41:49.982Z</time></trkpt><trkpt lat="45.38769439556027" lon="10.546569903019261"><ele>124.0</ele><time>2026-04-04T14:41:50.982Z</time></trkpt><trkpt lat="45.387789097665994" lon="10.546460446148416"><ele>124.0</ele><time>2026-04-04T14:41:51.982Z</time></trkpt><trkpt lat="45.38788491257526" lon="10.546354448228513"><ele>124.0</ele><time>2026-04-04T14:41:52.982Z</time></trkpt><trkpt lat="45.38797926524926" lon="10.546261244229104"><ele>123.75</ele><time>2026-04-04T14:41:53.982Z</time></trkpt><trkpt lat="45.38807318755444" lon="10.546161719089605"><ele>123.5</ele><time>2026-04-04T14:41:54.982Z</time></trkpt><trkpt lat="45.38816693753059" lon="10.546065315835458"><ele>123.25</ele><time>2026-04-04T14:41:55.982Z</time></trkpt><trkpt lat="45.388261043199044" lon="10.545969882396392"><ele>123.0</ele><time>2026-04-04T14:41:56.982Z</time></trkpt><trkpt lat="45.388349306530294" lon="10.545868084111728"><ele>123.0</ele><time>2026-04-04T14:41:57.982Z</time></trkpt><trkpt lat="45.388432880619526" lon="10.545757107005802"><ele>123.00000000000001</ele><time>2026-04-04T14:41:58.982Z</time></trkpt><trkpt lat="45.38850912084206" lon="10.545644197951448"><ele>123.00000000000001</ele><time>2026-04-04T14:41:59.981Z</time></trkpt><trkpt lat="45.38858387820348" lon="10.54552795991535"><ele>123.0</ele><time>2026-04-04T14:42:00.981Z</time></trkpt><trkpt lat="45.38865674288125" lon="10.545415666924997"><ele>123.0</ele><time>2026-04-04T14:42:01.981Z</time></trkpt><trkpt lat="45.38872683800715" lon="10.545309189239246"><ele>123.66666666666667</ele><time>2026-04-04T14:42:02.981Z</time></trkpt><trkpt lat="45.38879530123958" lon="10.545207369172186"><ele>124.33333333333334</ele><time>2026-04-04T14:42:03.981Z</time></trkpt><trkpt lat="45.38886088824603" lon="10.545108150216613"><ele>125.0</ele><time>2026-04-04T14:42:04.981Z</time></trkpt><trkpt lat="45.38891323296153" lon="10.545029990396198"><ele>125.66666666666667</ele><time>2026-04-04T14:42:05.981Z</time></trkpt><trkpt lat="45.388991190184775" lon="10.544989883598824"><ele>126.33333333333334</ele><time>2026-04-04T14:42:07.981Z</time></trkpt><trkpt lat="45.38906185364074" lon="10.54506751853105"><ele>127.0</ele><time>2026-04-04T14:42:09.981Z</time></trkpt><trkpt lat="45.389098736391155" lon="10.545157427352645"><ele>126.6</ele><time>2026-04-04T14:42:10.981Z</time></trkpt><trkpt lat="45.389130104868755" lon="10.545280075615077"><ele>126.19999999999999</ele><time>2026-04-04T14:42:11.981Z</time></trkpt><trkpt lat="45.38916196380872" lon="10.545415319358755"><ele>125.8</ele><time>2026-04-04T14:42:12.981Z</time></trkpt><trkpt lat="45.38920368154481" lon="10.545539254589873"><ele>125.4</ele><time>2026-04-04T14:42:13.981Z</time></trkpt><trkpt lat="45.3892499845979" lon="10.54565803665301"><ele>125.0</ele><time>2026-04-04T14:42:14.981Z</time></trkpt><trkpt lat="45.38929516660556" lon="10.545777795449881"><ele>125.0</ele><time>2026-04-04T14:42:15.981Z</time></trkpt><trkpt lat="45.389340593864475" lon="10.545910985741004"><ele>125.0</ele><time>2026-04-04T14:42:16.981Z</time></trkpt><trkpt lat="45.38938875040266" lon="10.546050952346882"><ele>125.0</ele><time>2026-04-04T14:42:17.981Z</time></trkpt><trkpt lat="45.389438486314866" lon="10.546202243156038"><ele>125.0</ele><time>2026-04-04T14:42:18.981Z</time></trkpt><trkpt lat="45.38949691637746" lon="10.546358248407055"><ele>124.0</ele><time>2026-04-04T14:42:19.981Z</time></trkpt><trkpt lat="45.38955191246535" lon="10.546519743329455"><ele>123.0</ele><time>2026-04-04T14:42:20.981Z</time></trkpt><trkpt lat="45.38961066272051" lon="10.546679181700235"><ele>122.0</ele><time>2026-04-04T14:42:21.981Z</time></trkpt><trkpt lat="45.3896695723577" lon="10.546845743086227"><ele>121.0</ele><time>2026-04-04T14:42:22.981Z</time></trkpt><trkpt lat="45.3897322368243" lon="10.547022704341739"><ele>120.66666666666667</ele><time>2026-04-04T14:42:23.981Z</time></trkpt><trkpt lat="45.38979345056904" lon="10.54721132461846"><ele>120.33333333333334</ele><time>2026-04-04T14:42:24.981Z</time></trkpt><trkpt lat="45.38985257021899" lon="10.547407349312508"><ele>120.0</ele><time>2026-04-04T14:42:25.981Z</time></trkpt><trkpt lat="45.38991322202012" lon="10.54761388628197"><ele>120.0</ele><time>2026-04-04T14:42:26.981Z</time></trkpt><trkpt lat="45.38997767837758" lon="10.5478372329055"><ele>120.0</ele><time>2026-04-04T14:42:27.981Z</time></trkpt><trkpt lat="45.39004605999338" lon="10.54807049197492"><ele>120.0</ele><time>2026-04-04T14:42:28.981Z</time></trkpt><trkpt lat="45.39010686561086" lon="10.548305012628838"><ele>120.0</ele><time>2026-04-04T14:42:29.981Z</time></trkpt><trkpt lat="45.390166943699924" lon="10.548536652761959"><ele>120.0</ele><time>2026-04-04T14:42:30.981Z</time></trkpt><trkpt lat="45.39022552148533" lon="10.548760095689868"><ele>120.0</ele><time>2026-04-04T14:42:31.981Z</time></trkpt><trkpt lat="45.39027777441502" lon="10.54897146403645"><ele>121.25</ele><time>2026-04-04T14:42:32.981Z</time></trkpt><trkpt lat="45.390329687564666" lon="10.549175142704932"><ele>122.5</ele><time>2026-04-04T14:42:33.981Z</time></trkpt><trkpt lat="45.39037643976803" lon="10.549372066703995"><ele>123.75</ele><time>2026-04-04T14:42:34.981Z</time></trkpt><trkpt lat="45.39041898220779" lon="10.549560128640142"><ele>125.0</ele><time>2026-04-04T14:42:35.981Z</time></trkpt><trkpt lat="45.3904558922881" lon="10.549728753902361"><ele>125.4</ele><time>2026-04-04T14:42:36.981Z</time></trkpt><trkpt lat="45.39049339011399" lon="10.54988904116478"><ele>125.8</ele><time>2026-04-04T14:42:37.983Z</time></trkpt><trkpt lat="45.39053085031264" lon="10.550040141661666"><ele>126.19999999999999</ele><time>2026-04-04T14:42:38.983Z</time></trkpt><trkpt lat="45.390567747000105" lon="10.55017404516348"><ele>126.6</ele><time>2026-04-04T14:42:39.983Z</time></trkpt><trkpt lat="45.3905977224587" lon="10.550296027304421"><ele>127.0</ele><time>2026-04-04T14:42:40.984Z</time></trkpt><trkpt lat="45.390619950257495" lon="10.550406076529416"><ele>125.66666666666667</ele><time>2026-04-04T14:42:41.983Z</time></trkpt><trkpt lat="45.39064052622889" lon="10.550504159608634"><ele>124.33333333333334</ele><time>2026-04-04T14:42:42.983Z</time></trkpt><trkpt lat="45.390674166152905" lon="10.550585057300909"><ele>123.0</ele><time>2026-04-04T14:42:43.983Z</time></trkpt><trkpt lat="45.39073291574501" lon="10.55065341409754"><ele>121.66666666666666</ele><time>2026-04-04T14:42:44.983Z</time></trkpt><trkpt lat="45.39082167825247" lon="10.550719708800818"><ele>120.33333333333333</ele><time>2026-04-04T14:42:45.983Z</time></trkpt><trkpt lat="45.39094008678113" lon="10.550770283229506"><ele>119.0</ele><time>2026-04-04T14:42:46.983Z</time></trkpt><trkpt lat="45.39107745087845" lon="10.550817459702593"><ele>119.0</ele><time>2026-04-04T14:42:47.984Z</time></trkpt><trkpt lat="45.391197600148715" lon="10.55087129128431"><ele>119.0</ele><time>2026-04-04T14:42:48.984Z</time></trkpt><trkpt lat="45.39131262255346" lon="10.550923992587048"><ele>119.0</ele><time>2026-04-04T14:42:49.983Z</time></trkpt><trkpt lat="45.39143193813642" lon="10.550974592569098"><ele>119.0</ele><time>2026-04-04T14:42:50.984Z</time></trkpt><trkpt lat="45.391549998778935" lon="10.551024025309447"><ele>118.25</ele><time>2026-04-04T14:42:51.984Z</time></trkpt><trkpt lat="45.391663941168716" lon="10.551064708289251"><ele>117.5</ele><time>2026-04-04T14:42:52.984Z</time></trkpt><trkpt lat="45.39178026523619" lon="10.551107174318"><ele>116.75</ele><time>2026-04-04T14:42:53.983Z</time></trkpt><trkpt lat="45.39190060489505" lon="10.551144532541946"><ele>116.0</ele><time>2026-04-04T14:42:54.983Z</time></trkpt><trkpt lat="45.392020445992685" lon="10.551187216546463"><ele>114.5</ele><time>2026-04-04T14:42:55.983Z</time></trkpt><trkpt lat="45.39215161169779" lon="10.55124598065367"><ele>113.0</ele><time>2026-04-04T14:42:56.983Z</time></trkpt><trkpt lat="45.39228760357891" lon="10.551311311968215"><ele>111.5</ele><time>2026-04-04T14:42:57.983Z</time></trkpt><trkpt lat="45.39240669474821" lon="10.55137419243598"><ele>110.0</ele><time>2026-04-04T14:42:58.983Z</time></trkpt><trkpt lat="45.392526824027094" lon="10.551415583612481"><ele>110.0</ele><time>2026-04-04T14:42:59.983Z</time></trkpt><trkpt lat="45.39264177993015" lon="10.551460131528996"><ele>110.0</ele><time>2026-04-04T14:43:00.983Z</time></trkpt><trkpt lat="45.392743857351654" lon="10.551500664837524"><ele>110.0</ele><time>2026-04-04T14:43:01.983Z</time></trkpt><trkpt lat="45.3928277173125" lon="10.551555748961"><ele>110.0</ele><time>2026-04-04T14:43:02.983Z</time></trkpt><trkpt lat="45.392910408056515" lon="10.551601530559005"><ele>110.0</ele><time>2026-04-04T14:43:03.983Z</time></trkpt><trkpt lat="45.393001111491266" lon="10.551675016522097"><ele>110.4</ele><time>2026-04-04T14:43:04.983Z</time></trkpt><trkpt lat="45.393078235179026" lon="10.551757796437702"><ele>110.8</ele><time>2026-04-04T14:43:05.983Z</time></trkpt><trkpt lat="45.39313698134383" lon="10.55183846893514"><ele>111.19999999999999</ele><time>2026-04-04T14:43:06.983Z</time></trkpt><trkpt lat="45.393206654123404" lon="10.551917365742215"><ele>111.6</ele><time>2026-04-04T14:43:07.983Z</time></trkpt><trkpt lat="45.393293080909274" lon="10.551954272028777"><ele>112.0</ele><time>2026-04-04T14:43:08.983Z</time></trkpt><trkpt lat="45.393391227642105" lon="10.55194393691831"><ele>112.0</ele><time>2026-04-04T14:43:09.983Z</time></trkpt><trkpt lat="45.39349626501174" lon="10.551885446326596"><ele>112.0</ele><time>2026-04-04T14:43:10.983Z</time></trkpt><trkpt lat="45.39361984351408" lon="10.551796306924935"><ele>112.0</ele><time>2026-04-04T14:43:11.983Z</time></trkpt><trkpt lat="45.393727289111574" lon="10.551745355321914"><ele>112.0</ele><time>2026-04-04T14:43:12.983Z</time></trkpt><trkpt lat="45.39384235915718" lon="10.551703102992619"><ele>113.25</ele><time>2026-04-04T14:43:13.983Z</time></trkpt><trkpt lat="45.39395936972014" lon="10.551680712077355"><ele>114.5</ele><time>2026-04-04T14:43:14.983Z</time></trkpt><trkpt lat="45.3940809904999" lon="10.551650282639905"><ele>115.75</ele><time>2026-04-04T14:43:15.983Z</time></trkpt><trkpt lat="45.39420248535768" lon="10.551621765755408"><ele>117.0</ele><time>2026-04-04T14:43:16.983Z</time></trkpt><trkpt lat="45.39432809297502" lon="10.551601331685996"><ele>117.0</ele><time>2026-04-04T14:43:17.983Z</time></trkpt><trkpt lat="45.39443522102422" lon="10.551593293159986"><ele>117.0</ele><time>2026-04-04T14:43:18.983Z</time></trkpt><trkpt lat="45.39455140209658" lon="10.551589309294402"><ele>117.0</ele><time>2026-04-04T14:43:19.983Z</time></trkpt><trkpt lat="45.39466991604186" lon="10.55159689862687"><ele>117.0</ele><time>2026-04-04T14:43:20.983Z</time></trkpt><trkpt lat="45.39478471661294" lon="10.551615087304288"><ele>118.5</ele><time>2026-04-04T14:43:21.983Z</time></trkpt><trkpt lat="45.39491588372425" lon="10.551650213952328"><ele>120.0</ele><time>2026-04-04T14:43:22.983Z</time></trkpt><trkpt lat="45.39503531058273" lon="10.551683817622578"><ele>121.5</ele><time>2026-04-04T14:43:23.983Z</time></trkpt><trkpt lat="45.39514349081385" lon="10.551734791348451"><ele>123.0</ele><time>2026-04-04T14:43:24.983Z</time></trkpt><trkpt lat="45.39524894023009" lon="10.551790909960102"><ele>123.0</ele><time>2026-04-04T14:43:25.983Z</time></trkpt><trkpt lat="45.39536237437981" lon="10.551828098848265"><ele>123.00000000000001</ele><time>2026-04-04T14:43:26.983Z</time></trkpt><trkpt lat="45.39545567891674" lon="10.551858853225603"><ele>123.00000000000001</ele><time>2026-04-04T14:43:27.983Z</time></trkpt><trkpt lat="45.395543417443896" lon="10.551856499795704"><ele>123.0</ele><time>2026-04-04T14:43:28.983Z</time></trkpt><trkpt lat="45.39561361232149" lon="10.551843847806143"><ele>123.0</ele><time>2026-04-04T14:43:29.983Z</time></trkpt><trkpt lat="45.39569727338111" lon="10.551816189860471"><ele>122.80000000000001</ele><time>2026-04-04T14:43:30.983Z</time></trkpt><trkpt lat="45.39576538496634" lon="10.551791944238861"><ele>122.60000000000001</ele><time>2026-04-04T14:43:31.983Z</time></trkpt><trkpt lat="45.395881586309756" lon="10.55174750397509"><ele>122.39999999999999</ele><time>2026-04-04T14:43:33.983Z</time></trkpt><trkpt lat="45.395996833196584" lon="10.551735999624508"><ele>122.19999999999999</ele><time>2026-04-04T14:43:35.983Z</time></trkpt><trkpt lat="45.396073644263915" lon="10.551740060681398"><ele>122.0</ele><time>2026-04-04T14:43:36.983Z</time></trkpt><trkpt lat="45.396140282413725" lon="10.55172458264484"><ele>121.99999999999999</ele><time>2026-04-04T14:43:37.983Z</time></trkpt><trkpt lat="45.39621163447099" lon="10.551718318390984"><ele>122.0</ele><time>2026-04-04T14:43:38.983Z</time></trkpt><trkpt lat="45.39634355452214" lon="10.551705625428747"><ele>122.0</ele><time>2026-04-04T14:43:40.983Z</time></trkpt><trkpt lat="45.39641421632389" lon="10.551692478360916"><ele>122.0</ele><time>2026-04-04T14:43:41.983Z</time></trkpt><trkpt lat="45.39648776097993" lon="10.551700503728275"><ele>121.99999999999999</ele><time>2026-04-04T14:43:42.982Z</time></trkpt><trkpt lat="45.39655551713762" lon="10.551701107676568"><ele>122.0</ele><time>2026-04-04T14:43:43.982Z</time></trkpt><trkpt lat="45.39664988002032" lon="10.551709460979946"><ele>121.83333333333333</ele><time>2026-04-04T14:43:45.982Z</time></trkpt><trkpt lat="45.39671480855627" lon="10.551711968538056"><ele>121.66666666666666</ele><time>2026-04-04T14:43:46.982Z</time></trkpt><trkpt lat="45.3968092162406" lon="10.551716711517523"><ele>121.5</ele><time>2026-04-04T14:43:48.982Z</time></trkpt><trkpt lat="45.39686225337769" lon="10.551597497352468"><ele>121.33333333333334</ele><time>2026-04-04T14:43:50.982Z</time></trkpt><trkpt lat="45.39686174441245" lon="10.551503483564593"><ele>121.16666666666667</ele><time>2026-04-04T14:43:51.982Z</time></trkpt><trkpt lat="45.39685837168835" lon="10.551394497516814"><ele>121.0</ele><time>2026-04-04T14:43:52.982Z</time></trkpt><trkpt lat="45.39687224575237" lon="10.551295502885479"><ele>121.0</ele><time>2026-04-04T14:43:53.982Z</time></trkpt><trkpt lat="45.39689562691655" lon="10.551211073150077"><ele>120.99999999999999</ele><time>2026-04-04T14:43:54.982Z</time></trkpt><trkpt lat="45.396926549083766" lon="10.551129451889576"><ele>121.0</ele><time>2026-04-04T14:43:55.982Z</time></trkpt><trkpt lat="45.39695513087515" lon="10.551040000359814"><ele>121.0</ele><time>2026-04-04T14:43:56.982Z</time></trkpt><trkpt lat="45.396978061248056" lon="10.550946599131912"><ele>120.99999999999999</ele><time>2026-04-04T14:43:57.982Z</time></trkpt><trkpt lat="45.39702317228262" lon="10.550864868200177"><ele>121.0</ele><time>2026-04-04T14:43:58.982Z</time></trkpt><trkpt lat="45.39703789724858" lon="10.550771199947876"><ele>121.0</ele><time>2026-04-04T14:43:59.982Z</time></trkpt><trkpt lat="45.39706847550722" lon="10.550688323577324"><ele>121.19999999999999</ele><time>2026-04-04T14:44:00.982Z</time></trkpt><trkpt lat="45.3971049970413" lon="10.550538601983883"><ele>121.39999999999999</ele><time>2026-04-04T14:44:02.982Z</time></trkpt><trkpt lat="45.397125044287044" lon="10.550425979207992"><ele>121.6</ele><time>2026-04-04T14:44:04.982Z</time></trkpt><trkpt lat="45.39712791523242" lon="10.550316391987652"><ele>121.8</ele><time>2026-04-04T14:44:06.982Z</time></trkpt><trkpt lat="45.397136268692726" lon="10.55019433698817"><ele>122.0</ele><time>2026-04-04T14:44:08.982Z</time></trkpt><trkpt lat="45.39717037886746" lon="10.550026621460642"><ele>121.99999999999999</ele><time>2026-04-04T14:44:10.982Z</time></trkpt><trkpt lat="45.39718208329127" lon="10.549926512852604"><ele>122.0</ele><time>2026-04-04T14:44:11.982Z</time></trkpt><trkpt lat="45.39719661206913" lon="10.549826938263129"><ele>121.99999999999999</ele><time>2026-04-04T14:44:12.982Z</time></trkpt><trkpt lat="45.397211922066546" lon="10.54973215740463"><ele>121.99999999999999</ele><time>2026-04-04T14:44:13.982Z</time></trkpt><trkpt lat="45.39722899727607" lon="10.549635737096445"><ele>122.0</ele><time>2026-04-04T14:44:14.982Z</time></trkpt><trkpt lat="45.397245378182056" lon="10.549531748659355"><ele>121.99999999999999</ele><time>2026-04-04T14:44:15.982Z</time></trkpt><trkpt lat="45.39725655070971" lon="10.549440808357499"><ele>121.99999999999999</ele><time>2026-04-04T14:44:16.982Z</time></trkpt><trkpt lat="45.39727088460101" lon="10.549341389453732"><ele>121.66666666666666</ele><time>2026-04-04T14:44:17.982Z</time></trkpt><trkpt lat="45.39727979079511" lon="10.54923333766552"><ele>121.33333333333333</ele><time>2026-04-04T14:44:18.982Z</time></trkpt><trkpt lat="45.39728953987611" lon="10.549119203977732"><ele>121.0</ele><time>2026-04-04T14:44:19.982Z</time></trkpt><trkpt lat="45.397299259131586" lon="10.549009595740172"><ele>120.66666666666666</ele><time>2026-04-04T14:44:20.982Z</time></trkpt><trkpt lat="45.397311014229565" lon="10.548903977656668"><ele>120.33333333333333</ele><time>2026-04-04T14:44:21.982Z</time></trkpt><trkpt lat="45.39732469417198" lon="10.548792739561113"><ele>120.0</ele><time>2026-04-04T14:44:22.982Z</time></trkpt><trkpt lat="45.397338319747135" lon="10.548680491680715"><ele>119.57142857142858</ele><time>2026-04-04T14:44:23.982Z</time></trkpt><trkpt lat="45.3973550385213" lon="10.54857175315929"><ele>119.14285714285714</ele><time>2026-04-04T14:44:24.982Z</time></trkpt><trkpt lat="45.39737132669537" lon="10.548466669639783"><ele>118.71428571428572</ele><time>2026-04-04T14:44:25.982Z</time></trkpt><trkpt lat="45.39738425588916" lon="10.548359460907301"><ele>118.28571428571429</ele><time>2026-04-04T14:44:26.982Z</time></trkpt><trkpt lat="45.39739966995698" lon="10.548259140374686"><ele>117.85714285714286</ele><time>2026-04-04T14:44:27.982Z</time></trkpt><trkpt lat="45.39741414582161" lon="10.54815823226522"><ele>117.42857142857143</ele><time>2026-04-04T14:44:28.982Z</time></trkpt><trkpt lat="45.39742942135732" lon="10.5480586508474"><ele>117.0</ele><time>2026-04-04T14:44:29.982Z</time></trkpt><trkpt lat="45.39744376594648" lon="10.547959268211"><ele>116.83333333333333</ele><time>2026-04-04T14:44:30.982Z</time></trkpt><trkpt lat="45.39745857395286" lon="10.54786121867322"><ele>116.66666666666666</ele><time>2026-04-04T14:44:31.982Z</time></trkpt><trkpt lat="45.39748323876748" lon="10.547750013723707"><ele>116.5</ele><time>2026-04-04T14:44:32.981Z</time></trkpt><trkpt lat="45.39751024281102" lon="10.54764614389774"><ele>116.33333333333333</ele><time>2026-04-04T14:44:33.981Z</time></trkpt><trkpt lat="45.39753914248089" lon="10.54753696441445"><ele>116.16666666666666</ele><time>2026-04-04T14:44:34.981Z</time></trkpt><trkpt lat="45.397563878718174" lon="10.547430160113082"><ele>116.0</ele><time>2026-04-04T14:44:35.981Z</time></trkpt><trkpt lat="45.39758947829444" lon="10.547320540230102"><ele>115.99999999999999</ele><time>2026-04-04T14:44:36.981Z</time></trkpt><trkpt lat="45.39761473474584" lon="10.547216501698047"><ele>116.0</ele><time>2026-04-04T14:44:37.981Z</time></trkpt><trkpt lat="45.397638016459624" lon="10.547104414573221"><ele>116.0</ele><time>2026-04-04T14:44:38.981Z</time></trkpt><trkpt lat="45.39766046261255" lon="10.546997819258525"><ele>116.0</ele><time>2026-04-04T14:44:39.981Z</time></trkpt><trkpt lat="45.39767603238304" lon="10.546888217001365"><ele>115.99999999999999</ele><time>2026-04-04T14:44:40.981Z</time></trkpt><trkpt lat="45.397685907885055" lon="10.546775032745552"><ele>116.0</ele><time>2026-04-04T14:44:41.981Z</time></trkpt><trkpt lat="45.39768770153679" lon="10.546647567756818"><ele>115.4</ele><time>2026-04-04T14:44:42.981Z</time></trkpt><trkpt lat="45.39767215149243" lon="10.54650486323263"><ele>114.8</ele><time>2026-04-04T14:44:43.984Z</time></trkpt><trkpt lat="45.397648637230134" lon="10.546355872734239"><ele>114.20000000000002</ele><time>2026-04-04T14:44:44.984Z</time></trkpt><trkpt lat="45.3976233169887" lon="10.546206160904497"><ele>113.60000000000001</ele><time>2026-04-04T14:44:45.984Z</time></trkpt><trkpt lat="45.397606317491764" lon="10.546061233550972"><ele>113.0</ele><time>2026-04-04T14:44:46.984Z</time></trkpt><trkpt lat="45.397604261920044" lon="10.545917692650544"><ele>113.0</ele><time>2026-04-04T14:44:47.984Z</time></trkpt><trkpt lat="45.39760772864314" lon="10.545783002729367"><ele>113.00000000000001</ele><time>2026-04-04T14:44:48.984Z</time></trkpt><trkpt lat="45.3976216267509" lon="10.545646718325843"><ele>113.00000000000001</ele><time>2026-04-04T14:44:49.984Z</time></trkpt><trkpt lat="45.3976498135075" lon="10.54550412447199"><ele>113.0</ele><time>2026-04-04T14:44:50.984Z</time></trkpt><trkpt lat="45.397689666548956" lon="10.545365689990627"><ele>113.0</ele><time>2026-04-04T14:44:51.984Z</time></trkpt><trkpt lat="45.39772777195938" lon="10.545224922814894"><ele>113.0</ele><time>2026-04-04T14:44:52.984Z</time></trkpt><trkpt lat="45.397770958053655" lon="10.545089032954058"><ele>113.00000000000001</ele><time>2026-04-04T14:44:53.984Z</time></trkpt><trkpt lat="45.39781804851097" lon="10.544952929228485"><ele>113.00000000000001</ele><time>2026-04-04T14:44:54.984Z</time></trkpt><trkpt lat="45.397876466671875" lon="10.544823317105454"><ele>113.0</ele><time>2026-04-04T14:44:55.984Z</time></trkpt><trkpt lat="45.397942828098365" lon="10.544700220198193"><ele>113.0</ele><time>2026-04-04T14:44:56.984Z</time></trkpt><trkpt lat="45.398011868871336" lon="10.544584972101267"><ele>113.0</ele><time>2026-04-04T14:44:57.984Z</time></trkpt><trkpt lat="45.39808095188587" lon="10.544465357422723"><ele>113.00000000000001</ele><time>2026-04-04T14:44:58.984Z</time></trkpt><trkpt lat="45.39814189943308" lon="10.544339645678551"><ele>113.00000000000001</ele><time>2026-04-04T14:44:59.984Z</time></trkpt><trkpt lat="45.3981970047233" lon="10.54420586593601"><ele>113.0</ele><time>2026-04-04T14:45:00.983Z</time></trkpt><trkpt lat="45.39824696793361" lon="10.544074099183485"><ele>113.0</ele><time>2026-04-04T14:45:01.983Z</time></trkpt><trkpt lat="45.3982961133934" lon="10.54394248478261"><ele>113.0</ele><time>2026-04-04T14:45:02.983Z</time></trkpt><trkpt lat="45.39834341194488" lon="10.543807747369987"><ele>113.00000000000001</ele><time>2026-04-04T14:45:03.983Z</time></trkpt><trkpt lat="45.398391298935685" lon="10.543673017143686"><ele>113.00000000000001</ele><time>2026-04-04T14:45:04.983Z</time></trkpt><trkpt lat="45.39843988307601" lon="10.54354200154313"><ele>113.0</ele><time>2026-04-04T14:45:05.983Z</time></trkpt><trkpt lat="45.39848298117937" lon="10.543415237161332"><ele>113.0</ele><time>2026-04-04T14:45:06.983Z</time></trkpt><trkpt lat="45.39852332634878" lon="10.543295732880212"><ele>112.66666666666666</ele><time>2026-04-04T14:45:07.983Z</time></trkpt><trkpt lat="45.398556842802044" lon="10.543180496436651"><ele>112.33333333333333</ele><time>2026-04-04T14:45:08.983Z</time></trkpt><trkpt lat="45.398581442281746" lon="10.543056676768543"><ele>112.0</ele><time>2026-04-04T14:45:09.983Z</time></trkpt><trkpt lat="45.39860417875086" lon="10.542928110988651"><ele>111.66666666666666</ele><time>2026-04-04T14:45:10.983Z</time></trkpt><trkpt lat="45.39862231715802" lon="10.542801603885886"><ele>111.33333333333333</ele><time>2026-04-04T14:45:11.983Z</time></trkpt><trkpt lat="45.39864086773346" lon="10.542681799848367"><ele>111.0</ele><time>2026-04-04T14:45:12.983Z</time></trkpt><trkpt lat="45.39866609129431" lon="10.542569311345392"><ele>111.0</ele><time>2026-04-04T14:45:13.983Z</time></trkpt><trkpt lat="45.3987005435412" lon="10.54245881731002"><ele>111.0</ele><time>2026-04-04T14:45:14.983Z</time></trkpt><trkpt lat="45.39874059287673" lon="10.542356638082575"><ele>111.0</ele><time>2026-04-04T14:45:15.983Z</time></trkpt><trkpt lat="45.39877945219047" lon="10.542264697321535"><ele>111.0</ele><time>2026-04-04T14:45:16.983Z</time></trkpt><trkpt lat="45.39881111101784" lon="10.542178406680321"><ele>111.0</ele><time>2026-04-04T14:45:17.983Z</time></trkpt><trkpt lat="45.398825499616315" lon="10.542077334287315"><ele>111.0</ele><time>2026-04-04T14:45:18.983Z</time></trkpt><trkpt lat="45.398817391011626" lon="10.541965243370123"><ele>111.28571428571428</ele><time>2026-04-04T14:45:19.983Z</time></trkpt><trkpt lat="45.39880940611174" lon="10.54186131420555"><ele>111.57142857142858</ele><time>2026-04-04T14:45:20.983Z</time></trkpt><trkpt lat="45.39878411058748" lon="10.5417786802269"><ele>111.85714285714286</ele><time>2026-04-04T14:45:21.983Z</time></trkpt><trkpt lat="45.39874255978476" lon="10.541708016613816"><ele>112.14285714285714</ele><time>2026-04-04T14:45:22.983Z</time></trkpt><trkpt lat="45.39869255959743" lon="10.541640455402431"><ele>112.42857142857142</ele><time>2026-04-04T14:45:23.983Z</time></trkpt><trkpt lat="45.39865081415415" lon="10.541556836300076"><ele>112.71428571428572</ele><time>2026-04-04T14:45:24.983Z</time></trkpt><trkpt lat="45.398617313080976" lon="10.541461354118475"><ele>113.0</ele><time>2026-04-04T14:45:25.983Z</time></trkpt><trkpt lat="45.398598757498384" lon="10.541361892132917"><ele>112.99999999999999</ele><time>2026-04-04T14:45:26.983Z</time></trkpt><trkpt lat="45.39859549394402" lon="10.541257729998222"><ele>113.0</ele><time>2026-04-04T14:45:27.983Z</time></trkpt><trkpt lat="45.39861494616702" lon="10.541151884291112"><ele>113.0</ele><time>2026-04-04T14:45:28.983Z</time></trkpt><trkpt lat="45.398646739573245" lon="10.541044340831332"><ele>113.0</ele><time>2026-04-04T14:45:29.983Z</time></trkpt><trkpt lat="45.39868292041012" lon="10.54094135330675"><ele>112.99999999999999</ele><time>2026-04-04T14:45:30.983Z</time></trkpt><trkpt lat="45.398719080249734" lon="10.540840749672036"><ele>113.0</ele><time>2026-04-04T14:45:31.983Z</time></trkpt><trkpt lat="45.398749223695894" lon="10.540744949318674"><ele>113.33333333333333</ele><time>2026-04-04T14:45:32.983Z</time></trkpt><trkpt lat="45.39877967390879" lon="10.54063902168086"><ele>113.66666666666666</ele><time>2026-04-04T14:45:33.983Z</time></trkpt><trkpt lat="45.398805335228666" lon="10.540532274331277"><ele>114.0</ele><time>2026-04-04T14:45:34.983Z</time></trkpt><trkpt lat="45.39883305021419" lon="10.540421824260475"><ele>114.33333333333334</ele><time>2026-04-04T14:45:35.983Z</time></trkpt><trkpt lat="45.398866714817146" lon="10.540314191041455"><ele>114.66666666666667</ele><time>2026-04-04T14:45:36.983Z</time></trkpt><trkpt lat="45.39890102480497" lon="10.540202524026885"><ele>115.0</ele><time>2026-04-04T14:45:37.983Z</time></trkpt><trkpt lat="45.39893512486647" lon="10.54008631000346"><ele>115.0</ele><time>2026-04-04T14:45:38.983Z</time></trkpt><trkpt lat="45.39896654220835" lon="10.539969994814"><ele>115.0</ele><time>2026-04-04T14:45:39.983Z</time></trkpt><trkpt lat="45.39900360014921" lon="10.539847936464511"><ele>115.0</ele><time>2026-04-04T14:45:40.983Z</time></trkpt><trkpt lat="45.399032424365586" lon="10.539719910616327"><ele>115.0</ele><time>2026-04-04T14:45:41.983Z</time></trkpt><trkpt lat="45.39904758945383" lon="10.539580352415296"><ele>115.0</ele><time>2026-04-04T14:45:42.983Z</time></trkpt><trkpt lat="45.39905669201668" lon="10.5394383146738"><ele>116.0</ele><time>2026-04-04T14:45:43.983Z</time></trkpt><trkpt lat="45.39907164735618" lon="10.539301666911594"><ele>117.0</ele><time>2026-04-04T14:45:44.983Z</time></trkpt><trkpt lat="45.39908820114292" lon="10.539155106504552"><ele>118.0</ele><time>2026-04-04T14:45:45.983Z</time></trkpt><trkpt lat="45.399100813344" lon="10.539004165914012"><ele>119.0</ele><time>2026-04-04T14:45:46.983Z</time></trkpt><trkpt lat="45.399107229123935" lon="10.538855424556305"><ele>120.0</ele><time>2026-04-04T14:45:47.983Z</time></trkpt><trkpt lat="45.39911314024041" lon="10.538685615795867"><ele>120.25</ele><time>2026-04-04T14:45:48.983Z</time></trkpt><trkpt lat="45.39911998000851" lon="10.538525147604767"><ele>120.5</ele><time>2026-04-04T14:45:49.983Z</time></trkpt><trkpt lat="45.399137780271474" lon="10.538365874953872"><ele>120.75</ele><time>2026-04-04T14:45:50.982Z</time></trkpt><trkpt lat="45.399166384219576" lon="10.538208644742939"><ele>121.0</ele><time>2026-04-04T14:45:51.982Z</time></trkpt><trkpt lat="45.39919935575424" lon="10.538051804277343"><ele>121.0</ele><time>2026-04-04T14:45:52.982Z</time></trkpt><trkpt lat="45.39923507118678" lon="10.537897639853764"><ele>121.0</ele><time>2026-04-04T14:45:53.982Z</time></trkpt><trkpt lat="45.399275283997866" lon="10.537744747992347"><ele>121.0</ele><time>2026-04-04T14:45:54.982Z</time></trkpt><trkpt lat="45.39930946741548" lon="10.537595605329754"><ele>121.0</ele><time>2026-04-04T14:45:55.982Z</time></trkpt><trkpt lat="45.399342599606015" lon="10.537449063315107"><ele>121.0</ele><time>2026-04-04T14:45:56.982Z</time></trkpt><trkpt lat="45.39936479615694" lon="10.537300481976745"><ele>121.6</ele><time>2026-04-04T14:45:57.982Z</time></trkpt><trkpt lat="45.39937516703297" lon="10.537138733624776"><ele>122.19999999999999</ele><time>2026-04-04T14:45:58.982Z</time></trkpt><trkpt lat="45.399388698803406" lon="10.53698129306023"><ele>122.80000000000001</ele><time>2026-04-04T14:45:59.982Z</time></trkpt><trkpt lat="45.39940046148676" lon="10.536824506588667"><ele>123.4</ele><time>2026-04-04T14:46:00.982Z</time></trkpt><trkpt lat="45.39941834830566" lon="10.536667028001078"><ele>124.0</ele><time>2026-04-04T14:46:01.982Z</time></trkpt><trkpt lat="45.3994296183613" lon="10.53651105565091"><ele>125.0</ele><time>2026-04-04T14:46:02.982Z</time></trkpt><trkpt lat="45.39944237634265" lon="10.536340785120702"><ele>126.0</ele><time>2026-04-04T14:46:03.982Z</time></trkpt><trkpt lat="45.39945609212377" lon="10.536163675375327"><ele>127.0</ele><time>2026-04-04T14:46:04.982Z</time></trkpt><trkpt lat="45.39947074482871" lon="10.53599001120912"><ele>128.0</ele><time>2026-04-04T14:46:05.982Z</time></trkpt><trkpt lat="45.39948645315268" lon="10.53581157636019"><ele>128.6</ele><time>2026-04-04T14:46:06.982Z</time></trkpt><trkpt lat="45.399495902276605" lon="10.535649814540234"><ele>129.20000000000002</ele><time>2026-04-04T14:46:07.982Z</time></trkpt><trkpt lat="45.39950007954629" lon="10.535498257766658"><ele>129.8</ele><time>2026-04-04T14:46:08.982Z</time></trkpt><trkpt lat="45.39949376697809" lon="10.535343352305214"><ele>130.4</ele><time>2026-04-04T14:46:09.982Z</time></trkpt><trkpt lat="45.399473493169154" lon="10.535188980555043"><ele>131.0</ele><time>2026-04-04T14:46:10.982Z</time></trkpt><trkpt lat="45.39944862591004" lon="10.535048377113856"><ele>131.0</ele><time>2026-04-04T14:46:11.982Z</time></trkpt><trkpt lat="45.399419048486415" lon="10.534917743933546"><ele>131.0</ele><time>2026-04-04T14:46:12.982Z</time></trkpt><trkpt lat="45.39938182923258" lon="10.5347923141212"><ele>131.0</ele><time>2026-04-04T14:46:13.982Z</time></trkpt><trkpt lat="45.399338125843975" lon="10.534669493739923"><ele>131.0</ele><time>2026-04-04T14:46:14.982Z</time></trkpt><trkpt lat="45.39928259618781" lon="10.534556214311783"><ele>131.0</ele><time>2026-04-04T14:46:15.982Z</time></trkpt><trkpt lat="45.399219780964174" lon="10.534455438706779"><ele>131.0</ele><time>2026-04-04T14:46:16.982Z</time></trkpt><trkpt lat="45.399150486273136" lon="10.534360696047365"><ele>131.0</ele><time>2026-04-04T14:46:17.982Z</time></trkpt><trkpt lat="45.39907736452124" lon="10.534272246181297"><ele>131.0</ele><time>2026-04-04T14:46:18.982Z</time></trkpt><trkpt lat="45.39900607581155" lon="10.534193970290023"><ele>131.0</ele><time>2026-04-04T14:46:19.982Z</time></trkpt><trkpt lat="45.3989437127644" lon="10.534132500501135"><ele>131.0</ele><time>2026-04-04T14:46:20.982Z</time></trkpt><trkpt lat="45.39888522999659" lon="10.534071163008358"><ele>131.0</ele><time>2026-04-04T14:46:21.982Z</time></trkpt><trkpt lat="45.39883423895966" lon="10.534014774632107"><ele>131.0</ele><time>2026-04-04T14:46:22.982Z</time></trkpt><trkpt lat="45.39878599274128" lon="10.533945072845109"><ele>131.0</ele><time>2026-04-04T14:46:23.982Z</time></trkpt><trkpt lat="45.398745048725814" lon="10.533859743725627"><ele>131.0</ele><time>2026-04-04T14:46:24.982Z</time></trkpt><trkpt lat="45.3987111418184" lon="10.53375736742349"><ele>131.0</ele><time>2026-04-04T14:46:25.982Z</time></trkpt><trkpt lat="45.39868562994942" lon="10.53364893388432"><ele>131.0</ele><time>2026-04-04T14:46:26.982Z</time></trkpt><trkpt lat="45.39866044375225" lon="10.533539380994288"><ele>131.0</ele><time>2026-04-04T14:46:27.982Z</time></trkpt><trkpt lat="45.3986348612486" lon="10.533424184955397"><ele>130.5</ele><time>2026-04-04T14:46:28.982Z</time></trkpt><trkpt lat="45.39860455820948" lon="10.533317055514608"><ele>130.0</ele><time>2026-04-04T14:46:29.982Z</time></trkpt><trkpt lat="45.39855360373208" lon="10.533178091659519"><ele>129.5</ele><time>2026-04-04T14:46:31.982Z</time></trkpt><trkpt lat="45.39848520985124" lon="10.533139119247506"><ele>129.0</ele><time>2026-04-04T14:46:33.982Z</time></trkpt><trkpt lat="45.39843361276016" lon="10.53320119940006"><ele>128.5</ele><time>2026-04-04T14:46:35.982Z</time></trkpt><trkpt lat="45.398414755648595" lon="10.533345412579212"><ele>128.0</ele><time>2026-04-04T14:46:37.982Z</time></trkpt><trkpt lat="45.39839844992808" lon="10.533501795057022"><ele>127.99999999999999</ele><time>2026-04-04T14:46:39.981Z</time></trkpt><trkpt lat="45.39838247875204" lon="10.533595484352146"><ele>128.0</ele><time>2026-04-04T14:46:40.981Z</time></trkpt><trkpt lat="45.398363577567245" lon="10.533704332463694"><ele>128.0</ele><time>2026-04-04T14:46:41.981Z</time></trkpt><trkpt lat="45.3983448753314" lon="10.53382230218849"><ele>128.0</ele><time>2026-04-04T14:46:42.981Z</time></trkpt><trkpt lat="45.398322847085204" lon="10.533951409933563"><ele>127.99999999999999</ele><time>2026-04-04T14:46:43.981Z</time></trkpt><trkpt lat="45.398303855640854" lon="10.534099373595003"><ele>128.0</ele><time>2026-04-04T14:46:44.981Z</time></trkpt><trkpt lat="45.3982855599926" lon="10.534234206147795"><ele>128.6</ele><time>2026-04-04T14:46:45.981Z</time></trkpt><trkpt lat="45.39826577457678" lon="10.534363202335616"><ele>129.20000000000002</ele><time>2026-04-04T14:46:46.981Z</time></trkpt><trkpt lat="45.39824330252826" lon="10.534496764666066"><ele>129.8</ele><time>2026-04-04T14:46:47.981Z</time></trkpt><trkpt lat="45.39822979056606" lon="10.534623851106481"><ele>130.4</ele><time>2026-04-04T14:46:48.984Z</time></trkpt><trkpt lat="45.39821613847784" lon="10.53475369770896"><ele>131.0</ele><time>2026-04-04T14:46:49.984Z</time></trkpt><trkpt lat="45.398194916351954" lon="10.534894153611127"><ele>131.66666666666666</ele><time>2026-04-04T14:46:50.984Z</time></trkpt><trkpt lat="45.398175181323346" lon="10.535016352078005"><ele>132.33333333333331</ele><time>2026-04-04T14:46:51.984Z</time></trkpt><trkpt lat="45.39815123159278" lon="10.535145078172356"><ele>133.0</ele><time>2026-04-04T14:46:52.984Z</time></trkpt><trkpt lat="45.398132744593426" lon="10.535262109039694"><ele>133.66666666666666</ele><time>2026-04-04T14:46:53.984Z</time></trkpt><trkpt lat="45.398116771483664" lon="10.535394178947163"><ele>134.33333333333334</ele><time>2026-04-04T14:46:54.984Z</time></trkpt><trkpt lat="45.3981007461214" lon="10.535511438579908"><ele>135.0</ele><time>2026-04-04T14:46:55.984Z</time></trkpt><trkpt lat="45.39808270824829" lon="10.535619856011797"><ele>135.16666666666666</ele><time>2026-04-04T14:46:56.984Z</time></trkpt><trkpt lat="45.39806617038938" lon="10.53571719513429"><ele>135.33333333333334</ele><time>2026-04-04T14:46:57.984Z</time></trkpt><trkpt lat="45.398027099815685" lon="10.535835082604043"><ele>135.5</ele><time>2026-04-04T14:46:59.985Z</time></trkpt><trkpt lat="45.39798071885111" lon="10.535925193597445"><ele>135.66666666666669</ele><time>2026-04-04T14:47:01.985Z</time></trkpt><trkpt lat="45.39791264919789" lon="10.536016159859296"><ele>135.83333333333334</ele><time>2026-04-04T14:47:03.985Z</time></trkpt><trkpt lat="45.39786290741266" lon="10.5360727983198"><ele>136.0</ele><time>2026-04-04T14:47:04.985Z</time></trkpt><trkpt lat="45.397801885044174" lon="10.536146258867475"><ele>136.8</ele><time>2026-04-04T14:47:05.985Z</time></trkpt><trkpt lat="45.39773082001893" lon="10.536234230231118"><ele>137.6</ele><time>2026-04-04T14:47:06.985Z</time></trkpt><trkpt lat="45.39765554171345" lon="10.536331098328123"><ele>138.4</ele><time>2026-04-04T14:47:07.985Z</time></trkpt><trkpt lat="45.39757695392343" lon="10.536435140464516"><ele>139.2</ele><time>2026-04-04T14:47:08.985Z</time></trkpt><trkpt lat="45.39749150635301" lon="10.53655580501117"><ele>140.0</ele><time>2026-04-04T14:47:09.985Z</time></trkpt><trkpt lat="45.39739421403604" lon="10.536676487882003"><ele>140.0</ele><time>2026-04-04T14:47:10.985Z</time></trkpt><trkpt lat="45.39728382368278" lon="10.536800235606373"><ele>140.0</ele><time>2026-04-04T14:47:11.985Z</time></trkpt><trkpt lat="45.39715895348219" lon="10.53690570821966"><ele>140.0</ele><time>2026-04-04T14:47:12.985Z</time></trkpt><trkpt lat="45.39703115442257" lon="10.536965390501877"><ele>140.0</ele><time>2026-04-04T14:47:13.985Z</time></trkpt><trkpt lat="45.39692603576458" lon="10.537014735088757"><ele>138.5</ele><time>2026-04-04T14:47:14.984Z</time></trkpt><trkpt lat="45.39684219287836" lon="10.537053460581832"><ele>137.0</ele><time>2026-04-04T14:47:15.984Z</time></trkpt><trkpt lat="45.39675946361573" lon="10.53708836751497"><ele>135.5</ele><time>2026-04-04T14:47:16.984Z</time></trkpt><trkpt lat="45.396679119551536" lon="10.537127186154681"><ele>134.0</ele><time>2026-04-04T14:47:17.984Z</time></trkpt><trkpt lat="45.39660575846226" lon="10.537159806362233"><ele>132.5</ele><time>2026-04-04T14:47:18.984Z</time></trkpt><trkpt lat="45.39653550995699" lon="10.537180277124156"><ele>131.0</ele><time>2026-04-04T14:47:19.984Z</time></trkpt><trkpt lat="45.39647082238141" lon="10.53718817992096"><ele>131.0</ele><time>2026-04-04T14:47:20.984Z</time></trkpt><trkpt lat="45.39640412069351" lon="10.5371701552966"><ele>131.0</ele><time>2026-04-04T14:47:21.984Z</time></trkpt><trkpt lat="45.39633549985917" lon="10.537136275137941"><ele>131.0</ele><time>2026-04-04T14:47:22.984Z</time></trkpt><trkpt lat="45.39626870908045" lon="10.53708701840897"><ele>131.0</ele><time>2026-04-04T14:47:23.984Z</time></trkpt><trkpt lat="45.396196858294594" lon="10.537027788583497"><ele>131.0</ele><time>2026-04-04T14:47:24.984Z</time></trkpt><trkpt lat="45.39612425276275" lon="10.53696037404053"><ele>131.0</ele><time>2026-04-04T14:47:25.984Z</time></trkpt><trkpt lat="45.3960540708511" lon="10.536893300980847"><ele>130.8</ele><time>2026-04-04T14:47:26.984Z</time></trkpt><trkpt lat="45.395974695805506" lon="10.536829680913328"><ele>130.6</ele><time>2026-04-04T14:47:27.984Z</time></trkpt><trkpt lat="45.3958953481685" lon="10.53676014769982"><ele>130.4</ele><time>2026-04-04T14:47:28.984Z</time></trkpt><trkpt lat="45.39580639753653" lon="10.536682171466458"><ele>130.2</ele><time>2026-04-04T14:47:29.984Z</time></trkpt><trkpt lat="45.39571401915133" lon="10.536596028035625"><ele>130.0</ele><time>2026-04-04T14:47:30.984Z</time></trkpt><trkpt lat="45.395621489172406" lon="10.536519113262198"><ele>130.0</ele><time>2026-04-04T14:47:31.984Z</time></trkpt><trkpt lat="45.395541149615944" lon="10.536451332683688"><ele>130.0</ele><time>2026-04-04T14:47:32.984Z</time></trkpt><trkpt lat="45.395473129987046" lon="10.536384985305885"><ele>130.0</ele><time>2026-04-04T14:47:33.984Z</time></trkpt><trkpt lat="45.395412361987255" lon="10.536340000153542"><ele>130.0</ele><time>2026-04-04T14:47:34.984Z</time></trkpt><trkpt lat="45.395306246185015" lon="10.53634577912273"><ele>130.0</ele><time>2026-04-04T14:47:36.984Z</time></trkpt><trkpt lat="45.39523041401764" lon="10.536394485657263"><ele>130.0</ele><time>2026-04-04T14:47:38.984Z</time></trkpt><trkpt lat="45.39516896399958" lon="10.53643208612137"><ele>130.6</ele><time>2026-04-04T14:47:39.984Z</time></trkpt><trkpt lat="45.3950910924987" lon="10.53648016232027"><ele>131.2</ele><time>2026-04-04T14:47:40.984Z</time></trkpt><trkpt lat="45.39500544281471" lon="10.536532313958029"><ele>131.8</ele><time>2026-04-04T14:47:41.984Z</time></trkpt><trkpt lat="45.39490984287368" lon="10.536583830728675"><ele>132.4</ele><time>2026-04-04T14:47:42.984Z</time></trkpt><trkpt lat="45.394820728997985" lon="10.536630592412076"><ele>133.0</ele><time>2026-04-04T14:47:43.984Z</time></trkpt><trkpt lat="45.39472814341112" lon="10.536678587039471"><ele>132.8</ele><time>2026-04-04T14:47:44.984Z</time></trkpt><trkpt lat="45.39463721827735" lon="10.536731103051428"><ele>132.60000000000002</ele><time>2026-04-04T14:47:45.984Z</time></trkpt><trkpt lat="45.39454358331417" lon="10.53678918621653"><ele>132.39999999999998</ele><time>2026-04-04T14:47:46.984Z</time></trkpt><trkpt lat="45.394446026201926" lon="10.536842686429294"><ele>132.2</ele><time>2026-04-04T14:47:47.984Z</time></trkpt><trkpt lat="45.39435001839536" lon="10.536899020534873"><ele>132.0</ele><time>2026-04-04T14:47:48.984Z</time></trkpt><trkpt lat="45.394257762250106" lon="10.536963044786416"><ele>132.0</ele><time>2026-04-04T14:47:49.984Z</time></trkpt><trkpt lat="45.394170687184356" lon="10.537026434965039"><ele>132.0</ele><time>2026-04-04T14:47:50.984Z</time></trkpt><trkpt lat="45.39408136739444" lon="10.537095531144358"><ele>132.0</ele><time>2026-04-04T14:47:51.984Z</time></trkpt><trkpt lat="45.39399911120022" lon="10.537176958821231"><ele>132.0</ele><time>2026-04-04T14:47:52.984Z</time></trkpt><trkpt lat="45.393914781283456" lon="10.537268623465675"><ele>132.0</ele><time>2026-04-04T14:47:53.984Z</time></trkpt><trkpt lat="45.39382782166313" lon="10.537367645695909"><ele>132.25</ele><time>2026-04-04T14:47:54.984Z</time></trkpt><trkpt lat="45.393738952449866" lon="10.537466936466757"><ele>132.5</ele><time>2026-04-04T14:47:55.984Z</time></trkpt><trkpt lat="45.39365051503734" lon="10.537568886689957"><ele>132.75</ele><time>2026-04-04T14:47:56.984Z</time></trkpt><trkpt lat="45.39355866358767" lon="10.537665394373159"><ele>133.0</ele><time>2026-04-04T14:47:57.984Z</time></trkpt><trkpt lat="45.39346924710534" lon="10.537763559885946"><ele>133.0</ele><time>2026-04-04T14:47:58.984Z</time></trkpt><trkpt lat="45.393385727510925" lon="10.537859865035056"><ele>133.0</ele><time>2026-04-04T14:47:59.984Z</time></trkpt><trkpt lat="45.39330942979872" lon="10.537949901452084"><ele>133.0</ele><time>2026-04-04T14:48:00.984Z</time></trkpt><trkpt lat="45.39324266867568" lon="10.538031973201864"><ele>133.0</ele><time>2026-04-04T14:48:01.984Z</time></trkpt><trkpt lat="45.39317342754918" lon="10.538124672339734"><ele>133.0</ele><time>2026-04-04T14:48:02.984Z</time></trkpt><trkpt lat="45.39310334427614" lon="10.538214467947327"><ele>133.16666666666669</ele><time>2026-04-04T14:48:03.983Z</time></trkpt><trkpt lat="45.39304106320625" lon="10.538302315128151"><ele>133.33333333333334</ele><time>2026-04-04T14:48:04.983Z</time></trkpt><trkpt lat="45.39298604479354" lon="10.538380804789858"><ele>133.5</ele><time>2026-04-04T14:48:05.983Z</time></trkpt><trkpt lat="45.39293909291121" lon="10.538448267393196"><ele>133.66666666666666</ele><time>2026-04-04T14:48:06.983Z</time></trkpt><trkpt lat="45.39285345327133" lon="10.538548860391112"><ele>133.83333333333331</ele><time>2026-04-04T14:48:08.983Z</time></trkpt><trkpt lat="45.39279101193652" lon="10.538578168815926"><ele>134.0</ele><time>2026-04-04T14:48:09.983Z</time></trkpt><trkpt lat="45.392720774413085" lon="10.538585697065146"><ele>134.2</ele><time>2026-04-04T14:48:10.983Z</time></trkpt><trkpt lat="45.39262233780785" lon="10.538576927633294"><ele>134.4</ele><time>2026-04-04T14:48:11.983Z</time></trkpt><trkpt lat="45.39251166526266" lon="10.538577552841593"><ele>134.6</ele><time>2026-04-04T14:48:12.983Z</time></trkpt><trkpt lat="45.392409435213075" lon="10.538592431633033"><ele>134.8</ele><time>2026-04-04T14:48:13.983Z</time></trkpt><trkpt lat="45.392292525367544" lon="10.538595031356484"><ele>135.0</ele><time>2026-04-04T14:48:14.983Z</time></trkpt><trkpt lat="45.39218229761807" lon="10.538573258078696"><ele>134.4</ele><time>2026-04-04T14:48:15.983Z</time></trkpt><trkpt lat="45.39208216749995" lon="10.538531017865088"><ele>133.8</ele><time>2026-04-04T14:48:16.983Z</time></trkpt><trkpt lat="45.39197856083169" lon="10.538482538376519"><ele>133.2</ele><time>2026-04-04T14:48:17.983Z</time></trkpt><trkpt lat="45.39187504617642" lon="10.538424479382549"><ele>132.6</ele><time>2026-04-04T14:48:18.983Z</time></trkpt><trkpt lat="45.39177462454122" lon="10.538358114147814"><ele>132.0</ele><time>2026-04-04T14:48:19.983Z</time></trkpt><trkpt lat="45.39168080437556" lon="10.538285926326227"><ele>132.0</ele><time>2026-04-04T14:48:20.983Z</time></trkpt><trkpt lat="45.391591521133485" lon="10.538203639309737"><ele>132.0</ele><time>2026-04-04T14:48:21.983Z</time></trkpt><trkpt lat="45.39149604979289" lon="10.538126849023762"><ele>132.0</ele><time>2026-04-04T14:48:22.983Z</time></trkpt><trkpt lat="45.39139866061469" lon="10.53805025921338"><ele>132.0</ele><time>2026-04-04T14:48:23.983Z</time></trkpt><trkpt lat="45.391297411540336" lon="10.537976491256268"><ele>132.0</ele><time>2026-04-04T14:48:24.983Z</time></trkpt><trkpt lat="45.39119775201188" lon="10.537910694196741"><ele>131.6</ele><time>2026-04-04T14:48:25.983Z</time></trkpt><trkpt lat="45.391101640807726" lon="10.537855364431124"><ele>131.2</ele><time>2026-04-04T14:48:26.983Z</time></trkpt><trkpt lat="45.391012607615934" lon="10.537816000951596"><ele>130.8</ele><time>2026-04-04T14:48:27.983Z</time></trkpt><trkpt lat="45.39092367980326" lon="10.53776726123195"><ele>130.4</ele><time>2026-04-04T14:48:28.983Z</time></trkpt><trkpt lat="45.390839389140915" lon="10.537711678951796"><ele>130.0</ele><time>2026-04-04T14:48:29.983Z</time></trkpt><trkpt lat="45.3907586200437" lon="10.537628623972118"><ele>130.0</ele><time>2026-04-04T14:48:30.983Z</time></trkpt><trkpt lat="45.39068462563437" lon="10.537522097380547"><ele>130.0</ele><time>2026-04-04T14:48:31.983Z</time></trkpt><trkpt lat="45.39062646630813" lon="10.537412309241791"><ele>130.0</ele><time>2026-04-04T14:48:32.983Z</time></trkpt><trkpt lat="45.390563889351775" lon="10.537300534555447"><ele>130.0</ele><time>2026-04-04T14:48:33.983Z</time></trkpt><trkpt lat="45.39049874820136" lon="10.53718878166302"><ele>130.0</ele><time>2026-04-04T14:48:34.983Z</time></trkpt><trkpt lat="45.39043890029504" lon="10.537074850455463"><ele>130.0</ele><time>2026-04-04T14:48:35.983Z</time></trkpt><trkpt lat="45.39038088805979" lon="10.536960823471306"><ele>130.0</ele><time>2026-04-04T14:48:36.983Z</time></trkpt><trkpt lat="45.390316147933945" lon="10.536838634682855"><ele>130.0</ele><time>2026-04-04T14:48:37.983Z</time></trkpt><trkpt lat="45.3902470045344" lon="10.536711819027147"><ele>130.0</ele><time>2026-04-04T14:48:38.983Z</time></trkpt><trkpt lat="45.3901800410912" lon="10.536585307245977"><ele>130.0</ele><time>2026-04-04T14:48:39.983Z</time></trkpt><trkpt lat="45.390113264040245" lon="10.536466449376142"><ele>130.0</ele><time>2026-04-04T14:48:40.983Z</time></trkpt><trkpt lat="45.39005614462108" lon="10.536343691585802"><ele>130.0</ele><time>2026-04-04T14:48:41.983Z</time></trkpt><trkpt lat="45.390008666706855" lon="10.536224523747947"><ele>130.0</ele><time>2026-04-04T14:48:42.983Z</time></trkpt><trkpt lat="45.38997027869715" lon="10.536096771534403"><ele>130.0</ele><time>2026-04-04T14:48:43.983Z</time></trkpt><trkpt lat="45.389951192144764" lon="10.535959320260115"><ele>130.0</ele><time>2026-04-04T14:48:44.983Z</time></trkpt><trkpt lat="45.3899659026592" lon="10.535808088711162"><ele>129.2</ele><time>2026-04-04T14:48:45.983Z</time></trkpt><trkpt lat="45.38998379564587" lon="10.53565025381283"><ele>128.4</ele><time>2026-04-04T14:48:46.983Z</time></trkpt><trkpt lat="45.39000171934755" lon="10.53549879175043"><ele>127.6</ele><time>2026-04-04T14:48:47.983Z</time></trkpt><trkpt lat="45.39001676706913" lon="10.53534974176889"><ele>126.8</ele><time>2026-04-04T14:48:48.983Z</time></trkpt><trkpt lat="45.39002760733328" lon="10.535202131233053"><ele>126.0</ele><time>2026-04-04T14:48:49.983Z</time></trkpt><trkpt lat="45.390047315660254" lon="10.535055928860837"><ele>125.4</ele><time>2026-04-04T14:48:50.983Z</time></trkpt><trkpt lat="45.390068448852524" lon="10.534907005977423"><ele>124.8</ele><time>2026-04-04T14:48:51.983Z</time></trkpt><trkpt lat="45.39008761874357" lon="10.534758167566888"><ele>124.20000000000002</ele><time>2026-04-04T14:48:52.983Z</time></trkpt><trkpt lat="45.39010655598725" lon="10.53460518483382"><ele>123.60000000000001</ele><time>2026-04-04T14:48:53.982Z</time></trkpt><trkpt lat="45.390128734812635" lon="10.53445374107035"><ele>123.0</ele><time>2026-04-04T14:48:54.985Z</time></trkpt><trkpt lat="45.390154593572255" lon="10.534302647553623"><ele>122.60000000000001</ele><time>2026-04-04T14:48:55.985Z</time></trkpt><trkpt lat="45.39017675892429" lon="10.534158455822524"><ele>122.20000000000002</ele><time>2026-04-04T14:48:56.985Z</time></trkpt><trkpt lat="45.39018548277704" lon="10.534012211080288"><ele>121.8</ele><time>2026-04-04T14:48:57.985Z</time></trkpt><trkpt lat="45.390182997031935" lon="10.533877556604919"><ele>121.4</ele><time>2026-04-04T14:48:58.985Z</time></trkpt><trkpt lat="45.390179454069745" lon="10.53373545479811"><ele>121.0</ele><time>2026-04-04T14:48:59.985Z</time></trkpt><trkpt lat="45.390146973275264" lon="10.53359447686256"><ele>121.0</ele><time>2026-04-04T14:49:00.985Z</time></trkpt><trkpt lat="45.39010539201994" lon="10.533468160468331"><ele>121.0</ele><time>2026-04-04T14:49:01.984Z</time></trkpt><trkpt lat="45.390049502296954" lon="10.533341103410882"><ele>121.0</ele><time>2026-04-04T14:49:02.984Z</time></trkpt><trkpt lat="45.39000265396734" lon="10.533208242181392"><ele>121.0</ele><time>2026-04-04T14:49:03.984Z</time></trkpt><trkpt lat="45.38995268199479" lon="10.53307660505597"><ele>121.0</ele><time>2026-04-04T14:49:04.985Z</time></trkpt><trkpt lat="45.38992087875756" lon="10.532942746136653"><ele>120.8</ele><time>2026-04-04T14:49:05.985Z</time></trkpt><trkpt lat="45.38987561165334" lon="10.532811130690517"><ele>120.6</ele><time>2026-04-04T14:49:06.984Z</time></trkpt><trkpt lat="45.38984237515536" lon="10.532680866851399"><ele>120.4</ele><time>2026-04-04T14:49:07.985Z</time></trkpt><trkpt lat="45.38980368947285" lon="10.532546444306153"><ele>120.2</ele><time>2026-04-04T14:49:08.985Z</time></trkpt><trkpt lat="45.38976512867052" lon="10.53241396052592"><ele>120.0</ele><time>2026-04-04T14:49:09.985Z</time></trkpt><trkpt lat="45.38973403784765" lon="10.532281175369958"><ele>120.0</ele><time>2026-04-04T14:49:10.985Z</time></trkpt><trkpt lat="45.38970090760181" lon="10.532169532341317"><ele>120.0</ele><time>2026-04-04T14:49:11.985Z</time></trkpt><trkpt lat="45.38967051694711" lon="10.532048752924965"><ele>120.0</ele><time>2026-04-04T14:49:12.985Z</time></trkpt><trkpt lat="45.389641771575434" lon="10.531924023966893"><ele>120.0</ele><time>2026-04-04T14:49:13.985Z</time></trkpt><trkpt lat="45.389610368033075" lon="10.531802605945273"><ele>120.0</ele><time>2026-04-04T14:49:14.985Z</time></trkpt><trkpt lat="45.389580422258085" lon="10.531681662788586"><ele>120.0</ele><time>2026-04-04T14:49:15.985Z</time></trkpt><trkpt lat="45.38955763792848" lon="10.53156181065485"><ele>120.8</ele><time>2026-04-04T14:49:16.985Z</time></trkpt><trkpt lat="45.38954058754168" lon="10.53141398852804"><ele>121.6</ele><time>2026-04-04T14:49:17.985Z</time></trkpt><trkpt lat="45.38951234978778" lon="10.531252389774341"><ele>122.4</ele><time>2026-04-04T14:49:18.985Z</time></trkpt><trkpt lat="45.389474306432305" lon="10.531125903386034"><ele>123.2</ele><time>2026-04-04T14:49:19.985Z</time></trkpt><trkpt lat="45.38944157001301" lon="10.53101409571349"><ele>124.0</ele><time>2026-04-04T14:49:20.985Z</time></trkpt><trkpt lat="45.38941364219401" lon="10.530912947642424"><ele>124.50000000000001</ele><time>2026-04-04T14:49:21.985Z</time></trkpt><trkpt lat="45.38938429042186" lon="10.530816583683741"><ele>125.0</ele><time>2026-04-04T14:49:22.985Z</time></trkpt><trkpt lat="45.3893504107657" lon="10.530720645759528"><ele>125.5</ele><time>2026-04-04T14:49:23.985Z</time></trkpt><trkpt lat="45.38931790490025" lon="10.53062744462957"><ele>126.0</ele><time>2026-04-04T14:49:24.985Z</time></trkpt><trkpt lat="45.38927743456326" lon="10.53052564906257"><ele>126.50000000000001</ele><time>2026-04-04T14:49:25.985Z</time></trkpt><trkpt lat="45.38923179425198" lon="10.530408421350632"><ele>127.0</ele><time>2026-04-04T14:49:26.985Z</time></trkpt><trkpt lat="45.38918759816201" lon="10.530287235474814"><ele>127.16666666666667</ele><time>2026-04-04T14:49:27.985Z</time></trkpt><trkpt lat="45.3891419107385" lon="10.530176730529694"><ele>127.33333333333334</ele><time>2026-04-04T14:49:28.985Z</time></trkpt><trkpt lat="45.389088558905584" lon="10.530080237248807"><ele>127.5</ele><time>2026-04-04T14:49:29.984Z</time></trkpt><trkpt lat="45.38903104334073" lon="10.529998983683898"><ele>127.66666666666666</ele><time>2026-04-04T14:49:30.984Z</time></trkpt><trkpt lat="45.388948450372794" lon="10.529938816082627"><ele>127.83333333333333</ele><time>2026-04-04T14:49:31.984Z</time></trkpt><trkpt lat="45.38886609707247" lon="10.529892697315766"><ele>128.0</ele><time>2026-04-04T14:49:32.984Z</time></trkpt><trkpt lat="45.38878760918102" lon="10.529853329059184"><ele>128.83333333333331</ele><time>2026-04-04T14:49:33.984Z</time></trkpt><trkpt lat="45.38870127252054" lon="10.529821180103376"><ele>129.66666666666666</ele><time>2026-04-04T14:49:34.984Z</time></trkpt><trkpt lat="45.38861821308355" lon="10.529781557398795"><ele>130.5</ele><time>2026-04-04T14:49:35.984Z</time></trkpt><trkpt lat="45.38855554698421" lon="10.529737275761113"><ele>131.33333333333334</ele><time>2026-04-04T14:49:36.984Z</time></trkpt><trkpt lat="45.38848060384569" lon="10.529687937708948"><ele>132.16666666666669</ele><time>2026-04-04T14:49:37.984Z</time></trkpt><trkpt lat="45.38839254854256" lon="10.529634987483435"><ele>133.0</ele><time>2026-04-04T14:49:38.984Z</time></trkpt><trkpt lat="45.388317369468645" lon="10.529589587648577"><ele>133.16666666666669</ele><time>2026-04-04T14:49:39.984Z</time></trkpt><trkpt lat="45.38824143558716" lon="10.529544834403149"><ele>133.33333333333334</ele><time>2026-04-04T14:49:40.984Z</time></trkpt><trkpt lat="45.38816819617222" lon="10.529507083731035"><ele>133.5</ele><time>2026-04-04T14:49:41.984Z</time></trkpt><trkpt lat="45.388089071051915" lon="10.52947075626553"><ele>133.66666666666666</ele><time>2026-04-04T14:49:42.984Z</time></trkpt><trkpt lat="45.3880117264177" lon="10.529435744828914"><ele>133.83333333333331</ele><time>2026-04-04T14:49:43.984Z</time></trkpt><trkpt lat="45.387949019279624" lon="10.52940865183488"><ele>134.0</ele><time>2026-04-04T14:49:44.984Z</time></trkpt><trkpt lat="45.38787051632245" lon="10.52936702927301"><ele>134.0</ele><time>2026-04-04T14:49:46.984Z</time></trkpt><trkpt lat="45.38783105022082" lon="10.529285632113677"><ele>134.0</ele><time>2026-04-04T14:49:51.984Z</time></trkpt><trkpt lat="45.38784792848552" lon="10.529184860774883"><ele>134.0</ele><time>2026-04-04T14:49:53.984Z</time></trkpt><trkpt lat="45.38790764384102" lon="10.529096037923225"><ele>134.0</ele><time>2026-04-04T14:49:54.984Z</time></trkpt><trkpt lat="45.38798977265472" lon="10.528994387994498"><ele>134.0</ele><time>2026-04-04T14:49:55.984Z</time></trkpt><trkpt lat="45.38808593740932" lon="10.528897587636058"><ele>134.0</ele><time>2026-04-04T14:49:56.984Z</time></trkpt><trkpt lat="45.388186746928795" lon="10.52879909611861"><ele>134.0</ele><time>2026-04-04T14:49:57.984Z</time></trkpt><trkpt lat="45.38829615812082" lon="10.52869808437801"><ele>134.0</ele><time>2026-04-04T14:49:58.984Z</time></trkpt><trkpt lat="45.38840190611946" lon="10.52858307837552"><ele>134.0</ele><time>2026-04-04T14:49:59.984Z</time></trkpt><trkpt lat="45.388510798697574" lon="10.528465282367325"><ele>135.0</ele><time>2026-04-04T14:50:00.984Z</time></trkpt><trkpt lat="45.38863321678021" lon="10.528357244798592"><ele>136.0</ele><time>2026-04-04T14:50:01.984Z</time></trkpt><trkpt lat="45.3887481485482" lon="10.528247069090016"><ele>137.0</ele><time>2026-04-04T14:50:02.984Z</time></trkpt><trkpt lat="45.38886287688591" lon="10.528148180140583"><ele>138.0</ele><time>2026-04-04T14:50:03.984Z</time></trkpt><trkpt lat="45.388975906263184" lon="10.528041291664954"><ele>138.25</ele><time>2026-04-04T14:50:04.984Z</time></trkpt><trkpt lat="45.38909769725792" lon="10.527939370363047"><ele>138.5</ele><time>2026-04-04T14:50:05.984Z</time></trkpt><trkpt lat="45.389209840821785" lon="10.527837710882357"><ele>138.75</ele><time>2026-04-04T14:50:06.984Z</time></trkpt><trkpt lat="45.38932190079459" lon="10.527738044770377"><ele>139.0</ele><time>2026-04-04T14:50:07.984Z</time></trkpt><trkpt lat="45.38942776187132" lon="10.52764057640651"><ele>139.0</ele><time>2026-04-04T14:50:08.984Z</time></trkpt><trkpt lat="45.38953383924521" lon="10.527550260784057"><ele>139.0</ele><time>2026-04-04T14:50:09.984Z</time></trkpt><trkpt lat="45.3896393305666" lon="10.527466386768872"><ele>139.0</ele><time>2026-04-04T14:50:10.984Z</time></trkpt><trkpt lat="45.38975095976668" lon="10.527385248950747"><ele>139.0</ele><time>2026-04-04T14:50:11.984Z</time></trkpt><trkpt lat="45.389876494551395" lon="10.527307550510466"><ele>139.5</ele><time>2026-04-04T14:50:12.984Z</time></trkpt><trkpt lat="45.38999744235991" lon="10.52723697925096"><ele>140.0</ele><time>2026-04-04T14:50:13.984Z</time></trkpt><trkpt lat="45.390119954062264" lon="10.527168208828481"><ele>140.5</ele><time>2026-04-04T14:50:14.984Z</time></trkpt><trkpt lat="45.39024804561576" lon="10.527095524062103"><ele>141.0</ele><time>2026-04-04T14:50:15.984Z</time></trkpt><trkpt lat="45.390380111665586" lon="10.527023731698943"><ele>140.0</ele><time>2026-04-04T14:50:16.984Z</time></trkpt><trkpt lat="45.39051534615614" lon="10.526955962244445"><ele>139.0</ele><time>2026-04-04T14:50:17.984Z</time></trkpt><trkpt lat="45.39065524155678" lon="10.526902276253166"><ele>138.0</ele><time>2026-04-04T14:50:18.983Z</time></trkpt><trkpt lat="45.39079863647179" lon="10.52686439725228"><ele>137.0</ele><time>2026-04-04T14:50:19.983Z</time></trkpt><trkpt lat="45.39094586405991" lon="10.526829378141759"><ele>137.0</ele><time>2026-04-04T14:50:20.983Z</time></trkpt><trkpt lat="45.3910903402581" lon="10.526789343472876"><ele>137.0</ele><time>2026-04-04T14:50:21.983Z</time></trkpt><trkpt lat="45.39123084932871" lon="10.526754238040294"><ele>137.0</ele><time>2026-04-04T14:50:22.983Z</time></trkpt><trkpt lat="45.391370089191525" lon="10.526726470718138"><ele>137.0</ele><time>2026-04-04T14:50:23.983Z</time></trkpt><trkpt lat="45.39150954657582" lon="10.526712923430862"><ele>136.5</ele><time>2026-04-04T14:50:24.983Z</time></trkpt><trkpt lat="45.391650330376876" lon="10.526709916651797"><ele>136.0</ele><time>2026-04-04T14:50:25.983Z</time></trkpt><trkpt lat="45.39179210723133" lon="10.526708855457471"><ele>135.5</ele><time>2026-04-04T14:50:26.983Z</time></trkpt><trkpt lat="45.39192773324016" lon="10.52671170972991"><ele>135.0</ele><time>2026-04-04T14:50:27.983Z</time></trkpt><trkpt lat="45.39205450301517" lon="10.526713028162863"><ele>133.75</ele><time>2026-04-04T14:50:28.983Z</time></trkpt><trkpt lat="45.392176580857324" lon="10.526694906905083"><ele>132.5</ele><time>2026-04-04T14:50:29.983Z</time></trkpt><trkpt lat="45.392296189445425" lon="10.526650648774755"><ele>131.25</ele><time>2026-04-04T14:50:30.983Z</time></trkpt><trkpt lat="45.39241508931495" lon="10.526586138038805"><ele>130.0</ele><time>2026-04-04T14:50:31.983Z</time></trkpt><trkpt lat="45.39253653822742" lon="10.52651305386186"><ele>130.0</ele><time>2026-04-04T14:50:32.983Z</time></trkpt><trkpt lat="45.39265126443126" lon="10.526386776273306"><ele>130.0</ele><time>2026-04-04T14:50:33.983Z</time></trkpt><trkpt lat="45.39275616971523" lon="10.526210970414866"><ele>130.0</ele><time>2026-04-04T14:50:34.983Z</time></trkpt><trkpt lat="45.392865929198486" lon="10.52604267613834"><ele>130.66666666666669</ele><time>2026-04-04T14:50:35.983Z</time></trkpt><trkpt lat="45.39298566200966" lon="10.525886593208073"><ele>131.33333333333334</ele><time>2026-04-04T14:50:36.983Z</time></trkpt><trkpt lat="45.39310015149591" lon="10.525718268704757"><ele>132.0</ele><time>2026-04-04T14:50:37.983Z</time></trkpt><trkpt lat="45.39321503432908" lon="10.525544798777709"><ele>131.75</ele><time>2026-04-04T14:50:38.983Z</time></trkpt><trkpt lat="45.39332460545752" lon="10.52540110317004"><ele>131.5</ele><time>2026-04-04T14:50:39.983Z</time></trkpt><trkpt lat="45.39343010768119" lon="10.525282698371177"><ele>131.25</ele><time>2026-04-04T14:50:40.983Z</time></trkpt><trkpt lat="45.39352289028699" lon="10.525168597816736"><ele>131.0</ele><time>2026-04-04T14:50:41.983Z</time></trkpt><trkpt lat="45.393605567676126" lon="10.525060298802005"><ele>131.0</ele><time>2026-04-04T14:50:42.983Z</time></trkpt><trkpt lat="45.39368981665645" lon="10.524954944375244"><ele>131.0</ele><time>2026-04-04T14:50:43.983Z</time></trkpt><trkpt lat="45.39377875835385" lon="10.52485421805076"><ele>131.0</ele><time>2026-04-04T14:50:44.983Z</time></trkpt><trkpt lat="45.3938579343179" lon="10.524769246495701"><ele>131.0</ele><time>2026-04-04T14:50:45.983Z</time></trkpt><trkpt lat="45.393930203466454" lon="10.524680184220777"><ele>131.0</ele><time>2026-04-04T14:50:46.983Z</time></trkpt><trkpt lat="45.39398751215178" lon="10.524601655218694"><ele>131.2</ele><time>2026-04-04T14:50:47.983Z</time></trkpt><trkpt lat="45.394034762103644" lon="10.524529005071983"><ele>131.39999999999998</ele><time>2026-04-04T14:50:48.983Z</time></trkpt><trkpt lat="45.39414236265383" lon="10.524453937056617"><ele>131.6</ele><time>2026-04-04T14:50:50.983Z</time></trkpt><trkpt lat="45.39421157609652" lon="10.52447532751679"><ele>131.79999999999998</ele><time>2026-04-04T14:50:51.983Z</time></trkpt><trkpt lat="45.394283916661855" lon="10.52455104116272"><ele>132.0</ele><time>2026-04-04T14:50:52.983Z</time></trkpt><trkpt lat="45.39432573074759" lon="10.52470082047474"><ele>131.5</ele><time>2026-04-04T14:50:53.983Z</time></trkpt><trkpt lat="45.394393706308925" lon="10.524841122782671"><ele>131.0</ele><time>2026-04-04T14:50:54.983Z</time></trkpt><trkpt lat="45.394468386180996" lon="10.52497408855809"><ele>130.5</ele><time>2026-04-04T14:50:55.983Z</time></trkpt><trkpt lat="45.394533127251506" lon="10.525081781013222"><ele>130.0</ele><time>2026-04-04T14:50:56.983Z</time></trkpt><trkpt lat="45.39462026817829" lon="10.525190108813122"><ele>130.75</ele><time>2026-04-04T14:50:57.983Z</time></trkpt><trkpt lat="45.39472253190597" lon="10.525255327343984"><ele>131.5</ele><time>2026-04-04T14:50:58.983Z</time></trkpt><trkpt lat="45.39483714167814" lon="10.525309005185141"><ele>132.25</ele><time>2026-04-04T14:50:59.983Z</time></trkpt><trkpt lat="45.3949650848586" lon="10.525343897996214"><ele>133.0</ele><time>2026-04-04T14:51:00.985Z</time></trkpt><trkpt lat="45.39509095262572" lon="10.525389965226587"><ele>130.75</ele><time>2026-04-04T14:51:01.985Z</time></trkpt><trkpt lat="45.39520841861083" lon="10.525442283225898"><ele>128.5</ele><time>2026-04-04T14:51:02.985Z</time></trkpt><trkpt lat="45.39532179397793" lon="10.52549456479771"><ele>126.25</ele><time>2026-04-04T14:51:03.985Z</time></trkpt><trkpt lat="45.3954369245252" lon="10.525546521853027"><ele>124.0</ele><time>2026-04-04T14:51:04.985Z</time></trkpt><trkpt lat="45.39555840284501" lon="10.525612182953132"><ele>123.5</ele><time>2026-04-04T14:51:05.985Z</time></trkpt><trkpt lat="45.3956876547516" lon="10.525674516283793"><ele>123.0</ele><time>2026-04-04T14:51:06.985Z</time></trkpt><trkpt lat="45.39581162627282" lon="10.525739041889677"><ele>122.5</ele><time>2026-04-04T14:51:07.985Z</time></trkpt><trkpt lat="45.39593038274659" lon="10.525826897594303"><ele>122.0</ele><time>2026-04-04T14:51:08.985Z</time></trkpt><trkpt lat="45.39605242279036" lon="10.525914986927983"><ele>122.0</ele><time>2026-04-04T14:51:09.985Z</time></trkpt><trkpt lat="45.39616619595095" lon="10.52600765346965"><ele>122.0</ele><time>2026-04-04T14:51:10.985Z</time></trkpt><trkpt lat="45.39627826046857" lon="10.526108946874135"><ele>122.0</ele><time>2026-04-04T14:51:11.985Z</time></trkpt><trkpt lat="45.39638829950811" lon="10.526204168134033"><ele>122.0</ele><time>2026-04-04T14:51:12.985Z</time></trkpt><trkpt lat="45.396502700403055" lon="10.52627608108949"><ele>121.6</ele><time>2026-04-04T14:51:13.984Z</time></trkpt><trkpt lat="45.39661547385172" lon="10.526338380312955"><ele>121.19999999999999</ele><time>2026-04-04T14:51:14.984Z</time></trkpt><trkpt lat="45.396719954878144" lon="10.526386058644832"><ele>120.8</ele><time>2026-04-04T14:51:15.984Z</time></trkpt><trkpt lat="45.39682251196584" lon="10.526429330858786"><ele>120.4</ele><time>2026-04-04T14:51:16.984Z</time></trkpt><trkpt lat="45.39692044165711" lon="10.526464527279037"><ele>120.0</ele><time>2026-04-04T14:51:17.984Z</time></trkpt><trkpt lat="45.39700268912152" lon="10.526498583846417"><ele>120.0</ele><time>2026-04-04T14:51:18.984Z</time></trkpt><trkpt lat="45.39707263681017" lon="10.526523047149404"><ele>120.0</ele><time>2026-04-04T14:51:19.984Z</time></trkpt><trkpt lat="45.39715819135482" lon="10.526555633495825"><ele>120.0</ele><time>2026-04-04T14:51:21.984Z</time></trkpt><trkpt lat="45.397209525193986" lon="10.526463362365973"><ele>120.0</ele><time>2026-04-04T14:51:23.984Z</time></trkpt><trkpt lat="45.39722284462302" lon="10.526327048190854"><ele>120.0</ele><time>2026-04-04T14:51:24.983Z</time></trkpt><trkpt lat="45.39723993987585" lon="10.526180208353246"><ele>120.0</ele><time>2026-04-04T14:51:25.983Z</time></trkpt><trkpt lat="45.39727720807268" lon="10.526037245113839"><ele>119.75</ele><time>2026-04-04T14:51:26.983Z</time></trkpt><trkpt lat="45.39732843646022" lon="10.5258808404841"><ele>119.5</ele><time>2026-04-04T14:51:27.983Z</time></trkpt><trkpt lat="45.397381390834276" lon="10.525711847976241"><ele>119.25</ele><time>2026-04-04T14:51:28.983Z</time></trkpt><trkpt lat="45.39743034698404" lon="10.52553524344222"><ele>119.0</ele><time>2026-04-04T14:51:29.983Z</time></trkpt><trkpt lat="45.39747455503919" lon="10.525365330251512"><ele>119.0</ele><time>2026-04-04T14:51:30.983Z</time></trkpt><trkpt lat="45.39752755840873" lon="10.52519005263159"><ele>119.0</ele><time>2026-04-04T14:51:31.983Z</time></trkpt><trkpt lat="45.39757486547032" lon="10.52501624103398"><ele>119.0</ele><time>2026-04-04T14:51:32.983Z</time></trkpt><trkpt lat="45.397624256061036" lon="10.5248407466228"><ele>119.0</ele><time>2026-04-04T14:51:33.983Z</time></trkpt><trkpt lat="45.39766520094015" lon="10.524666019911148"><ele>119.0</ele><time>2026-04-04T14:51:34.983Z</time></trkpt><trkpt lat="45.397689646460044" lon="10.524484714555793"><ele>119.0</ele><time>2026-04-04T14:51:35.983Z</time></trkpt><trkpt lat="45.397700463797605" lon="10.52429234505114"><ele>119.0</ele><time>2026-04-04T14:51:36.983Z</time></trkpt><trkpt lat="45.397707149752065" lon="10.524098421608244"><ele>119.0</ele><time>2026-04-04T14:51:37.983Z</time></trkpt><trkpt lat="45.397717264498745" lon="10.52390030284483"><ele>119.0</ele><time>2026-04-04T14:51:38.983Z</time></trkpt><trkpt lat="45.39772450310278" lon="10.523713345018589"><ele>119.0</ele><time>2026-04-04T14:51:39.983Z</time></trkpt><trkpt lat="45.39773110823626" lon="10.523532702807534"><ele>119.0</ele><time>2026-04-04T14:51:40.983Z</time></trkpt><trkpt lat="45.39773831074573" lon="10.523360466627121"><ele>119.0</ele><time>2026-04-04T14:51:41.983Z</time></trkpt><trkpt lat="45.39774390685947" lon="10.523197401516006"><ele>119.0</ele><time>2026-04-04T14:51:42.983Z</time></trkpt><trkpt lat="45.39775136542949" lon="10.52304472060516"><ele>119.0</ele><time>2026-04-04T14:51:43.983Z</time></trkpt><trkpt lat="45.397757618097465" lon="10.522894170667527"><ele>119.0</ele><time>2026-04-04T14:51:44.983Z</time></trkpt><trkpt lat="45.397762185412894" lon="10.522751876356907"><ele>119.0</ele><time>2026-04-04T14:51:45.983Z</time></trkpt><trkpt lat="45.39776970038378" lon="10.522617214415375"><ele>119.0</ele><time>2026-04-04T14:51:46.983Z</time></trkpt><trkpt lat="45.39778115774389" lon="10.522496936303051"><ele>118.83333333333333</ele><time>2026-04-04T14:51:47.983Z</time></trkpt><trkpt lat="45.397793896454004" lon="10.522381829641475"><ele>118.66666666666666</ele><time>2026-04-04T14:51:48.982Z</time></trkpt><trkpt lat="45.39778844225152" lon="10.5222724035132"><ele>118.5</ele><time>2026-04-04T14:51:49.982Z</time></trkpt><trkpt lat="45.39780078615402" lon="10.522144427609533"><ele>118.33333333333334</ele><time>2026-04-04T14:51:51.982Z</time></trkpt><trkpt lat="45.397897795755675" lon="10.52210459362657"><ele>118.16666666666667</ele><time>2026-04-04T14:51:53.982Z</time></trkpt><trkpt lat="45.39798985635168" lon="10.522123194684324"><ele>118.0</ele><time>2026-04-04T14:51:54.982Z</time></trkpt><trkpt lat="45.39809068202769" lon="10.522130318919594"><ele>118.0</ele><time>2026-04-04T14:51:55.982Z</time></trkpt><trkpt lat="45.39819995658764" lon="10.522144340192625"><ele>118.0</ele><time>2026-04-04T14:51:56.982Z</time></trkpt><trkpt lat="45.39831291183107" lon="10.522152869507249"><ele>118.0</ele><time>2026-04-04T14:51:57.982Z</time></trkpt><trkpt lat="45.398441783522" lon="10.522158718652152"><ele>118.0</ele><time>2026-04-04T14:51:58.982Z</time></trkpt><trkpt lat="45.39856550994319" lon="10.522150121997042"><ele>118.0</ele><time>2026-04-04T14:51:59.982Z</time></trkpt><trkpt lat="45.39869786813117" lon="10.522137507462382"><ele>118.0</ele><time>2026-04-04T14:52:00.982Z</time></trkpt><trkpt lat="45.39882826894363" lon="10.522087538555924"><ele>118.0</ele><time>2026-04-04T14:52:01.982Z</time></trkpt><trkpt lat="45.39894990283" lon="10.522016871120949"><ele>118.0</ele><time>2026-04-04T14:52:02.982Z</time></trkpt><trkpt lat="45.399055818224824" lon="10.521895771032092"><ele>117.75</ele><time>2026-04-04T14:52:03.982Z</time></trkpt><trkpt lat="45.39917010705948" lon="10.52176614507876"><ele>117.5</ele><time>2026-04-04T14:52:04.982Z</time></trkpt><trkpt lat="45.399259659224676" lon="10.52160508305536"><ele>117.25</ele><time>2026-04-04T14:52:05.982Z</time></trkpt><trkpt lat="45.39935179937979" lon="10.521475606211325"><ele>117.0</ele><time>2026-04-04T14:52:06.982Z</time></trkpt><trkpt lat="45.39944386610408" lon="10.521349712812624"><ele>117.5</ele><time>2026-04-04T14:52:07.982Z</time></trkpt><trkpt lat="45.399532601268874" lon="10.521223127142015"><ele>118.0</ele><time>2026-04-04T14:52:08.982Z</time></trkpt><trkpt lat="45.39962025099657" lon="10.521097490755253"><ele>118.5</ele><time>2026-04-04T14:52:09.982Z</time></trkpt><trkpt lat="45.399709789920934" lon="10.520973155410912"><ele>119.0</ele><time>2026-04-04T14:52:10.982Z</time></trkpt><trkpt lat="45.39979586081502" lon="10.520866640818749"><ele>119.25</ele><time>2026-04-04T14:52:11.982Z</time></trkpt><trkpt lat="45.399916571086735" lon="10.520761221667682"><ele>119.5</ele><time>2026-04-04T14:52:12.982Z</time></trkpt><trkpt lat="45.40003766658764" lon="10.520679180439124"><ele>119.75</ele><time>2026-04-04T14:52:13.982Z</time></trkpt><trkpt lat="45.40016924490904" lon="10.520622740880455"><ele>120.0</ele><time>2026-04-04T14:52:14.982Z</time></trkpt><trkpt lat="45.400301271028596" lon="10.520577315222415"><ele>120.0</ele><time>2026-04-04T14:52:15.982Z</time></trkpt><trkpt lat="45.40042597814683" lon="10.520506774672542"><ele>120.0</ele><time>2026-04-04T14:52:16.982Z</time></trkpt><trkpt lat="45.40054571647699" lon="10.520413276673933"><ele>120.0</ele><time>2026-04-04T14:52:17.982Z</time></trkpt><trkpt lat="45.400663102135304" lon="10.520311266794446"><ele>120.0</ele><time>2026-04-04T14:52:18.982Z</time></trkpt><trkpt lat="45.40076848295113" lon="10.520206031939003"><ele>119.5</ele><time>2026-04-04T14:52:19.982Z</time></trkpt><trkpt lat="45.40088077197516" lon="10.520102498841258"><ele>119.0</ele><time>2026-04-04T14:52:20.982Z</time></trkpt><trkpt lat="45.400996250843555" lon="10.520004685450553"><ele>118.5</ele><time>2026-04-04T14:52:21.982Z</time></trkpt><trkpt lat="45.40111043207967" lon="10.51990016063838"><ele>118.0</ele><time>2026-04-04T14:52:22.982Z</time></trkpt><trkpt lat="45.401219458314955" lon="10.519801138830648"><ele>118.0</ele><time>2026-04-04T14:52:23.982Z</time></trkpt><trkpt lat="45.40131953407534" lon="10.519712698122477"><ele>118.0</ele><time>2026-04-04T14:52:24.982Z</time></trkpt><trkpt lat="45.40142008888941" lon="10.519627921756307"><ele>118.0</ele><time>2026-04-04T14:52:25.982Z</time></trkpt><trkpt lat="45.40152587856162" lon="10.519547435482927"><ele>118.0</ele><time>2026-04-04T14:52:26.982Z</time></trkpt><trkpt lat="45.40164487242286" lon="10.5194923187618"><ele>117.5</ele><time>2026-04-04T14:52:27.982Z</time></trkpt><trkpt lat="45.40176207549302" lon="10.519409082080733"><ele>117.0</ele><time>2026-04-04T14:52:28.982Z</time></trkpt><trkpt lat="45.40188771723142" lon="10.519355104169012"><ele>116.5</ele><time>2026-04-04T14:52:29.982Z</time></trkpt><trkpt lat="45.40201297796408" lon="10.519283621475994"><ele>116.0</ele><time>2026-04-04T14:52:30.981Z</time></trkpt><trkpt lat="45.40213990120581" lon="10.519203392862323"><ele>116.25</ele><time>2026-04-04T14:52:31.981Z</time></trkpt><trkpt lat="45.402266236247286" lon="10.51912457030702"><ele>116.5</ele><time>2026-04-04T14:52:32.981Z</time></trkpt><trkpt lat="45.40239043958863" lon="10.519050853630423"><ele>116.75</ele><time>2026-04-04T14:52:33.981Z</time></trkpt><trkpt lat="45.40251812470821" lon="10.51897437884614"><ele>117.0</ele><time>2026-04-04T14:52:34.981Z</time></trkpt><trkpt lat="45.40264010393233" lon="10.518900109535807"><ele>117.0</ele><time>2026-04-04T14:52:35.981Z</time></trkpt><trkpt lat="45.4027612868409" lon="10.518823058469073"><ele>117.0</ele><time>2026-04-04T14:52:36.981Z</time></trkpt><trkpt lat="45.402880781723425" lon="10.518744679821573"><ele>117.0</ele><time>2026-04-04T14:52:37.981Z</time></trkpt><trkpt lat="45.40300153628832" lon="10.518664753267345"><ele>117.0</ele><time>2026-04-04T14:52:38.981Z</time></trkpt><trkpt lat="45.40312413369352" lon="10.518584023495128"><ele>117.0</ele><time>2026-04-04T14:52:39.981Z</time></trkpt><trkpt lat="45.40324392757319" lon="10.518498261251462"><ele>117.0</ele><time>2026-04-04T14:52:40.981Z</time></trkpt><trkpt lat="45.40336095334375" lon="10.518408337453579"><ele>117.0</ele><time>2026-04-04T14:52:41.981Z</time></trkpt><trkpt lat="45.40347736990669" lon="10.518320215711247"><ele>117.0</ele><time>2026-04-04T14:52:42.981Z</time></trkpt><trkpt lat="45.40359151610885" lon="10.518236848772707"><ele>117.0</ele><time>2026-04-04T14:52:43.981Z</time></trkpt><trkpt lat="45.40370386811646" lon="10.518156983084886"><ele>116.99999999999999</ele><time>2026-04-04T14:52:44.981Z</time></trkpt><trkpt lat="45.40380482451417" lon="10.5180823342571"><ele>116.99999999999999</ele><time>2026-04-04T14:52:45.981Z</time></trkpt><trkpt lat="45.40389724387843" lon="10.518009880763621"><ele>117.0</ele><time>2026-04-04T14:52:46.981Z</time></trkpt><trkpt lat="45.40398436740569" lon="10.517940160178222"><ele>117.0</ele><time>2026-04-04T14:52:47.981Z</time></trkpt><trkpt lat="45.40406235518903" lon="10.517883455228715"><ele>117.14285714285715</ele><time>2026-04-04T14:52:48.981Z</time></trkpt><trkpt lat="45.404131285864636" lon="10.517832444049581"><ele>117.2857142857143</ele><time>2026-04-04T14:52:49.981Z</time></trkpt><trkpt lat="45.404196954775884" lon="10.517785079511228"><ele>117.42857142857143</ele><time>2026-04-04T14:52:50.981Z</time></trkpt><trkpt lat="45.4042614057082" lon="10.517751930799601"><ele>117.57142857142858</ele><time>2026-04-04T14:52:51.981Z</time></trkpt><trkpt lat="45.40431767074034" lon="10.517707215099964"><ele>117.71428571428572</ele><time>2026-04-04T14:52:52.981Z</time></trkpt><trkpt lat="45.40438256751123" lon="10.5176606388886"><ele>117.85714285714286</ele><time>2026-04-04T14:52:53.981Z</time></trkpt><trkpt lat="45.404448834430326" lon="10.517608892003606"><ele>118.0</ele><time>2026-04-04T14:52:54.981Z</time></trkpt><trkpt lat="45.404530676884995" lon="10.517550022037902"><ele>118.0</ele><time>2026-04-04T14:52:55.981Z</time></trkpt><trkpt lat="45.40461388344202" lon="10.517492078873142"><ele>118.00000000000001</ele><time>2026-04-04T14:52:56.981Z</time></trkpt><trkpt lat="45.4046982510427" lon="10.517431439649505"><ele>118.00000000000001</ele><time>2026-04-04T14:52:57.981Z</time></trkpt><trkpt lat="45.4047935375443" lon="10.517357655363206"><ele>118.0</ele><time>2026-04-04T14:52:58.981Z</time></trkpt><trkpt lat="45.40489597904957" lon="10.517288398553438"><ele>118.0</ele><time>2026-04-04T14:52:59.981Z</time></trkpt><trkpt lat="45.40499656202708" lon="10.517225817404706"><ele>118.0</ele><time>2026-04-04T14:53:00.981Z</time></trkpt><trkpt lat="45.40509947771065" lon="10.517164528722496"><ele>118.00000000000001</ele><time>2026-04-04T14:53:01.981Z</time></trkpt><trkpt lat="45.40520065229103" lon="10.517095465659107"><ele>118.00000000000001</ele><time>2026-04-04T14:53:02.981Z</time></trkpt><trkpt lat="45.40529495581809" lon="10.517015160978449"><ele>118.0</ele><time>2026-04-04T14:53:03.981Z</time></trkpt><trkpt lat="45.405377284638405" lon="10.516945283966018"><ele>118.0</ele><time>2026-04-04T14:53:04.981Z</time></trkpt><trkpt lat="45.40545128683346" lon="10.516889440091015"><ele>118.33333333333334</ele><time>2026-04-04T14:53:05.981Z</time></trkpt><trkpt lat="45.405511190488944" lon="10.516847387636885"><ele>118.66666666666667</ele><time>2026-04-04T14:53:06.984Z</time></trkpt><trkpt lat="45.405563778315454" lon="10.51679710678515"><ele>119.0</ele><time>2026-04-04T14:53:07.984Z</time></trkpt><trkpt lat="45.40562701691345" lon="10.516754583918097"><ele>119.33333333333334</ele><time>2026-04-04T14:53:08.984Z</time></trkpt><trkpt lat="45.405704553432656" lon="10.516711244477936"><ele>119.66666666666667</ele><time>2026-04-04T14:53:09.983Z</time></trkpt><trkpt lat="45.405795048162105" lon="10.516662295137392"><ele>120.0</ele><time>2026-04-04T14:53:10.983Z</time></trkpt><trkpt lat="45.405891508762686" lon="10.516630248110607"><ele>120.0</ele><time>2026-04-04T14:53:11.983Z</time></trkpt><trkpt lat="45.40599048257419" lon="10.516588839017658"><ele>120.0</ele><time>2026-04-04T14:53:12.983Z</time></trkpt><trkpt lat="45.40609273894892" lon="10.516537526325697"><ele>120.0</ele><time>2026-04-04T14:53:13.984Z</time></trkpt><trkpt lat="45.40618697976228" lon="10.516488800844263"><ele>120.0</ele><time>2026-04-04T14:53:14.984Z</time></trkpt><trkpt lat="45.406271018028264" lon="10.516432239513572"><ele>120.0</ele><time>2026-04-04T14:53:15.983Z</time></trkpt><trkpt lat="45.40633782375006" lon="10.516363706288582"><ele>119.8</ele><time>2026-04-04T14:53:16.984Z</time></trkpt><trkpt lat="45.40639757857468" lon="10.516282975866826"><ele>119.6</ele><time>2026-04-04T14:53:17.984Z</time></trkpt><trkpt lat="45.40642885840608" lon="10.516171877218373"><ele>119.4</ele><time>2026-04-04T14:53:18.983Z</time></trkpt><trkpt lat="45.40644013576991" lon="10.516039424492956"><ele>119.2</ele><time>2026-04-04T14:53:19.984Z</time></trkpt><trkpt lat="45.406429660946216" lon="10.51589336134301"><ele>119.0</ele><time>2026-04-04T14:53:20.984Z</time></trkpt><trkpt lat="45.40641263824974" lon="10.515742966089034"><ele>119.0</ele><time>2026-04-04T14:53:21.984Z</time></trkpt><trkpt lat="45.406405443833776" lon="10.515598826114209"><ele>119.0</ele><time>2026-04-04T14:53:22.984Z</time></trkpt><trkpt lat="45.40640905954026" lon="10.515456807957714"><ele>119.0</ele><time>2026-04-04T14:53:23.984Z</time></trkpt><trkpt lat="45.40641752220485" lon="10.515339690637099"><ele>119.0</ele><time>2026-04-04T14:53:24.984Z</time></trkpt><trkpt lat="45.406441233288845" lon="10.515255589720818"><ele>119.0</ele><time>2026-04-04T14:53:25.983Z</time></trkpt><trkpt lat="45.406556124632985" lon="10.515146516858259"><ele>119.0</ele><time>2026-04-04T14:53:27.983Z</time></trkpt><trkpt lat="45.40662984904619" lon="10.51508623066431"><ele>119.0</ele><time>2026-04-04T14:53:28.983Z</time></trkpt><trkpt lat="45.406701880442945" lon="10.514999609023064"><ele>119.0</ele><time>2026-04-04T14:53:29.983Z</time></trkpt><trkpt lat="45.406769858126374" lon="10.514901362143998"><ele>119.0</ele><time>2026-04-04T14:53:30.983Z</time></trkpt><trkpt lat="45.406834090668994" lon="10.514790168815594"><ele>119.0</ele><time>2026-04-04T14:53:31.983Z</time></trkpt><trkpt lat="45.40688284420489" lon="10.514673696186252"><ele>118.83333333333333</ele><time>2026-04-04T14:53:32.983Z</time></trkpt><trkpt lat="45.40692110029635" lon="10.514554084256238"><ele>118.66666666666666</ele><time>2026-04-04T14:53:33.983Z</time></trkpt><trkpt lat="45.40695316931539" lon="10.514430449569106"><ele>118.5</ele><time>2026-04-04T14:53:34.983Z</time></trkpt><trkpt lat="45.40698414077188" lon="10.514310489956788"><ele>118.33333333333334</ele><time>2026-04-04T14:53:35.983Z</time></trkpt><trkpt lat="45.40701415635548" lon="10.514202733775672"><ele>118.16666666666667</ele><time>2026-04-04T14:53:36.983Z</time></trkpt><trkpt lat="45.407039912278265" lon="10.51409833442041"><ele>118.0</ele><time>2026-04-04T14:53:37.983Z</time></trkpt><trkpt lat="45.407057331849316" lon="10.513992846795896"><ele>118.00000000000001</ele><time>2026-04-04T14:53:38.983Z</time></trkpt><trkpt lat="45.40707004648413" lon="10.513891486170147"><ele>118.0</ele><time>2026-04-04T14:53:39.983Z</time></trkpt><trkpt lat="45.40707810682605" lon="10.513791481087608"><ele>118.0</ele><time>2026-04-04T14:53:40.983Z</time></trkpt><trkpt lat="45.40708552079491" lon="10.513691731875767"><ele>118.0</ele><time>2026-04-04T14:53:41.983Z</time></trkpt><trkpt lat="45.40708393173042" lon="10.51359809869325"><ele>118.00000000000001</ele><time>2026-04-04T14:53:42.983Z</time></trkpt><trkpt lat="45.40706657788109" lon="10.513447987973771"><ele>118.0</ele><time>2026-04-04T14:53:44.983Z</time></trkpt><trkpt lat="45.40702113065807" lon="10.513264578025533"><ele>117.83333333333334</ele><time>2026-04-04T14:53:46.983Z</time></trkpt><trkpt lat="45.406990169564985" lon="10.513186444750355"><ele>117.66666666666667</ele><time>2026-04-04T14:53:47.983Z</time></trkpt><trkpt lat="45.406967083582295" lon="10.513095028822946"><ele>117.5</ele><time>2026-04-04T14:53:48.983Z</time></trkpt><trkpt lat="45.4069307668096" lon="10.512992097081016"><ele>117.33333333333334</ele><time>2026-04-04T14:53:49.983Z</time></trkpt><trkpt lat="45.40690991301514" lon="10.512896177186057"><ele>117.16666666666667</ele><time>2026-04-04T14:53:50.983Z</time></trkpt><trkpt lat="45.40692325963211" lon="10.51277038885418"><ele>117.0</ele><time>2026-04-04T14:53:51.983Z</time></trkpt><trkpt lat="45.406938001199165" lon="10.512656180581773"><ele>117.19999999999999</ele><time>2026-04-04T14:53:52.983Z</time></trkpt><trkpt lat="45.40698345156559" lon="10.512521442815483"><ele>117.39999999999999</ele><time>2026-04-04T14:53:53.983Z</time></trkpt><trkpt lat="45.407020024730926" lon="10.512383714078142"><ele>117.60000000000001</ele><time>2026-04-04T14:53:54.983Z</time></trkpt><trkpt lat="45.40705857923072" lon="10.512237196441985"><ele>117.80000000000001</ele><time>2026-04-04T14:53:55.983Z</time></trkpt><trkpt lat="45.407091531715636" lon="10.512091269107843"><ele>118.0</ele><time>2026-04-04T14:53:56.983Z</time></trkpt><trkpt lat="45.40713385565685" lon="10.511956220302237"><ele>118.0</ele><time>2026-04-04T14:53:57.983Z</time></trkpt><trkpt lat="45.40718157094978" lon="10.511820209281694"><ele>118.00000000000001</ele><time>2026-04-04T14:53:58.983Z</time></trkpt><trkpt lat="45.407244981061396" lon="10.511686709042785"><ele>118.00000000000001</ele><time>2026-04-04T14:53:59.983Z</time></trkpt><trkpt lat="45.40730947259505" lon="10.511560317831545"><ele>118.0</ele><time>2026-04-04T14:54:00.983Z</time></trkpt><trkpt lat="45.40737178661455" lon="10.511429800034074"><ele>118.0</ele><time>2026-04-04T14:54:01.983Z</time></trkpt><trkpt lat="45.40743466852764" lon="10.511293586525383"><ele>118.80000000000001</ele><time>2026-04-04T14:54:02.983Z</time></trkpt><trkpt lat="45.40748809345495" lon="10.511162127792089"><ele>119.60000000000001</ele><time>2026-04-04T14:54:03.983Z</time></trkpt><trkpt lat="45.40754140119182" lon="10.511033606921231"><ele>120.39999999999999</ele><time>2026-04-04T14:54:04.983Z</time></trkpt><trkpt lat="45.407585811274046" lon="10.510889124181988"><ele>121.19999999999999</ele><time>2026-04-04T14:54:05.983Z</time></trkpt><trkpt lat="45.40763454034837" lon="10.510750005893781"><ele>122.0</ele><time>2026-04-04T14:54:06.983Z</time></trkpt><trkpt lat="45.40768497355205" lon="10.510616856903114"><ele>122.0</ele><time>2026-04-04T14:54:07.983Z</time></trkpt><trkpt lat="45.40773007765709" lon="10.510490107904756"><ele>121.99999999999999</ele><time>2026-04-04T14:54:08.983Z</time></trkpt><trkpt lat="45.40776989254882" lon="10.510373176105363"><ele>121.99999999999999</ele><time>2026-04-04T14:54:09.983Z</time></trkpt><trkpt lat="45.407800072624156" lon="10.510261042570429"><ele>122.0</ele><time>2026-04-04T14:54:10.983Z</time></trkpt><trkpt lat="45.40781822907011" lon="10.510167613041657"><ele>122.0</ele><time>2026-04-04T14:54:11.983Z</time></trkpt><trkpt lat="45.40784328135544" lon="10.51001823685808"><ele>122.0</ele><time>2026-04-04T14:54:13.983Z</time></trkpt><trkpt lat="45.40784279083243" lon="10.509907622235895"><ele>122.0</ele><time>2026-04-04T14:54:38.982Z</time></trkpt><trkpt lat="45.40798183928909" lon="10.50986404270555"><ele>122.0</ele><time>2026-04-04T14:54:40.982Z</time></trkpt><trkpt lat="45.40809742384075" lon="10.509839267263482"><ele>122.0</ele><time>2026-04-04T14:54:41.982Z</time></trkpt><trkpt lat="45.40821335159166" lon="10.50981135379305"><ele>122.0</ele><time>2026-04-04T14:54:42.982Z</time></trkpt><trkpt lat="45.4083441811738" lon="10.509777601073994"><ele>122.0</ele><time>2026-04-04T14:54:43.982Z</time></trkpt><trkpt lat="45.40848506484566" lon="10.509730738822325"><ele>122.0</ele><time>2026-04-04T14:54:44.982Z</time></trkpt><trkpt lat="45.40863209331513" lon="10.50969023083613"><ele>122.0</ele><time>2026-04-04T14:54:45.982Z</time></trkpt><trkpt lat="45.40877857982878" lon="10.509645991748352"><ele>121.33333333333333</ele><time>2026-04-04T14:54:46.982Z</time></trkpt><trkpt lat="45.408946879942086" lon="10.509591773905004"><ele>120.66666666666666</ele><time>2026-04-04T14:54:47.982Z</time></trkpt><trkpt lat="45.40910646348777" lon="10.509549193820607"><ele>120.0</ele><time>2026-04-04T14:54:48.982Z</time></trkpt><trkpt lat="45.40927364918605" lon="10.509496037597172"><ele>120.33333333333334</ele><time>2026-04-04T14:54:49.982Z</time></trkpt><trkpt lat="45.40944919995814" lon="10.509441828539858"><ele>120.66666666666667</ele><time>2026-04-04T14:54:50.982Z</time></trkpt><trkpt lat="45.40962919047119" lon="10.5093945117462"><ele>121.0</ele><time>2026-04-04T14:54:51.982Z</time></trkpt><trkpt lat="45.40980943805582" lon="10.509343716230845"><ele>121.0</ele><time>2026-04-04T14:54:52.982Z</time></trkpt><trkpt lat="45.40998845675209" lon="10.509293072451236"><ele>121.0</ele><time>2026-04-04T14:54:53.982Z</time></trkpt><trkpt lat="45.41016777345436" lon="10.509240044353621"><ele>121.0</ele><time>2026-04-04T14:54:54.982Z</time></trkpt><trkpt lat="45.41034960079197" lon="10.50918519589043"><ele>119.33333333333334</ele><time>2026-04-04T14:54:55.982Z</time></trkpt><trkpt lat="45.41052584562088" lon="10.50913519873783"><ele>117.66666666666666</ele><time>2026-04-04T14:54:56.982Z</time></trkpt><trkpt lat="45.41070534873765" lon="10.50909534591287"><ele>116.0</ele><time>2026-04-04T14:54:57.982Z</time></trkpt><trkpt lat="45.41089799521631" lon="10.50906132972071"><ele>116.0</ele><time>2026-04-04T14:54:58.982Z</time></trkpt><trkpt lat="45.411098400512515" lon="10.509043959685407"><ele>116.0</ele><time>2026-04-04T14:54:59.982Z</time></trkpt><trkpt lat="45.41129775103401" lon="10.509044440397636"><ele>116.0</ele><time>2026-04-04T14:55:00.982Z</time></trkpt><trkpt lat="45.41149350115911" lon="10.509057610036393"><ele>116.33333333333333</ele><time>2026-04-04T14:55:01.982Z</time></trkpt><trkpt lat="45.41168615556746" lon="10.509084573196022"><ele>116.66666666666666</ele><time>2026-04-04T14:55:02.982Z</time></trkpt><trkpt lat="45.41187573194973" lon="10.509123105492893"><ele>117.0</ele><time>2026-04-04T14:55:03.981Z</time></trkpt><trkpt lat="45.41206160881291" lon="10.509167280279666"><ele>117.33333333333334</ele><time>2026-04-04T14:55:04.981Z</time></trkpt><trkpt lat="45.41224342898385" lon="10.509219209910903"><ele>117.66666666666667</ele><time>2026-04-04T14:55:05.981Z</time></trkpt><trkpt lat="45.412424043608716" lon="10.509277840202769"><ele>118.0</ele><time>2026-04-04T14:55:06.981Z</time></trkpt><trkpt lat="45.412603681716476" lon="10.50933844981959"><ele>118.0</ele><time>2026-04-04T14:55:07.981Z</time></trkpt><trkpt lat="45.41278303721686" lon="10.50939305219569"><ele>118.0</ele><time>2026-04-04T14:55:08.981Z</time></trkpt><trkpt lat="45.41296105261877" lon="10.509447829125977"><ele>118.0</ele><time>2026-04-04T14:55:09.981Z</time></trkpt><trkpt lat="45.41313532672336" lon="10.509505429251147"><ele>118.0</ele><time>2026-04-04T14:55:10.981Z</time></trkpt><trkpt lat="45.41330081835852" lon="10.509563467185993"><ele>118.0</ele><time>2026-04-04T14:55:11.981Z</time></trkpt><trkpt lat="45.413461384719724" lon="10.509618553959267"><ele>118.0</ele><time>2026-04-04T14:55:12.984Z</time></trkpt><trkpt lat="45.413620469876435" lon="10.5096694601487"><ele>118.33333333333334</ele><time>2026-04-04T14:55:13.984Z</time></trkpt><trkpt lat="45.4137782590974" lon="10.509721215013519"><ele>118.66666666666666</ele><time>2026-04-04T14:55:14.984Z</time></trkpt><trkpt lat="45.41393903434762" lon="10.509773852858677"><ele>119.0</ele><time>2026-04-04T14:55:15.984Z</time></trkpt><trkpt lat="45.4141024502913" lon="10.50982516057013"><ele>119.0</ele><time>2026-04-04T14:55:16.984Z</time></trkpt><trkpt lat="45.41426621899263" lon="10.509878025419868"><ele>119.0</ele><time>2026-04-04T14:55:17.984Z</time></trkpt><trkpt lat="45.4144327678336" lon="10.5099327217744"><ele>119.0</ele><time>2026-04-04T14:55:18.984Z</time></trkpt><trkpt lat="45.414600324598716" lon="10.509992944294563"><ele>118.0</ele><time>2026-04-04T14:55:19.984Z</time></trkpt><trkpt lat="45.414769357127746" lon="10.510043267878295"><ele>117.0</ele><time>2026-04-04T14:55:20.984Z</time></trkpt><trkpt lat="45.41493783630587" lon="10.510095063198431"><ele>116.0</ele><time>2026-04-04T14:55:21.984Z</time></trkpt><trkpt lat="45.415106016600106" lon="10.51015037059814"><ele>116.0</ele><time>2026-04-04T14:55:22.984Z</time></trkpt><trkpt lat="45.41527279764292" lon="10.510203688470046"><ele>116.0</ele><time>2026-04-04T14:55:23.984Z</time></trkpt><trkpt lat="45.415438802708046" lon="10.51025840615828"><ele>116.0</ele><time>2026-04-04T14:55:24.984Z</time></trkpt><trkpt lat="45.415601996861625" lon="10.51030981301484"><ele>116.0</ele><time>2026-04-04T14:55:25.984Z</time></trkpt><trkpt lat="45.41576033348133" lon="10.510358879144375"><ele>116.0</ele><time>2026-04-04T14:55:26.984Z</time></trkpt><trkpt lat="45.41591550411265" lon="10.51041055261013"><ele>116.0</ele><time>2026-04-04T14:55:27.984Z</time></trkpt><trkpt lat="45.41606313154033" lon="10.510460547932308"><ele>116.0</ele><time>2026-04-04T14:55:28.984Z</time></trkpt><trkpt lat="45.416205966988336" lon="10.510507217884605"><ele>116.0</ele><time>2026-04-04T14:55:29.984Z</time></trkpt><trkpt lat="45.41634751277196" lon="10.510554474501525"><ele>116.0</ele><time>2026-04-04T14:55:30.984Z</time></trkpt><trkpt lat="45.41648983721478" lon="10.510600638288972"><ele>116.0</ele><time>2026-04-04T14:55:31.984Z</time></trkpt><trkpt lat="45.41662974688663" lon="10.510647552726368"><ele>115.75</ele><time>2026-04-04T14:55:32.984Z</time></trkpt><trkpt lat="45.41677201624393" lon="10.510694137032232"><ele>115.5</ele><time>2026-04-04T14:55:33.984Z</time></trkpt><trkpt lat="45.41691399402308" lon="10.510741851434346"><ele>115.25</ele><time>2026-04-04T14:55:34.984Z</time></trkpt><trkpt lat="45.417055378119635" lon="10.510786186743386"><ele>115.0</ele><time>2026-04-04T14:55:35.984Z</time></trkpt><trkpt lat="45.41719595715214" lon="10.510829729622241"><ele>115.0</ele><time>2026-04-04T14:55:36.984Z</time></trkpt><trkpt lat="45.41733597123685" lon="10.510875807927727"><ele>115.0</ele><time>2026-04-04T14:55:37.984Z</time></trkpt><trkpt lat="45.417475729602835" lon="10.51091960189562"><ele>115.0</ele><time>2026-04-04T14:55:38.984Z</time></trkpt><trkpt lat="45.41761724091203" lon="10.51096162223211"><ele>115.0</ele><time>2026-04-04T14:55:39.984Z</time></trkpt><trkpt lat="45.41775695498999" lon="10.511007733505735"><ele>115.0</ele><time>2026-04-04T14:55:40.984Z</time></trkpt><trkpt lat="45.417895050594325" lon="10.51105622880408"><ele>115.0</ele><time>2026-04-04T14:55:41.984Z</time></trkpt><trkpt lat="45.41803693807847" lon="10.511107808466138"><ele>115.0</ele><time>2026-04-04T14:55:42.984Z</time></trkpt><trkpt lat="45.41817549801781" lon="10.511148761210917"><ele>115.0</ele><time>2026-04-04T14:55:43.984Z</time></trkpt><trkpt lat="45.418315303907455" lon="10.511193231482778"><ele>115.0</ele><time>2026-04-04T14:55:44.984Z</time></trkpt><trkpt lat="45.41845455121238" lon="10.511237652778846"><ele>115.0</ele><time>2026-04-04T14:55:45.984Z</time></trkpt><trkpt lat="45.41859544987259" lon="10.511281094614679"><ele>115.0</ele><time>2026-04-04T14:55:46.984Z</time></trkpt><trkpt lat="45.41873332968505" lon="10.511326108296537"><ele>115.0</ele><time>2026-04-04T14:55:47.984Z</time></trkpt><trkpt lat="45.41886852511519" lon="10.511372019964512"><ele>116.75</ele><time>2026-04-04T14:55:48.984Z</time></trkpt><trkpt lat="45.418999001151356" lon="10.511415576376418"><ele>118.5</ele><time>2026-04-04T14:55:49.984Z</time></trkpt><trkpt lat="45.419126866949675" lon="10.511456500714448"><ele>120.25</ele><time>2026-04-04T14:55:50.984Z</time></trkpt><trkpt lat="45.419254170555064" lon="10.511497927846605"><ele>122.0</ele><time>2026-04-04T14:55:51.984Z</time></trkpt><trkpt lat="45.4193776229181" lon="10.511538778815204"><ele>122.0</ele><time>2026-04-04T14:55:52.983Z</time></trkpt><trkpt lat="45.41949234319535" lon="10.511575723233154"><ele>122.0</ele><time>2026-04-04T14:55:53.983Z</time></trkpt><trkpt lat="45.419605670614374" lon="10.511616291289359"><ele>122.0</ele><time>2026-04-04T14:55:54.983Z</time></trkpt><trkpt lat="45.41972523640423" lon="10.511649378389258"><ele>122.0</ele><time>2026-04-04T14:55:55.983Z</time></trkpt><trkpt lat="45.41984572766589" lon="10.511688782586596"><ele>121.8</ele><time>2026-04-04T14:55:56.983Z</time></trkpt><trkpt lat="45.4199603580751" lon="10.511729076401133"><ele>121.6</ele><time>2026-04-04T14:55:57.983Z</time></trkpt><trkpt lat="45.420072030774946" lon="10.511765204561124"><ele>121.39999999999999</ele><time>2026-04-04T14:55:58.983Z</time></trkpt><trkpt lat="45.42017512976841" lon="10.511796550480707"><ele>121.19999999999999</ele><time>2026-04-04T14:55:59.983Z</time></trkpt><trkpt lat="45.420281193951716" lon="10.511821720774408"><ele>121.0</ele><time>2026-04-04T14:56:00.983Z</time></trkpt><trkpt lat="45.42038505490648" lon="10.511828869718087"><ele>121.00000000000001</ele><time>2026-04-04T14:56:01.983Z</time></trkpt><trkpt lat="45.420478034350694" lon="10.511812708727888"><ele>121.0</ele><time>2026-04-04T14:56:02.983Z</time></trkpt><trkpt lat="45.420559122682434" lon="10.511790978621587"><ele>121.0</ele><time>2026-04-04T14:56:03.983Z</time></trkpt><trkpt lat="45.42063934299452" lon="10.511795209180807"><ele>121.0</ele><time>2026-04-04T14:56:04.983Z</time></trkpt><trkpt lat="45.4207149106925" lon="10.511835132572575"><ele>121.00000000000001</ele><time>2026-04-04T14:56:05.983Z</time></trkpt><trkpt lat="45.420794949089995" lon="10.511874769130007"><ele>121.0</ele><time>2026-04-04T14:56:06.983Z</time></trkpt><trkpt lat="45.4208111425624" lon="10.511998676891851"><ele>120.8</ele><time>2026-04-04T14:56:07.983Z</time></trkpt><trkpt lat="45.4208484346065" lon="10.512165863880794"><ele>120.6</ele><time>2026-04-04T14:56:09.983Z</time></trkpt><trkpt lat="45.4207974398394" lon="10.512300754195154"><ele>120.4</ele><time>2026-04-04T14:56:11.983Z</time></trkpt><trkpt lat="45.42068434219013" lon="10.512282382353243"><ele>120.2</ele><time>2026-04-04T14:56:12.983Z</time></trkpt><trkpt lat="45.420596859759854" lon="10.512209325760308"><ele>120.0</ele><time>2026-04-04T14:56:13.983Z</time></trkpt><trkpt lat="45.420507411261866" lon="10.512280794008527"><ele>120.33333333333334</ele><time>2026-04-04T14:56:14.983Z</time></trkpt><trkpt lat="45.42036592672916" lon="10.51235805693266"><ele>120.66666666666667</ele><time>2026-04-04T14:56:15.983Z</time></trkpt><trkpt lat="45.42016370861773" lon="10.51246546833442"><ele>121.0</ele><time>2026-04-04T14:56:16.983Z</time></trkpt><trkpt lat="45.41995630692123" lon="10.51254897628138"><ele>121.0</ele><time>2026-04-04T14:56:17.983Z</time></trkpt><trkpt lat="45.419738154920495" lon="10.512638246649114"><ele>121.0</ele><time>2026-04-04T14:56:18.983Z</time></trkpt><trkpt lat="45.41950099834909" lon="10.512719306813432"><ele>121.5</ele><time>2026-04-04T14:56:19.983Z</time></trkpt><trkpt lat="45.41925286118869" lon="10.512770180359631"><ele>122.0</ele><time>2026-04-04T14:56:20.983Z</time></trkpt><trkpt lat="45.418952137537865" lon="10.512772291787835"><ele>119.5</ele><time>2026-04-04T14:56:21.983Z</time></trkpt><trkpt lat="45.418633233075965" lon="10.51278148806099"><ele>117.0</ele><time>2026-04-04T14:56:22.983Z</time></trkpt><trkpt lat="45.41830123217909" lon="10.512802832110161"><ele>117.0</ele><time>2026-04-04T14:56:23.983Z</time></trkpt><trkpt lat="45.41799193728613" lon="10.512831351866453"><ele>117.0</ele><time>2026-04-04T14:56:24.983Z</time></trkpt><trkpt lat="45.41772067719465" lon="10.512857727425592"><ele>116.0</ele><time>2026-04-04T14:56:25.983Z</time></trkpt><trkpt lat="45.41746081934831" lon="10.512879385430498"><ele>115.0</ele><time>2026-04-04T14:56:26.983Z</time></trkpt><trkpt lat="45.41718935138345" lon="10.51289798583333"><ele>114.5</ele><time>2026-04-04T14:56:27.983Z</time></trkpt><trkpt lat="45.41691780577404" lon="10.512914027358772"><ele>114.0</ele><time>2026-04-04T14:56:28.983Z</time></trkpt><trkpt lat="45.41667167352144" lon="10.512927081445767"><ele>114.0</ele><time>2026-04-04T14:56:29.983Z</time></trkpt><trkpt lat="45.41645289131507" lon="10.512938377339339"><ele>114.0</ele><time>2026-04-04T14:56:30.983Z</time></trkpt><trkpt lat="45.41625707851808" lon="10.512959550519371"><ele>114.0</ele><time>2026-04-04T14:56:31.983Z</time></trkpt><trkpt lat="45.41606140753063" lon="10.512982721359348"><ele>114.66666666666666</ele><time>2026-04-04T14:56:32.983Z</time></trkpt><trkpt lat="45.415870643866015" lon="10.512996467100274"><ele>115.33333333333333</ele><time>2026-04-04T14:56:33.983Z</time></trkpt><trkpt lat="45.415692309864376" lon="10.513007481536587"><ele>116.0</ele><time>2026-04-04T14:56:34.983Z</time></trkpt><trkpt lat="45.41552916230156" lon="10.512996436085288"><ele>116.25</ele><time>2026-04-04T14:56:35.983Z</time></trkpt><trkpt lat="45.41536262421491" lon="10.512970649496895"><ele>116.5</ele><time>2026-04-04T14:56:36.983Z</time></trkpt><trkpt lat="45.41522717107898" lon="10.512934388854832"><ele>116.75</ele><time>2026-04-04T14:56:37.983Z</time></trkpt><trkpt lat="45.41512133387" lon="10.512901677075082"><ele>117.0</ele><time>2026-04-04T14:56:38.983Z</time></trkpt><trkpt lat="45.415053981630585" lon="10.512885855787987"><ele>117.0</ele><time>2026-04-04T14:56:39.983Z</time></trkpt><trkpt lat="45.414985378432014" lon="10.512924339721197"><ele>116.99999999999999</ele><time>2026-04-04T14:56:41.982Z</time></trkpt><trkpt lat="45.41495278156029" lon="10.513077304191567"><ele>116.99999999999999</ele><time>2026-04-04T14:56:43.982Z</time></trkpt><trkpt lat="45.41493577765534" lon="10.513213801104175"><ele>117.0</ele><time>2026-04-04T14:56:44.982Z</time></trkpt><trkpt lat="45.4149231199104" lon="10.51337673474475"><ele>117.0</ele><time>2026-04-04T14:56:45.982Z</time></trkpt><trkpt lat="45.4149197376274" lon="10.513557047600482"><ele>117.0</ele><time>2026-04-04T14:56:46.982Z</time></trkpt><trkpt lat="45.41492070655355" lon="10.513717255931656"><ele>117.0</ele><time>2026-04-04T14:56:47.982Z</time></trkpt><trkpt lat="45.4149234369174" lon="10.513830402987947"><ele>117.0</ele><time>2026-04-04T14:56:48.982Z</time></trkpt><trkpt lat="45.41490896006845" lon="10.51392378812123"><ele>117.0</ele><time>2026-04-04T14:56:49.982Z</time></trkpt><trkpt lat="45.41482686679616" lon="10.514019508068039"><ele>117.0</ele><time>2026-04-04T14:56:51.982Z</time></trkpt><trkpt lat="45.414747890310004" lon="10.514024161874787"><ele>117.0</ele><time>2026-04-04T14:56:52.982Z</time></trkpt><trkpt lat="45.41462056933437" lon="10.514009592400152"><ele>116.75</ele><time>2026-04-04T14:56:53.982Z</time></trkpt><trkpt lat="45.4144676990334" lon="10.51400036672816"><ele>116.5</ele><time>2026-04-04T14:56:54.982Z</time></trkpt><trkpt lat="45.414308908713735" lon="10.51402150052449"><ele>116.25</ele><time>2026-04-04T14:56:55.982Z</time></trkpt><trkpt lat="45.4141777706632" lon="10.514059976257759"><ele>116.0</ele><time>2026-04-04T14:56:56.982Z</time></trkpt><trkpt lat="45.414056340148036" lon="10.514128350480417"><ele>116.0</ele><time>2026-04-04T14:56:57.982Z</time></trkpt><trkpt lat="45.41392863144556" lon="10.514229824936159"><ele>116.0</ele><time>2026-04-04T14:56:58.982Z</time></trkpt><trkpt lat="45.41379198429724" lon="10.514308087542652"><ele>116.0</ele><time>2026-04-04T14:56:59.982Z</time></trkpt><trkpt lat="45.413680670363284" lon="10.514324996945149"><ele>116.0</ele><time>2026-04-04T14:57:00.982Z</time></trkpt><trkpt lat="45.413586904209524" lon="10.51434595017519"><ele>116.0</ele><time>2026-04-04T14:57:01.982Z</time></trkpt><trkpt lat="45.41350987981464" lon="10.51438595382092"><ele>116.0</ele><time>2026-04-04T14:57:02.982Z</time></trkpt><trkpt lat="45.413454389248784" lon="10.514449903891746"><ele>116.0</ele><time>2026-04-04T14:57:03.982Z</time></trkpt><trkpt lat="45.41339662851537" lon="10.514559486947231"><ele>116.0</ele><time>2026-04-04T14:57:04.982Z</time></trkpt><trkpt lat="45.41335673713527" lon="10.514745973762677"><ele>116.0</ele><time>2026-04-04T14:57:05.982Z</time></trkpt><trkpt lat="45.413328198185674" lon="10.514956620061408"><ele>116.0</ele><time>2026-04-04T14:57:06.982Z</time></trkpt><trkpt lat="45.413288344344764" lon="10.515167679463818"><ele>116.0</ele><time>2026-04-04T14:57:07.982Z</time></trkpt><trkpt lat="45.41323515209208" lon="10.515374314446563"><ele>116.0</ele><time>2026-04-04T14:57:08.982Z</time></trkpt><trkpt lat="45.413178940350825" lon="10.51556146778307"><ele>116.0</ele><time>2026-04-04T14:57:09.982Z</time></trkpt><trkpt lat="45.41312208685858" lon="10.515751040501263"><ele>116.0</ele><time>2026-04-04T14:57:10.982Z</time></trkpt><trkpt lat="45.41306290755236" lon="10.515939055376405"><ele>116.0</ele><time>2026-04-04T14:57:11.982Z</time></trkpt><trkpt lat="45.41299377391645" lon="10.516148944454725"><ele>115.33333333333333</ele><time>2026-04-04T14:57:12.982Z</time></trkpt><trkpt lat="45.4129114092261" lon="10.516366486949297"><ele>114.66666666666666</ele><time>2026-04-04T14:57:13.982Z</time></trkpt><trkpt lat="45.41282549667176" lon="10.516598059188986"><ele>114.0</ele><time>2026-04-04T14:57:14.982Z</time></trkpt><trkpt lat="45.41274840421272" lon="10.516811252512937"><ele>114.0</ele><time>2026-04-04T14:57:15.982Z</time></trkpt><trkpt lat="45.41269039289323" lon="10.517011502148325"><ele>114.0</ele><time>2026-04-04T14:57:16.982Z</time></trkpt><trkpt lat="45.41263466120665" lon="10.517196768048503"><ele>114.0</ele><time>2026-04-04T14:57:17.982Z</time></trkpt><trkpt lat="45.412573819104395" lon="10.517377189110183"><ele>114.0</ele><time>2026-04-04T14:57:18.984Z</time></trkpt><trkpt lat="45.41248635869625" lon="10.517535849242746"><ele>114.0</ele><time>2026-04-04T14:57:19.984Z</time></trkpt><trkpt lat="45.41238833291421" lon="10.517684183170754"><ele>114.0</ele><time>2026-04-04T14:57:20.984Z</time></trkpt><trkpt lat="45.41228873697204" lon="10.517806659289613"><ele>114.0</ele><time>2026-04-04T14:57:21.985Z</time></trkpt><trkpt lat="45.41218484056964" lon="10.517912243466194"><ele>114.0</ele><time>2026-04-04T14:57:22.984Z</time></trkpt><trkpt lat="45.41207892253887" lon="10.518015982663691"><ele>115.25</ele><time>2026-04-04T14:57:23.984Z</time></trkpt><trkpt lat="45.41197858276016" lon="10.518129537625338"><ele>116.5</ele><time>2026-04-04T14:57:24.984Z</time></trkpt><trkpt lat="45.41188704317542" lon="10.518262935353292"><ele>117.75</ele><time>2026-04-04T14:57:25.984Z</time></trkpt><trkpt lat="45.41180381788455" lon="10.51841528869993"><ele>119.0</ele><time>2026-04-04T14:57:26.984Z</time></trkpt><trkpt lat="45.41172705715608" lon="10.518572906240912"><ele>119.0</ele><time>2026-04-04T14:57:27.984Z</time></trkpt><trkpt lat="45.411657611167186" lon="10.518722677735607"><ele>119.0</ele><time>2026-04-04T14:57:28.984Z</time></trkpt><trkpt lat="45.411588445243545" lon="10.518856109179012"><ele>119.0</ele><time>2026-04-04T14:57:29.984Z</time></trkpt><trkpt lat="45.41152892953151" lon="10.518964592354779"><ele>119.0</ele><time>2026-04-04T14:57:30.985Z</time></trkpt><trkpt lat="45.41147405149383" lon="10.519068619444472"><ele>119.0</ele><time>2026-04-04T14:57:31.984Z</time></trkpt><trkpt lat="45.411412849084634" lon="10.519162344415193"><ele>119.0</ele><time>2026-04-04T14:57:32.984Z</time></trkpt><trkpt lat="45.411372338958735" lon="10.51925877987237"><ele>119.0</ele><time>2026-04-04T14:57:33.984Z</time></trkpt><trkpt lat="45.41136557096107" lon="10.519349763617655"><ele>119.0</ele><time>2026-04-04T14:57:34.984Z</time></trkpt><trkpt lat="45.41144587627983" lon="10.519519358646766"><ele>119.0</ele><time>2026-04-04T14:57:36.984Z</time></trkpt><trkpt lat="45.41152743516519" lon="10.519615614336141"><ele>119.0</ele><time>2026-04-04T14:57:37.984Z</time></trkpt><trkpt lat="45.41157447648929" lon="10.51972915698441"><ele>118.5</ele><time>2026-04-04T14:57:38.984Z</time></trkpt><trkpt lat="45.41159170673908" lon="10.519878725118941"><ele>118.0</ele><time>2026-04-04T14:57:39.984Z</time></trkpt><trkpt lat="45.411586190561756" lon="10.520058911934287"><ele>117.5</ele><time>2026-04-04T14:57:40.984Z</time></trkpt><trkpt lat="45.41157025374647" lon="10.52025793422364"><ele>117.0</ele><time>2026-04-04T14:57:41.984Z</time></trkpt><trkpt lat="45.41155739533523" lon="10.52044095066475"><ele>116.8</ele><time>2026-04-04T14:57:42.984Z</time></trkpt><trkpt lat="45.411552175243315" lon="10.520587376056358"><ele>116.6</ele><time>2026-04-04T14:57:43.984Z</time></trkpt><trkpt lat="45.411557191410466" lon="10.520710959603514"><ele>116.39999999999999</ele><time>2026-04-04T14:57:44.983Z</time></trkpt><trkpt lat="45.41157695411787" lon="10.520824272655721"><ele>116.19999999999999</ele><time>2026-04-04T14:57:45.983Z</time></trkpt><trkpt lat="45.41162401365921" lon="10.520941007419067"><ele>116.0</ele><time>2026-04-04T14:57:46.983Z</time></trkpt><trkpt lat="45.41169879371833" lon="10.521038819777532"><ele>116.0</ele><time>2026-04-04T14:57:47.983Z</time></trkpt><trkpt lat="45.41180851125075" lon="10.521109290821652"><ele>116.0</ele><time>2026-04-04T14:57:48.983Z</time></trkpt><trkpt lat="45.4119165977236" lon="10.521171826407883"><ele>116.0</ele><time>2026-04-04T14:57:49.983Z</time></trkpt><trkpt lat="45.411996998291755" lon="10.521213926917536"><ele>116.0</ele><time>2026-04-04T14:57:50.983Z</time></trkpt><trkpt lat="45.41206331810599" lon="10.521259806960924"><ele>116.0</ele><time>2026-04-04T14:57:51.983Z</time></trkpt><trkpt lat="45.41212186912047" lon="10.521337625081703"><ele>116.16666666666666</ele><time>2026-04-04T14:57:52.983Z</time></trkpt><trkpt lat="45.412161334682395" lon="10.521441549007074"><ele>116.33333333333333</ele><time>2026-04-04T14:57:53.983Z</time></trkpt><trkpt lat="45.4121754869288" lon="10.521568719528357"><ele>116.5</ele><time>2026-04-04T14:57:54.983Z</time></trkpt><trkpt lat="45.41216204613488" lon="10.521707977325054"><ele>116.66666666666666</ele><time>2026-04-04T14:57:55.983Z</time></trkpt><trkpt lat="45.412137309747465" lon="10.521836693310153"><ele>116.83333333333333</ele><time>2026-04-04T14:57:56.983Z</time></trkpt><trkpt lat="45.41210260263525" lon="10.521942936037298"><ele>117.0</ele><time>2026-04-04T14:57:57.983Z</time></trkpt><trkpt lat="45.4120726976532" lon="10.52203188746008"><ele>117.0</ele><time>2026-04-04T14:57:58.983Z</time></trkpt><trkpt lat="45.412014700118384" lon="10.522149898943697"><ele>116.99999999999999</ele><time>2026-04-04T14:58:00.983Z</time></trkpt><trkpt lat="45.41191038389195" lon="10.522161836427484"><ele>116.99999999999999</ele><time>2026-04-04T14:58:02.983Z</time></trkpt><trkpt lat="45.41182783321118" lon="10.522106595094677"><ele>117.0</ele><time>2026-04-04T14:58:03.983Z</time></trkpt><trkpt lat="45.411731818945164" lon="10.522035142522718"><ele>117.0</ele><time>2026-04-04T14:58:04.983Z</time></trkpt><trkpt lat="45.41162430568625" lon="10.521977313076798"><ele>117.0</ele><time>2026-04-04T14:58:05.983Z</time></trkpt><trkpt lat="45.411494301574436" lon="10.521943610323364"><ele>117.0</ele><time>2026-04-04T14:58:06.983Z</time></trkpt><trkpt lat="45.411352224560964" lon="10.521934335028243"><ele>117.0</ele><time>2026-04-04T14:58:07.983Z</time></trkpt><trkpt lat="45.411206042108525" lon="10.52194590776312"><ele>117.0</ele><time>2026-04-04T14:58:08.983Z</time></trkpt><trkpt lat="45.411045453169464" lon="10.52197626737288"><ele>117.0</ele><time>2026-04-04T14:58:09.983Z</time></trkpt><trkpt lat="45.410875101992865" lon="10.522021104614957"><ele>117.0</ele><time>2026-04-04T14:58:10.983Z</time></trkpt><trkpt lat="45.4107143957829" lon="10.522080199749539"><ele>117.0</ele><time>2026-04-04T14:58:11.983Z</time></trkpt><trkpt lat="45.41054670011594" lon="10.52215693739628"><ele>118.0</ele><time>2026-04-04T14:58:12.983Z</time></trkpt><trkpt lat="45.410379144707456" lon="10.522235494151962"><ele>119.0</ele><time>2026-04-04T14:58:13.983Z</time></trkpt><trkpt lat="45.410223445770875" lon="10.52230505711224"><ele>120.0</ele><time>2026-04-04T14:58:14.983Z</time></trkpt><trkpt lat="45.41007200043746" lon="10.522370578947196"><ele>120.0</ele><time>2026-04-04T14:58:15.983Z</time></trkpt><trkpt lat="45.409923754933736" lon="10.522435035720665"><ele>120.0</ele><time>2026-04-04T14:58:16.983Z</time></trkpt><trkpt lat="45.40977947262715" lon="10.522488865751205"><ele>120.0</ele><time>2026-04-04T14:58:17.983Z</time></trkpt><trkpt lat="45.4096364852552" lon="10.522554252875725"><ele>121.25</ele><time>2026-04-04T14:58:18.983Z</time></trkpt><trkpt lat="45.409499602533714" lon="10.52261432942452"><ele>122.5</ele><time>2026-04-04T14:58:19.983Z</time></trkpt><trkpt lat="45.4093629747448" lon="10.522677507279639"><ele>123.75</ele><time>2026-04-04T14:58:20.983Z</time></trkpt><trkpt lat="45.40923216259673" lon="10.52273554802717"><ele>125.0</ele><time>2026-04-04T14:58:21.983Z</time></trkpt><trkpt lat="45.40910549196233" lon="10.522793972323553"><ele>125.0</ele><time>2026-04-04T14:58:22.983Z</time></trkpt><trkpt lat="45.40898399269906" lon="10.52285231480469"><ele>125.0</ele><time>2026-04-04T14:58:23.983Z</time></trkpt><trkpt lat="45.408868712648705" lon="10.522905487354652"><ele>125.0</ele><time>2026-04-04T14:58:24.983Z</time></trkpt><trkpt lat="45.40876249815731" lon="10.5229516381045"><ele>125.0</ele><time>2026-04-04T14:58:25.983Z</time></trkpt><trkpt lat="45.40866118396676" lon="10.523004261631252"><ele>125.4</ele><time>2026-04-04T14:58:26.983Z</time></trkpt><trkpt lat="45.40856407737829" lon="10.523046169623331"><ele>125.8</ele><time>2026-04-04T14:58:27.983Z</time></trkpt><trkpt lat="45.408477049140934" lon="10.523067764433744"><ele>126.19999999999999</ele><time>2026-04-04T14:58:28.983Z</time></trkpt><trkpt lat="45.4083918442883" lon="10.523071721244785"><ele>126.6</ele><time>2026-04-04T14:58:29.983Z</time></trkpt><trkpt lat="45.4083091840963" lon="10.5230897458552"><ele>127.0</ele><time>2026-04-04T14:58:30.983Z</time></trkpt><trkpt lat="45.40821475168979" lon="10.523141743206606"><ele>127.0</ele><time>2026-04-04T14:58:31.983Z</time></trkpt><trkpt lat="45.40810621028377" lon="10.523224575448289"><ele>127.0</ele><time>2026-04-04T14:58:32.983Z</time></trkpt><trkpt lat="45.40800147816108" lon="10.523321162587472"><ele>127.0</ele><time>2026-04-04T14:58:33.982Z</time></trkpt><trkpt lat="45.4079037049515" lon="10.523409499746057"><ele>127.0</ele><time>2026-04-04T14:58:34.982Z</time></trkpt><trkpt lat="45.407802086177334" lon="10.52349173281689"><ele>127.5</ele><time>2026-04-04T14:58:35.982Z</time></trkpt><trkpt lat="45.407701394501736" lon="10.523578771923662"><ele>128.0</ele><time>2026-04-04T14:58:36.982Z</time></trkpt><trkpt lat="45.40759577271139" lon="10.523644870277932"><ele>128.5</ele><time>2026-04-04T14:58:37.982Z</time></trkpt><trkpt lat="45.40749493542955" lon="10.523738555331061"><ele>129.0</ele><time>2026-04-04T14:58:38.982Z</time></trkpt><trkpt lat="45.40739413534724" lon="10.52382833766823"><ele>129.25</ele><time>2026-04-04T14:58:39.982Z</time></trkpt><trkpt lat="45.407291777643486" lon="10.5239158266261"><ele>129.5</ele><time>2026-04-04T14:58:40.982Z</time></trkpt><trkpt lat="45.40719045131927" lon="10.523998559032405"><ele>129.75</ele><time>2026-04-04T14:58:41.982Z</time></trkpt><trkpt lat="45.407087804566174" lon="10.524074429699166"><ele>130.0</ele><time>2026-04-04T14:58:42.982Z</time></trkpt><trkpt lat="45.40698444163928" lon="10.524139950860306"><ele>130.8</ele><time>2026-04-04T14:58:43.982Z</time></trkpt><trkpt lat="45.40688376833423" lon="10.524205938137767"><ele>131.6</ele><time>2026-04-04T14:58:44.982Z</time></trkpt><trkpt lat="45.40678753242746" lon="10.524268771598202"><ele>132.4</ele><time>2026-04-04T14:58:45.982Z</time></trkpt><trkpt lat="45.40669344315586" lon="10.524339235338077"><ele>133.2</ele><time>2026-04-04T14:58:46.982Z</time></trkpt><trkpt lat="45.40660009490954" lon="10.524404328654779"><ele>134.0</ele><time>2026-04-04T14:58:47.982Z</time></trkpt><trkpt lat="45.40650632647674" lon="10.524468493040455"><ele>134.0</ele><time>2026-04-04T14:58:48.982Z</time></trkpt><trkpt lat="45.4064199941413" lon="10.524535970161645"><ele>134.0</ele><time>2026-04-04T14:58:49.982Z</time></trkpt><trkpt lat="45.406339591742544" lon="10.52461196901967"><ele>134.0</ele><time>2026-04-04T14:58:50.982Z</time></trkpt><trkpt lat="45.406273876712575" lon="10.524689793075153"><ele>134.0</ele><time>2026-04-04T14:58:51.982Z</time></trkpt><trkpt lat="45.40620690020255" lon="10.524783353359485"><ele>134.0</ele><time>2026-04-04T14:58:52.982Z</time></trkpt><trkpt lat="45.40613637668043" lon="10.524876006102328"><ele>133.0</ele><time>2026-04-04T14:58:53.982Z</time></trkpt><trkpt lat="45.40606309823545" lon="10.525002627492375"><ele>132.0</ele><time>2026-04-04T14:58:54.982Z</time></trkpt><trkpt lat="45.40597548428793" lon="10.5251175864765"><ele>131.0</ele><time>2026-04-04T14:58:55.982Z</time></trkpt><trkpt lat="45.40588833327939" lon="10.525235991463749"><ele>130.0</ele><time>2026-04-04T14:58:56.982Z</time></trkpt><trkpt lat="45.405793204255986" lon="10.525341821586027"><ele>130.25</ele><time>2026-04-04T14:58:57.982Z</time></trkpt><trkpt lat="45.40569906472548" lon="10.525449656888265"><ele>130.5</ele><time>2026-04-04T14:58:58.982Z</time></trkpt><trkpt lat="45.405608895910795" lon="10.52555864857302"><ele>130.75</ele><time>2026-04-04T14:58:59.982Z</time></trkpt><trkpt lat="45.40552949410046" lon="10.525685255005474"><ele>131.0</ele><time>2026-04-04T14:59:00.982Z</time></trkpt><trkpt lat="45.40545265566141" lon="10.525805877639703"><ele>131.25</ele><time>2026-04-04T14:59:01.982Z</time></trkpt><trkpt lat="45.40537710626291" lon="10.525933206193242"><ele>131.5</ele><time>2026-04-04T14:59:02.982Z</time></trkpt><trkpt lat="45.40528663902312" lon="10.52604874265585"><ele>131.75</ele><time>2026-04-04T14:59:03.982Z</time></trkpt><trkpt lat="45.405184127357856" lon="10.526190146696232"><ele>132.0</ele><time>2026-04-04T14:59:04.982Z</time></trkpt><trkpt lat="45.40507672616658" lon="10.526330477286633"><ele>132.0</ele><time>2026-04-04T14:59:05.982Z</time></trkpt><trkpt lat="45.40496753226216" lon="10.526450657020199"><ele>132.0</ele><time>2026-04-04T14:59:06.982Z</time></trkpt><trkpt lat="45.404865081622496" lon="10.52658648994794"><ele>132.0</ele><time>2026-04-04T14:59:07.982Z</time></trkpt><trkpt lat="45.404771636620126" lon="10.526727685121282"><ele>132.0</ele><time>2026-04-04T14:59:08.982Z</time></trkpt><trkpt lat="45.40467995994049" lon="10.526865595412483"><ele>132.0</ele><time>2026-04-04T14:59:09.982Z</time></trkpt><trkpt lat="45.404585428262024" lon="10.527000687172077"><ele>132.0</ele><time>2026-04-04T14:59:10.982Z</time></trkpt><trkpt lat="45.4044933074994" lon="10.527131835797865"><ele>132.0</ele><time>2026-04-04T14:59:11.982Z</time></trkpt><trkpt lat="45.40440110880435" lon="10.527267732148287"><ele>132.0</ele><time>2026-04-04T14:59:12.982Z</time></trkpt><trkpt lat="45.404309455922906" lon="10.527404220237013"><ele>132.25</ele><time>2026-04-04T14:59:13.982Z</time></trkpt><trkpt lat="45.404220008264744" lon="10.527527087990338"><ele>132.5</ele><time>2026-04-04T14:59:14.982Z</time></trkpt><trkpt lat="45.404127349181735" lon="10.527640922276747"><ele>132.75</ele><time>2026-04-04T14:59:15.982Z</time></trkpt><trkpt lat="45.404037788130175" lon="10.5277199869272"><ele>133.0</ele><time>2026-04-04T14:59:16.982Z</time></trkpt><trkpt lat="45.403943839715026" lon="10.527763567713803"><ele>133.5</ele><time>2026-04-04T14:59:17.982Z</time></trkpt><trkpt lat="45.403827726514535" lon="10.527755097691422"><ele>134.0</ele><time>2026-04-04T14:59:18.982Z</time></trkpt><trkpt lat="45.4037023321458" lon="10.527736446482399"><ele>134.5</ele><time>2026-04-04T14:59:19.982Z</time></trkpt><trkpt lat="45.40358842281265" lon="10.527734060229049"><ele>135.0</ele><time>2026-04-04T14:59:20.982Z</time></trkpt><trkpt lat="45.403459402884636" lon="10.527764083895581"><ele>135.0</ele><time>2026-04-04T14:59:21.982Z</time></trkpt><trkpt lat="45.40333664153269" lon="10.527800322631762"><ele>135.0</ele><time>2026-04-04T14:59:22.981Z</time></trkpt><trkpt lat="45.40323207311591" lon="10.527835278241607"><ele>135.0</ele><time>2026-04-04T14:59:23.981Z</time></trkpt><trkpt lat="45.40313716732871" lon="10.527860273955111"><ele>135.0</ele><time>2026-04-04T14:59:24.985Z</time></trkpt><trkpt lat="45.40304499130092" lon="10.527868438097723"><ele>135.0</ele><time>2026-04-04T14:59:25.985Z</time></trkpt><trkpt lat="45.40295872461704" lon="10.527895178071889"><ele>135.5</ele><time>2026-04-04T14:59:26.985Z</time></trkpt><trkpt lat="45.40288354536718" lon="10.527903579875094"><ele>136.0</ele><time>2026-04-04T14:59:27.985Z</time></trkpt><trkpt lat="45.40281518378919" lon="10.527933929218134"><ele>136.5</ele><time>2026-04-04T14:59:28.984Z</time></trkpt><trkpt lat="45.40275203549189" lon="10.527970647305372"><ele>137.0</ele><time>2026-04-04T14:59:29.984Z</time></trkpt><trkpt lat="45.40267161069484" lon="10.528027812285488"><ele>137.5</ele><time>2026-04-04T14:59:30.985Z</time></trkpt><trkpt lat="45.40259207478099" lon="10.528086967514337"><ele>138.0</ele><time>2026-04-04T14:59:31.985Z</time></trkpt><trkpt lat="45.40250906571386" lon="10.528177106903058"><ele>138.0</ele><time>2026-04-04T14:59:32.985Z</time></trkpt><trkpt lat="45.402423972044005" lon="10.528251832510886"><ele>138.0</ele><time>2026-04-04T14:59:33.985Z</time></trkpt><trkpt lat="45.402330744694595" lon="10.528318455313727"><ele>138.0</ele><time>2026-04-04T14:59:34.984Z</time></trkpt><trkpt lat="45.40224060190138" lon="10.528395226050675"><ele>138.0</ele><time>2026-04-04T14:59:35.984Z</time></trkpt><trkpt lat="45.40216414522248" lon="10.528466549464211"><ele>138.0</ele><time>2026-04-04T14:59:36.985Z</time></trkpt><trkpt lat="45.402079655851004" lon="10.528539630834894"><ele>138.0</ele><time>2026-04-04T14:59:37.984Z</time></trkpt><trkpt lat="45.401998454977985" lon="10.52861233899133"><ele>138.0</ele><time>2026-04-04T14:59:38.984Z</time></trkpt><trkpt lat="45.401917252503914" lon="10.528679601227577"><ele>138.0</ele><time>2026-04-04T14:59:39.984Z</time></trkpt><trkpt lat="45.40183884938383" lon="10.528745889685915"><ele>138.0</ele><time>2026-04-04T14:59:40.984Z</time></trkpt><trkpt lat="45.40175745740059" lon="10.528803605619567"><ele>138.0</ele><time>2026-04-04T14:59:41.984Z</time></trkpt><trkpt lat="45.40167737604491" lon="10.528866302145136"><ele>137.8</ele><time>2026-04-04T14:59:42.984Z</time></trkpt><trkpt lat="45.40159045600185" lon="10.52894122554249"><ele>137.60000000000002</ele><time>2026-04-04T14:59:43.984Z</time></trkpt><trkpt lat="45.40150369557057" lon="10.529008281326208"><ele>137.39999999999998</ele><time>2026-04-04T14:59:44.984Z</time></trkpt><trkpt lat="45.40142189391551" lon="10.52908198453225"><ele>137.2</ele><time>2026-04-04T14:59:45.984Z</time></trkpt><trkpt lat="45.40134065545043" lon="10.529152498988314"><ele>137.0</ele><time>2026-04-04T14:59:46.984Z</time></trkpt><trkpt lat="45.40126806288488" lon="10.529213710447854"><ele>136.83333333333331</ele><time>2026-04-04T14:59:47.984Z</time></trkpt><trkpt lat="45.4012000952318" lon="10.529269310495113"><ele>136.66666666666666</ele><time>2026-04-04T14:59:48.984Z</time></trkpt><trkpt lat="45.40113615395038" lon="10.52932039099916"><ele>136.5</ele><time>2026-04-04T14:59:49.984Z</time></trkpt><trkpt lat="45.40106786714877" lon="10.529381625253501"><ele>136.33333333333334</ele><time>2026-04-04T14:59:50.984Z</time></trkpt><trkpt lat="45.400989181089685" lon="10.529450179368544"><ele>136.16666666666669</ele><time>2026-04-04T14:59:51.984Z</time></trkpt><trkpt lat="45.40090721207617" lon="10.529517251269956"><ele>136.0</ele><time>2026-04-04T14:59:52.984Z</time></trkpt><trkpt lat="45.40082157705042" lon="10.529583849093088"><ele>135.8</ele><time>2026-04-04T14:59:53.984Z</time></trkpt><trkpt lat="45.40073155158774" lon="10.529662228209702"><ele>135.6</ele><time>2026-04-04T14:59:54.984Z</time></trkpt><trkpt lat="45.40064035529658" lon="10.529737224741181"><ele>135.4</ele><time>2026-04-04T14:59:55.984Z</time></trkpt><trkpt lat="45.40054555603104" lon="10.52982163950055"><ele>135.2</ele><time>2026-04-04T14:59:56.984Z</time></trkpt><trkpt lat="45.4004521585334" lon="10.52991116266704"><ele>135.0</ele><time>2026-04-04T14:59:57.984Z</time></trkpt><trkpt lat="45.40035835861175" lon="10.529992585604722"><ele>135.4</ele><time>2026-04-04T14:59:58.984Z</time></trkpt><trkpt lat="45.40026868322282" lon="10.530078270323065"><ele>135.8</ele><time>2026-04-04T14:59:59.984Z</time></trkpt><trkpt lat="45.40018198574193" lon="10.530169750068557"><ele>136.2</ele><time>2026-04-04T15:00:00.984Z</time></trkpt><trkpt lat="45.40009976324045" lon="10.53025073855319"><ele>136.6</ele><time>2026-04-04T15:00:01.984Z</time></trkpt><trkpt lat="45.40002811344311" lon="10.530316977332483"><ele>137.0</ele><time>2026-04-04T15:00:02.984Z</time></trkpt><trkpt lat="45.39996318412666" lon="10.530367591511245"><ele>136.83333333333331</ele><time>2026-04-04T15:00:03.984Z</time></trkpt><trkpt lat="45.39987340742166" lon="10.530440159524868"><ele>136.66666666666666</ele><time>2026-04-04T15:00:05.984Z</time></trkpt><trkpt lat="45.39978663296533" lon="10.530542281685586"><ele>136.5</ele><time>2026-04-04T15:00:07.984Z</time></trkpt><trkpt lat="45.39973103366738" lon="10.530608257320365"><ele>136.33333333333334</ele><time>2026-04-04T15:00:08.984Z</time></trkpt><trkpt lat="45.3996725059427" lon="10.530681223196403"><ele>136.16666666666669</ele><time>2026-04-04T15:00:09.984Z</time></trkpt><trkpt lat="45.39961815770606" lon="10.530753692922769"><ele>136.0</ele><time>2026-04-04T15:00:10.984Z</time></trkpt><trkpt lat="45.39955430112157" lon="10.53082118641496"><ele>135.33333333333334</ele><time>2026-04-04T15:00:11.984Z</time></trkpt><trkpt lat="45.3994958292848" lon="10.530886213522004"><ele>134.66666666666669</ele><time>2026-04-04T15:00:12.984Z</time></trkpt><trkpt lat="45.39944179479992" lon="10.530958624835604"><ele>134.0</ele><time>2026-04-04T15:00:13.984Z</time></trkpt><trkpt lat="45.3993854073957" lon="10.531033037114632"><ele>133.33333333333334</ele><time>2026-04-04T15:00:14.984Z</time></trkpt><trkpt lat="45.39933496408215" lon="10.531113361830487"><ele>132.66666666666666</ele><time>2026-04-04T15:00:15.984Z</time></trkpt><trkpt lat="45.39929715417819" lon="10.531209452811874"><ele>132.0</ele><time>2026-04-04T15:00:16.984Z</time></trkpt><trkpt lat="45.399263183344324" lon="10.531314013757083"><ele>132.0</ele><time>2026-04-04T15:00:17.984Z</time></trkpt><trkpt lat="45.399215604722485" lon="10.5314095531634"><ele>132.0</ele><time>2026-04-04T15:00:18.984Z</time></trkpt><trkpt lat="45.399175022717564" lon="10.531498453457196"><ele>132.0</ele><time>2026-04-04T15:00:19.983Z</time></trkpt><trkpt lat="45.399123151362446" lon="10.531590376267406"><ele>132.0</ele><time>2026-04-04T15:00:20.983Z</time></trkpt><trkpt lat="45.39907220304174" lon="10.531681014814904"><ele>132.0</ele><time>2026-04-04T15:00:21.983Z</time></trkpt><trkpt lat="45.399019792847874" lon="10.53176922017232"><ele>132.0</ele><time>2026-04-04T15:00:22.983Z</time></trkpt><trkpt lat="45.398969667560856" lon="10.531849710557973"><ele>132.0</ele><time>2026-04-04T15:00:23.983Z</time></trkpt><trkpt lat="45.39888812645133" lon="10.53196389816635"><ele>132.0</ele><time>2026-04-04T15:00:25.983Z</time></trkpt><trkpt lat="45.39881178134162" lon="10.532062221505784"><ele>132.0</ele><time>2026-04-04T15:00:27.983Z</time></trkpt><trkpt lat="45.398733776015334" lon="10.532154870239925"><ele>132.0</ele><time>2026-04-04T15:00:29.983Z</time></trkpt><trkpt lat="45.39865433337534" lon="10.532259633247495"><ele>132.0</ele><time>2026-04-04T15:00:31.983Z</time></trkpt><trkpt lat="45.39860609383786" lon="10.532321957850867"><ele>131.2</ele><time>2026-04-04T15:00:32.983Z</time></trkpt><trkpt lat="45.398522563345736" lon="10.532437199808035"><ele>130.39999999999998</ele><time>2026-04-04T15:00:34.983Z</time></trkpt><trkpt lat="45.39847100078657" lon="10.53248989052481"><ele>129.60000000000002</ele><time>2026-04-04T15:00:35.983Z</time></trkpt><trkpt lat="45.398413830631995" lon="10.532527790272557"><ele>128.8</ele><time>2026-04-04T15:00:36.983Z</time></trkpt><trkpt lat="45.39830771156739" lon="10.532545627570599"><ele>128.0</ele><time>2026-04-04T15:00:38.983Z</time></trkpt><trkpt lat="45.39822830403979" lon="10.532422387182327"><ele>128.0</ele><time>2026-04-04T15:00:40.983Z</time></trkpt><trkpt lat="45.3981913092728" lon="10.53229855084713"><ele>128.0</ele><time>2026-04-04T15:00:41.983Z</time></trkpt><trkpt lat="45.39815332040462" lon="10.532165410881607"><ele>128.0</ele><time>2026-04-04T15:00:42.983Z</time></trkpt><trkpt lat="45.398107477130694" lon="10.532035636733161"><ele>128.0</ele><time>2026-04-04T15:00:43.983Z</time></trkpt><trkpt lat="45.39806011907197" lon="10.531908084372347"><ele>128.0</ele><time>2026-04-04T15:00:44.983Z</time></trkpt><trkpt lat="45.39801795406659" lon="10.531775923887322"><ele>126.5</ele><time>2026-04-04T15:00:45.983Z</time></trkpt><trkpt lat="45.397969255398955" lon="10.5316320440303"><ele>125.0</ele><time>2026-04-04T15:00:46.983Z</time></trkpt><trkpt lat="45.397916774155014" lon="10.531491458195944"><ele>123.5</ele><time>2026-04-04T15:00:47.983Z</time></trkpt><trkpt lat="45.39786137193235" lon="10.531344790506813"><ele>122.0</ele><time>2026-04-04T15:00:48.983Z</time></trkpt><trkpt lat="45.39780095749336" lon="10.531187330805754"><ele>122.0</ele><time>2026-04-04T15:00:49.983Z</time></trkpt><trkpt lat="45.39774004595659" lon="10.531014721800464"><ele>122.0</ele><time>2026-04-04T15:00:50.983Z</time></trkpt><trkpt lat="45.397665428304265" lon="10.530844120610254"><ele>122.0</ele><time>2026-04-04T15:00:51.983Z</time></trkpt><trkpt lat="45.397609699086956" lon="10.530682126246615"><ele>122.0</ele><time>2026-04-04T15:00:52.983Z</time></trkpt><trkpt lat="45.39754909462335" lon="10.53051882350257"><ele>122.5</ele><time>2026-04-04T15:00:53.983Z</time></trkpt><trkpt lat="45.39749849407677" lon="10.530362866513496"><ele>123.0</ele><time>2026-04-04T15:00:54.983Z</time></trkpt><trkpt lat="45.39746202939529" lon="10.530185993115955"><ele>123.5</ele><time>2026-04-04T15:00:55.983Z</time></trkpt><trkpt lat="45.39743424239612" lon="10.530001950352537"><ele>124.0</ele><time>2026-04-04T15:00:56.983Z</time></trkpt><trkpt lat="45.397401535616396" lon="10.529812379384925"><ele>124.0</ele><time>2026-04-04T15:00:57.983Z</time></trkpt><trkpt lat="45.3973755498724" lon="10.5296278376296"><ele>124.0</ele><time>2026-04-04T15:00:58.983Z</time></trkpt><trkpt lat="45.39734932021575" lon="10.529444477082363"><ele>124.0</ele><time>2026-04-04T15:00:59.983Z</time></trkpt><trkpt lat="45.39732331897112" lon="10.529257593340978"><ele>124.0</ele><time>2026-04-04T15:01:00.983Z</time></trkpt><trkpt lat="45.39730649136837" lon="10.529073894781629"><ele>124.0</ele><time>2026-04-04T15:01:01.983Z</time></trkpt><trkpt lat="45.397283270385806" lon="10.528878979152548"><ele>124.0</ele><time>2026-04-04T15:01:02.983Z</time></trkpt><trkpt lat="45.39726725263175" lon="10.528684625287283"><ele>124.0</ele><time>2026-04-04T15:01:03.983Z</time></trkpt><trkpt lat="45.39725433715765" lon="10.528499200547401"><ele>124.0</ele><time>2026-04-04T15:01:04.983Z</time></trkpt><trkpt lat="45.39724617649021" lon="10.52829946515205"><ele>124.0</ele><time>2026-04-04T15:01:05.983Z</time></trkpt><trkpt lat="45.39724176809677" lon="10.528099662820761"><ele>124.0</ele><time>2026-04-04T15:01:06.983Z</time></trkpt><trkpt lat="45.3972373972174" lon="10.527895602832826"><ele>124.0</ele><time>2026-04-04T15:01:07.983Z</time></trkpt><trkpt lat="45.39723210991019" lon="10.527699764367712"><ele>124.0</ele><time>2026-04-04T15:01:08.982Z</time></trkpt><trkpt lat="45.397225681151795" lon="10.527509386012383"><ele>124.25</ele><time>2026-04-04T15:01:09.982Z</time></trkpt><trkpt lat="45.39721641223455" lon="10.527325878030299"><ele>124.5</ele><time>2026-04-04T15:01:10.982Z</time></trkpt><trkpt lat="45.39720928965229" lon="10.527147969128114"><ele>124.75</ele><time>2026-04-04T15:01:11.982Z</time></trkpt><trkpt lat="45.39720736836452" lon="10.52699965846704"><ele>125.0</ele><time>2026-04-04T15:01:12.982Z</time></trkpt><trkpt lat="45.397202352585175" lon="10.526860546721405"><ele>124.2</ele><time>2026-04-04T15:01:13.982Z</time></trkpt><trkpt lat="45.39719501733837" lon="10.52673290296919"><ele>123.4</ele><time>2026-04-04T15:01:14.982Z</time></trkpt><trkpt lat="45.39718511518453" lon="10.526632656587715"><ele>122.6</ele><time>2026-04-04T15:01:15.982Z</time></trkpt><trkpt lat="45.39708694958149" lon="10.52649343218689"><ele>121.8</ele><time>2026-04-04T15:01:17.982Z</time></trkpt><trkpt lat="45.396985618291254" lon="10.526455916807922"><ele>121.0</ele><time>2026-04-04T15:01:18.982Z</time></trkpt><trkpt lat="45.396859385627145" lon="10.52642090210424"><ele>121.0</ele><time>2026-04-04T15:01:19.982Z</time></trkpt><trkpt lat="45.39672932891987" lon="10.52637337417208"><ele>121.0</ele><time>2026-04-04T15:01:20.982Z</time></trkpt><trkpt lat="45.3966032789421" lon="10.526316092354731"><ele>121.0</ele><time>2026-04-04T15:01:21.982Z</time></trkpt><trkpt lat="45.39647408715927" lon="10.526246251827143"><ele>121.0</ele><time>2026-04-04T15:01:22.982Z</time></trkpt><trkpt lat="45.396341159609506" lon="10.526153211555945"><ele>121.33333333333334</ele><time>2026-04-04T15:01:23.982Z</time></trkpt><trkpt lat="45.3962126836279" lon="10.526033278897755"><ele>121.66666666666666</ele><time>2026-04-04T15:01:24.982Z</time></trkpt><trkpt lat="45.396078740867154" lon="10.525911819932025"><ele>122.0</ele><time>2026-04-04T15:01:25.982Z</time></trkpt><trkpt lat="45.39592583184936" lon="10.52578990166647"><ele>122.0</ele><time>2026-04-04T15:01:26.982Z</time></trkpt><trkpt lat="45.395769311535126" lon="10.525679491439366"><ele>122.0</ele><time>2026-04-04T15:01:27.982Z</time></trkpt><trkpt lat="45.39560757130413" lon="10.525588029643796"><ele>122.0</ele><time>2026-04-04T15:01:28.982Z</time></trkpt><trkpt lat="45.39543186424964" lon="10.52550998978374"><ele>122.66666666666666</ele><time>2026-04-04T15:01:29.982Z</time></trkpt><trkpt lat="45.39524851259694" lon="10.525426075441272"><ele>123.33333333333334</ele><time>2026-04-04T15:01:30.985Z</time></trkpt><trkpt lat="45.39506861139251" lon="10.525349847195864"><ele>124.0</ele><time>2026-04-04T15:01:31.985Z</time></trkpt><trkpt lat="45.39490440768088" lon="10.525288620110857"><ele>125.5</ele><time>2026-04-04T15:01:32.985Z</time></trkpt><trkpt lat="45.39476031655531" lon="10.525232416672564"><ele>127.0</ele><time>2026-04-04T15:01:33.985Z</time></trkpt><trkpt lat="45.39464154695176" lon="10.525170813177247"><ele>128.5</ele><time>2026-04-04T15:01:34.985Z</time></trkpt><trkpt lat="45.394547783862585" lon="10.525077591932652"><ele>130.0</ele><time>2026-04-04T15:01:35.985Z</time></trkpt><trkpt lat="45.394464122900075" lon="10.524953856667041"><ele>130.0</ele><time>2026-04-04T15:01:36.985Z</time></trkpt><trkpt lat="45.39439549165964" lon="10.524802976131008"><ele>130.0</ele><time>2026-04-04T15:01:37.985Z</time></trkpt><trkpt lat="45.39433362020846" lon="10.524654286707301"><ele>130.0</ele><time>2026-04-04T15:01:38.985Z</time></trkpt><trkpt lat="45.39426944295044" lon="10.524540002299048"><ele>130.0</ele><time>2026-04-04T15:01:39.985Z</time></trkpt><trkpt lat="45.39420844611998" lon="10.524465078602582"><ele>130.0</ele><time>2026-04-04T15:01:40.985Z</time></trkpt><trkpt lat="45.39409777152004" lon="10.524468061078533"><ele>130.0</ele><time>2026-04-04T15:01:42.985Z</time></trkpt><trkpt lat="45.3940300810509" lon="10.524541011182626"><ele>130.0</ele><time>2026-04-04T15:01:43.985Z</time></trkpt><trkpt lat="45.39394115146241" lon="10.524651160513812"><ele>130.0</ele><time>2026-04-04T15:01:44.985Z</time></trkpt><trkpt lat="45.39384321828774" lon="10.52476553570614"><ele>130.0</ele><time>2026-04-04T15:01:45.985Z</time></trkpt><trkpt lat="45.393738258025955" lon="10.524882120052748"><ele>130.33333333333334</ele><time>2026-04-04T15:01:46.985Z</time></trkpt><trkpt lat="45.39363090748198" lon="10.525016583660944"><ele>130.66666666666666</ele><time>2026-04-04T15:01:47.985Z</time></trkpt><trkpt lat="45.39351970628582" lon="10.525164235768912"><ele>131.0</ele><time>2026-04-04T15:01:48.985Z</time></trkpt><trkpt lat="45.39339705248878" lon="10.525312279929718"><ele>130.0</ele><time>2026-04-04T15:01:49.985Z</time></trkpt><trkpt lat="45.39327800566218" lon="10.525457052107829"><ele>129.0</ele><time>2026-04-04T15:01:50.985Z</time></trkpt><trkpt lat="45.393160662363" lon="10.525624054089601"><ele>128.0</ele><time>2026-04-04T15:01:51.985Z</time></trkpt><trkpt lat="45.39304617943123" lon="10.52579377537824"><ele>128.66666666666666</ele><time>2026-04-04T15:01:52.985Z</time></trkpt><trkpt lat="45.39293156861765" lon="10.52596006265567"><ele>129.33333333333334</ele><time>2026-04-04T15:01:53.985Z</time></trkpt><trkpt lat="45.39282104044097" lon="10.526110205788935"><ele>130.0</ele><time>2026-04-04T15:01:54.984Z</time></trkpt><trkpt lat="45.39272344801861" lon="10.526247056083136"><ele>130.0</ele><time>2026-04-04T15:01:55.984Z</time></trkpt><trkpt lat="45.39262853246195" lon="10.526373542568388"><ele>130.0</ele><time>2026-04-04T15:01:56.984Z</time></trkpt><trkpt lat="45.39252936216511" lon="10.52648933570639"><ele>130.0</ele><time>2026-04-04T15:01:57.984Z</time></trkpt><trkpt lat="45.39241544241509" lon="10.526596256749187"><ele>130.0</ele><time>2026-04-04T15:01:58.984Z</time></trkpt><trkpt lat="45.3922842895216" lon="10.52667408877932"><ele>131.66666666666669</ele><time>2026-04-04T15:01:59.984Z</time></trkpt><trkpt lat="45.392145070869255" lon="10.526702683752658"><ele>133.33333333333334</ele><time>2026-04-04T15:02:00.984Z</time></trkpt><trkpt lat="45.391987419432034" lon="10.526719424274912"><ele>135.0</ele><time>2026-04-04T15:02:01.984Z</time></trkpt><trkpt lat="45.391833541369515" lon="10.526710954185134"><ele>135.0</ele><time>2026-04-04T15:02:02.984Z</time></trkpt><trkpt lat="45.39167790536262" lon="10.526701479454694"><ele>135.0</ele><time>2026-04-04T15:02:03.984Z</time></trkpt><trkpt lat="45.39152366790176" lon="10.526702013068373"><ele>135.0</ele><time>2026-04-04T15:02:04.984Z</time></trkpt><trkpt lat="45.39136869473387" lon="10.526716831162735"><ele>135.66666666666666</ele><time>2026-04-04T15:02:05.984Z</time></trkpt><trkpt lat="45.39121378146555" lon="10.526749353622908"><ele>136.33333333333331</ele><time>2026-04-04T15:02:06.984Z</time></trkpt><trkpt lat="45.39105822329474" lon="10.526781719015016"><ele>137.0</ele><time>2026-04-04T15:02:07.984Z</time></trkpt><trkpt lat="45.39090839994178" lon="10.526816169954259"><ele>137.0</ele><time>2026-04-04T15:02:08.984Z</time></trkpt><trkpt lat="45.39076539777158" lon="10.526858902217377"><ele>137.0</ele><time>2026-04-04T15:02:09.984Z</time></trkpt><trkpt lat="45.39062101834449" lon="10.526906562839908"><ele>137.0</ele><time>2026-04-04T15:02:10.984Z</time></trkpt><trkpt lat="45.39048397234233" lon="10.526958483878776"><ele>137.0</ele><time>2026-04-04T15:02:11.984Z</time></trkpt><trkpt lat="45.39034451671833" lon="10.52701810973118"><ele>138.0</ele><time>2026-04-04T15:02:12.984Z</time></trkpt><trkpt lat="45.39021106977459" lon="10.52709011625633"><ele>139.0</ele><time>2026-04-04T15:02:13.984Z</time></trkpt><trkpt lat="45.39007694779121" lon="10.527169891286036"><ele>140.0</ele><time>2026-04-04T15:02:14.984Z</time></trkpt><trkpt lat="45.389953699137344" lon="10.527250933947563"><ele>141.0</ele><time>2026-04-04T15:02:15.984Z</time></trkpt><trkpt lat="45.389836009679804" lon="10.527324188134456"><ele>141.0</ele><time>2026-04-04T15:02:16.984Z</time></trkpt><trkpt lat="45.38971887155467" lon="10.52739905483891"><ele>141.0</ele><time>2026-04-04T15:02:17.984Z</time></trkpt><trkpt lat="45.38959506008919" lon="10.527479443947406"><ele>141.0</ele><time>2026-04-04T15:02:18.984Z</time></trkpt><trkpt lat="45.38947918703285" lon="10.527564797822585"><ele>141.0</ele><time>2026-04-04T15:02:19.984Z</time></trkpt><trkpt lat="45.38936694474664" lon="10.52766430206431"><ele>140.5</ele><time>2026-04-04T15:02:20.984Z</time></trkpt><trkpt lat="45.389251300636516" lon="10.527764834498324"><ele>140.0</ele><time>2026-04-04T15:02:21.984Z</time></trkpt><trkpt lat="45.38913710448" lon="10.52787143902855"><ele>139.5</ele><time>2026-04-04T15:02:22.984Z</time></trkpt><trkpt lat="45.389019724323575" lon="10.527978225717609"><ele>139.0</ele><time>2026-04-04T15:02:23.984Z</time></trkpt><trkpt lat="45.38890098680419" lon="10.52809295784918"><ele>138.75</ele><time>2026-04-04T15:02:24.984Z</time></trkpt><trkpt lat="45.388780606575644" lon="10.528195583549742"><ele>138.5</ele><time>2026-04-04T15:02:25.984Z</time></trkpt><trkpt lat="45.38866655240683" lon="10.528297537202807"><ele>138.25</ele><time>2026-04-04T15:02:26.984Z</time></trkpt><trkpt lat="45.38856214038599" lon="10.528390635965179"><ele>138.0</ele><time>2026-04-04T15:02:27.984Z</time></trkpt><trkpt lat="45.38846525983437" lon="10.52847124545252"><ele>138.0</ele><time>2026-04-04T15:02:28.984Z</time></trkpt><trkpt lat="45.38836525911735" lon="10.528565286158482"><ele>138.0</ele><time>2026-04-04T15:02:29.984Z</time></trkpt><trkpt lat="45.388271764589724" lon="10.528651992463722"><ele>138.0</ele><time>2026-04-04T15:02:30.984Z</time></trkpt><trkpt lat="45.38818064066057" lon="10.528749833628128"><ele>138.0</ele><time>2026-04-04T15:02:31.984Z</time></trkpt><trkpt lat="45.38810050365835" lon="10.52883458060552"><ele>138.0</ele><time>2026-04-04T15:02:32.984Z</time></trkpt><trkpt lat="45.38802393879769" lon="10.528919266861925"><ele>137.33333333333334</ele><time>2026-04-04T15:02:33.984Z</time></trkpt><trkpt lat="45.38795493602754" lon="10.529016575039746"><ele>136.66666666666666</ele><time>2026-04-04T15:02:34.984Z</time></trkpt><trkpt lat="45.387885977006796" lon="10.529110110067606"><ele>136.0</ele><time>2026-04-04T15:02:35.984Z</time></trkpt><trkpt lat="45.38782447657305" lon="10.529195075379574"><ele>135.33333333333331</ele><time>2026-04-04T15:02:36.984Z</time></trkpt><trkpt lat="45.38776835056326" lon="10.529260337370319"><ele>134.66666666666666</ele><time>2026-04-04T15:02:37.984Z</time></trkpt><trkpt lat="45.3877040303562" lon="10.529301485001627"><ele>134.0</ele><time>2026-04-04T15:02:38.984Z</time></trkpt><trkpt lat="45.387624187033204" lon="10.52930387100493"><ele>134.0</ele><time>2026-04-04T15:02:39.984Z</time></trkpt><trkpt lat="45.3875249081886" lon="10.529256187745288"><ele>134.0</ele><time>2026-04-04T15:02:40.984Z</time></trkpt><trkpt lat="45.3874184134685" lon="10.52917077163963"><ele>134.0</ele><time>2026-04-04T15:02:41.984Z</time></trkpt><trkpt lat="45.38729769894125" lon="10.52909594870384"><ele>134.0</ele><time>2026-04-04T15:02:42.984Z</time></trkpt><trkpt lat="45.38717893739658" lon="10.529029969033468"><ele>133.5</ele><time>2026-04-04T15:02:43.983Z</time></trkpt><trkpt lat="45.38704930540776" lon="10.528965568616453"><ele>133.0</ele><time>2026-04-04T15:02:44.983Z</time></trkpt><trkpt lat="45.38691511407512" lon="10.528897819213883"><ele>132.5</ele><time>2026-04-04T15:02:45.983Z</time></trkpt><trkpt lat="45.38678771065448" lon="10.528828496297615"><ele>132.0</ele><time>2026-04-04T15:02:46.983Z</time></trkpt><trkpt lat="45.38665877921857" lon="10.528757819845517"><ele>132.75</ele><time>2026-04-04T15:02:47.983Z</time></trkpt><trkpt lat="45.38652778484298" lon="10.528692175093028"><ele>133.5</ele><time>2026-04-04T15:02:48.983Z</time></trkpt><trkpt lat="45.38638974798515" lon="10.52864161509546"><ele>134.25</ele><time>2026-04-04T15:02:49.983Z</time></trkpt><trkpt lat="45.386246633551295" lon="10.528608440193382"><ele>135.0</ele><time>2026-04-04T15:02:50.983Z</time></trkpt><trkpt lat="45.38610158912801" lon="10.528583741616812"><ele>135.0</ele><time>2026-04-04T15:02:51.983Z</time></trkpt><trkpt lat="45.385951442673154" lon="10.528548643486197"><ele>135.0</ele><time>2026-04-04T15:02:52.983Z</time></trkpt><trkpt lat="45.38580976264754" lon="10.528513349476851"><ele>135.0</ele><time>2026-04-04T15:02:53.983Z</time></trkpt><trkpt lat="45.385663912098224" lon="10.528477144709022"><ele>135.0</ele><time>2026-04-04T15:02:54.983Z</time></trkpt><trkpt lat="45.385516852855595" lon="10.528448484334666"><ele>133.75</ele><time>2026-04-04T15:02:55.983Z</time></trkpt><trkpt lat="45.385369477705844" lon="10.528418756901607"><ele>132.5</ele><time>2026-04-04T15:02:56.983Z</time></trkpt><trkpt lat="45.38522905712785" lon="10.52838591058259"><ele>131.25</ele><time>2026-04-04T15:02:57.983Z</time></trkpt><trkpt lat="45.38508596712861" lon="10.528353108393626"><ele>130.0</ele><time>2026-04-04T15:02:58.983Z</time></trkpt><trkpt lat="45.38494678375755" lon="10.528318970982808"><ele>130.0</ele><time>2026-04-04T15:02:59.983Z</time></trkpt><trkpt lat="45.38480848725881" lon="10.528284611689587"><ele>130.0</ele><time>2026-04-04T15:03:00.983Z</time></trkpt><trkpt lat="45.384668583820066" lon="10.52824892230975"><ele>130.0</ele><time>2026-04-04T15:03:01.983Z</time></trkpt><trkpt lat="45.38453449682978" lon="10.528219394265202"><ele>130.0</ele><time>2026-04-04T15:03:02.983Z</time></trkpt><trkpt lat="45.38440299196968" lon="10.52819366881914"><ele>130.25</ele><time>2026-04-04T15:03:03.983Z</time></trkpt><trkpt lat="45.38428795578816" lon="10.528181993853929"><ele>130.5</ele><time>2026-04-04T15:03:04.983Z</time></trkpt><trkpt lat="45.38417179332236" lon="10.52819068345114"><ele>130.75</ele><time>2026-04-04T15:03:05.983Z</time></trkpt><trkpt lat="45.384048564373344" lon="10.528204438285888"><ele>131.0</ele><time>2026-04-04T15:03:06.983Z</time></trkpt><trkpt lat="45.3839310340646" lon="10.528206406064543"><ele>130.66666666666666</ele><time>2026-04-04T15:03:07.983Z</time></trkpt><trkpt lat="45.383822403425704" lon="10.528199996827022"><ele>130.33333333333331</ele><time>2026-04-04T15:03:08.983Z</time></trkpt><trkpt lat="45.383727624241516" lon="10.528190838910676"><ele>130.0</ele><time>2026-04-04T15:03:09.983Z</time></trkpt><trkpt lat="45.38364780661577" lon="10.52817717345885"><ele>129.66666666666666</ele><time>2026-04-04T15:03:10.983Z</time></trkpt><trkpt lat="45.383576135366845" lon="10.528155796161649"><ele>129.33333333333334</ele><time>2026-04-04T15:03:11.983Z</time></trkpt><trkpt lat="45.38351096658731" lon="10.52808652728588"><ele>129.0</ele><time>2026-04-04T15:03:12.983Z</time></trkpt><trkpt lat="45.38343313555708" lon="10.528050006180681"><ele>129.0</ele><time>2026-04-04T15:03:13.983Z</time></trkpt><trkpt lat="45.38335899313325" lon="10.52800463596419"><ele>129.0</ele><time>2026-04-04T15:03:14.983Z</time></trkpt><trkpt lat="45.383277303505785" lon="10.527958346195295"><ele>129.0</ele><time>2026-04-04T15:03:15.983Z</time></trkpt><trkpt lat="45.383191507350915" lon="10.527908167918385"><ele>129.0</ele><time>2026-04-04T15:03:16.983Z</time></trkpt><trkpt lat="45.38310187868456" lon="10.527855748176945"><ele>129.0</ele><time>2026-04-04T15:03:17.983Z</time></trkpt><trkpt lat="45.38300253685827" lon="10.52782104920958"><ele>128.8</ele><time>2026-04-04T15:03:18.983Z</time></trkpt><trkpt lat="45.38291123958267" lon="10.52775949020402"><ele>128.60000000000002</ele><time>2026-04-04T15:03:19.983Z</time></trkpt><trkpt lat="45.382812655776114" lon="10.52770022252885"><ele>128.4</ele><time>2026-04-04T15:03:20.983Z</time></trkpt><trkpt lat="45.3827109329652" lon="10.527639258218757"><ele>128.20000000000002</ele><time>2026-04-04T15:03:21.983Z</time></trkpt><trkpt lat="45.38260068695391" lon="10.527578145645844"><ele>128.0</ele><time>2026-04-04T15:03:22.983Z</time></trkpt><trkpt lat="45.38248570562212" lon="10.527517738323493"><ele>128.0</ele><time>2026-04-04T15:03:23.983Z</time></trkpt><trkpt lat="45.382364698713616" lon="10.527463269310223"><ele>128.0</ele><time>2026-04-04T15:03:24.983Z</time></trkpt><trkpt lat="45.38224595868979" lon="10.527420932505137"><ele>128.0</ele><time>2026-04-04T15:03:25.983Z</time></trkpt><trkpt lat="45.382114244261956" lon="10.527386359108007"><ele>128.0</ele><time>2026-04-04T15:03:26.983Z</time></trkpt><trkpt lat="45.381983676030025" lon="10.52733305313598"><ele>127.75</ele><time>2026-04-04T15:03:27.983Z</time></trkpt><trkpt lat="45.38185434850981" lon="10.527305624902983"><ele>127.5</ele><time>2026-04-04T15:03:28.983Z</time></trkpt><trkpt lat="45.38172445033836" lon="10.527279874339731"><ele>127.25</ele><time>2026-04-04T15:03:29.983Z</time></trkpt><trkpt lat="45.38159676720225" lon="10.527256339368348"><ele>127.0</ele><time>2026-04-04T15:03:30.983Z</time></trkpt><trkpt lat="45.38147308603983" lon="10.527229138492816"><ele>127.0</ele><time>2026-04-04T15:03:31.983Z</time></trkpt><trkpt lat="45.381348117121505" lon="10.52720020856442"><ele>127.0</ele><time>2026-04-04T15:03:32.982Z</time></trkpt><trkpt lat="45.38122416707965" lon="10.527163908155295"><ele>127.0</ele><time>2026-04-04T15:03:33.982Z</time></trkpt><trkpt lat="45.38110380120114" lon="10.527123082088883"><ele>127.0</ele><time>2026-04-04T15:03:34.982Z</time></trkpt><trkpt lat="45.38098525133552" lon="10.527075430184366"><ele>126.5</ele><time>2026-04-04T15:03:35.982Z</time></trkpt><trkpt lat="45.38086954628837" lon="10.527010824366183"><ele>126.0</ele><time>2026-04-04T15:03:36.985Z</time></trkpt><trkpt lat="45.38075569385161" lon="10.526929510588703"><ele>125.5</ele><time>2026-04-04T15:03:37.985Z</time></trkpt><trkpt lat="45.38063945099165" lon="10.526842170226535"><ele>125.0</ele><time>2026-04-04T15:03:38.985Z</time></trkpt><trkpt lat="45.3805272226735" lon="10.52675518929255"><ele>124.75</ele><time>2026-04-04T15:03:39.985Z</time></trkpt><trkpt lat="45.380409876453065" lon="10.52667446125166"><ele>124.5</ele><time>2026-04-04T15:03:40.985Z</time></trkpt><trkpt lat="45.38028880427674" lon="10.526601239182481"><ele>124.25</ele><time>2026-04-04T15:03:41.985Z</time></trkpt><trkpt lat="45.38016638373709" lon="10.526539292698772"><ele>124.0</ele><time>2026-04-04T15:03:42.985Z</time></trkpt><trkpt lat="45.380043770640185" lon="10.526486577157833"><ele>124.0</ele><time>2026-04-04T15:03:43.985Z</time></trkpt><trkpt lat="45.37992278227147" lon="10.526445383983777"><ele>124.0</ele><time>2026-04-04T15:03:44.985Z</time></trkpt><trkpt lat="45.37980709821527" lon="10.526390832786971"><ele>124.0</ele><time>2026-04-04T15:03:45.985Z</time></trkpt><trkpt lat="45.37968204396492" lon="10.526357814734808"><ele>124.0</ele><time>2026-04-04T15:03:46.985Z</time></trkpt><trkpt lat="45.37955634175727" lon="10.526327685566283"><ele>123.75</ele><time>2026-04-04T15:03:47.985Z</time></trkpt><trkpt lat="45.379438908102216" lon="10.526302154679883"><ele>123.5</ele><time>2026-04-04T15:03:48.985Z</time></trkpt><trkpt lat="45.37932219932383" lon="10.526281632472985"><ele>123.25</ele><time>2026-04-04T15:03:49.984Z</time></trkpt><trkpt lat="45.3792062678487" lon="10.526271594647563"><ele>123.0</ele><time>2026-04-04T15:03:50.984Z</time></trkpt><trkpt lat="45.379090091941286" lon="10.52628722409953"><ele>123.0</ele><time>2026-04-04T15:03:51.984Z</time></trkpt><trkpt lat="45.37897994467826" lon="10.526334273237046"><ele>123.0</ele><time>2026-04-04T15:03:52.984Z</time></trkpt><trkpt lat="45.3788750009216" lon="10.526417788729145"><ele>123.0</ele><time>2026-04-04T15:03:53.984Z</time></trkpt><trkpt lat="45.37877325416327" lon="10.526493320325706"><ele>123.0</ele><time>2026-04-04T15:03:54.984Z</time></trkpt><trkpt lat="45.378669969852716" lon="10.526581044970516"><ele>122.5</ele><time>2026-04-04T15:03:55.984Z</time></trkpt><trkpt lat="45.37856902103088" lon="10.526667905879282"><ele>122.0</ele><time>2026-04-04T15:03:56.984Z</time></trkpt><trkpt lat="45.37846675762268" lon="10.52676941425746"><ele>121.5</ele><time>2026-04-04T15:03:57.984Z</time></trkpt><trkpt lat="45.378361478875235" lon="10.526855762037757"><ele>121.0</ele><time>2026-04-04T15:03:58.984Z</time></trkpt><trkpt lat="45.378259879656774" lon="10.526942820021885"><ele>121.0</ele><time>2026-04-04T15:03:59.984Z</time></trkpt><trkpt lat="45.37815918193139" lon="10.527039043324748"><ele>121.0</ele><time>2026-04-04T15:04:00.984Z</time></trkpt><trkpt lat="45.37805967909736" lon="10.527140705308224"><ele>121.0</ele><time>2026-04-04T15:04:01.984Z</time></trkpt><trkpt lat="45.377956975353385" lon="10.52724114187"><ele>121.0</ele><time>2026-04-04T15:04:02.984Z</time></trkpt><trkpt lat="45.37785430191759" lon="10.527331707397268"><ele>121.0</ele><time>2026-04-04T15:04:03.984Z</time></trkpt><trkpt lat="45.37775112793278" lon="10.527423796012839"><ele>121.0</ele><time>2026-04-04T15:04:04.984Z</time></trkpt><trkpt lat="45.37765574605716" lon="10.527519803264264"><ele>121.0</ele><time>2026-04-04T15:04:05.984Z</time></trkpt><trkpt lat="45.37756592370239" lon="10.527617138180743"><ele>121.0</ele><time>2026-04-04T15:04:06.984Z</time></trkpt><trkpt lat="45.37748423518518" lon="10.527712399342903"><ele>121.0</ele><time>2026-04-04T15:04:07.984Z</time></trkpt><trkpt lat="45.37740128644135" lon="10.527818671132328"><ele>121.0</ele><time>2026-04-04T15:04:08.984Z</time></trkpt><trkpt lat="45.37732144448495" lon="10.527927473694564"><ele>121.0</ele><time>2026-04-04T15:04:09.984Z</time></trkpt><trkpt lat="45.377245382148274" lon="10.528031633385293"><ele>121.0</ele><time>2026-04-04T15:04:10.984Z</time></trkpt><trkpt lat="45.37717287218833" lon="10.528123791116759"><ele>121.0</ele><time>2026-04-04T15:04:11.984Z</time></trkpt><trkpt lat="45.37709358790861" lon="10.52820561508125"><ele>121.0</ele><time>2026-04-04T15:04:12.984Z</time></trkpt><trkpt lat="45.37700929997904" lon="10.528265339023783"><ele>121.0</ele><time>2026-04-04T15:04:13.984Z</time></trkpt><trkpt lat="45.3769063372399" lon="10.528299833452063"><ele>121.0</ele><time>2026-04-04T15:04:14.984Z</time></trkpt><trkpt lat="45.376811117929265" lon="10.528344303698821"><ele>121.0</ele><time>2026-04-04T15:04:15.984Z</time></trkpt><trkpt lat="45.37670904532424" lon="10.528383448424723"><ele>121.0</ele><time>2026-04-04T15:04:16.984Z</time></trkpt><trkpt lat="45.37660986182044" lon="10.528433949420469"><ele>121.0</ele><time>2026-04-04T15:04:17.984Z</time></trkpt><trkpt lat="45.376509768425116" lon="10.528478255355093"><ele>121.0</ele><time>2026-04-04T15:04:18.984Z</time></trkpt><trkpt lat="45.37640603155773" lon="10.528521520173415"><ele>121.0</ele><time>2026-04-04T15:04:19.984Z</time></trkpt><trkpt lat="45.37630025369629" lon="10.528571820736884"><ele>121.0</ele><time>2026-04-04T15:04:20.984Z</time></trkpt><trkpt lat="45.3761964151021" lon="10.52862005680321"><ele>121.0</ele><time>2026-04-04T15:04:21.984Z</time></trkpt><trkpt lat="45.376096294142116" lon="10.528664984477636"><ele>121.0</ele><time>2026-04-04T15:04:22.984Z</time></trkpt><trkpt lat="45.37599524875422" lon="10.528708468839005"><ele>121.0</ele><time>2026-04-04T15:04:23.984Z</time></trkpt><trkpt lat="45.37589352551497" lon="10.52874701583264"><ele>121.0</ele><time>2026-04-04T15:04:24.984Z</time></trkpt><trkpt lat="45.375790763407124" lon="10.528777212349818"><ele>121.0</ele><time>2026-04-04T15:04:25.984Z</time></trkpt><trkpt lat="45.37568724770792" lon="10.528794435937142"><ele>121.0</ele><time>2026-04-04T15:04:26.984Z</time></trkpt><trkpt lat="45.375586587732826" lon="10.52881859829629"><ele>120.19999999999999</ele><time>2026-04-04T15:04:27.984Z</time></trkpt><trkpt lat="45.375489068565976" lon="10.528810878738081"><ele>119.39999999999999</ele><time>2026-04-04T15:04:28.984Z</time></trkpt><trkpt lat="45.37539753708421" lon="10.528821982228433"><ele>118.6</ele><time>2026-04-04T15:04:29.984Z</time></trkpt><trkpt lat="45.375307083982904" lon="10.528840718500206"><ele>117.8</ele><time>2026-04-04T15:04:30.984Z</time></trkpt><trkpt lat="45.37520653315526" lon="10.528854512908042"><ele>117.0</ele><time>2026-04-04T15:04:31.984Z</time></trkpt><trkpt lat="45.37510897041565" lon="10.528879628171635"><ele>117.0</ele><time>2026-04-04T15:04:32.984Z</time></trkpt><trkpt lat="45.375015299015445" lon="10.528891973774934"><ele>116.99999999999999</ele><time>2026-04-04T15:04:33.984Z</time></trkpt><trkpt lat="45.3749184754537" lon="10.528888779428565"><ele>116.99999999999999</ele><time>2026-04-04T15:04:34.984Z</time></trkpt><trkpt lat="45.37481997116829" lon="10.528886783411242"><ele>117.0</ele><time>2026-04-04T15:04:35.984Z</time></trkpt><trkpt lat="45.37472466755714" lon="10.528856355967683"><ele>117.0</ele><time>2026-04-04T15:04:36.984Z</time></trkpt><trkpt lat="45.374639366467186" lon="10.528821578317615"><ele>116.83333333333333</ele><time>2026-04-04T15:04:37.984Z</time></trkpt><trkpt lat="45.37456266599237" lon="10.528781665601645"><ele>116.66666666666666</ele><time>2026-04-04T15:04:38.983Z</time></trkpt><trkpt lat="45.374502442802" lon="10.528744145146888"><ele>116.5</ele><time>2026-04-04T15:04:39.983Z</time></trkpt><trkpt lat="45.374437619627535" lon="10.528724178043946"><ele>116.33333333333333</ele><time>2026-04-04T15:04:40.983Z</time></trkpt><trkpt lat="45.37436767651507" lon="10.528672258256687"><ele>116.16666666666666</ele><time>2026-04-04T15:04:41.983Z</time></trkpt><trkpt lat="45.374282175196925" lon="10.52863020855101"><ele>116.0</ele><time>2026-04-04T15:04:42.983Z</time></trkpt><trkpt lat="45.37418329262202" lon="10.528581479700083"><ele>115.25</ele><time>2026-04-04T15:04:43.983Z</time></trkpt><trkpt lat="45.374063507288405" lon="10.528521241628841"><ele>114.5</ele><time>2026-04-04T15:04:44.983Z</time></trkpt><trkpt lat="45.37395870334858" lon="10.528468537441086"><ele>113.75</ele><time>2026-04-04T15:04:45.983Z</time></trkpt><trkpt lat="45.3738523671763" lon="10.528434449201425"><ele>113.0</ele><time>2026-04-04T15:04:46.983Z</time></trkpt><trkpt lat="45.37375582041412" lon="10.528381956472229"><ele>112.80000000000001</ele><time>2026-04-04T15:04:47.983Z</time></trkpt><trkpt lat="45.37365594691925" lon="10.528337545591246"><ele>112.60000000000001</ele><time>2026-04-04T15:04:48.983Z</time></trkpt><trkpt lat="45.373550383555056" lon="10.528288890329904"><ele>112.39999999999999</ele><time>2026-04-04T15:04:49.983Z</time></trkpt><trkpt lat="45.37345675659162" lon="10.528253789653286"><ele>112.19999999999999</ele><time>2026-04-04T15:04:50.983Z</time></trkpt><trkpt lat="45.37334388763043" lon="10.528208549456428"><ele>112.0</ele><time>2026-04-04T15:04:51.983Z</time></trkpt><trkpt lat="45.373236506143144" lon="10.52816496442205"><ele>112.0</ele><time>2026-04-04T15:04:52.983Z</time></trkpt><trkpt lat="45.37313405523976" lon="10.528122507245396"><ele>111.99999999999999</ele><time>2026-04-04T15:04:53.983Z</time></trkpt><trkpt lat="45.37303996114868" lon="10.528062565196217"><ele>111.99999999999999</ele><time>2026-04-04T15:04:54.983Z</time></trkpt><trkpt lat="45.37293489602383" lon="10.52802069810001"><ele>112.0</ele><time>2026-04-04T15:04:55.983Z</time></trkpt><trkpt lat="45.37283526514049" lon="10.527978553495164"><ele>112.0</ele><time>2026-04-04T15:04:56.983Z</time></trkpt><trkpt lat="45.37273253672881" lon="10.527928853334682"><ele>111.39999999999999</ele><time>2026-04-04T15:04:57.983Z</time></trkpt><trkpt lat="45.3726256367251" lon="10.527885326690088"><ele>110.79999999999998</ele><time>2026-04-04T15:04:58.983Z</time></trkpt><trkpt lat="45.372529636535404" lon="10.527841102023851"><ele>110.2</ele><time>2026-04-04T15:04:59.983Z</time></trkpt><trkpt lat="45.37243635317478" lon="10.527805667951656"><ele>109.6</ele><time>2026-04-04T15:05:00.983Z</time></trkpt><trkpt lat="45.37235499511269" lon="10.527770592295504"><ele>109.0</ele><time>2026-04-04T15:05:01.983Z</time></trkpt><trkpt lat="45.37228859071061" lon="10.527738464502933"><ele>109.0</ele><time>2026-04-04T15:05:02.983Z</time></trkpt><trkpt lat="45.37220909921269" lon="10.527686044933644"><ele>109.0</ele><time>2026-04-04T15:05:04.983Z</time></trkpt><trkpt lat="45.37213695175835" lon="10.527664819677595"><ele>109.0</ele><time>2026-04-04T15:05:07.983Z</time></trkpt><trkpt lat="45.37207865399728" lon="10.527807056208024"><ele>109.0</ele><time>2026-04-04T15:05:08.983Z</time></trkpt><trkpt lat="45.37202193935671" lon="10.527914801185908"><ele>109.0</ele><time>2026-04-04T15:05:09.983Z</time></trkpt><trkpt lat="45.37198460902696" lon="10.52804506581505"><ele>109.25</ele><time>2026-04-04T15:05:10.983Z</time></trkpt><trkpt lat="45.37192718941611" lon="10.528180288729459"><ele>109.5</ele><time>2026-04-04T15:05:11.983Z</time></trkpt><trkpt lat="45.37186424812611" lon="10.52832882299137"><ele>109.75</ele><time>2026-04-04T15:05:12.983Z</time></trkpt><trkpt lat="45.37179686880605" lon="10.5284834943158"><ele>110.0</ele><time>2026-04-04T15:05:13.983Z</time></trkpt><trkpt lat="45.37172691789774" lon="10.528634913821115"><ele>110.25</ele><time>2026-04-04T15:05:14.983Z</time></trkpt><trkpt lat="45.37165377124089" lon="10.52879220100499"><ele>110.5</ele><time>2026-04-04T15:05:15.983Z</time></trkpt><trkpt lat="45.37158362455962" lon="10.528958320298653"><ele>110.75</ele><time>2026-04-04T15:05:16.983Z</time></trkpt><trkpt lat="45.37151710167778" lon="10.529121034585751"><ele>111.0</ele><time>2026-04-04T15:05:17.983Z</time></trkpt><trkpt lat="45.37144419900325" lon="10.52928640476771"><ele>111.0</ele><time>2026-04-04T15:05:18.983Z</time></trkpt><trkpt lat="45.37137055224907" lon="10.529433828139881"><ele>111.0</ele><time>2026-04-04T15:05:19.983Z</time></trkpt><trkpt lat="45.371312761441246" lon="10.529568897494855"><ele>111.0</ele><time>2026-04-04T15:05:20.983Z</time></trkpt><trkpt lat="45.371262923222474" lon="10.529702234942514"><ele>111.0</ele><time>2026-04-04T15:05:21.983Z</time></trkpt><trkpt lat="45.371212857245595" lon="10.529815850775424"><ele>111.0</ele><time>2026-04-04T15:05:22.983Z</time></trkpt><trkpt lat="45.37114693684211" lon="10.529898756070647"><ele>110.25</ele><time>2026-04-04T15:05:23.983Z</time></trkpt><trkpt lat="45.371051833307725" lon="10.529941652206904"><ele>109.5</ele><time>2026-04-04T15:05:24.983Z</time></trkpt><trkpt lat="45.37093376546682" lon="10.529915308297353"><ele>108.75</ele><time>2026-04-04T15:05:25.983Z</time></trkpt><trkpt lat="45.37079911563644" lon="10.529910109572217"><ele>108.0</ele><time>2026-04-04T15:05:26.983Z</time></trkpt><trkpt lat="45.37065765198292" lon="10.529906644630655"><ele>107.5</ele><time>2026-04-04T15:05:27.982Z</time></trkpt><trkpt lat="45.370518166294225" lon="10.529924315386866"><ele>107.0</ele><time>2026-04-04T15:05:28.982Z</time></trkpt><trkpt lat="45.37037210690147" lon="10.529920965852856"><ele>106.5</ele><time>2026-04-04T15:05:29.982Z</time></trkpt><trkpt lat="45.37022151910128" lon="10.529913949305383"><ele>106.0</ele><time>2026-04-04T15:05:30.982Z</time></trkpt><trkpt lat="45.370069587400465" lon="10.529903930067828"><ele>106.0</ele><time>2026-04-04T15:05:31.982Z</time></trkpt><trkpt lat="45.36992048105512" lon="10.529895133270445"><ele>106.0</ele><time>2026-04-04T15:05:32.982Z</time></trkpt><trkpt lat="45.369768562734116" lon="10.529887976528864"><ele>106.0</ele><time>2026-04-04T15:05:33.982Z</time></trkpt><trkpt lat="45.36962408767616" lon="10.529877145200635"><ele>106.0</ele><time>2026-04-04T15:05:34.982Z</time></trkpt><trkpt lat="45.3694780659031" lon="10.529868953601806"><ele>105.25</ele><time>2026-04-04T15:05:35.982Z</time></trkpt><trkpt lat="45.36933098870916" lon="10.529863354303824"><ele>104.5</ele><time>2026-04-04T15:05:36.982Z</time></trkpt><trkpt lat="45.36918544095316" lon="10.529862217960153"><ele>103.75</ele><time>2026-04-04T15:05:37.982Z</time></trkpt><trkpt lat="45.36903464211484" lon="10.529861001142255"><ele>103.0</ele><time>2026-04-04T15:05:38.982Z</time></trkpt><trkpt lat="45.36888602281306" lon="10.529833281851328"><ele>102.75</ele><time>2026-04-04T15:05:39.982Z</time></trkpt><trkpt lat="45.36873766491265" lon="10.529827569231669"><ele>102.5</ele><time>2026-04-04T15:05:40.982Z</time></trkpt><trkpt lat="45.368589889541326" lon="10.529821879041743"><ele>102.25</ele><time>2026-04-04T15:05:41.982Z</time></trkpt><trkpt lat="45.36843873025072" lon="10.52981605855276"><ele>102.0</ele><time>2026-04-04T15:05:42.986Z</time></trkpt><trkpt lat="45.36828711401731" lon="10.529819211083648"><ele>102.0</ele><time>2026-04-04T15:05:43.985Z</time></trkpt><trkpt lat="45.368137149048074" lon="10.529815991795425"><ele>102.0</ele><time>2026-04-04T15:05:44.985Z</time></trkpt><trkpt lat="45.36798725690784" lon="10.529812159234721"><ele>102.0</ele><time>2026-04-04T15:05:45.985Z</time></trkpt><trkpt lat="45.36783944054625" lon="10.52980692785255"><ele>102.0</ele><time>2026-04-04T15:05:46.985Z</time></trkpt><trkpt lat="45.367690198019034" lon="10.529799357780163"><ele>101.33333333333334</ele><time>2026-04-04T15:05:47.985Z</time></trkpt><trkpt lat="45.36754032344846" lon="10.529794895855424"><ele>100.66666666666667</ele><time>2026-04-04T15:05:48.985Z</time></trkpt><trkpt lat="45.36738672692869" lon="10.529787607770396"><ele>100.0</ele><time>2026-04-04T15:05:49.986Z</time></trkpt><trkpt lat="45.367233904652586" lon="10.529778844281228"><ele>99.33333333333334</ele><time>2026-04-04T15:05:50.986Z</time></trkpt><trkpt lat="45.367078401895434" lon="10.529771885708254"><ele>98.66666666666666</ele><time>2026-04-04T15:05:51.985Z</time></trkpt><trkpt lat="45.36692309497601" lon="10.52976646728681"><ele>98.0</ele><time>2026-04-04T15:05:52.985Z</time></trkpt><trkpt lat="45.36676754870022" lon="10.529761486445892"><ele>98.0</ele><time>2026-04-04T15:05:53.985Z</time></trkpt><trkpt lat="45.36661008868189" lon="10.52975639299479"><ele>98.0</ele><time>2026-04-04T15:05:54.985Z</time></trkpt><trkpt lat="45.366451870032584" lon="10.529752451536355"><ele>98.0</ele><time>2026-04-04T15:05:55.986Z</time></trkpt><trkpt lat="45.36629483700849" lon="10.529744871269962"><ele>98.25</ele><time>2026-04-04T15:05:56.986Z</time></trkpt><trkpt lat="45.36614288462007" lon="10.52974016760184"><ele>98.5</ele><time>2026-04-04T15:05:57.986Z</time></trkpt><trkpt lat="45.366003862294164" lon="10.529735987991963"><ele>98.75</ele><time>2026-04-04T15:05:58.986Z</time></trkpt><trkpt lat="45.36586627007273" lon="10.529707731165463"><ele>99.0</ele><time>2026-04-04T15:05:59.986Z</time></trkpt><trkpt lat="45.365725791905135" lon="10.529701764910318"><ele>99.0</ele><time>2026-04-04T15:06:00.986Z</time></trkpt><trkpt lat="45.3655818346215" lon="10.529695650894222"><ele>99.0</ele><time>2026-04-04T15:06:01.986Z</time></trkpt><trkpt lat="45.36543427734863" lon="10.529701848737686"><ele>99.0</ele><time>2026-04-04T15:06:02.986Z</time></trkpt><trkpt lat="45.36528687533566" lon="10.529688081971695"><ele>99.0</ele><time>2026-04-04T15:06:03.986Z</time></trkpt><trkpt lat="45.36513821124476" lon="10.52967869466661"><ele>98.0</ele><time>2026-04-04T15:06:04.986Z</time></trkpt><trkpt lat="45.36498673510752" lon="10.529673022814373"><ele>97.0</ele><time>2026-04-04T15:06:05.986Z</time></trkpt><trkpt lat="45.36483656512213" lon="10.529665433197332"><ele>96.0</ele><time>2026-04-04T15:06:06.986Z</time></trkpt><trkpt lat="45.36468590216898" lon="10.52965646793395"><ele>96.0</ele><time>2026-04-04T15:06:07.986Z</time></trkpt><trkpt lat="45.3645340177627" lon="10.529645627511448"><ele>96.0</ele><time>2026-04-04T15:06:08.985Z</time></trkpt><trkpt lat="45.364383416485325" lon="10.52963502185027"><ele>96.0</ele><time>2026-04-04T15:06:09.985Z</time></trkpt><trkpt lat="45.364232224103574" lon="10.529626801209806"><ele>96.0</ele><time>2026-04-04T15:06:10.985Z</time></trkpt><trkpt lat="45.364079537686685" lon="10.52962059101428"><ele>96.0</ele><time>2026-04-04T15:06:11.985Z</time></trkpt><trkpt lat="45.363924728521965" lon="10.529614282294437"><ele>96.0</ele><time>2026-04-04T15:06:12.985Z</time></trkpt><trkpt lat="45.36376913886947" lon="10.529605736400931"><ele>95.33333333333333</ele><time>2026-04-04T15:06:13.985Z</time></trkpt><trkpt lat="45.36361159643316" lon="10.529594715423316"><ele>94.66666666666666</ele><time>2026-04-04T15:06:14.985Z</time></trkpt><trkpt lat="45.36345395738615" lon="10.52958559241343"><ele>94.0</ele><time>2026-04-04T15:06:15.985Z</time></trkpt><trkpt lat="45.36329464537377" lon="10.529577800787674"><ele>94.0</ele><time>2026-04-04T15:06:16.985Z</time></trkpt><trkpt lat="45.36313530882042" lon="10.529571432952757"><ele>94.0</ele><time>2026-04-04T15:06:17.985Z</time></trkpt><trkpt lat="45.362975866975006" lon="10.529565337258344"><ele>94.0</ele><time>2026-04-04T15:06:18.985Z</time></trkpt><trkpt lat="45.36281966213985" lon="10.529557280765532"><ele>94.33333333333333</ele><time>2026-04-04T15:06:19.985Z</time></trkpt><trkpt lat="45.36266613116419" lon="10.529546721969032"><ele>94.66666666666667</ele><time>2026-04-04T15:06:20.985Z</time></trkpt><trkpt lat="45.36251523218738" lon="10.529534255967043"><ele>95.0</ele><time>2026-04-04T15:06:21.985Z</time></trkpt><trkpt lat="45.36236452910199" lon="10.529523788671684"><ele>95.0</ele><time>2026-04-04T15:06:22.985Z</time></trkpt><trkpt lat="45.36221492146386" lon="10.529515180577253"><ele>95.0</ele><time>2026-04-04T15:06:23.985Z</time></trkpt><trkpt lat="45.36206091303507" lon="10.529510449451625"><ele>95.0</ele><time>2026-04-04T15:06:24.985Z</time></trkpt><trkpt lat="45.361907497251735" lon="10.529501411234984"><ele>94.0</ele><time>2026-04-04T15:06:25.985Z</time></trkpt><trkpt lat="45.36175666140154" lon="10.529497703806157"><ele>93.0</ele><time>2026-04-04T15:06:26.985Z</time></trkpt><trkpt lat="45.36160404728814" lon="10.529491382166585"><ele>92.0</ele><time>2026-04-04T15:06:27.985Z</time></trkpt><trkpt lat="45.361450743579866" lon="10.5294825685373"><ele>91.75</ele><time>2026-04-04T15:06:28.985Z</time></trkpt><trkpt lat="45.36129620673244" lon="10.529473167590533"><ele>91.5</ele><time>2026-04-04T15:06:29.985Z</time></trkpt><trkpt lat="45.361148942225995" lon="10.529465702754168"><ele>91.25</ele><time>2026-04-04T15:06:30.985Z</time></trkpt><trkpt lat="45.36101020347068" lon="10.529461253068503"><ele>91.0</ele><time>2026-04-04T15:06:31.985Z</time></trkpt><trkpt lat="45.36087407751717" lon="10.529453120875406"><ele>91.0</ele><time>2026-04-04T15:06:32.985Z</time></trkpt><trkpt lat="45.3607386637802" lon="10.529445569499783"><ele>91.0</ele><time>2026-04-04T15:06:33.985Z</time></trkpt><trkpt lat="45.36060302682471" lon="10.529442327661739"><ele>91.0</ele><time>2026-04-04T15:06:34.985Z</time></trkpt><trkpt lat="45.36046873788354" lon="10.5294347391807"><ele>91.0</ele><time>2026-04-04T15:06:35.985Z</time></trkpt><trkpt lat="45.36034227630755" lon="10.52942418246295"><ele>91.0</ele><time>2026-04-04T15:06:36.985Z</time></trkpt><trkpt lat="45.360226905999276" lon="10.52941558500026"><ele>91.0</ele><time>2026-04-04T15:06:37.985Z</time></trkpt><trkpt lat="45.36011580800813" lon="10.52941252347505"><ele>91.0</ele><time>2026-04-04T15:06:38.985Z</time></trkpt><trkpt lat="45.360008164609944" lon="10.529411207758928"><ele>91.0</ele><time>2026-04-04T15:06:39.985Z</time></trkpt><trkpt lat="45.359903925009235" lon="10.52941894785372"><ele>91.0</ele><time>2026-04-04T15:06:40.985Z</time></trkpt><trkpt lat="45.35980402467498" lon="10.529436933806785"><ele>91.0</ele><time>2026-04-04T15:06:41.985Z</time></trkpt><trkpt lat="45.35971189932345" lon="10.529470438418086"><ele>91.0</ele><time>2026-04-04T15:06:42.985Z</time></trkpt><trkpt lat="45.35962295822072" lon="10.529505176461182"><ele>91.0</ele><time>2026-04-04T15:06:43.985Z</time></trkpt><trkpt lat="45.35953856956278" lon="10.529517804824982"><ele>91.0</ele><time>2026-04-04T15:06:44.985Z</time></trkpt><trkpt lat="45.359449575315764" lon="10.529478715162558"><ele>91.0</ele><time>2026-04-04T15:06:45.985Z</time></trkpt><trkpt lat="45.35938409910036" lon="10.529370348228253"><ele>91.0</ele><time>2026-04-04T15:06:46.985Z</time></trkpt><trkpt lat="45.35930958713973" lon="10.529279367632295"><ele>91.0</ele><time>2026-04-04T15:06:47.985Z</time></trkpt><trkpt lat="45.35922381453888" lon="10.52917500011965"><ele>91.0</ele><time>2026-04-04T15:06:48.985Z</time></trkpt><trkpt lat="45.359132810405896" lon="10.529070717655614"><ele>91.0</ele><time>2026-04-04T15:06:49.985Z</time></trkpt><trkpt lat="45.3590203580716" lon="10.529001560130546"><ele>91.0</ele><time>2026-04-04T15:06:50.985Z</time></trkpt><trkpt lat="45.358914097709864" lon="10.528901465983617"><ele>91.0</ele><time>2026-04-04T15:06:51.985Z</time></trkpt><trkpt lat="45.358807399291926" lon="10.528797728701399"><ele>91.0</ele><time>2026-04-04T15:06:52.985Z</time></trkpt><trkpt lat="45.35869492844264" lon="10.52870030351165"><ele>91.0</ele><time>2026-04-04T15:06:53.985Z</time></trkpt><trkpt lat="45.35858130556622" lon="10.528592150451356"><ele>90.25</ele><time>2026-04-04T15:06:54.985Z</time></trkpt><trkpt lat="45.35846011795208" lon="10.528497935215723"><ele>89.5</ele><time>2026-04-04T15:06:55.985Z</time></trkpt><trkpt lat="45.358340093117214" lon="10.528389524371152"><ele>88.75</ele><time>2026-04-04T15:06:56.985Z</time></trkpt><trkpt lat="45.35822069129867" lon="10.528284621090458"><ele>88.0</ele><time>2026-04-04T15:06:57.984Z</time></trkpt><trkpt lat="45.358100140958754" lon="10.528169210356536"><ele>87.75</ele><time>2026-04-04T15:06:58.984Z</time></trkpt><trkpt lat="45.35798296889414" lon="10.528057067867152"><ele>87.5</ele><time>2026-04-04T15:06:59.984Z</time></trkpt><trkpt lat="45.35785542672827" lon="10.527943795162548"><ele>87.25</ele><time>2026-04-04T15:07:00.984Z</time></trkpt><trkpt lat="45.357731255169625" lon="10.527833572727577"><ele>87.0</ele><time>2026-04-04T15:07:01.984Z</time></trkpt><trkpt lat="45.357609944038316" lon="10.527719824776792"><ele>87.0</ele><time>2026-04-04T15:07:02.984Z</time></trkpt><trkpt lat="45.357488941532424" lon="10.527608162921581"><ele>87.0</ele><time>2026-04-04T15:07:03.984Z</time></trkpt><trkpt lat="45.35737389572294" lon="10.527497806132354"><ele>87.0</ele><time>2026-04-04T15:07:04.984Z</time></trkpt><trkpt lat="45.35725374537282" lon="10.52739105988362"><ele>87.0</ele><time>2026-04-04T15:07:05.984Z</time></trkpt><trkpt lat="45.35712984861914" lon="10.527286635996415"><ele>87.25</ele><time>2026-04-04T15:07:06.984Z</time></trkpt><trkpt lat="45.35701473935389" lon="10.527175858111033"><ele>87.5</ele><time>2026-04-04T15:07:07.984Z</time></trkpt><trkpt lat="45.3569030983934" lon="10.527068315272063"><ele>87.75</ele><time>2026-04-04T15:07:08.984Z</time></trkpt><trkpt lat="45.35678772265893" lon="10.526962834345209"><ele>88.0</ele><time>2026-04-04T15:07:09.984Z</time></trkpt><trkpt lat="45.356670249138936" lon="10.52685610117034"><ele>88.0</ele><time>2026-04-04T15:07:10.984Z</time></trkpt><trkpt lat="45.35655694981385" lon="10.526748504847252"><ele>88.0</ele><time>2026-04-04T15:07:11.984Z</time></trkpt><trkpt lat="45.356437785717475" lon="10.526641391673362"><ele>88.0</ele><time>2026-04-04T15:07:12.984Z</time></trkpt><trkpt lat="45.356326611263384" lon="10.526531637028354"><ele>88.0</ele><time>2026-04-04T15:07:13.984Z</time></trkpt><trkpt lat="45.35621502607104" lon="10.526420930235185"><ele>87.80000000000001</ele><time>2026-04-04T15:07:14.984Z</time></trkpt><trkpt lat="45.35611034878046" lon="10.526321377245901"><ele>87.6</ele><time>2026-04-04T15:07:15.984Z</time></trkpt><trkpt lat="45.356014850561635" lon="10.526231278802241"><ele>87.4</ele><time>2026-04-04T15:07:16.984Z</time></trkpt><trkpt lat="45.35593735092026" lon="10.526141910829619"><ele>87.19999999999999</ele><time>2026-04-04T15:07:17.984Z</time></trkpt><trkpt lat="45.35586400070628" lon="10.526069132368685"><ele>87.0</ele><time>2026-04-04T15:07:18.984Z</time></trkpt><trkpt lat="45.35579229967577" lon="10.526001430728616"><ele>87.0</ele><time>2026-04-04T15:07:19.984Z</time></trkpt><trkpt lat="45.35572388618321" lon="10.525928372270938"><ele>87.0</ele><time>2026-04-04T15:07:20.984Z</time></trkpt><trkpt lat="45.35566758537699" lon="10.525868870069361"><ele>87.0</ele><time>2026-04-04T15:07:21.984Z</time></trkpt><trkpt lat="45.35560508413783" lon="10.525836379864312"><ele>87.0</ele><time>2026-04-04T15:07:22.984Z</time></trkpt><trkpt lat="45.35554003419905" lon="10.52583595603614"><ele>87.0</ele><time>2026-04-04T15:07:23.984Z</time></trkpt><trkpt lat="45.35546852449512" lon="10.525875278122468"><ele>87.0</ele><time>2026-04-04T15:07:24.984Z</time></trkpt><trkpt lat="45.35539736523018" lon="10.525947064715497"><ele>87.0</ele><time>2026-04-04T15:07:25.984Z</time></trkpt><trkpt lat="45.35533036156719" lon="10.526040331508167"><ele>87.0</ele><time>2026-04-04T15:07:26.984Z</time></trkpt><trkpt lat="45.35527459173359" lon="10.52610933061491"><ele>87.0</ele><time>2026-04-04T15:07:27.984Z</time></trkpt><trkpt lat="45.355208184039824" lon="10.526106991428383"><ele>87.0</ele><time>2026-04-04T15:07:29.984Z</time></trkpt><trkpt lat="45.35521227930726" lon="10.526010999468616"><ele>87.0</ele><time>2026-04-04T15:07:31.984Z</time></trkpt><trkpt lat="45.35527308282404" lon="10.525946535186549"><ele>87.0</ele><time>2026-04-04T15:07:33.984Z</time></trkpt><trkpt lat="45.355317658241226" lon="10.525863968645318"><ele>87.0</ele><time>2026-04-04T15:07:35.984Z</time></trkpt><trkpt lat="45.3552745650429" lon="10.52579474300546"><ele>87.0</ele><time>2026-04-04T15:07:37.984Z</time></trkpt><trkpt lat="45.355223591365366" lon="10.525740198693788"><ele>87.0</ele><time>2026-04-04T15:07:38.984Z</time></trkpt><trkpt lat="45.355132250391236" lon="10.525634715401589"><ele>87.0</ele><time>2026-04-04T15:07:40.984Z</time></trkpt><trkpt lat="45.355044690063586" lon="10.525525716088127"><ele>87.0</ele><time>2026-04-04T15:07:42.984Z</time></trkpt><trkpt lat="45.35493705098347" lon="10.525399191798416"><ele>86.66666666666667</ele><time>2026-04-04T15:07:44.984Z</time></trkpt><trkpt lat="45.35487512146313" lon="10.525331141659738"><ele>86.33333333333333</ele><time>2026-04-04T15:07:46.983Z</time></trkpt><trkpt lat="45.354846419402115" lon="10.52520740060353"><ele>86.0</ele><time>2026-04-04T15:07:49.985Z</time></trkpt><trkpt lat="45.35478483241236" lon="10.52514584974335"><ele>85.66666666666666</ele><time>2026-04-04T15:07:50.985Z</time></trkpt><trkpt lat="45.35470764928914" lon="10.525091285657167"><ele>85.33333333333333</ele><time>2026-04-04T15:07:51.985Z</time></trkpt><trkpt lat="45.35462113253542" lon="10.525012831671685"><ele>85.0</ele><time>2026-04-04T15:07:52.986Z</time></trkpt><trkpt lat="45.354534238895475" lon="10.524928316915556"><ele>84.5</ele><time>2026-04-04T15:07:53.986Z</time></trkpt><trkpt lat="45.35444071961381" lon="10.524843429059056"><ele>84.0</ele><time>2026-04-04T15:07:54.986Z</time></trkpt><trkpt lat="45.35434896813668" lon="10.524755292300911"><ele>83.5</ele><time>2026-04-04T15:07:55.986Z</time></trkpt><trkpt lat="45.35425449816358" lon="10.52466488444441"><ele>83.0</ele><time>2026-04-04T15:07:56.986Z</time></trkpt><trkpt lat="45.35415398855746" lon="10.524573693379914"><ele>83.0</ele><time>2026-04-04T15:07:57.985Z</time></trkpt><trkpt lat="45.35405658854053" lon="10.524476871208101"><ele>83.0</ele><time>2026-04-04T15:07:58.985Z</time></trkpt><trkpt lat="45.353958248235244" lon="10.524380041212767"><ele>83.0</ele><time>2026-04-04T15:07:59.985Z</time></trkpt><trkpt lat="45.35385756857335" lon="10.524282002170928"><ele>83.0</ele><time>2026-04-04T15:08:00.986Z</time></trkpt><trkpt lat="45.35375760344356" lon="10.524182715638146"><ele>83.0</ele><time>2026-04-04T15:08:01.985Z</time></trkpt><trkpt lat="45.3536552564592" lon="10.524084811628304"><ele>83.0</ele><time>2026-04-04T15:08:02.985Z</time></trkpt><trkpt lat="45.353553099140726" lon="10.52398777297813"><ele>83.0</ele><time>2026-04-04T15:08:03.985Z</time></trkpt><trkpt lat="45.35345228953124" lon="10.523888055543097"><ele>83.0</ele><time>2026-04-04T15:08:04.985Z</time></trkpt><trkpt lat="45.35335099089199" lon="10.52379183979282"><ele>82.75</ele><time>2026-04-04T15:08:05.985Z</time></trkpt><trkpt lat="45.35325086822758" lon="10.52369298298205"><ele>82.5</ele><time>2026-04-04T15:08:06.985Z</time></trkpt><trkpt lat="45.35314903111152" lon="10.523593604190772"><ele>82.25</ele><time>2026-04-04T15:08:07.985Z</time></trkpt><trkpt lat="45.35304591405614" lon="10.523496908038863"><ele>82.0</ele><time>2026-04-04T15:08:08.985Z</time></trkpt><trkpt lat="45.3529424340318" lon="10.523396858849374"><ele>83.25</ele><time>2026-04-04T15:08:09.985Z</time></trkpt><trkpt lat="45.352840563475546" lon="10.523296884404973"><ele>84.5</ele><time>2026-04-04T15:08:10.985Z</time></trkpt><trkpt lat="45.35273942381339" lon="10.5231941526254"><ele>85.75</ele><time>2026-04-04T15:08:11.985Z</time></trkpt><trkpt lat="45.35264843144511" lon="10.52307928499294"><ele>87.0</ele><time>2026-04-04T15:08:12.985Z</time></trkpt><trkpt lat="45.352553518644626" lon="10.522967903637467"><ele>86.25</ele><time>2026-04-04T15:08:13.985Z</time></trkpt><trkpt lat="45.35245487987763" lon="10.522862003174303"><ele>85.5</ele><time>2026-04-04T15:08:14.985Z</time></trkpt><trkpt lat="45.35235385032441" lon="10.5227528124236"><ele>84.75</ele><time>2026-04-04T15:08:15.985Z</time></trkpt><trkpt lat="45.35225322993347" lon="10.522642637287063"><ele>84.0</ele><time>2026-04-04T15:08:16.985Z</time></trkpt><trkpt lat="45.35215568531497" lon="10.522524011032212"><ele>83.5</ele><time>2026-04-04T15:08:17.985Z</time></trkpt><trkpt lat="45.35205404542086" lon="10.522412152312757"><ele>83.0</ele><time>2026-04-04T15:08:18.985Z</time></trkpt><trkpt lat="45.351955716724724" lon="10.522301388836429"><ele>82.5</ele><time>2026-04-04T15:08:19.985Z</time></trkpt><trkpt lat="45.3518595784036" lon="10.522189394210976"><ele>82.0</ele><time>2026-04-04T15:08:20.985Z</time></trkpt><trkpt lat="45.35176223568088" lon="10.522074495193808"><ele>81.75</ele><time>2026-04-04T15:08:21.985Z</time></trkpt><trkpt lat="45.35166367164405" lon="10.52196736886161"><ele>81.5</ele><time>2026-04-04T15:08:22.985Z</time></trkpt><trkpt lat="45.35156498981369" lon="10.521848609106563"><ele>81.25</ele><time>2026-04-04T15:08:23.985Z</time></trkpt><trkpt lat="45.35146698397278" lon="10.521736310227338"><ele>81.0</ele><time>2026-04-04T15:08:24.985Z</time></trkpt><trkpt lat="45.35136630901551" lon="10.521625283632984"><ele>81.0</ele><time>2026-04-04T15:08:25.985Z</time></trkpt><trkpt lat="45.351270552533414" lon="10.521514018449105"><ele>81.0</ele><time>2026-04-04T15:08:26.985Z</time></trkpt><trkpt lat="45.35117188459398" lon="10.521404518306513"><ele>81.0</ele><time>2026-04-04T15:08:27.985Z</time></trkpt><trkpt lat="45.351067224903346" lon="10.52129412222168"><ele>81.0</ele><time>2026-04-04T15:08:28.984Z</time></trkpt><trkpt lat="45.350961484177034" lon="10.521173317188206"><ele>81.25</ele><time>2026-04-04T15:08:29.984Z</time></trkpt><trkpt lat="45.350858631185304" lon="10.521056955800816"><ele>81.5</ele><time>2026-04-04T15:08:30.984Z</time></trkpt><trkpt lat="45.350752869938944" lon="10.520933165783497"><ele>81.75</ele><time>2026-04-04T15:08:31.984Z</time></trkpt><trkpt lat="45.35064450140854" lon="10.520813223161438"><ele>82.0</ele><time>2026-04-04T15:08:32.984Z</time></trkpt><trkpt lat="45.350533869274216" lon="10.520695807737793"><ele>80.75</ele><time>2026-04-04T15:08:33.984Z</time></trkpt><trkpt lat="45.35042478379287" lon="10.520576120097736"><ele>79.5</ele><time>2026-04-04T15:08:34.984Z</time></trkpt><trkpt lat="45.35032105356438" lon="10.520456686071912"><ele>78.25</ele><time>2026-04-04T15:08:35.984Z</time></trkpt><trkpt lat="45.350216843696955" lon="10.520344939118852"><ele>77.0</ele><time>2026-04-04T15:08:36.984Z</time></trkpt><trkpt lat="45.35011500339494" lon="10.520235118548507"><ele>76.75</ele><time>2026-04-04T15:08:37.984Z</time></trkpt><trkpt lat="45.35001467601459" lon="10.520125694832636"><ele>76.5</ele><time>2026-04-04T15:08:38.984Z</time></trkpt><trkpt lat="45.34991128633791" lon="10.52002176359648"><ele>76.25</ele><time>2026-04-04T15:08:39.984Z</time></trkpt><trkpt lat="45.349819825518836" lon="10.51992158913181"><ele>76.0</ele><time>2026-04-04T15:08:40.984Z</time></trkpt><trkpt lat="45.3497335286375" lon="10.51982167137545"><ele>76.0</ele><time>2026-04-04T15:08:41.984Z</time></trkpt><trkpt lat="45.34964603388206" lon="10.519724504329698"><ele>76.0</ele><time>2026-04-04T15:08:42.984Z</time></trkpt><trkpt lat="45.34956794482425" lon="10.519639868496066"><ele>76.0</ele><time>2026-04-04T15:08:43.984Z</time></trkpt><trkpt lat="45.34950545025055" lon="10.519573122752483"><ele>76.0</ele><time>2026-04-04T15:08:44.984Z</time></trkpt><trkpt lat="45.34941629428988" lon="10.519550520609865"><ele>76.0</ele><time>2026-04-04T15:08:46.984Z</time></trkpt><trkpt lat="45.34933415379458" lon="10.519663398052737"><ele>76.0</ele><time>2026-04-04T15:08:48.984Z</time></trkpt><trkpt lat="45.34929295652768" lon="10.519768565324767"><ele>76.0</ele><time>2026-04-04T15:08:49.984Z</time></trkpt><trkpt lat="45.349234910968505" lon="10.519884772685963"><ele>76.0</ele><time>2026-04-04T15:08:50.984Z</time></trkpt><trkpt lat="45.34916743668615" lon="10.520002515684762"><ele>76.0</ele><time>2026-04-04T15:08:51.984Z</time></trkpt><trkpt lat="45.34909382697638" lon="10.520138383368494"><ele>76.0</ele><time>2026-04-04T15:08:52.984Z</time></trkpt><trkpt lat="45.3490186527586" lon="10.520277026606042"><ele>76.25</ele><time>2026-04-04T15:08:53.984Z</time></trkpt><trkpt lat="45.34894099056957" lon="10.520428583347712"><ele>76.5</ele><time>2026-04-04T15:08:54.984Z</time></trkpt><trkpt lat="45.34886334182757" lon="10.520582930396108"><ele>76.75</ele><time>2026-04-04T15:08:55.984Z</time></trkpt><trkpt lat="45.348785653578204" lon="10.52074071567446"><ele>77.0</ele><time>2026-04-04T15:08:56.984Z</time></trkpt><trkpt lat="45.34870115300505" lon="10.520919277645026"><ele>77.0</ele><time>2026-04-04T15:08:57.984Z</time></trkpt><trkpt lat="45.34861399458089" lon="10.521105050647272"><ele>77.0</ele><time>2026-04-04T15:08:58.984Z</time></trkpt><trkpt lat="45.34851989828422" lon="10.521278616195083"><ele>77.0</ele><time>2026-04-04T15:08:59.984Z</time></trkpt><trkpt lat="45.34843306175083" lon="10.521447575394317"><ele>76.66666666666667</ele><time>2026-04-04T15:09:00.984Z</time></trkpt><trkpt lat="45.34834550871229" lon="10.52162606131737"><ele>76.33333333333333</ele><time>2026-04-04T15:09:01.984Z</time></trkpt><trkpt lat="45.34825825730279" lon="10.521800057501604"><ele>76.0</ele><time>2026-04-04T15:09:02.984Z</time></trkpt><trkpt lat="45.34816638205215" lon="10.52196445394581"><ele>76.25</ele><time>2026-04-04T15:09:03.984Z</time></trkpt><trkpt lat="45.34808257289156" lon="10.522133511707203"><ele>76.5</ele><time>2026-04-04T15:09:04.984Z</time></trkpt><trkpt lat="45.34800259731406" lon="10.522293346568546"><ele>76.75</ele><time>2026-04-04T15:09:05.984Z</time></trkpt><trkpt lat="45.3479283631402" lon="10.522447111444734"><ele>77.0</ele><time>2026-04-04T15:09:06.984Z</time></trkpt><trkpt lat="45.34786015557553" lon="10.522610194292087"><ele>77.25</ele><time>2026-04-04T15:09:07.984Z</time></trkpt><trkpt lat="45.347793995790006" lon="10.522756145788"><ele>77.5</ele><time>2026-04-04T15:09:08.984Z</time></trkpt><trkpt lat="45.34772679561548" lon="10.522912710444238"><ele>77.75</ele><time>2026-04-04T15:09:09.984Z</time></trkpt><trkpt lat="45.347650368165326" lon="10.523073394016427"><ele>78.0</ele><time>2026-04-04T15:09:10.984Z</time></trkpt><trkpt lat="45.34756522484121" lon="10.523221961794455"><ele>78.25</ele><time>2026-04-04T15:09:11.984Z</time></trkpt><trkpt lat="45.347480077972875" lon="10.523376577666467"><ele>78.5</ele><time>2026-04-04T15:09:12.984Z</time></trkpt><trkpt lat="45.3473969690992" lon="10.52353673524253"><ele>78.75</ele><time>2026-04-04T15:09:13.984Z</time></trkpt><trkpt lat="45.34731672662348" lon="10.523689938421397"><ele>79.0</ele><time>2026-04-04T15:09:14.984Z</time></trkpt><trkpt lat="45.34723519754143" lon="10.52384985512131"><ele>78.5</ele><time>2026-04-04T15:09:15.984Z</time></trkpt><trkpt lat="45.34715507661921" lon="10.524001696767263"><ele>78.0</ele><time>2026-04-04T15:09:16.984Z</time></trkpt><trkpt lat="45.347077793165056" lon="10.524158822660127"><ele>77.5</ele><time>2026-04-04T15:09:17.983Z</time></trkpt><trkpt lat="45.346997756974474" lon="10.524329231514601"><ele>77.0</ele><time>2026-04-04T15:09:18.983Z</time></trkpt><trkpt lat="45.34692292890442" lon="10.524486530575698"><ele>77.25</ele><time>2026-04-04T15:09:19.983Z</time></trkpt><trkpt lat="45.346845494966104" lon="10.524640805340542"><ele>77.5</ele><time>2026-04-04T15:09:20.983Z</time></trkpt><trkpt lat="45.34677036027303" lon="10.524798362106642"><ele>77.75</ele><time>2026-04-04T15:09:21.983Z</time></trkpt><trkpt lat="45.34669072969222" lon="10.524964138240021"><ele>78.0</ele><time>2026-04-04T15:09:22.982Z</time></trkpt><trkpt lat="45.34661300342511" lon="10.525128978727402"><ele>78.0</ele><time>2026-04-04T15:09:23.982Z</time></trkpt><trkpt lat="45.34653765550859" lon="10.52529415269381"><ele>78.0</ele><time>2026-04-04T15:09:24.982Z</time></trkpt><trkpt lat="45.346460556908184" lon="10.525453922661011"><ele>78.0</ele><time>2026-04-04T15:09:25.982Z</time></trkpt><trkpt lat="45.346381000417544" lon="10.525608974860674"><ele>78.0</ele><time>2026-04-04T15:09:26.982Z</time></trkpt><trkpt lat="45.34630438462633" lon="10.525758033382072"><ele>77.75</ele><time>2026-04-04T15:09:27.982Z</time></trkpt><trkpt lat="45.346228393413426" lon="10.525910268737581"><ele>77.5</ele><time>2026-04-04T15:09:28.981Z</time></trkpt><trkpt lat="45.34614409802273" lon="10.526063093341318"><ele>77.25</ele><time>2026-04-04T15:09:29.981Z</time></trkpt><trkpt lat="45.346061448918284" lon="10.526224018729609"><ele>77.0</ele><time>2026-04-04T15:09:30.981Z</time></trkpt><trkpt lat="45.345984316524245" lon="10.526394939891402"><ele>77.0</ele><time>2026-04-04T15:09:31.981Z</time></trkpt><trkpt lat="45.34591345666716" lon="10.52656642357403"><ele>77.0</ele><time>2026-04-04T15:09:32.981Z</time></trkpt><trkpt lat="45.34583700645679" lon="10.52671831998546"><ele>77.0</ele><time>2026-04-04T15:09:33.981Z</time></trkpt><trkpt lat="45.3457510368468" lon="10.526876475702553"><ele>77.0</ele><time>2026-04-04T15:09:34.981Z</time></trkpt><trkpt lat="45.34567146994788" lon="10.527028051180137"><ele>76.75</ele><time>2026-04-04T15:09:35.981Z</time></trkpt><trkpt lat="45.34559373899103" lon="10.527187634684088"><ele>76.5</ele><time>2026-04-04T15:09:36.981Z</time></trkpt><trkpt lat="45.34551329769964" lon="10.527346622249034"><ele>76.25</ele><time>2026-04-04T15:09:37.981Z</time></trkpt><trkpt lat="45.345434686119376" lon="10.52750935332342"><ele>76.0</ele><time>2026-04-04T15:09:38.981Z</time></trkpt><trkpt lat="45.345353650857085" lon="10.52766519157297"><ele>75.75</ele><time>2026-04-04T15:09:39.98Z</time></trkpt><trkpt lat="45.34527245625101" lon="10.527820580124517"><ele>75.5</ele><time>2026-04-04T15:09:40.98Z</time></trkpt><trkpt lat="45.34519688159645" lon="10.527972942582753"><ele>75.25</ele><time>2026-04-04T15:09:41.98Z</time></trkpt><trkpt lat="45.34511412002664" lon="10.528125791195619"><ele>75.0</ele><time>2026-04-04T15:09:42.98Z</time></trkpt><trkpt lat="45.34504268067458" lon="10.528264701629958"><ele>75.5</ele><time>2026-04-04T15:09:43.98Z</time></trkpt><trkpt lat="45.34497358831118" lon="10.528386590087525"><ele>76.0</ele><time>2026-04-04T15:09:44.98Z</time></trkpt><trkpt lat="45.34490025839324" lon="10.528545075768754"><ele>76.5</ele><time>2026-04-04T15:09:45.98Z</time></trkpt><trkpt lat="45.34482261226417" lon="10.528721097558506"><ele>77.0</ele><time>2026-04-04T15:09:46.98Z</time></trkpt><trkpt lat="45.34473867727014" lon="10.528877548837896"><ele>76.75</ele><time>2026-04-04T15:09:47.98Z</time></trkpt><trkpt lat="45.34465885295849" lon="10.52902671667598"><ele>76.5</ele><time>2026-04-04T15:09:48.98Z</time></trkpt><trkpt lat="45.34457874358115" lon="10.529170767770193"><ele>76.25</ele><time>2026-04-04T15:09:49.98Z</time></trkpt><trkpt lat="45.344501941295285" lon="10.52931820281202"><ele>76.0</ele><time>2026-04-04T15:09:50.98Z</time></trkpt><trkpt lat="45.344426761164144" lon="10.529453422620763"><ele>76.2</ele><time>2026-04-04T15:09:51.98Z</time></trkpt><trkpt lat="45.34435759745941" lon="10.52959676358655"><ele>76.39999999999999</ele><time>2026-04-04T15:09:52.98Z</time></trkpt><trkpt lat="45.34429329916489" lon="10.529715548725266"><ele>76.6</ele><time>2026-04-04T15:09:53.98Z</time></trkpt><trkpt lat="45.344234082564235" lon="10.529825834048678"><ele>76.8</ele><time>2026-04-04T15:09:54.982Z</time></trkpt><trkpt lat="45.34417241350116" lon="10.529933768893015"><ele>77.0</ele><time>2026-04-04T15:09:55.983Z</time></trkpt><trkpt lat="45.344118493321" lon="10.530043874188781"><ele>77.0</ele><time>2026-04-04T15:09:56.983Z</time></trkpt><trkpt lat="45.34406943115519" lon="10.53013662626196"><ele>77.0</ele><time>2026-04-04T15:09:57.983Z</time></trkpt><trkpt lat="45.344024434176276" lon="10.530213443884922"><ele>77.0</ele><time>2026-04-04T15:09:58.983Z</time></trkpt><trkpt lat="45.34394143265644" lon="10.53032154873461"><ele>77.0</ele><time>2026-04-04T15:10:00.983Z</time></trkpt><trkpt lat="45.34386379587889" lon="10.530351827025257"><ele>77.0</ele><time>2026-04-04T15:10:02.982Z</time></trkpt><trkpt lat="45.343787948053794" lon="10.53029437403943"><ele>77.0</ele><time>2026-04-04T15:10:03.982Z</time></trkpt><trkpt lat="45.34368299748828" lon="10.530185509891146"><ele>76.66666666666667</ele><time>2026-04-04T15:10:04.982Z</time></trkpt><trkpt lat="45.343573175252466" lon="10.530087960803678"><ele>76.33333333333333</ele><time>2026-04-04T15:10:05.982Z</time></trkpt><trkpt lat="45.34342785947448" lon="10.52996592625136"><ele>76.0</ele><time>2026-04-04T15:10:06.982Z</time></trkpt><trkpt lat="45.34324913809236" lon="10.52982356752038"><ele>76.0</ele><time>2026-04-04T15:10:07.982Z</time></trkpt><trkpt lat="45.34303860012609" lon="10.529661636673994"><ele>76.0</ele><time>2026-04-04T15:10:08.982Z</time></trkpt><trkpt lat="45.342841408963906" lon="10.529505655506592"><ele>75.66666666666666</ele><time>2026-04-04T15:10:09.982Z</time></trkpt><trkpt lat="45.34265917763592" lon="10.529351104550168"><ele>75.33333333333333</ele><time>2026-04-04T15:10:10.982Z</time></trkpt><trkpt lat="45.342480781213396" lon="10.52920533696328"><ele>75.0</ele><time>2026-04-04T15:10:11.982Z</time></trkpt><trkpt lat="45.34230935131915" lon="10.529058053265562"><ele>74.66666666666667</ele><time>2026-04-04T15:10:12.982Z</time></trkpt><trkpt lat="45.342130287228194" lon="10.528919403522599"><ele>74.33333333333334</ele><time>2026-04-04T15:10:13.982Z</time></trkpt><trkpt lat="45.34196447177405" lon="10.528786274798692"><ele>74.0</ele><time>2026-04-04T15:10:14.982Z</time></trkpt><trkpt lat="45.34180457629082" lon="10.528648440130981"><ele>74.0</ele><time>2026-04-04T15:10:15.982Z</time></trkpt><trkpt lat="45.34165741498363" lon="10.528524521727864"><ele>74.0</ele><time>2026-04-04T15:10:16.982Z</time></trkpt><trkpt lat="45.34152450983022" lon="10.528420353320444"><ele>74.0</ele><time>2026-04-04T15:10:17.982Z</time></trkpt><trkpt lat="45.34141183043141" lon="10.528336593596952"><ele>73.83333333333334</ele><time>2026-04-04T15:10:18.982Z</time></trkpt><trkpt lat="45.341316235253494" lon="10.528271277489885"><ele>73.66666666666667</ele><time>2026-04-04T15:10:19.982Z</time></trkpt><trkpt lat="45.341235037588675" lon="10.528226564941816"><ele>73.5</ele><time>2026-04-04T15:10:20.981Z</time></trkpt><trkpt lat="45.3411593869792" lon="10.528231013203063"><ele>73.33333333333333</ele><time>2026-04-04T15:10:21.981Z</time></trkpt><trkpt lat="45.34108923473833" lon="10.528278479661012"><ele>73.16666666666666</ele><time>2026-04-04T15:10:22.981Z</time></trkpt><trkpt lat="45.341033356559365" lon="10.52838850272068"><ele>73.0</ele><time>2026-04-04T15:10:23.981Z</time></trkpt><trkpt lat="45.34097999729747" lon="10.52854886997541"><ele>73.0</ele><time>2026-04-04T15:10:24.981Z</time></trkpt><trkpt lat="45.34092942204892" lon="10.528720129168184"><ele>73.0</ele><time>2026-04-04T15:10:25.981Z</time></trkpt><trkpt lat="45.340863555418544" lon="10.528883743177625"><ele>73.0</ele><time>2026-04-04T15:10:26.981Z</time></trkpt><trkpt lat="45.3407952204475" lon="10.52904144562138"><ele>73.0</ele><time>2026-04-04T15:10:27.981Z</time></trkpt><trkpt lat="45.3407310291862" lon="10.529198337539558"><ele>72.75</ele><time>2026-04-04T15:10:28.981Z</time></trkpt><trkpt lat="45.340663422784125" lon="10.529363269596216"><ele>72.5</ele><time>2026-04-04T15:10:29.981Z</time></trkpt><trkpt lat="45.340599328584965" lon="10.529526052721243"><ele>72.25</ele><time>2026-04-04T15:10:30.981Z</time></trkpt><trkpt lat="45.340528947119196" lon="10.52969201008082"><ele>72.0</ele><time>2026-04-04T15:10:31.981Z</time></trkpt><trkpt lat="45.340462453472206" lon="10.529847945651403"><ele>71.5</ele><time>2026-04-04T15:10:32.981Z</time></trkpt><trkpt lat="45.34038771503566" lon="10.5299978782994"><ele>71.0</ele><time>2026-04-04T15:10:33.981Z</time></trkpt><trkpt lat="45.3403141177405" lon="10.53012838784578"><ele>70.5</ele><time>2026-04-04T15:10:34.981Z</time></trkpt><trkpt lat="45.34024255805859" lon="10.530249205064688"><ele>70.0</ele><time>2026-04-04T15:10:35.981Z</time></trkpt><trkpt lat="45.34017647058132" lon="10.530356745992457"><ele>69.6</ele><time>2026-04-04T15:10:36.981Z</time></trkpt><trkpt lat="45.34011829536117" lon="10.530447498492325"><ele>69.2</ele><time>2026-04-04T15:10:37.981Z</time></trkpt><trkpt lat="45.34006596025426" lon="10.530532200539787"><ele>68.8</ele><time>2026-04-04T15:10:38.981Z</time></trkpt><trkpt lat="45.34001918904413" lon="10.53060726850554"><ele>68.4</ele><time>2026-04-04T15:10:39.981Z</time></trkpt><trkpt lat="45.339945591637516" lon="10.530739877092026"><ele>68.0</ele><time>2026-04-04T15:10:41.981Z</time></trkpt><trkpt lat="45.33987678581124" lon="10.53084502130954"><ele>68.0</ele><time>2026-04-04T15:10:43.981Z</time></trkpt><trkpt lat="45.33979852668084" lon="10.530971690298278"><ele>68.0</ele><time>2026-04-04T15:10:45.981Z</time></trkpt><trkpt lat="45.33973373029933" lon="10.53107679388846"><ele>68.0</ele><time>2026-04-04T15:10:47.981Z</time></trkpt><trkpt lat="45.33968360166033" lon="10.531157845692789"><ele>68.0</ele><time>2026-04-04T15:10:49.981Z</time></trkpt><trkpt lat="45.339614172636644" lon="10.531262397580065"><ele>68.0</ele><time>2026-04-04T15:10:52.981Z</time></trkpt><trkpt lat="45.33953578054816" lon="10.531393088733921"><ele>67.66666666666667</ele><time>2026-04-04T15:10:54.981Z</time></trkpt><trkpt lat="45.33949293409801" lon="10.53147152916115"><ele>67.33333333333334</ele><time>2026-04-04T15:10:55.981Z</time></trkpt><trkpt lat="45.339455372686984" lon="10.531546223371738"><ele>67.0</ele><time>2026-04-04T15:10:56.981Z</time></trkpt><trkpt lat="45.33941009742597" lon="10.531613966631067"><ele>66.66666666666667</ele><time>2026-04-04T15:10:57.981Z</time></trkpt><trkpt lat="45.33934273368087" lon="10.531741528252228"><ele>66.33333333333333</ele><time>2026-04-04T15:10:59.981Z</time></trkpt><trkpt lat="45.339284323796576" lon="10.531811991600765"><ele>66.0</ele><time>2026-04-04T15:11:02.981Z</time></trkpt><trkpt lat="45.33923901739636" lon="10.531917011151293"><ele>66.0</ele><time>2026-04-04T15:11:04.981Z</time></trkpt><trkpt lat="45.33930394190714" lon="10.531931981127968"><ele>66.0</ele><time>2026-04-04T15:11:08.98Z</time></trkpt><trkpt lat="45.33935654720669" lon="10.53182154042488"><ele>66.0</ele><time>2026-04-04T15:11:11.98Z</time></trkpt><trkpt lat="45.339425848178756" lon="10.531696467995243"><ele>66.0</ele><time>2026-04-04T15:11:13.98Z</time></trkpt><trkpt lat="45.33947768748971" lon="10.5316169211802"><ele>66.0</ele><time>2026-04-04T15:11:14.98Z</time></trkpt><trkpt lat="45.33953611424115" lon="10.531524612960865"><ele>66.0</ele><time>2026-04-04T15:11:15.98Z</time></trkpt><trkpt lat="45.339594595552796" lon="10.531409630301887"><ele>66.0</ele><time>2026-04-04T15:11:16.98Z</time></trkpt><trkpt lat="45.33965835316692" lon="10.531280009094536"><ele>66.0</ele><time>2026-04-04T15:11:17.98Z</time></trkpt><trkpt lat="45.33972494649959" lon="10.531152172546594"><ele>66.0</ele><time>2026-04-04T15:11:18.98Z</time></trkpt><trkpt lat="45.339812607254096" lon="10.531019656956927"><ele>66.0</ele><time>2026-04-04T15:11:19.98Z</time></trkpt><trkpt lat="45.33989841047074" lon="10.530865842133716"><ele>66.66666666666667</ele><time>2026-04-04T15:11:20.98Z</time></trkpt><trkpt lat="45.33999122339034" lon="10.530687619746027"><ele>67.33333333333334</ele><time>2026-04-04T15:11:21.98Z</time></trkpt><trkpt lat="45.340098222266214" lon="10.530515159977641"><ele>68.0</ele><time>2026-04-04T15:11:22.98Z</time></trkpt><trkpt lat="45.34020024387415" lon="10.530349544448278"><ele>68.66666666666667</ele><time>2026-04-04T15:11:23.98Z</time></trkpt><trkpt lat="45.34030224780132" lon="10.530184650703287"><ele>69.33333333333333</ele><time>2026-04-04T15:11:24.98Z</time></trkpt><trkpt lat="45.34039537343505" lon="10.530014788704019"><ele>70.0</ele><time>2026-04-04T15:11:25.98Z</time></trkpt><trkpt lat="45.34048802385064" lon="10.529841236222184"><ele>70.66666666666666</ele><time>2026-04-04T15:11:26.98Z</time></trkpt><trkpt lat="45.34057492596727" lon="10.529646716821812"><ele>71.33333333333333</ele><time>2026-04-04T15:11:27.98Z</time></trkpt><trkpt lat="45.34067242025095" lon="10.529407431516494"><ele>72.0</ele><time>2026-04-04T15:11:28.98Z</time></trkpt><trkpt lat="45.34077494755972" lon="10.52915656948656"><ele>72.0</ele><time>2026-04-04T15:11:29.98Z</time></trkpt><trkpt lat="45.340849975878015" lon="10.528944896145735"><ele>72.0</ele><time>2026-04-04T15:11:30.98Z</time></trkpt><trkpt lat="45.340921379861825" lon="10.528761862261689"><ele>72.0</ele><time>2026-04-04T15:11:31.98Z</time></trkpt><trkpt lat="45.34100287744564" lon="10.528606524025244"><ele>72.25</ele><time>2026-04-04T15:11:32.98Z</time></trkpt><trkpt lat="45.34106844972648" lon="10.52848004050672"><ele>72.5</ele><time>2026-04-04T15:11:33.98Z</time></trkpt><trkpt lat="45.34112919942342" lon="10.528391929397724"><ele>72.75</ele><time>2026-04-04T15:11:34.98Z</time></trkpt><trkpt lat="45.34116472379847" lon="10.528297084579117"><ele>73.0</ele><time>2026-04-04T15:11:35.98Z</time></trkpt><trkpt lat="45.34134157997912" lon="10.528315878540349"><ele>73.0</ele><time>2026-04-04T15:11:37.98Z</time></trkpt><trkpt lat="45.34143969106482" lon="10.528377140650507"><ele>73.0</ele><time>2026-04-04T15:11:38.98Z</time></trkpt><trkpt lat="45.34156077655179" lon="10.528482620650125"><ele>73.0</ele><time>2026-04-04T15:11:39.98Z</time></trkpt><trkpt lat="45.341707283741464" lon="10.528602296651362"><ele>73.0</ele><time>2026-04-04T15:11:40.98Z</time></trkpt><trkpt lat="45.341893143708916" lon="10.528755842379487"><ele>73.0</ele><time>2026-04-04T15:11:41.98Z</time></trkpt><trkpt lat="45.34208059767867" lon="10.528904454494446"><ele>73.0</ele><time>2026-04-04T15:11:42.98Z</time></trkpt><trkpt lat="45.342260949551076" lon="10.529050247439466"><ele>73.0</ele><time>2026-04-04T15:11:43.98Z</time></trkpt><trkpt lat="45.34239309056316" lon="10.529171090814197"><ele>73.5</ele><time>2026-04-04T15:11:44.98Z</time></trkpt><trkpt lat="45.34250854039581" lon="10.529271986559637"><ele>74.0</ele><time>2026-04-04T15:11:45.98Z</time></trkpt><trkpt lat="45.34263660111022" lon="10.52936742697874"><ele>74.5</ele><time>2026-04-04T15:11:46.98Z</time></trkpt><trkpt lat="45.342771061119116" lon="10.529468321086924"><ele>75.0</ele><time>2026-04-04T15:11:47.98Z</time></trkpt><trkpt lat="45.342902714254166" lon="10.52957756565789"><ele>75.25</ele><time>2026-04-04T15:11:48.98Z</time></trkpt><trkpt lat="45.3430309098753" lon="10.52969027122319"><ele>75.5</ele><time>2026-04-04T15:11:49.98Z</time></trkpt><trkpt lat="45.343160642358875" lon="10.529800605395552"><ele>75.75</ele><time>2026-04-04T15:11:50.98Z</time></trkpt><trkpt lat="45.34328853396482" lon="10.529899726970587"><ele>76.0</ele><time>2026-04-04T15:11:51.98Z</time></trkpt><trkpt lat="45.34341225820718" lon="10.529995134941752"><ele>76.0</ele><time>2026-04-04T15:11:52.979Z</time></trkpt><trkpt lat="45.343524550989855" lon="10.530085677225067"><ele>76.0</ele><time>2026-04-04T15:11:53.979Z</time></trkpt><trkpt lat="45.343622137980475" lon="10.530167805943394"><ele>76.0</ele><time>2026-04-04T15:11:54.979Z</time></trkpt><trkpt lat="45.343711142152294" lon="10.53024143250793"><ele>76.0</ele><time>2026-04-04T15:11:55.979Z</time></trkpt><trkpt lat="45.34378991369697" lon="10.530303822509518"><ele>76.0</ele><time>2026-04-04T15:11:56.979Z</time></trkpt><trkpt lat="45.34385622996229" lon="10.530352557262088"><ele>76.0</ele><time>2026-04-04T15:11:57.979Z</time></trkpt><trkpt lat="45.34391661177425" lon="10.530407907100065"><ele>76.0</ele><time>2026-04-04T15:11:59.979Z</time></trkpt><trkpt lat="45.34382420635026" lon="10.530547740937058"><ele>76.0</ele><time>2026-04-04T15:12:01.983Z</time></trkpt><trkpt lat="45.34376355645217" lon="10.530675198841184"><ele>76.0</ele><time>2026-04-04T15:12:02.982Z</time></trkpt><trkpt lat="45.343687449354746" lon="10.530835140598448"><ele>76.0</ele><time>2026-04-04T15:12:03.982Z</time></trkpt><trkpt lat="45.34358396721042" lon="10.531050641667358"><ele>76.0</ele><time>2026-04-04T15:12:04.982Z</time></trkpt><trkpt lat="45.343484250869864" lon="10.531318977475692"><ele>76.0</ele><time>2026-04-04T15:12:05.982Z</time></trkpt><trkpt lat="45.34334389491364" lon="10.53159776014489"><ele>76.0</ele><time>2026-04-04T15:12:06.982Z</time></trkpt><trkpt lat="45.34320070859067" lon="10.531887252233327"><ele>76.0</ele><time>2026-04-04T15:12:07.983Z</time></trkpt><trkpt lat="45.343070239895916" lon="10.532145658359664"><ele>76.0</ele><time>2026-04-04T15:12:08.982Z</time></trkpt><trkpt lat="45.34294314906294" lon="10.532396229162854"><ele>76.0</ele><time>2026-04-04T15:12:09.982Z</time></trkpt><trkpt lat="45.34280947563979" lon="10.532657107810255"><ele>76.0</ele><time>2026-04-04T15:12:10.983Z</time></trkpt><trkpt lat="45.342675062391585" lon="10.532942710960853"><ele>77.0</ele><time>2026-04-04T15:12:11.983Z</time></trkpt><trkpt lat="45.34252014527576" lon="10.533244742876308"><ele>78.0</ele><time>2026-04-04T15:12:12.983Z</time></trkpt><trkpt lat="45.34238438811328" lon="10.533510239590104"><ele>78.0</ele><time>2026-04-04T15:12:13.982Z</time></trkpt><trkpt lat="45.3422686055653" lon="10.533743747349293"><ele>78.0</ele><time>2026-04-04T15:12:14.982Z</time></trkpt><trkpt lat="45.34214828682935" lon="10.533980794222426"><ele>78.0</ele><time>2026-04-04T15:12:15.982Z</time></trkpt><trkpt lat="45.34202730415892" lon="10.534237118047905"><ele>78.0</ele><time>2026-04-04T15:12:16.982Z</time></trkpt><trkpt lat="45.34191050762537" lon="10.534474870740905"><ele>78.0</ele><time>2026-04-04T15:12:17.982Z</time></trkpt><trkpt lat="45.34180281020754" lon="10.534688888386443"><ele>78.0</ele><time>2026-04-04T15:12:18.982Z</time></trkpt><trkpt lat="45.34170546946624" lon="10.534885560934978"><ele>78.0</ele><time>2026-04-04T15:12:19.982Z</time></trkpt><trkpt lat="45.34160584562041" lon="10.535065809064065"><ele>78.0</ele><time>2026-04-04T15:12:20.982Z</time></trkpt><trkpt lat="45.34151482253992" lon="10.5352601914453"><ele>78.0</ele><time>2026-04-04T15:12:21.982Z</time></trkpt><trkpt lat="45.341422702788265" lon="10.535450491370963"><ele>78.0</ele><time>2026-04-04T15:12:22.982Z</time></trkpt><trkpt lat="45.34132792674211" lon="10.53563232719502"><ele>78.0</ele><time>2026-04-04T15:12:23.982Z</time></trkpt><trkpt lat="45.34124180395697" lon="10.535810667900268"><ele>78.0</ele><time>2026-04-04T15:12:24.981Z</time></trkpt><trkpt lat="45.34115459028538" lon="10.535992350789373"><ele>78.0</ele><time>2026-04-04T15:12:25.981Z</time></trkpt><trkpt lat="45.34106350997683" lon="10.53617559670813"><ele>78.0</ele><time>2026-04-04T15:12:26.981Z</time></trkpt><trkpt lat="45.340965871583826" lon="10.536363371569937"><ele>78.0</ele><time>2026-04-04T15:12:27.981Z</time></trkpt><trkpt lat="45.340875403913024" lon="10.536560534530585"><ele>78.33333333333333</ele><time>2026-04-04T15:12:28.981Z</time></trkpt><trkpt lat="45.340772554257335" lon="10.536764637468027"><ele>78.66666666666666</ele><time>2026-04-04T15:12:29.981Z</time></trkpt><trkpt lat="45.34066025494485" lon="10.536976408411036"><ele>79.0</ele><time>2026-04-04T15:12:30.981Z</time></trkpt><trkpt lat="45.34055433662417" lon="10.537177078812313"><ele>77.66666666666666</ele><time>2026-04-04T15:12:31.981Z</time></trkpt><trkpt lat="45.34045853862675" lon="10.537359406403693"><ele>76.33333333333333</ele><time>2026-04-04T15:12:32.981Z</time></trkpt><trkpt lat="45.34036647793354" lon="10.537536475185588"><ele>75.0</ele><time>2026-04-04T15:12:33.981Z</time></trkpt><trkpt lat="45.34028722344995" lon="10.53770400980822"><ele>75.0</ele><time>2026-04-04T15:12:34.981Z</time></trkpt><trkpt lat="45.340221781603965" lon="10.537858165892372"><ele>75.0</ele><time>2026-04-04T15:12:35.981Z</time></trkpt><trkpt lat="45.34016971669118" lon="10.538004487209749"><ele>75.0</ele><time>2026-04-04T15:12:36.981Z</time></trkpt><trkpt lat="45.34011833756304" lon="10.538130951876639"><ele>75.0</ele><time>2026-04-04T15:12:37.981Z</time></trkpt><trkpt lat="45.34006024308049" lon="10.538247862680326"><ele>75.0</ele><time>2026-04-04T15:12:38.981Z</time></trkpt><trkpt lat="45.34000302939099" lon="10.538346325528956"><ele>74.6</ele><time>2026-04-04T15:12:39.981Z</time></trkpt><trkpt lat="45.339954507452205" lon="10.538429422149974"><ele>74.2</ele><time>2026-04-04T15:12:40.981Z</time></trkpt><trkpt lat="45.3398612082654" lon="10.53843964769851"><ele>73.8</ele><time>2026-04-04T15:12:42.981Z</time></trkpt><trkpt lat="45.3398010047516" lon="10.53837549404358"><ele>73.4</ele><time>2026-04-04T15:12:43.981Z</time></trkpt><trkpt lat="45.33972842860969" lon="10.538242942927127"><ele>73.0</ele><time>2026-04-04T15:12:44.981Z</time></trkpt><trkpt lat="45.339643308541326" lon="10.538050521121134"><ele>73.33333333333333</ele><time>2026-04-04T15:12:45.981Z</time></trkpt><trkpt lat="45.3395444059289" lon="10.537842518141947"><ele>73.66666666666667</ele><time>2026-04-04T15:12:46.981Z</time></trkpt><trkpt lat="45.339451363268694" lon="10.537662587786997"><ele>74.0</ele><time>2026-04-04T15:12:47.981Z</time></trkpt><trkpt lat="45.33935038463078" lon="10.53748679046899"><ele>74.0</ele><time>2026-04-04T15:12:48.981Z</time></trkpt><trkpt lat="45.3392426797213" lon="10.537330752052233"><ele>74.0</ele><time>2026-04-04T15:12:49.981Z</time></trkpt><trkpt lat="45.3391253240809" lon="10.537154851012357"><ele>74.0</ele><time>2026-04-04T15:12:50.981Z</time></trkpt><trkpt lat="45.33901527399089" lon="10.536971309969413"><ele>74.0</ele><time>2026-04-04T15:12:51.981Z</time></trkpt><trkpt lat="45.33891415574971" lon="10.53679094097174"><ele>74.0</ele><time>2026-04-04T15:12:52.981Z</time></trkpt><trkpt lat="45.3388013021551" lon="10.536601544105958"><ele>74.0</ele><time>2026-04-04T15:12:53.981Z</time></trkpt><trkpt lat="45.33866911927475" lon="10.536387931748868"><ele>74.0</ele><time>2026-04-04T15:12:54.981Z</time></trkpt><trkpt lat="45.338550155538734" lon="10.536184709504848"><ele>74.0</ele><time>2026-04-04T15:12:55.981Z</time></trkpt><trkpt lat="45.33843853399515" lon="10.535998063591503"><ele>74.0</ele><time>2026-04-04T15:12:56.981Z</time></trkpt><trkpt lat="45.33833548626288" lon="10.535817750825593"><ele>74.0</ele><time>2026-04-04T15:12:57.981Z</time></trkpt><trkpt lat="45.33823742329518" lon="10.535647057034716"><ele>74.0</ele><time>2026-04-04T15:12:58.981Z</time></trkpt><trkpt lat="45.33814338171641" lon="10.53548541304257"><ele>74.0</ele><time>2026-04-04T15:12:59.981Z</time></trkpt><trkpt lat="45.33805152614181" lon="10.53534596023364"><ele>74.0</ele><time>2026-04-04T15:13:00.981Z</time></trkpt><trkpt lat="45.33794078903563" lon="10.53519760311111"><ele>73.0</ele><time>2026-04-04T15:13:01.981Z</time></trkpt><trkpt lat="45.337824741975496" lon="10.535034613486001"><ele>72.0</ele><time>2026-04-04T15:13:02.981Z</time></trkpt><trkpt lat="45.337718317785246" lon="10.534840380497178"><ele>71.0</ele><time>2026-04-04T15:13:03.981Z</time></trkpt><trkpt lat="45.337617129751344" lon="10.534619183834907"><ele>70.66666666666667</ele><time>2026-04-04T15:13:04.981Z</time></trkpt><trkpt lat="45.33750429820425" lon="10.534400605768656"><ele>70.33333333333333</ele><time>2026-04-04T15:13:05.981Z</time></trkpt><trkpt lat="45.33736580513735" lon="10.534168712840422"><ele>70.0</ele><time>2026-04-04T15:13:06.981Z</time></trkpt><trkpt lat="45.337246248223735" lon="10.533964396677394"><ele>70.0</ele><time>2026-04-04T15:13:07.981Z</time></trkpt><trkpt lat="45.33714986193008" lon="10.533790443479456"><ele>70.0</ele><time>2026-04-04T15:13:08.981Z</time></trkpt><trkpt lat="45.33706382439988" lon="10.533638904901212"><ele>70.0</ele><time>2026-04-04T15:13:09.981Z</time></trkpt><trkpt lat="45.33697452645941" lon="10.53349630419315"><ele>70.0</ele><time>2026-04-04T15:13:10.981Z</time></trkpt><trkpt lat="45.33688487208951" lon="10.533357085495872"><ele>70.0</ele><time>2026-04-04T15:13:11.98Z</time></trkpt><trkpt lat="45.33679649386917" lon="10.533211338997127"><ele>70.0</ele><time>2026-04-04T15:13:12.98Z</time></trkpt><trkpt lat="45.336711132673294" lon="10.533073729188162"><ele>70.0</ele><time>2026-04-04T15:13:13.98Z</time></trkpt><trkpt lat="45.33662588782329" lon="10.532947539720729"><ele>70.0</ele><time>2026-04-04T15:13:14.98Z</time></trkpt><trkpt lat="45.33653657741711" lon="10.532818812244871"><ele>69.5</ele><time>2026-04-04T15:13:15.98Z</time></trkpt><trkpt lat="45.33643851922123" lon="10.532674758026012"><ele>69.0</ele><time>2026-04-04T15:13:16.98Z</time></trkpt><trkpt lat="45.33633484655516" lon="10.532542199692841"><ele>68.5</ele><time>2026-04-04T15:13:17.98Z</time></trkpt><trkpt lat="45.33622520628356" lon="10.532401372184971"><ele>68.0</ele><time>2026-04-04T15:13:18.98Z</time></trkpt><trkpt lat="45.336111237113634" lon="10.532254357283758"><ele>68.0</ele><time>2026-04-04T15:13:19.98Z</time></trkpt><trkpt lat="45.33601683574408" lon="10.532126904061895"><ele>68.0</ele><time>2026-04-04T15:13:20.98Z</time></trkpt><trkpt lat="45.33592849331288" lon="10.532014138820353"><ele>68.0</ele><time>2026-04-04T15:13:21.98Z</time></trkpt><trkpt lat="45.33583115189113" lon="10.531889549718446"><ele>68.0</ele><time>2026-04-04T15:13:22.98Z</time></trkpt><trkpt lat="45.33572709879223" lon="10.531746595037657"><ele>67.66666666666667</ele><time>2026-04-04T15:13:23.98Z</time></trkpt><trkpt lat="45.33559921350334" lon="10.53157671837127"><ele>67.33333333333333</ele><time>2026-04-04T15:13:24.98Z</time></trkpt><trkpt lat="45.33544609721876" lon="10.531398535395404"><ele>67.0</ele><time>2026-04-04T15:13:25.98Z</time></trkpt><trkpt lat="45.33531745468725" lon="10.531248869752964"><ele>67.33333333333333</ele><time>2026-04-04T15:13:26.98Z</time></trkpt><trkpt lat="45.33519613502308" lon="10.531107191130134"><ele>67.66666666666667</ele><time>2026-04-04T15:13:27.98Z</time></trkpt><trkpt lat="45.335070001154676" lon="10.530950238770195"><ele>68.0</ele><time>2026-04-04T15:13:28.98Z</time></trkpt><trkpt lat="45.334954436431566" lon="10.530785023101792"><ele>68.0</ele><time>2026-04-04T15:13:29.98Z</time></trkpt><trkpt lat="45.33483953292372" lon="10.530622302169359"><ele>68.0</ele><time>2026-04-04T15:13:30.98Z</time></trkpt><trkpt lat="45.33471250376231" lon="10.530464365455918"><ele>68.0</ele><time>2026-04-04T15:13:31.98Z</time></trkpt><trkpt lat="45.33458774233419" lon="10.530304832441562"><ele>67.0</ele><time>2026-04-04T15:13:32.98Z</time></trkpt><trkpt lat="45.33444156450911" lon="10.530117319410339"><ele>66.0</ele><time>2026-04-04T15:13:33.98Z</time></trkpt><trkpt lat="45.334247156814996" lon="10.529883254120614"><ele>66.0</ele><time>2026-04-04T15:13:34.98Z</time></trkpt><trkpt lat="45.33403990973644" lon="10.529626092520207"><ele>66.0</ele><time>2026-04-04T15:13:35.98Z</time></trkpt><trkpt lat="45.33384147982362" lon="10.529378889970877"><ele>65.5</ele><time>2026-04-04T15:13:36.98Z</time></trkpt><trkpt lat="45.33362318953747" lon="10.529107341547508"><ele>65.0</ele><time>2026-04-04T15:13:37.98Z</time></trkpt><trkpt lat="45.33342192736301" lon="10.52886140929711"><ele>64.5</ele><time>2026-04-04T15:13:38.98Z</time></trkpt><trkpt lat="45.33324601946506" lon="10.528641122746844"><ele>64.0</ele><time>2026-04-04T15:13:39.98Z</time></trkpt><trkpt lat="45.33307750637724" lon="10.528433927457927"><ele>63.5</ele><time>2026-04-04T15:13:40.98Z</time></trkpt><trkpt lat="45.332900068048644" lon="10.52819862045801"><ele>63.0</ele><time>2026-04-04T15:13:41.98Z</time></trkpt><trkpt lat="45.33269577197442" lon="10.527943667850183"><ele>63.5</ele><time>2026-04-04T15:13:42.98Z</time></trkpt><trkpt lat="45.33250485553204" lon="10.527710324010448"><ele>64.0</ele><time>2026-04-04T15:13:43.98Z</time></trkpt><trkpt lat="45.33233231986658" lon="10.527496349163593"><ele>63.666666666666664</ele><time>2026-04-04T15:13:44.98Z</time></trkpt><trkpt lat="45.3321635905606" lon="10.527285179877248"><ele>63.33333333333333</ele><time>2026-04-04T15:13:45.98Z</time></trkpt><trkpt lat="45.33199654247821" lon="10.527074052773619"><ele>63.0</ele><time>2026-04-04T15:13:46.98Z</time></trkpt><trkpt lat="45.33182920678139" lon="10.5268628991842"><ele>63.0</ele><time>2026-04-04T15:13:47.98Z</time></trkpt><trkpt lat="45.331664096088815" lon="10.526649924785007"><ele>63.0</ele><time>2026-04-04T15:13:48.98Z</time></trkpt><trkpt lat="45.33149528882333" lon="10.526431466739748"><ele>64.0</ele><time>2026-04-04T15:13:49.98Z</time></trkpt><trkpt lat="45.331302528907095" lon="10.526198253379944"><ele>65.0</ele><time>2026-04-04T15:13:50.98Z</time></trkpt><trkpt lat="45.33110741146998" lon="10.525983489409997"><ele>65.0</ele><time>2026-04-04T15:13:51.98Z</time></trkpt><trkpt lat="45.330906848929125" lon="10.525775131005943"><ele>65.0</ele><time>2026-04-04T15:13:52.98Z</time></trkpt><trkpt lat="45.330705663604235" lon="10.525562074563348"><ele>64.5</ele><time>2026-04-04T15:13:53.98Z</time></trkpt><trkpt lat="45.3305161752873" lon="10.525348793388686"><ele>64.0</ele><time>2026-04-04T15:13:54.98Z</time></trkpt><trkpt lat="45.3303454783479" lon="10.525155340741009"><ele>64.0</ele><time>2026-04-04T15:13:55.98Z</time></trkpt><trkpt lat="45.33019109658923" lon="10.524984601093351"><ele>64.0</ele><time>2026-04-04T15:13:56.98Z</time></trkpt><trkpt lat="45.33004993467445" lon="10.524833111654948"><ele>64.0</ele><time>2026-04-04T15:13:57.98Z</time></trkpt><trkpt lat="45.32992053934574" lon="10.524694421171844"><ele>63.666666666666664</ele><time>2026-04-04T15:13:58.979Z</time></trkpt><trkpt lat="45.329798310020806" lon="10.524551766494188"><ele>63.33333333333333</ele><time>2026-04-04T15:13:59.979Z</time></trkpt><trkpt lat="45.32966246565337" lon="10.524360008939565"><ele>63.0</ele><time>2026-04-04T15:14:00.979Z</time></trkpt><trkpt lat="45.32951453913967" lon="10.524124764590795"><ele>62.5</ele><time>2026-04-04T15:14:01.979Z</time></trkpt><trkpt lat="45.32933924620677" lon="10.52387829393317"><ele>62.0</ele><time>2026-04-04T15:14:02.979Z</time></trkpt><trkpt lat="45.32915977180634" lon="10.523649550368374"><ele>62.0</ele><time>2026-04-04T15:14:03.979Z</time></trkpt><trkpt lat="45.32900754382245" lon="10.523446942483131"><ele>62.0</ele><time>2026-04-04T15:14:04.979Z</time></trkpt><trkpt lat="45.32887558674052" lon="10.523265646153602"><ele>62.0</ele><time>2026-04-04T15:14:05.979Z</time></trkpt><trkpt lat="45.32873239962195" lon="10.523090287601159"><ele>61.333333333333336</ele><time>2026-04-04T15:14:06.982Z</time></trkpt><trkpt lat="45.328563029549656" lon="10.522917915412696"><ele>60.66666666666667</ele><time>2026-04-04T15:14:07.982Z</time></trkpt><trkpt lat="45.32838643614951" lon="10.522752689240845"><ele>60.0</ele><time>2026-04-04T15:14:08.982Z</time></trkpt><trkpt lat="45.32823817526227" lon="10.522608253622867"><ele>59.75</ele><time>2026-04-04T15:14:09.982Z</time></trkpt><trkpt lat="45.32810444595235" lon="10.522479395075464"><ele>59.5</ele><time>2026-04-04T15:14:10.983Z</time></trkpt><trkpt lat="45.3279813722762" lon="10.522357049846748"><ele>59.25</ele><time>2026-04-04T15:14:11.983Z</time></trkpt><trkpt lat="45.32787048523659" lon="10.522242946626612"><ele>59.0</ele><time>2026-04-04T15:14:12.983Z</time></trkpt><trkpt lat="45.32776891599397" lon="10.522138527297496"><ele>59.800000000000004</ele><time>2026-04-04T15:14:13.982Z</time></trkpt><trkpt lat="45.32767628367748" lon="10.52204528131742"><ele>60.60000000000001</ele><time>2026-04-04T15:14:14.982Z</time></trkpt><trkpt lat="45.32759768119866" lon="10.521968275897061"><ele>61.4</ele><time>2026-04-04T15:14:15.982Z</time></trkpt><trkpt lat="45.32750673811886" lon="10.521914734400362"><ele>62.2</ele><time>2026-04-04T15:14:16.982Z</time></trkpt><trkpt lat="45.32740462295187" lon="10.52189833118245"><ele>63.0</ele><time>2026-04-04T15:14:17.982Z</time></trkpt><trkpt lat="45.3272986620452" lon="10.521922046088076"><ele>63.25</ele><time>2026-04-04T15:14:18.982Z</time></trkpt><trkpt lat="45.32718658361765" lon="10.521939042552576"><ele>63.5</ele><time>2026-04-04T15:14:19.983Z</time></trkpt><trkpt lat="45.3270851458424" lon="10.521885113045062"><ele>63.75</ele><time>2026-04-04T15:14:20.983Z</time></trkpt><trkpt lat="45.326979969181316" lon="10.521786616459726"><ele>64.0</ele><time>2026-04-04T15:14:21.983Z</time></trkpt><trkpt lat="45.3268769672224" lon="10.521709210790052"><ele>63.99999999999999</ele><time>2026-04-04T15:14:22.983Z</time></trkpt><trkpt lat="45.32679115771115" lon="10.52166057509433"><ele>64.0</ele><time>2026-04-04T15:14:23.983Z</time></trkpt><trkpt lat="45.326727087972046" lon="10.521623394607477"><ele>64.0</ele><time>2026-04-04T15:14:24.982Z</time></trkpt><trkpt lat="45.32663650942498" lon="10.52160645712062"><ele>64.0</ele><time>2026-04-04T15:14:26.982Z</time></trkpt><trkpt lat="45.32655992634122" lon="10.521667223743284"><ele>63.99999999999999</ele><time>2026-04-04T15:14:29.982Z</time></trkpt><trkpt lat="45.32652571390931" lon="10.521758391551888"><ele>64.0</ele><time>2026-04-04T15:14:30.982Z</time></trkpt><trkpt lat="45.32650836256161" lon="10.521885239623959"><ele>64.0</ele><time>2026-04-04T15:14:31.982Z</time></trkpt><trkpt lat="45.32651209925369" lon="10.522050259020105"><ele>64.0</ele><time>2026-04-04T15:14:32.982Z</time></trkpt><trkpt lat="45.32650360279061" lon="10.522206746480972"><ele>64.0</ele><time>2026-04-04T15:14:33.982Z</time></trkpt><trkpt lat="45.32649546754386" lon="10.522341977128745"><ele>64.0</ele><time>2026-04-04T15:14:34.982Z</time></trkpt><trkpt lat="45.32642988882715" lon="10.522442745161237"><ele>64.0</ele><time>2026-04-04T15:14:36.982Z</time></trkpt><trkpt lat="45.326346680906866" lon="10.522432485167416"><ele>63.5</ele><time>2026-04-04T15:14:37.982Z</time></trkpt><trkpt lat="45.32623939872874" lon="10.522384067439393"><ele>63.0</ele><time>2026-04-04T15:14:38.982Z</time></trkpt><trkpt lat="45.32612959817105" lon="10.522334298518068"><ele>62.5</ele><time>2026-04-04T15:14:39.982Z</time></trkpt><trkpt lat="45.32599482818621" lon="10.522282861595315"><ele>62.0</ele><time>2026-04-04T15:14:40.982Z</time></trkpt><trkpt lat="45.32584246656376" lon="10.522215810546435"><ele>62.0</ele><time>2026-04-04T15:14:41.982Z</time></trkpt><trkpt lat="45.32569349841811" lon="10.522144333657561"><ele>62.0</ele><time>2026-04-04T15:14:42.982Z</time></trkpt><trkpt lat="45.32553373099298" lon="10.52208840387211"><ele>62.0</ele><time>2026-04-04T15:14:43.982Z</time></trkpt><trkpt lat="45.32537604478085" lon="10.522006434305213"><ele>62.0</ele><time>2026-04-04T15:14:44.982Z</time></trkpt><trkpt lat="45.32521349520405" lon="10.521907787162247"><ele>62.0</ele><time>2026-04-04T15:14:45.982Z</time></trkpt><trkpt lat="45.32505039348498" lon="10.521799782994323"><ele>62.0</ele><time>2026-04-04T15:14:46.982Z</time></trkpt><trkpt lat="45.32488523235222" lon="10.521723429845977"><ele>61.0</ele><time>2026-04-04T15:14:47.982Z</time></trkpt><trkpt lat="45.324719493427466" lon="10.521651834234167"><ele>60.0</ele><time>2026-04-04T15:14:48.982Z</time></trkpt><trkpt lat="45.32455444513279" lon="10.521572838486874"><ele>59.0</ele><time>2026-04-04T15:14:49.982Z</time></trkpt><trkpt lat="45.32439281865686" lon="10.521494481273384"><ele>59.0</ele><time>2026-04-04T15:14:50.982Z</time></trkpt><trkpt lat="45.32423229069439" lon="10.521421394089495"><ele>59.0</ele><time>2026-04-04T15:14:51.982Z</time></trkpt><trkpt lat="45.32407243206456" lon="10.521342936943038"><ele>59.0</ele><time>2026-04-04T15:14:52.982Z</time></trkpt><trkpt lat="45.32391390470033" lon="10.52126237890312"><ele>58.333333333333336</ele><time>2026-04-04T15:14:53.982Z</time></trkpt><trkpt lat="45.32375305363327" lon="10.521177325848955"><ele>57.66666666666667</ele><time>2026-04-04T15:14:54.982Z</time></trkpt><trkpt lat="45.323584235096185" lon="10.521097662250282"><ele>57.0</ele><time>2026-04-04T15:14:55.982Z</time></trkpt><trkpt lat="45.32341917899844" lon="10.521020087149683"><ele>57.0</ele><time>2026-04-04T15:14:56.982Z</time></trkpt><trkpt lat="45.32326722433338" lon="10.520956524950389"><ele>57.0</ele><time>2026-04-04T15:14:57.982Z</time></trkpt><trkpt lat="45.32312402543068" lon="10.520892037376328"><ele>57.0</ele><time>2026-04-04T15:14:58.982Z</time></trkpt><trkpt lat="45.32298187227103" lon="10.520833064977726"><ele>57.5</ele><time>2026-04-04T15:14:59.982Z</time></trkpt><trkpt lat="45.32284086390386" lon="10.520769317150084"><ele>58.0</ele><time>2026-04-04T15:15:00.982Z</time></trkpt><trkpt lat="45.322712008707526" lon="10.520713258625076"><ele>58.5</ele><time>2026-04-04T15:15:01.982Z</time></trkpt><trkpt lat="45.32260035709252" lon="10.520658795688048"><ele>59.0</ele><time>2026-04-04T15:15:02.982Z</time></trkpt><trkpt lat="45.32249782426564" lon="10.520609200099752"><ele>59.0</ele><time>2026-04-04T15:15:03.982Z</time></trkpt><trkpt lat="45.32240095669772" lon="10.52055733417816"><ele>59.00000000000001</ele><time>2026-04-04T15:15:04.982Z</time></trkpt><trkpt lat="45.32231782036474" lon="10.52050007656995"><ele>59.00000000000001</ele><time>2026-04-04T15:15:05.982Z</time></trkpt><trkpt lat="45.32223362599881" lon="10.520433091964355"><ele>59.0</ele><time>2026-04-04T15:15:06.982Z</time></trkpt><trkpt lat="45.32215081026298" lon="10.520343087928243"><ele>59.0</ele><time>2026-04-04T15:15:07.982Z</time></trkpt><trkpt lat="45.322050020990005" lon="10.52025423798298"><ele>58.75</ele><time>2026-04-04T15:15:08.982Z</time></trkpt><trkpt lat="45.32191860130904" lon="10.520203126182532"><ele>58.5</ele><time>2026-04-04T15:15:09.982Z</time></trkpt><trkpt lat="45.3217695403677" lon="10.520172644917922"><ele>58.25</ele><time>2026-04-04T15:15:10.982Z</time></trkpt><trkpt lat="45.32161832633654" lon="10.520092956428345"><ele>58.0</ele><time>2026-04-04T15:15:11.981Z</time></trkpt><trkpt lat="45.32146989678747" lon="10.51998281830342"><ele>58.0</ele><time>2026-04-04T15:15:12.981Z</time></trkpt><trkpt lat="45.321320082513445" lon="10.519874630279993"><ele>58.0</ele><time>2026-04-04T15:15:13.981Z</time></trkpt><trkpt lat="45.321174042067135" lon="10.519774801806637"><ele>58.0</ele><time>2026-04-04T15:15:14.981Z</time></trkpt><trkpt lat="45.32104523861158" lon="10.51968801651182"><ele>58.0</ele><time>2026-04-04T15:15:15.981Z</time></trkpt><trkpt lat="45.32092710015276" lon="10.519608623360746"><ele>58.0</ele><time>2026-04-04T15:15:16.981Z</time></trkpt><trkpt lat="45.32082240803709" lon="10.519530100306191"><ele>58.0</ele><time>2026-04-04T15:15:17.981Z</time></trkpt><trkpt lat="45.32074064338055" lon="10.519449750587018"><ele>58.0</ele><time>2026-04-04T15:15:18.981Z</time></trkpt><trkpt lat="45.32069076224019" lon="10.519368962154159"><ele>58.0</ele><time>2026-04-04T15:15:19.981Z</time></trkpt><trkpt lat="45.320637609819165" lon="10.519277809994389"><ele>58.2</ele><time>2026-04-04T15:15:21.981Z</time></trkpt><trkpt lat="45.32052105490746" lon="10.51924933976997"><ele>58.4</ele><time>2026-04-04T15:15:27.981Z</time></trkpt><trkpt lat="45.320436186666434" lon="10.519255375139728"><ele>58.60000000000001</ele><time>2026-04-04T15:15:28.981Z</time></trkpt><trkpt lat="45.32036436978274" lon="10.519200766773906"><ele>58.800000000000004</ele><time>2026-04-04T15:15:29.981Z</time></trkpt><trkpt lat="45.32029254413354" lon="10.519114606376409"><ele>59.0</ele><time>2026-04-04T15:15:30.981Z</time></trkpt><trkpt lat="45.32021413278796" lon="10.519028672812032"><ele>59.0</ele><time>2026-04-04T15:15:31.981Z</time></trkpt><trkpt lat="45.320132634239556" lon="10.518946926803013"><ele>59.00000000000001</ele><time>2026-04-04T15:15:32.981Z</time></trkpt><trkpt lat="45.320048843699766" lon="10.518865309236771"><ele>59.00000000000001</ele><time>2026-04-04T15:15:33.981Z</time></trkpt><trkpt lat="45.31996460978503" lon="10.518793050925135"><ele>59.0</ele><time>2026-04-04T15:15:34.981Z</time></trkpt><trkpt lat="45.31987608325" lon="10.51872417514601"><ele>59.0</ele><time>2026-04-04T15:15:35.981Z</time></trkpt><trkpt lat="45.319784221139294" lon="10.518647411700616"><ele>58.2</ele><time>2026-04-04T15:15:36.981Z</time></trkpt><trkpt lat="45.31968695832533" lon="10.518561232675815"><ele>57.400000000000006</ele><time>2026-04-04T15:15:37.981Z</time></trkpt><trkpt lat="45.31959482281007" lon="10.518478584680443"><ele>56.6</ele><time>2026-04-04T15:15:38.981Z</time></trkpt><trkpt lat="45.31951929514959" lon="10.518408217607616"><ele>55.8</ele><time>2026-04-04T15:15:39.981Z</time></trkpt><trkpt lat="45.319452516607036" lon="10.518345504093821"><ele>55.0</ele><time>2026-04-04T15:15:40.981Z</time></trkpt><trkpt lat="45.319386085802485" lon="10.518284898998463"><ele>54.99999999999999</ele><time>2026-04-04T15:15:41.981Z</time></trkpt><trkpt lat="45.31931315789854" lon="10.518236146818888"><ele>55.0</ele><time>2026-04-04T15:15:42.981Z</time></trkpt><trkpt lat="45.31923757569546" lon="10.518227960689247"><ele>55.0</ele><time>2026-04-04T15:15:43.981Z</time></trkpt><trkpt lat="45.319160768262336" lon="10.518275351202988"><ele>55.0</ele><time>2026-04-04T15:15:44.981Z</time></trkpt><trkpt lat="45.31909078576939" lon="10.518372119448975"><ele>54.99999999999999</ele><time>2026-04-04T15:15:45.981Z</time></trkpt><trkpt lat="45.31902962441163" lon="10.518501071046058"><ele>55.0</ele><time>2026-04-04T15:15:46.981Z</time></trkpt><trkpt lat="45.31894041985754" lon="10.518612639059148"><ele>55.4</ele><time>2026-04-04T15:15:47.981Z</time></trkpt><trkpt lat="45.318877369073654" lon="10.518740971383695"><ele>55.8</ele><time>2026-04-04T15:15:48.981Z</time></trkpt><trkpt lat="45.31881768570525" lon="10.518864631236513"><ele>56.2</ele><time>2026-04-04T15:15:49.981Z</time></trkpt><trkpt lat="45.318757252161504" lon="10.518985572883569"><ele>56.6</ele><time>2026-04-04T15:15:50.981Z</time></trkpt><trkpt lat="45.31870542254322" lon="10.51911520388821"><ele>57.0</ele><time>2026-04-04T15:15:51.981Z</time></trkpt><trkpt lat="45.318619756785004" lon="10.519221344738293"><ele>57.0</ele><time>2026-04-04T15:15:52.981Z</time></trkpt><trkpt lat="45.31850805588575" lon="10.519270248407635"><ele>57.0</ele><time>2026-04-04T15:15:53.981Z</time></trkpt><trkpt lat="45.318391710299124" lon="10.519338724074025"><ele>57.0</ele><time>2026-04-04T15:15:54.981Z</time></trkpt><trkpt lat="45.3182719522604" lon="10.519406816688184"><ele>57.0</ele><time>2026-04-04T15:15:55.981Z</time></trkpt><trkpt lat="45.318153196612954" lon="10.51947379752209"><ele>56.75</ele><time>2026-04-04T15:15:56.981Z</time></trkpt><trkpt lat="45.31803221656811" lon="10.519541801085149"><ele>56.5</ele><time>2026-04-04T15:15:57.981Z</time></trkpt><trkpt lat="45.31791272312552" lon="10.519608968352667"><ele>56.25</ele><time>2026-04-04T15:15:58.98Z</time></trkpt><trkpt lat="45.317793632771114" lon="10.519674135192282"><ele>56.0</ele><time>2026-04-04T15:15:59.98Z</time></trkpt><trkpt lat="45.31767367585581" lon="10.519740335918922"><ele>56.0</ele><time>2026-04-04T15:16:00.98Z</time></trkpt><trkpt lat="45.31755400996071" lon="10.519805862135707"><ele>56.0</ele><time>2026-04-04T15:16:01.98Z</time></trkpt><trkpt lat="45.317427477121306" lon="10.519875348809332"><ele>56.0</ele><time>2026-04-04T15:16:02.98Z</time></trkpt><trkpt lat="45.317301901175064" lon="10.51994430999045"><ele>56.0</ele><time>2026-04-04T15:16:03.98Z</time></trkpt><trkpt lat="45.3171743485657" lon="10.520013186691836"><ele>55.75</ele><time>2026-04-04T15:16:04.98Z</time></trkpt><trkpt lat="45.317051115542746" lon="10.5200770712901"><ele>55.5</ele><time>2026-04-04T15:16:05.98Z</time></trkpt><trkpt lat="45.3169386228306" lon="10.520122991107966"><ele>55.25</ele><time>2026-04-04T15:16:06.98Z</time></trkpt><trkpt lat="45.31683199565124" lon="10.520144681036362"><ele>55.0</ele><time>2026-04-04T15:16:07.98Z</time></trkpt><trkpt lat="45.31672281983401" lon="10.520141370093624"><ele>54.99999999999999</ele><time>2026-04-04T15:16:08.98Z</time></trkpt><trkpt lat="45.316626072072545" lon="10.52011083506333"><ele>55.0</ele><time>2026-04-04T15:16:09.98Z</time></trkpt><trkpt lat="45.31653618562596" lon="10.520067750903154"><ele>55.0</ele><time>2026-04-04T15:16:10.98Z</time></trkpt><trkpt lat="45.31646098445492" lon="10.520049507273555"><ele>55.0</ele><time>2026-04-04T15:16:11.983Z</time></trkpt><trkpt lat="45.316387207719444" lon="10.520007197896808"><ele>54.99999999999999</ele><time>2026-04-04T15:16:12.982Z</time></trkpt><trkpt lat="45.316319797245654" lon="10.520003153287917"><ele>55.0</ele><time>2026-04-04T15:16:13.982Z</time></trkpt><trkpt lat="45.316242789378755" lon="10.520030016918797"><ele>54.99999999999999</ele><time>2026-04-04T15:16:14.983Z</time></trkpt><trkpt lat="45.31616084633226" lon="10.520053104520146"><ele>55.0</ele><time>2026-04-04T15:16:15.983Z</time></trkpt><trkpt lat="45.31608967508368" lon="10.52011068324599"><ele>55.0</ele><time>2026-04-04T15:16:16.983Z</time></trkpt><trkpt lat="45.316026136990146" lon="10.520210456101996"><ele>55.0</ele><time>2026-04-04T15:16:17.983Z</time></trkpt><trkpt lat="45.31596182652272" lon="10.52031319601209"><ele>54.99999999999999</ele><time>2026-04-04T15:16:18.983Z</time></trkpt><trkpt lat="45.315924772160685" lon="10.520413568321109"><ele>55.0</ele><time>2026-04-04T15:16:19.983Z</time></trkpt><trkpt lat="45.31587670992265" lon="10.520483054227393"><ele>55.0</ele><time>2026-04-04T15:16:20.983Z</time></trkpt><trkpt lat="45.31578595966064" lon="10.520624990984347"><ele>55.0</ele><time>2026-04-04T15:16:22.983Z</time></trkpt><trkpt lat="45.31574536833116" lon="10.520695600604341"><ele>55.0</ele><time>2026-04-04T15:16:23.983Z</time></trkpt><trkpt lat="45.31570707047003" lon="10.520770265411375"><ele>55.0</ele><time>2026-04-04T15:16:24.983Z</time></trkpt><trkpt lat="45.31564029636913" lon="10.520880868526095"><ele>55.0</ele><time>2026-04-04T15:16:26.983Z</time></trkpt><trkpt lat="45.315569538085526" lon="10.52099853745571"><ele>55.0</ele><time>2026-04-04T15:16:28.983Z</time></trkpt><trkpt lat="45.315512443374395" lon="10.521074118385279"><ele>55.0</ele><time>2026-04-04T15:16:29.983Z</time></trkpt><trkpt lat="45.31545388604973" lon="10.521158435820283"><ele>55.0</ele><time>2026-04-04T15:16:30.983Z</time></trkpt><trkpt lat="45.315390917536924" lon="10.52124810443508"><ele>55.0</ele><time>2026-04-04T15:16:31.983Z</time></trkpt><trkpt lat="45.31532013432465" lon="10.521337964475533"><ele>55.0</ele><time>2026-04-04T15:16:32.983Z</time></trkpt><trkpt lat="45.315240485877695" lon="10.521459353092432"><ele>55.0</ele><time>2026-04-04T15:16:33.983Z</time></trkpt><trkpt lat="45.31513493572004" lon="10.521564153837433"><ele>55.0</ele><time>2026-04-04T15:16:34.983Z</time></trkpt><trkpt lat="45.31505935503142" lon="10.52172438853874"><ele>55.0</ele><time>2026-04-04T15:16:35.983Z</time></trkpt><trkpt lat="45.31496322683372" lon="10.521866124335695"><ele>55.0</ele><time>2026-04-04T15:16:36.983Z</time></trkpt><trkpt lat="45.31487331097681" lon="10.521998244596864"><ele>55.0</ele><time>2026-04-04T15:16:37.983Z</time></trkpt><trkpt lat="45.31478163938954" lon="10.522131634728705"><ele>55.0</ele><time>2026-04-04T15:16:38.983Z</time></trkpt><trkpt lat="45.31469349914551" lon="10.522268676674534"><ele>55.0</ele><time>2026-04-04T15:16:39.983Z</time></trkpt><trkpt lat="45.31461088885081" lon="10.522401276867337"><ele>55.0</ele><time>2026-04-04T15:16:40.983Z</time></trkpt><trkpt lat="45.31453070427603" lon="10.522525462161637"><ele>55.0</ele><time>2026-04-04T15:16:41.983Z</time></trkpt><trkpt lat="45.31445556991789" lon="10.522642703578867"><ele>55.0</ele><time>2026-04-04T15:16:42.983Z</time></trkpt><trkpt lat="45.31438548652787" lon="10.522756880115807"><ele>55.0</ele><time>2026-04-04T15:16:43.983Z</time></trkpt><trkpt lat="45.31431726278318" lon="10.522863909050967"><ele>55.0</ele><time>2026-04-04T15:16:44.983Z</time></trkpt><trkpt lat="45.31425543061652" lon="10.522960256484875"><ele>55.0</ele><time>2026-04-04T15:16:45.983Z</time></trkpt><trkpt lat="45.31420067436451" lon="10.523049147350703"><ele>55.0</ele><time>2026-04-04T15:16:46.983Z</time></trkpt><trkpt lat="45.3141512426361" lon="10.523124119164311"><ele>55.0</ele><time>2026-04-04T15:16:47.983Z</time></trkpt><trkpt lat="45.31405920168364" lon="10.523197045611658"><ele>55.0</ele><time>2026-04-04T15:16:49.982Z</time></trkpt><trkpt lat="45.313939278348776" lon="10.52313521273479"><ele>55.0</ele><time>2026-04-04T15:16:51.982Z</time></trkpt><trkpt lat="45.31386966014052" lon="10.523050739010428"><ele>55.0</ele><time>2026-04-04T15:16:52.982Z</time></trkpt><trkpt lat="45.313789426854655" lon="10.522948894376615"><ele>55.0</ele><time>2026-04-04T15:16:53.982Z</time></trkpt><trkpt lat="45.31368791727914" lon="10.522858553292227"><ele>55.0</ele><time>2026-04-04T15:16:54.982Z</time></trkpt><trkpt lat="45.31356743224404" lon="10.522738653486064"><ele>55.0</ele><time>2026-04-04T15:16:55.982Z</time></trkpt><trkpt lat="45.313458030479126" lon="10.522625327368978"><ele>55.0</ele><time>2026-04-04T15:16:56.982Z</time></trkpt><trkpt lat="45.31333785361335" lon="10.5225109706433"><ele>55.0</ele><time>2026-04-04T15:16:57.982Z</time></trkpt><trkpt lat="45.31321863652094" lon="10.52239899293006"><ele>55.0</ele><time>2026-04-04T15:16:58.982Z</time></trkpt><trkpt lat="45.31309307876251" lon="10.522296673103996"><ele>55.0</ele><time>2026-04-04T15:16:59.982Z</time></trkpt><trkpt lat="45.31295955159623" lon="10.522190681794676"><ele>55.0</ele><time>2026-04-04T15:17:00.982Z</time></trkpt><trkpt lat="45.31280952313787" lon="10.522100697727959"><ele>54.75</ele><time>2026-04-04T15:17:01.982Z</time></trkpt><trkpt lat="45.31266771143794" lon="10.52202789170916"><ele>54.5</ele><time>2026-04-04T15:17:02.982Z</time></trkpt><trkpt lat="45.312530461746086" lon="10.521957304895828"><ele>54.25</ele><time>2026-04-04T15:17:03.982Z</time></trkpt><trkpt lat="45.31239191633167" lon="10.521882186006211"><ele>54.0</ele><time>2026-04-04T15:17:04.982Z</time></trkpt><trkpt lat="45.312262180621985" lon="10.521816480668056"><ele>53.66666666666667</ele><time>2026-04-04T15:17:05.982Z</time></trkpt><trkpt lat="45.3121192212806" lon="10.521741951531164"><ele>53.333333333333336</ele><time>2026-04-04T15:17:06.982Z</time></trkpt><trkpt lat="45.311977198773995" lon="10.521664209526863"><ele>53.0</ele><time>2026-04-04T15:17:07.982Z</time></trkpt><trkpt lat="45.3118398612359" lon="10.521573704471214"><ele>53.0</ele><time>2026-04-04T15:17:08.982Z</time></trkpt><trkpt lat="45.31170100211764" lon="10.521484524629672"><ele>53.0</ele><time>2026-04-04T15:17:09.982Z</time></trkpt><trkpt lat="45.31157080540564" lon="10.521397750933387"><ele>53.0</ele><time>2026-04-04T15:17:10.982Z</time></trkpt><trkpt lat="45.31144276956578" lon="10.521312185580225"><ele>53.0</ele><time>2026-04-04T15:17:11.982Z</time></trkpt><trkpt lat="45.31130326320132" lon="10.521209341966832"><ele>53.66666666666667</ele><time>2026-04-04T15:17:12.982Z</time></trkpt><trkpt lat="45.311167833103354" lon="10.521109390583824"><ele>54.33333333333333</ele><time>2026-04-04T15:17:13.982Z</time></trkpt><trkpt lat="45.31103431375227" lon="10.520999143660445"><ele>55.0</ele><time>2026-04-04T15:17:14.982Z</time></trkpt><trkpt lat="45.310900877898" lon="10.520891133333244"><ele>55.0</ele><time>2026-04-04T15:17:15.982Z</time></trkpt><trkpt lat="45.31076871842315" lon="10.520790080436157"><ele>55.0</ele><time>2026-04-04T15:17:16.982Z</time></trkpt><trkpt lat="45.31064468238527" lon="10.520670847268116"><ele>55.0</ele><time>2026-04-04T15:17:17.982Z</time></trkpt><trkpt lat="45.31052315168625" lon="10.520552421986757"><ele>55.0</ele><time>2026-04-04T15:17:18.982Z</time></trkpt><trkpt lat="45.31038909133793" lon="10.52044501842973"><ele>55.0</ele><time>2026-04-04T15:17:19.982Z</time></trkpt><trkpt lat="45.31025060179194" lon="10.520356319393832"><ele>55.0</ele><time>2026-04-04T15:17:20.982Z</time></trkpt><trkpt lat="45.31011899144384" lon="10.520262959209276"><ele>55.0</ele><time>2026-04-04T15:17:21.982Z</time></trkpt><trkpt lat="45.31000159929463" lon="10.520168304392255"><ele>55.0</ele><time>2026-04-04T15:17:22.982Z</time></trkpt><trkpt lat="45.30989276818248" lon="10.520078514189477"><ele>55.0</ele><time>2026-04-04T15:17:23.982Z</time></trkpt><trkpt lat="45.30978913722013" lon="10.519977912388502"><ele>55.0</ele><time>2026-04-04T15:17:24.982Z</time></trkpt><trkpt lat="45.30968625385214" lon="10.519852365092195"><ele>55.0</ele><time>2026-04-04T15:17:25.982Z</time></trkpt><trkpt lat="45.30958248834075" lon="10.519724438315272"><ele>55.0</ele><time>2026-04-04T15:17:26.982Z</time></trkpt><trkpt lat="45.309473536555984" lon="10.519600148293716"><ele>54.75</ele><time>2026-04-04T15:17:27.982Z</time></trkpt><trkpt lat="45.30936714889515" lon="10.519479318019792"><ele>54.5</ele><time>2026-04-04T15:17:28.982Z</time></trkpt><trkpt lat="45.30926068898317" lon="10.519357744925957"><ele>54.25</ele><time>2026-04-04T15:17:29.982Z</time></trkpt><trkpt lat="45.30915234919482" lon="10.519237649292425"><ele>54.0</ele><time>2026-04-04T15:17:30.982Z</time></trkpt><trkpt lat="45.30904310729313" lon="10.519116130884248"><ele>54.0</ele><time>2026-04-04T15:17:31.982Z</time></trkpt><trkpt lat="45.30893473516378" lon="10.518997001072881"><ele>54.0</ele><time>2026-04-04T15:17:32.982Z</time></trkpt><trkpt lat="45.30882535342274" lon="10.518881065947392"><ele>54.0</ele><time>2026-04-04T15:17:33.982Z</time></trkpt><trkpt lat="45.30871039867116" lon="10.518792138631902"><ele>54.0</ele><time>2026-04-04T15:17:34.982Z</time></trkpt><trkpt lat="45.30856815401242" lon="10.518719992417644"><ele>53.33333333333333</ele><time>2026-04-04T15:17:35.981Z</time></trkpt><trkpt lat="45.30840525269547" lon="10.518675125647501"><ele>52.666666666666664</ele><time>2026-04-04T15:17:36.981Z</time></trkpt><trkpt lat="45.308238677117245" lon="10.518653843070211"><ele>52.0</ele><time>2026-04-04T15:17:37.981Z</time></trkpt><trkpt lat="45.30807212238613" lon="10.518639531067155"><ele>52.0</ele><time>2026-04-04T15:17:38.981Z</time></trkpt><trkpt lat="45.30788767724648" lon="10.518618220911176"><ele>52.0</ele><time>2026-04-04T15:17:39.981Z</time></trkpt><trkpt lat="45.307710499669476" lon="10.518602991238145"><ele>52.0</ele><time>2026-04-04T15:17:40.981Z</time></trkpt><trkpt lat="45.30753678567478" lon="10.518605020743268"><ele>52.0</ele><time>2026-04-04T15:17:41.981Z</time></trkpt><trkpt lat="45.3073647152244" lon="10.518608796309165"><ele>52.0</ele><time>2026-04-04T15:17:42.981Z</time></trkpt><trkpt lat="45.30720219283531" lon="10.518597333055265"><ele>52.0</ele><time>2026-04-04T15:17:43.981Z</time></trkpt><trkpt lat="45.307043708898114" lon="10.518578438717016"><ele>52.0</ele><time>2026-04-04T15:17:44.981Z</time></trkpt><trkpt lat="45.30688631812586" lon="10.518561298059176"><ele>52.0</ele><time>2026-04-04T15:17:45.981Z</time></trkpt><trkpt lat="45.30673283892047" lon="10.518504123613775"><ele>52.0</ele><time>2026-04-04T15:17:46.981Z</time></trkpt><trkpt lat="45.30658473758403" lon="10.518483547777251"><ele>52.0</ele><time>2026-04-04T15:17:47.981Z</time></trkpt><trkpt lat="45.306441888667464" lon="10.518452993957172"><ele>52.0</ele><time>2026-04-04T15:17:48.981Z</time></trkpt><trkpt lat="45.30629914238708" lon="10.518413429771437"><ele>52.0</ele><time>2026-04-04T15:17:49.981Z</time></trkpt><trkpt lat="45.3061545815809" lon="10.518371746096188"><ele>52.0</ele><time>2026-04-04T15:17:50.981Z</time></trkpt><trkpt lat="45.30600651472613" lon="10.518327560053264"><ele>52.0</ele><time>2026-04-04T15:17:51.981Z</time></trkpt><trkpt lat="45.30585716132288" lon="10.518281339959353"><ele>52.0</ele><time>2026-04-04T15:17:52.981Z</time></trkpt><trkpt lat="45.30571237416255" lon="10.518237272132632"><ele>52.0</ele><time>2026-04-04T15:17:53.981Z</time></trkpt><trkpt lat="45.30556816705046" lon="10.518193781827723"><ele>52.0</ele><time>2026-04-04T15:17:54.981Z</time></trkpt><trkpt lat="45.30542442748229" lon="10.518151262062732"><ele>52.0</ele><time>2026-04-04T15:17:55.981Z</time></trkpt><trkpt lat="45.305281831082084" lon="10.51811414120343"><ele>52.0</ele><time>2026-04-04T15:17:56.981Z</time></trkpt><trkpt lat="45.30514085227668" lon="10.518079087331413"><ele>52.0</ele><time>2026-04-04T15:17:57.981Z</time></trkpt><trkpt lat="45.304997549306535" lon="10.518043455560214"><ele>52.0</ele><time>2026-04-04T15:17:58.981Z</time></trkpt><trkpt lat="45.30485369478068" lon="10.518006592390373"><ele>52.0</ele><time>2026-04-04T15:17:59.981Z</time></trkpt><trkpt lat="45.30471174101308" lon="10.517968132892957"><ele>52.0</ele><time>2026-04-04T15:18:00.981Z</time></trkpt><trkpt lat="45.30456905578378" lon="10.517956101485137"><ele>52.0</ele><time>2026-04-04T15:18:01.981Z</time></trkpt><trkpt lat="45.30443044742276" lon="10.51790867701832"><ele>52.0</ele><time>2026-04-04T15:18:02.981Z</time></trkpt><trkpt lat="45.304294365970506" lon="10.517847860742439"><ele>51.75</ele><time>2026-04-04T15:18:03.981Z</time></trkpt><trkpt lat="45.30417216668872" lon="10.517741912922281"><ele>51.5</ele><time>2026-04-04T15:18:04.981Z</time></trkpt><trkpt lat="45.304041805145204" lon="10.51767096323465"><ele>51.25</ele><time>2026-04-04T15:18:05.981Z</time></trkpt><trkpt lat="45.303911004748386" lon="10.517600858838382"><ele>51.0</ele><time>2026-04-04T15:18:06.981Z</time></trkpt><trkpt lat="45.30378150575507" lon="10.517538561644477"><ele>50.75</ele><time>2026-04-04T15:18:07.981Z</time></trkpt><trkpt lat="45.30365856587755" lon="10.517479419805023"><ele>50.5</ele><time>2026-04-04T15:18:08.981Z</time></trkpt><trkpt lat="45.303538736973614" lon="10.51741692236525"><ele>50.25</ele><time>2026-04-04T15:18:09.981Z</time></trkpt><trkpt lat="45.303429847015366" lon="10.517358937073695"><ele>50.0</ele><time>2026-04-04T15:18:10.981Z</time></trkpt><trkpt lat="45.303315527890504" lon="10.517302114094242"><ele>50.0</ele><time>2026-04-04T15:18:11.981Z</time></trkpt><trkpt lat="45.3032080809562" lon="10.517248706975552"><ele>50.0</ele><time>2026-04-04T15:18:12.981Z</time></trkpt><trkpt lat="45.30309995305933" lon="10.517193525374934"><ele>50.0</ele><time>2026-04-04T15:18:13.981Z</time></trkpt><trkpt lat="45.30299649598227" lon="10.517139176644465"><ele>50.0</ele><time>2026-04-04T15:18:14.981Z</time></trkpt><trkpt lat="45.3028902421967" lon="10.517085774051978"><ele>50.0</ele><time>2026-04-04T15:18:15.981Z</time></trkpt><trkpt lat="45.30277916083683" lon="10.517056513874124"><ele>50.0</ele><time>2026-04-04T15:18:16.983Z</time></trkpt><trkpt lat="45.302674899101966" lon="10.516993346912889"><ele>50.0</ele><time>2026-04-04T15:18:17.983Z</time></trkpt><trkpt lat="45.30256566455583" lon="10.516934047722046"><ele>50.0</ele><time>2026-04-04T15:18:18.983Z</time></trkpt><trkpt lat="45.302452550616515" lon="10.516871886259358"><ele>50.0</ele><time>2026-04-04T15:18:19.983Z</time></trkpt><trkpt lat="45.30233185230681" lon="10.516813627100504"><ele>50.0</ele><time>2026-04-04T15:18:20.983Z</time></trkpt><trkpt lat="45.30221199985307" lon="10.516760713535499"><ele>50.0</ele><time>2026-04-04T15:18:21.983Z</time></trkpt><trkpt lat="45.30209147701329" lon="10.516708079029513"><ele>50.0</ele><time>2026-04-04T15:18:22.983Z</time></trkpt><trkpt lat="45.30197100130742" lon="10.516657362775131"><ele>49.75</ele><time>2026-04-04T15:18:23.983Z</time></trkpt><trkpt lat="45.30184825111811" lon="10.516610084460586"><ele>49.5</ele><time>2026-04-04T15:18:24.983Z</time></trkpt><trkpt lat="45.30172516797423" lon="10.516566039003134"><ele>49.25</ele><time>2026-04-04T15:18:25.984Z</time></trkpt><trkpt lat="45.301598733919946" lon="10.516523303412919"><ele>49.0</ele><time>2026-04-04T15:18:26.984Z</time></trkpt><trkpt lat="45.30147252641134" lon="10.516471676916979"><ele>49.5</ele><time>2026-04-04T15:18:27.984Z</time></trkpt><trkpt lat="45.301345149956305" lon="10.516422923814607"><ele>50.0</ele><time>2026-04-04T15:18:28.983Z</time></trkpt><trkpt lat="45.301222598091954" lon="10.516370353455248"><ele>50.5</ele><time>2026-04-04T15:18:29.983Z</time></trkpt><trkpt lat="45.30110050499418" lon="10.516317211627257"><ele>51.0</ele><time>2026-04-04T15:18:30.983Z</time></trkpt><trkpt lat="45.30098146814082" lon="10.516248926539358"><ele>51.0</ele><time>2026-04-04T15:18:31.983Z</time></trkpt><trkpt lat="45.300863349912724" lon="10.516176778878812"><ele>51.0</ele><time>2026-04-04T15:18:32.983Z</time></trkpt><trkpt lat="45.300740740612426" lon="10.516109006996041"><ele>51.0</ele><time>2026-04-04T15:18:33.983Z</time></trkpt><trkpt lat="45.300624949863995" lon="10.516049779968208"><ele>51.0</ele><time>2026-04-04T15:18:34.983Z</time></trkpt><trkpt lat="45.300515809169845" lon="10.515997191689774"><ele>51.0</ele><time>2026-04-04T15:18:35.983Z</time></trkpt><trkpt lat="45.30041564289399" lon="10.515946685603245"><ele>51.0</ele><time>2026-04-04T15:18:36.983Z</time></trkpt><trkpt lat="45.30031847945193" lon="10.515897491901907"><ele>51.0</ele><time>2026-04-04T15:18:37.983Z</time></trkpt><trkpt lat="45.300230318911154" lon="10.515849212032485"><ele>51.0</ele><time>2026-04-04T15:18:38.983Z</time></trkpt><trkpt lat="45.300149512523944" lon="10.515801898850047"><ele>51.0</ele><time>2026-04-04T15:18:39.983Z</time></trkpt><trkpt lat="45.30006683931642" lon="10.515762934088384"><ele>51.0</ele><time>2026-04-04T15:18:40.983Z</time></trkpt><trkpt lat="45.29999057451236" lon="10.515722595763098"><ele>51.0</ele><time>2026-04-04T15:18:41.983Z</time></trkpt><trkpt lat="45.299919120351" lon="10.515662664509234"><ele>51.0</ele><time>2026-04-04T15:18:42.983Z</time></trkpt><trkpt lat="45.299837622813456" lon="10.515657148630769"><ele>51.0</ele><time>2026-04-04T15:18:43.983Z</time></trkpt><trkpt lat="45.29976907623861" lon="10.515639055778916"><ele>51.0</ele><time>2026-04-04T15:18:44.983Z</time></trkpt><trkpt lat="45.29967420195582" lon="10.515602332669548"><ele>51.0</ele><time>2026-04-04T15:18:46.982Z</time></trkpt><trkpt lat="45.299621232917346" lon="10.515549031570027"><ele>51.0</ele><time>2026-04-04T15:18:49.982Z</time></trkpt><trkpt lat="45.29966975037911" lon="10.51544106936734"><ele>51.0</ele><time>2026-04-04T15:18:50.982Z</time></trkpt><trkpt lat="45.29968177522185" lon="10.515347902697899"><ele>51.0</ele><time>2026-04-04T15:18:51.982Z</time></trkpt><trkpt lat="45.29971084778099" lon="10.515256604206488"><ele>51.0</ele><time>2026-04-04T15:18:52.982Z</time></trkpt><trkpt lat="45.29973002215889" lon="10.515141951757615"><ele>51.0</ele><time>2026-04-04T15:18:53.982Z</time></trkpt><trkpt lat="45.29974705399708" lon="10.515028279689265"><ele>51.0</ele><time>2026-04-04T15:18:54.982Z</time></trkpt><trkpt lat="45.299765797754084" lon="10.514925337779738"><ele>51.0</ele><time>2026-04-04T15:18:55.982Z</time></trkpt><trkpt lat="45.299793640574535" lon="10.514818307532689"><ele>51.0</ele><time>2026-04-04T15:18:56.982Z</time></trkpt><trkpt lat="45.2998238051354" lon="10.514710979130626"><ele>51.0</ele><time>2026-04-04T15:18:57.982Z</time></trkpt><trkpt lat="45.299852189676734" lon="10.514596416992177"><ele>51.0</ele><time>2026-04-04T15:18:58.982Z</time></trkpt><trkpt lat="45.29988321496801" lon="10.514475309419366"><ele>51.0</ele><time>2026-04-04T15:18:59.982Z</time></trkpt><trkpt lat="45.299920330762426" lon="10.514340691873164"><ele>51.0</ele><time>2026-04-04T15:19:00.982Z</time></trkpt><trkpt lat="45.299944209915786" lon="10.514208794110239"><ele>50.8</ele><time>2026-04-04T15:19:01.982Z</time></trkpt><trkpt lat="45.29996158884721" lon="10.514068777329452"><ele>50.599999999999994</ele><time>2026-04-04T15:19:02.982Z</time></trkpt><trkpt lat="45.29997094172501" lon="10.513923257470761"><ele>50.4</ele><time>2026-04-04T15:19:03.982Z</time></trkpt><trkpt lat="45.2999704811342" lon="10.513794571835863"><ele>50.2</ele><time>2026-04-04T15:19:04.982Z</time></trkpt><trkpt lat="45.299975443228" lon="10.51366545489481"><ele>50.0</ele><time>2026-04-04T15:19:05.982Z</time></trkpt><trkpt lat="45.29999896688892" lon="10.513529369062994"><ele>50.0</ele><time>2026-04-04T15:19:06.982Z</time></trkpt><trkpt lat="45.29999698142942" lon="10.513381532429253"><ele>50.0</ele><time>2026-04-04T15:19:07.982Z</time></trkpt><trkpt lat="45.3000235371429" lon="10.5132247121538"><ele>50.0</ele><time>2026-04-04T15:19:08.982Z</time></trkpt><trkpt lat="45.300044131288274" lon="10.513054008781666"><ele>50.0</ele><time>2026-04-04T15:19:09.982Z</time></trkpt><trkpt lat="45.30006596172481" lon="10.512869422716607"><ele>49.75</ele><time>2026-04-04T15:19:10.982Z</time></trkpt><trkpt lat="45.30009336858106" lon="10.512674688814704"><ele>49.5</ele><time>2026-04-04T15:19:11.982Z</time></trkpt><trkpt lat="45.30012123543981" lon="10.512481710588638"><ele>49.25</ele><time>2026-04-04T15:19:12.982Z</time></trkpt><trkpt lat="45.300151022684815" lon="10.512281825944285"><ele>49.0</ele><time>2026-04-04T15:19:13.982Z</time></trkpt><trkpt lat="45.3001788485928" lon="10.512079601436444"><ele>48.75</ele><time>2026-04-04T15:19:14.982Z</time></trkpt><trkpt lat="45.30020137569636" lon="10.511874289690088"><ele>48.5</ele><time>2026-04-04T15:19:15.982Z</time></trkpt><trkpt lat="45.300223918271314" lon="10.511668597071976"><ele>48.25</ele><time>2026-04-04T15:19:16.982Z</time></trkpt><trkpt lat="45.30025041557278" lon="10.51146868315054"><ele>48.0</ele><time>2026-04-04T15:19:17.982Z</time></trkpt><trkpt lat="45.30027643049758" lon="10.511282041796708"><ele>48.25</ele><time>2026-04-04T15:19:18.982Z</time></trkpt><trkpt lat="45.30029835884654" lon="10.51109573711842"><ele>48.5</ele><time>2026-04-04T15:19:19.982Z</time></trkpt><trkpt lat="45.30031943466228" lon="10.510913226641314"><ele>48.75</ele><time>2026-04-04T15:19:20.982Z</time></trkpt><trkpt lat="45.300341165922674" lon="10.510735733493373"><ele>49.0</ele><time>2026-04-04T15:19:21.982Z</time></trkpt><trkpt lat="45.30035925474878" lon="10.510570508040534"><ele>49.0</ele><time>2026-04-04T15:19:22.982Z</time></trkpt><trkpt lat="45.300376543502004" lon="10.51041084275567"><ele>49.0</ele><time>2026-04-04T15:19:23.982Z</time></trkpt><trkpt lat="45.30039152771062" lon="10.51025671172023"><ele>49.0</ele><time>2026-04-04T15:19:24.982Z</time></trkpt><trkpt lat="45.300407165590336" lon="10.510121531448439"><ele>49.0</ele><time>2026-04-04T15:19:25.982Z</time></trkpt><trkpt lat="45.30042125517079" lon="10.509997823657661"><ele>49.0</ele><time>2026-04-04T15:19:26.982Z</time></trkpt><trkpt lat="45.30043249301773" lon="10.50988587609615"><ele>48.83333333333333</ele><time>2026-04-04T15:19:27.982Z</time></trkpt><trkpt lat="45.300444883313254" lon="10.50979331437134"><ele>48.666666666666664</ele><time>2026-04-04T15:19:28.982Z</time></trkpt><trkpt lat="45.30046165472955" lon="10.509646365290289"><ele>48.5</ele><time>2026-04-04T15:19:30.982Z</time></trkpt><trkpt lat="45.30047523605367" lon="10.509531050410299"><ele>48.33333333333333</ele><time>2026-04-04T15:19:32.982Z</time></trkpt><trkpt lat="45.30048893472495" lon="10.50944346618389"><ele>48.166666666666664</ele><time>2026-04-04T15:19:34.981Z</time></trkpt><trkpt lat="45.30049028659081" lon="10.509347168081304"><ele>48.0</ele><time>2026-04-04T15:19:44.981Z</time></trkpt><trkpt lat="45.3004990166343" lon="10.509235552540662"><ele>48.4</ele><time>2026-04-04T15:19:47.981Z</time></trkpt><trkpt lat="45.30050614388661" lon="10.509136793670724"><ele>48.8</ele><time>2026-04-04T15:19:48.981Z</time></trkpt><trkpt lat="45.30051610495369" lon="10.508998767973047"><ele>49.2</ele><time>2026-04-04T15:19:49.981Z</time></trkpt><trkpt lat="45.30052827161808" lon="10.50883018054188"><ele>49.6</ele><time>2026-04-04T15:19:50.981Z</time></trkpt><trkpt lat="45.300541779546656" lon="10.508643007636815"><ele>50.0</ele><time>2026-04-04T15:19:51.981Z</time></trkpt><trkpt lat="45.300557733776195" lon="10.50844021197902"><ele>50.0</ele><time>2026-04-04T15:19:52.981Z</time></trkpt><trkpt lat="45.30057025594804" lon="10.508234392086635"><ele>50.0</ele><time>2026-04-04T15:19:53.981Z</time></trkpt><trkpt lat="45.30061181215832" lon="10.508031327870734"><ele>50.0</ele><time>2026-04-04T15:19:54.981Z</time></trkpt><trkpt lat="45.30065450783831" lon="10.507827163329157"><ele>50.0</ele><time>2026-04-04T15:19:55.981Z</time></trkpt><trkpt lat="45.3006937567978" lon="10.50763109784947"><ele>50.25</ele><time>2026-04-04T15:19:56.981Z</time></trkpt><trkpt lat="45.30072616387716" lon="10.507447646410345"><ele>50.5</ele><time>2026-04-04T15:19:57.981Z</time></trkpt><trkpt lat="45.30075841321127" lon="10.507257173267735"><ele>50.75</ele><time>2026-04-04T15:19:58.981Z</time></trkpt><trkpt lat="45.300789588819526" lon="10.507059771623837"><ele>51.0</ele><time>2026-04-04T15:19:59.981Z</time></trkpt><trkpt lat="45.30082905668324" lon="10.506861390062305"><ele>51.0</ele><time>2026-04-04T15:20:00.981Z</time></trkpt><trkpt lat="45.30086280861322" lon="10.50665604772284"><ele>51.0</ele><time>2026-04-04T15:20:01.981Z</time></trkpt><trkpt lat="45.30089314918814" lon="10.50646601702405"><ele>51.0</ele><time>2026-04-04T15:20:02.981Z</time></trkpt><trkpt lat="45.30091791860135" lon="10.506296792238842"><ele>51.0</ele><time>2026-04-04T15:20:03.981Z</time></trkpt><trkpt lat="45.300947621023134" lon="10.506127533434034"><ele>50.8</ele><time>2026-04-04T15:20:04.981Z</time></trkpt><trkpt lat="45.300973898310666" lon="10.505961414243805"><ele>50.599999999999994</ele><time>2026-04-04T15:20:05.981Z</time></trkpt><trkpt lat="45.300996239712035" lon="10.505826860755098"><ele>50.4</ele><time>2026-04-04T15:20:06.981Z</time></trkpt><trkpt lat="45.301005144883334" lon="10.50571850053642"><ele>50.2</ele><time>2026-04-04T15:20:07.981Z</time></trkpt><trkpt lat="45.30102895734671" lon="10.505611418654548"><ele>50.0</ele><time>2026-04-04T15:20:09.981Z</time></trkpt><trkpt lat="45.30081804816569" lon="10.505501162756886"><ele>50.0</ele><time>2026-04-04T15:20:11.981Z</time></trkpt><trkpt lat="45.3006603212453" lon="10.505494734127973"><ele>50.0</ele><time>2026-04-04T15:20:12.981Z</time></trkpt><trkpt lat="45.300459354325156" lon="10.50548654313039"><ele>50.0</ele><time>2026-04-04T15:20:13.981Z</time></trkpt><trkpt lat="45.30025137164072" lon="10.50547900593497"><ele>49.0</ele><time>2026-04-04T15:20:14.981Z</time></trkpt><trkpt lat="45.30002264475883" lon="10.505474171648563"><ele>48.0</ele><time>2026-04-04T15:20:15.981Z</time></trkpt><trkpt lat="45.29977641105014" lon="10.505460434102678"><ele>48.5</ele><time>2026-04-04T15:20:16.981Z</time></trkpt><trkpt lat="45.299503311940825" lon="10.505436802514566"><ele>49.0</ele><time>2026-04-04T15:20:17.981Z</time></trkpt><trkpt lat="45.299236616837035" lon="10.505412246960976"><ele>49.5</ele><time>2026-04-04T15:20:18.981Z</time></trkpt><trkpt lat="45.29898171185098" lon="10.505375198267545"><ele>50.0</ele><time>2026-04-04T15:20:19.981Z</time></trkpt><trkpt lat="45.2987219431751" lon="10.505306822051196"><ele>50.0</ele><time>2026-04-04T15:20:20.981Z</time></trkpt><trkpt lat="45.29846012319108" lon="10.505236477078567"><ele>50.0</ele><time>2026-04-04T15:20:21.98Z</time></trkpt><trkpt lat="45.29820436423578" lon="10.505169167767022"><ele>49.0</ele><time>2026-04-04T15:20:22.983Z</time></trkpt><trkpt lat="45.2979691082376" lon="10.505104988590743"><ele>48.0</ele><time>2026-04-04T15:20:23.983Z</time></trkpt><trkpt lat="45.29773331731316" lon="10.505042040217893"><ele>48.0</ele><time>2026-04-04T15:20:24.983Z</time></trkpt><trkpt lat="45.29750000361627" lon="10.504982696622221"><ele>48.0</ele><time>2026-04-04T15:20:25.983Z</time></trkpt><trkpt lat="45.29726162310307" lon="10.504922064248094"><ele>48.0</ele><time>2026-04-04T15:20:26.984Z</time></trkpt><trkpt lat="45.2970251023723" lon="10.504867036942349"><ele>48.0</ele><time>2026-04-04T15:20:27.984Z</time></trkpt><trkpt lat="45.296811100510034" lon="10.504814298695816"><ele>48.0</ele><time>2026-04-04T15:20:28.984Z</time></trkpt><trkpt lat="45.296623844916965" lon="10.504765174829414"><ele>48.0</ele><time>2026-04-04T15:20:29.983Z</time></trkpt><trkpt lat="45.296452781743284" lon="10.50471889720481"><ele>48.0</ele><time>2026-04-04T15:20:30.983Z</time></trkpt><trkpt lat="45.2962969265299" lon="10.504673391033418"><ele>48.25</ele><time>2026-04-04T15:20:31.984Z</time></trkpt><trkpt lat="45.29615200493753" lon="10.504631077285635"><ele>48.5</ele><time>2026-04-04T15:20:32.983Z</time></trkpt><trkpt lat="45.29601240173961" lon="10.504591748454953"><ele>48.75</ele><time>2026-04-04T15:20:33.983Z</time></trkpt><trkpt lat="45.295882363980084" lon="10.504554890833006"><ele>49.0</ele><time>2026-04-04T15:20:34.983Z</time></trkpt><trkpt lat="45.2957681244134" lon="10.504530878459349"><ele>49.0</ele><time>2026-04-04T15:20:35.984Z</time></trkpt><trkpt lat="45.29567649966765" lon="10.504410519074279"><ele>49.0</ele><time>2026-04-04T15:20:36.984Z</time></trkpt><trkpt lat="45.29555444697986" lon="10.504393402331862"><ele>49.0</ele><time>2026-04-04T15:20:37.984Z</time></trkpt><trkpt lat="45.29542131126432" lon="10.504375272661472"><ele>49.0</ele><time>2026-04-04T15:20:38.984Z</time></trkpt><trkpt lat="45.29524323759286" lon="10.50437527626373"><ele>49.0</ele><time>2026-04-04T15:20:39.984Z</time></trkpt><trkpt lat="45.29504736983602" lon="10.504368000580778"><ele>49.0</ele><time>2026-04-04T15:20:40.984Z</time></trkpt><trkpt lat="45.29482949758966" lon="10.50436156614941"><ele>49.0</ele><time>2026-04-04T15:20:41.984Z</time></trkpt><trkpt lat="45.29461209220655" lon="10.504348154532424"><ele>49.0</ele><time>2026-04-04T15:20:42.984Z</time></trkpt><trkpt lat="45.29440580855153" lon="10.50433818543251"><ele>49.0</ele><time>2026-04-04T15:20:43.984Z</time></trkpt><trkpt lat="45.294205879748795" lon="10.504336850380916"><ele>49.0</ele><time>2026-04-04T15:20:44.984Z</time></trkpt><trkpt lat="45.29401969186156" lon="10.504286530124771"><ele>49.0</ele><time>2026-04-04T15:20:45.984Z</time></trkpt><trkpt lat="45.29382455481367" lon="10.504199025447596"><ele>49.0</ele><time>2026-04-04T15:20:46.984Z</time></trkpt><trkpt lat="45.29361670922889" lon="10.504129343113098"><ele>49.0</ele><time>2026-04-04T15:20:47.983Z</time></trkpt><trkpt lat="45.293426606109456" lon="10.504045244497204"><ele>49.0</ele><time>2026-04-04T15:20:48.983Z</time></trkpt><trkpt lat="45.29324885245235" lon="10.503979173386163"><ele>49.0</ele><time>2026-04-04T15:20:49.983Z</time></trkpt><trkpt lat="45.293082695914684" lon="10.50390994514214"><ele>49.0</ele><time>2026-04-04T15:20:50.983Z</time></trkpt><trkpt lat="45.29292823503287" lon="10.503844520980108"><ele>49.0</ele><time>2026-04-04T15:20:51.983Z</time></trkpt><trkpt lat="45.292783426797946" lon="10.50378560036025"><ele>49.0</ele><time>2026-04-04T15:20:52.983Z</time></trkpt><trkpt lat="45.292652831060025" lon="10.503711047629844"><ele>49.0</ele><time>2026-04-04T15:20:53.983Z</time></trkpt><trkpt lat="45.2925234130156" lon="10.503656216798056"><ele>49.0</ele><time>2026-04-04T15:20:54.983Z</time></trkpt><trkpt lat="45.29240864566029" lon="10.503607593114479"><ele>48.99999999999999</ele><time>2026-04-04T15:20:55.983Z</time></trkpt><trkpt lat="45.29230545702074" lon="10.503563899576484"><ele>49.0</ele><time>2026-04-04T15:20:56.983Z</time></trkpt><trkpt lat="45.292222562839626" lon="10.503531140568082"><ele>49.0</ele><time>2026-04-04T15:20:57.983Z</time></trkpt><trkpt lat="45.292158386734314" lon="10.50351502238714"><ele>49.0</ele><time>2026-04-04T15:20:58.983Z</time></trkpt><trkpt lat="45.29208725081312" lon="10.503492619642515"><ele>48.99999999999999</ele><time>2026-04-04T15:21:00.983Z</time></trkpt><trkpt lat="45.29203915700982" lon="10.503428720628797"><ele>49.0</ele><time>2026-04-04T15:21:02.983Z</time></trkpt><trkpt lat="45.29203774324924" lon="10.50332235839522"><ele>49.0</ele><time>2026-04-04T15:21:03.983Z</time></trkpt><trkpt lat="45.292066918988134" lon="10.503170815775631"><ele>49.0</ele><time>2026-04-04T15:21:04.983Z</time></trkpt><trkpt lat="45.29207715252799" lon="10.50301303479986"><ele>49.0</ele><time>2026-04-04T15:21:05.983Z</time></trkpt><trkpt lat="45.292087557913916" lon="10.502839535421781"><ele>49.0</ele><time>2026-04-04T15:21:06.983Z</time></trkpt><trkpt lat="45.29209870634834" lon="10.50268645427862"><ele>49.2</ele><time>2026-04-04T15:21:07.983Z</time></trkpt><trkpt lat="45.29210786438759" lon="10.502560858276535"><ele>49.400000000000006</ele><time>2026-04-04T15:21:08.983Z</time></trkpt><trkpt lat="45.29211251079719" lon="10.502456509841208"><ele>49.6</ele><time>2026-04-04T15:21:09.983Z</time></trkpt><trkpt lat="45.29210004714988" lon="10.502306319718112"><ele>49.8</ele><time>2026-04-04T15:21:11.983Z</time></trkpt><trkpt lat="45.292001182713605" lon="10.502236821108614"><ele>50.0</ele><time>2026-04-04T15:21:13.983Z</time></trkpt><trkpt lat="45.29190201570721" lon="10.502234586853096"><ele>50.0</ele><time>2026-04-04T15:21:14.983Z</time></trkpt><trkpt lat="45.291772461148554" lon="10.502227960070648"><ele>50.0</ele><time>2026-04-04T15:21:15.983Z</time></trkpt><trkpt lat="45.29162470326876" lon="10.502212723918257"><ele>50.0</ele><time>2026-04-04T15:21:16.983Z</time></trkpt><trkpt lat="45.29146296435791" lon="10.502182708406625"><ele>50.0</ele><time>2026-04-04T15:21:17.983Z</time></trkpt><trkpt lat="45.291280200338434" lon="10.502138442896236"><ele>49.66666666666667</ele><time>2026-04-04T15:21:18.983Z</time></trkpt><trkpt lat="45.291092022034476" lon="10.502090466054357"><ele>49.33333333333333</ele><time>2026-04-04T15:21:19.983Z</time></trkpt><trkpt lat="45.29089875380449" lon="10.502031173433103"><ele>49.0</ele><time>2026-04-04T15:21:20.983Z</time></trkpt><trkpt lat="45.290699510313644" lon="10.501972287310124"><ele>48.33333333333333</ele><time>2026-04-04T15:21:21.983Z</time></trkpt><trkpt lat="45.29050845627842" lon="10.501918755575916"><ele>47.666666666666664</ele><time>2026-04-04T15:21:22.983Z</time></trkpt><trkpt lat="45.290330323247886" lon="10.501874258714244"><ele>47.0</ele><time>2026-04-04T15:21:23.983Z</time></trkpt><trkpt lat="45.29015385202951" lon="10.501837610149673"><ele>47.0</ele><time>2026-04-04T15:21:24.983Z</time></trkpt><trkpt lat="45.289970715153956" lon="10.501798387060667"><ele>47.0</ele><time>2026-04-04T15:21:25.983Z</time></trkpt><trkpt lat="45.28978720352175" lon="10.501759922622279"><ele>47.0</ele><time>2026-04-04T15:21:26.983Z</time></trkpt><trkpt lat="45.28960469925839" lon="10.501722010866"><ele>47.666666666666664</ele><time>2026-04-04T15:21:27.983Z</time></trkpt><trkpt lat="45.28942406559531" lon="10.501680852334669"><ele>48.33333333333333</ele><time>2026-04-04T15:21:28.983Z</time></trkpt><trkpt lat="45.28925364564402" lon="10.501643900288284"><ele>49.0</ele><time>2026-04-04T15:21:29.983Z</time></trkpt><trkpt lat="45.289086107840866" lon="10.50160661482013"><ele>48.666666666666664</ele><time>2026-04-04T15:21:30.983Z</time></trkpt><trkpt lat="45.28891894752605" lon="10.501573402271728"><ele>48.33333333333333</ele><time>2026-04-04T15:21:31.983Z</time></trkpt><trkpt lat="45.2887492934848" lon="10.5015404040421"><ele>48.0</ele><time>2026-04-04T15:21:32.983Z</time></trkpt><trkpt lat="45.28857614502867" lon="10.501509880576947"><ele>48.0</ele><time>2026-04-04T15:21:33.983Z</time></trkpt><trkpt lat="45.28840664941847" lon="10.501486248760648"><ele>48.0</ele><time>2026-04-04T15:21:34.982Z</time></trkpt><trkpt lat="45.28823625831724" lon="10.5014667612214"><ele>48.0</ele><time>2026-04-04T15:21:35.982Z</time></trkpt><trkpt lat="45.28808478028467" lon="10.501429057932356"><ele>48.0</ele><time>2026-04-04T15:21:36.982Z</time></trkpt><trkpt lat="45.28791979572625" lon="10.50140903441195"><ele>48.0</ele><time>2026-04-04T15:21:37.982Z</time></trkpt><trkpt lat="45.287758856454005" lon="10.501387338074426"><ele>48.0</ele><time>2026-04-04T15:21:38.982Z</time></trkpt><trkpt lat="45.28759313880087" lon="10.501361554436148"><ele>48.0</ele><time>2026-04-04T15:21:39.982Z</time></trkpt><trkpt lat="45.28742853493954" lon="10.501326270115525"><ele>48.0</ele><time>2026-04-04T15:21:40.982Z</time></trkpt><trkpt lat="45.28726663536964" lon="10.501287621975917"><ele>48.0</ele><time>2026-04-04T15:21:41.982Z</time></trkpt><trkpt lat="45.28710835586619" lon="10.501249433813664"><ele>48.33333333333333</ele><time>2026-04-04T15:21:42.982Z</time></trkpt><trkpt lat="45.28695286479449" lon="10.501218887863331"><ele>48.666666666666664</ele><time>2026-04-04T15:21:43.982Z</time></trkpt><trkpt lat="45.286798644833844" lon="10.501195834170158"><ele>49.0</ele><time>2026-04-04T15:21:44.982Z</time></trkpt><trkpt lat="45.28664097657389" lon="10.501169822313127"><ele>49.0</ele><time>2026-04-04T15:21:45.982Z</time></trkpt><trkpt lat="45.286492117359046" lon="10.501139326675139"><ele>49.0</ele><time>2026-04-04T15:21:46.982Z</time></trkpt><trkpt lat="45.28636218574563" lon="10.501109965024485"><ele>49.0</ele><time>2026-04-04T15:21:47.982Z</time></trkpt><trkpt lat="45.28624100609015" lon="10.501074354038112"><ele>49.0</ele><time>2026-04-04T15:21:48.982Z</time></trkpt><trkpt lat="45.28613733485553" lon="10.501044327771895"><ele>48.83333333333333</ele><time>2026-04-04T15:21:49.982Z</time></trkpt><trkpt lat="45.28604522705331" lon="10.501021896859848"><ele>48.666666666666664</ele><time>2026-04-04T15:21:50.982Z</time></trkpt><trkpt lat="45.28596206189483" lon="10.501011675969362"><ele>48.5</ele><time>2026-04-04T15:21:51.982Z</time></trkpt><trkpt lat="45.28589607425266" lon="10.500995696744264"><ele>48.33333333333333</ele><time>2026-04-04T15:21:52.982Z</time></trkpt><trkpt lat="45.28581740094807" lon="10.500942204079736"><ele>48.166666666666664</ele><time>2026-04-04T15:21:54.982Z</time></trkpt><trkpt lat="45.285825401762914" lon="10.500793953463763"><ele>48.0</ele><time>2026-04-04T15:21:56.982Z</time></trkpt><trkpt lat="45.28585994056512" lon="10.500692849897067"><ele>48.0</ele><time>2026-04-04T15:21:57.982Z</time></trkpt><trkpt lat="45.28589838838949" lon="10.500572362223217"><ele>48.0</ele><time>2026-04-04T15:21:58.982Z</time></trkpt><trkpt lat="45.28594214361638" lon="10.500434474700262"><ele>48.0</ele><time>2026-04-04T15:21:59.982Z</time></trkpt><trkpt lat="45.285981182824514" lon="10.500304298724833"><ele>48.0</ele><time>2026-04-04T15:22:00.982Z</time></trkpt><trkpt lat="45.28601573723101" lon="10.500210903320104"><ele>48.0</ele><time>2026-04-04T15:22:01.982Z</time></trkpt><trkpt lat="45.28604559790921" lon="10.500121286846914"><ele>48.0</ele><time>2026-04-04T15:22:02.982Z</time></trkpt><trkpt lat="45.28607386173552" lon="10.500021464627885"><ele>48.0</ele><time>2026-04-04T15:22:03.982Z</time></trkpt><trkpt lat="45.286111199385985" lon="10.4999161669776"><ele>48.0</ele><time>2026-04-04T15:22:04.982Z</time></trkpt><trkpt lat="45.2861383326019" lon="10.499823097429273"><ele>48.0</ele><time>2026-04-04T15:22:05.982Z</time></trkpt><trkpt lat="45.286164884656706" lon="10.499733451824389"><ele>48.0</ele><time>2026-04-04T15:22:06.982Z</time></trkpt><trkpt lat="45.286192328579176" lon="10.499646279518267"><ele>48.0</ele><time>2026-04-04T15:22:07.982Z</time></trkpt><trkpt lat="45.28622239053151" lon="10.49956334305947"><ele>48.0</ele><time>2026-04-04T15:22:08.982Z</time></trkpt><trkpt lat="45.286269814175945" lon="10.499406393359314"><ele>48.0</ele><time>2026-04-04T15:22:10.982Z</time></trkpt><trkpt lat="45.28629431755686" lon="10.49931823479603"><ele>48.0</ele><time>2026-04-04T15:22:11.982Z</time></trkpt><trkpt lat="45.28634529264427" lon="10.4991599904433"><ele>48.0</ele><time>2026-04-04T15:22:13.982Z</time></trkpt><trkpt lat="45.28636880101622" lon="10.49907265374228"><ele>48.0</ele><time>2026-04-04T15:22:14.982Z</time></trkpt><trkpt lat="45.28641692306705" lon="10.498904951425752"><ele>48.0</ele><time>2026-04-04T15:22:16.982Z</time></trkpt><trkpt lat="45.28644492214701" lon="10.49881168048447"><ele>47.8</ele><time>2026-04-04T15:22:17.982Z</time></trkpt><trkpt lat="45.28647338440353" lon="10.49871456532761"><ele>47.599999999999994</ele><time>2026-04-04T15:22:18.982Z</time></trkpt><trkpt lat="45.286507384104524" lon="10.498605045846519"><ele>47.400000000000006</ele><time>2026-04-04T15:22:19.982Z</time></trkpt><trkpt lat="45.28655405802106" lon="10.498485834645708"><ele>47.2</ele><time>2026-04-04T15:22:20.982Z</time></trkpt><trkpt lat="45.28661352954124" lon="10.498367963896786"><ele>47.0</ele><time>2026-04-04T15:22:21.981Z</time></trkpt><trkpt lat="45.286680330114244" lon="10.498243487756113"><ele>47.0</ele><time>2026-04-04T15:22:22.981Z</time></trkpt><trkpt lat="45.28674676485242" lon="10.498122271692523"><ele>47.0</ele><time>2026-04-04T15:22:23.981Z</time></trkpt><trkpt lat="45.28681074885828" lon="10.497994059458103"><ele>47.0</ele><time>2026-04-04T15:22:24.981Z</time></trkpt><trkpt lat="45.28686595613147" lon="10.497855035546136"><ele>47.0</ele><time>2026-04-04T15:22:25.981Z</time></trkpt><trkpt lat="45.28692149411194" lon="10.497718171575945"><ele>47.0</ele><time>2026-04-04T15:22:26.981Z</time></trkpt><trkpt lat="45.28696713204214" lon="10.497557321578563"><ele>47.0</ele><time>2026-04-04T15:22:27.981Z</time></trkpt><trkpt lat="45.287015884194176" lon="10.497413001221938"><ele>47.0</ele><time>2026-04-04T15:22:28.984Z</time></trkpt><trkpt lat="45.28706967793275" lon="10.49727276909554"><ele>47.0</ele><time>2026-04-04T15:22:29.983Z</time></trkpt><trkpt lat="45.287114467485246" lon="10.497125339748171"><ele>47.0</ele><time>2026-04-04T15:22:30.983Z</time></trkpt><trkpt lat="45.287157640720935" lon="10.496982194465254"><ele>47.0</ele><time>2026-04-04T15:22:31.983Z</time></trkpt><trkpt lat="45.287199302948544" lon="10.496834574620197"><ele>47.0</ele><time>2026-04-04T15:22:32.983Z</time></trkpt><trkpt lat="45.287236104786" lon="10.496696485182891"><ele>47.0</ele><time>2026-04-04T15:22:33.983Z</time></trkpt><trkpt lat="45.28727745372137" lon="10.496558200599928"><ele>47.0</ele><time>2026-04-04T15:22:34.984Z</time></trkpt><trkpt lat="45.2873156149173" lon="10.496436165234067"><ele>47.0</ele><time>2026-04-04T15:22:35.984Z</time></trkpt><trkpt lat="45.2873466038973" lon="10.496336698833113"><ele>47.0</ele><time>2026-04-04T15:22:36.984Z</time></trkpt><trkpt lat="45.28735528291967" lon="10.496245122528462"><ele>47.0</ele><time>2026-04-04T15:22:37.984Z</time></trkpt><trkpt lat="45.287279299653036" lon="10.496139335864122"><ele>47.25</ele><time>2026-04-04T15:22:39.983Z</time></trkpt><trkpt lat="45.28718831299676" lon="10.496076030778587"><ele>47.5</ele><time>2026-04-04T15:22:40.984Z</time></trkpt><trkpt lat="45.28707715357113" lon="10.495985056170086"><ele>47.75</ele><time>2026-04-04T15:22:41.984Z</time></trkpt><trkpt lat="45.28695351185634" lon="10.49588672235821"><ele>48.0</ele><time>2026-04-04T15:22:42.984Z</time></trkpt><trkpt lat="45.286820388000045" lon="10.495782201070798"><ele>48.0</ele><time>2026-04-04T15:22:43.984Z</time></trkpt><trkpt lat="45.286683351444495" lon="10.49566944164947"><ele>48.0</ele><time>2026-04-04T15:22:44.984Z</time></trkpt><trkpt lat="45.28655275069735" lon="10.495557386230734"><ele>48.0</ele><time>2026-04-04T15:22:45.984Z</time></trkpt><trkpt lat="45.28642945773118" lon="10.495461394160339"><ele>47.5</ele><time>2026-04-04T15:22:46.984Z</time></trkpt><trkpt lat="45.2863056378366" lon="10.495363020879696"><ele>47.0</ele><time>2026-04-04T15:22:47.984Z</time></trkpt><trkpt lat="45.286191771363825" lon="10.495266188167271"><ele>46.5</ele><time>2026-04-04T15:22:48.984Z</time></trkpt><trkpt lat="45.286078626694234" lon="10.495167716362086"><ele>46.0</ele><time>2026-04-04T15:22:49.984Z</time></trkpt><trkpt lat="45.28596634593174" lon="10.495067796733037"><ele>46.0</ele><time>2026-04-04T15:22:50.984Z</time></trkpt><trkpt lat="45.28585335432457" lon="10.494967259864914"><ele>46.0</ele><time>2026-04-04T15:22:51.983Z</time></trkpt><trkpt lat="45.285737488144676" lon="10.494869970393596"><ele>46.0</ele><time>2026-04-04T15:22:52.983Z</time></trkpt><trkpt lat="45.28562964201702" lon="10.494776876213017"><ele>46.0</ele><time>2026-04-04T15:22:53.983Z</time></trkpt><trkpt lat="45.28551533609146" lon="10.494681689587887"><ele>46.25</ele><time>2026-04-04T15:22:54.983Z</time></trkpt><trkpt lat="45.28540853604824" lon="10.494586829912416"><ele>46.5</ele><time>2026-04-04T15:22:55.983Z</time></trkpt><trkpt lat="45.28530204337722" lon="10.494498758878972"><ele>46.75</ele><time>2026-04-04T15:22:56.983Z</time></trkpt><trkpt lat="45.285207108161195" lon="10.494418715994653"><ele>47.0</ele><time>2026-04-04T15:22:57.983Z</time></trkpt><trkpt lat="45.28511441757858" lon="10.494344371554496"><ele>47.0</ele><time>2026-04-04T15:22:58.983Z</time></trkpt><trkpt lat="45.28502015005765" lon="10.494272208622462"><ele>47.0</ele><time>2026-04-04T15:22:59.983Z</time></trkpt><trkpt lat="45.2849356663052" lon="10.494205915555304"><ele>47.0</ele><time>2026-04-04T15:23:00.983Z</time></trkpt><trkpt lat="45.28486586676483" lon="10.494141396934607"><ele>47.0</ele><time>2026-04-04T15:23:01.983Z</time></trkpt><trkpt lat="45.284804213881564" lon="10.494083937470265"><ele>47.0</ele><time>2026-04-04T15:23:02.983Z</time></trkpt><trkpt lat="45.28471142657548" lon="10.49400660897349"><ele>47.2</ele><time>2026-04-04T15:23:04.983Z</time></trkpt><trkpt lat="45.28464876642303" lon="10.493963015759693"><ele>47.400000000000006</ele><time>2026-04-04T15:23:07.983Z</time></trkpt><trkpt lat="45.28457998910191" lon="10.49385126057402"><ele>47.599999999999994</ele><time>2026-04-04T15:23:09.983Z</time></trkpt><trkpt lat="45.2845198385852" lon="10.493730767985296"><ele>47.8</ele><time>2026-04-04T15:23:10.983Z</time></trkpt><trkpt lat="45.284440724096676" lon="10.493601529065481"><ele>48.0</ele><time>2026-04-04T15:23:11.983Z</time></trkpt><trkpt lat="45.28434848531665" lon="10.49347224517784"><ele>48.25</ele><time>2026-04-04T15:23:12.983Z</time></trkpt><trkpt lat="45.28425509728985" lon="10.493329758094854"><ele>48.5</ele><time>2026-04-04T15:23:13.983Z</time></trkpt><trkpt lat="45.28415919056908" lon="10.493166447429077"><ele>48.75</ele><time>2026-04-04T15:23:14.983Z</time></trkpt><trkpt lat="45.28405218490518" lon="10.492993164744334"><ele>49.0</ele><time>2026-04-04T15:23:15.983Z</time></trkpt><trkpt lat="45.28394617444736" lon="10.492823505779132"><ele>48.33333333333333</ele><time>2026-04-04T15:23:16.983Z</time></trkpt><trkpt lat="45.28383852650528" lon="10.492649525835512"><ele>47.666666666666664</ele><time>2026-04-04T15:23:17.983Z</time></trkpt><trkpt lat="45.28372592678548" lon="10.492468164952545"><ele>47.0</ele><time>2026-04-04T15:23:18.983Z</time></trkpt><trkpt lat="45.28361019850945" lon="10.492278861295922"><ele>46.666666666666664</ele><time>2026-04-04T15:23:19.983Z</time></trkpt><trkpt lat="45.28349840662808" lon="10.492084170473344"><ele>46.333333333333336</ele><time>2026-04-04T15:23:20.983Z</time></trkpt><trkpt lat="45.283388012280525" lon="10.491881312514735"><ele>46.0</ele><time>2026-04-04T15:23:21.983Z</time></trkpt><trkpt lat="45.283291616049304" lon="10.491681798392094"><ele>46.0</ele><time>2026-04-04T15:23:22.983Z</time></trkpt><trkpt lat="45.283208455789506" lon="10.491479275145918"><ele>46.0</ele><time>2026-04-04T15:23:23.983Z</time></trkpt><trkpt lat="45.28311781305969" lon="10.491292962424954"><ele>46.0</ele><time>2026-04-04T15:23:24.983Z</time></trkpt><trkpt lat="45.28302179239685" lon="10.491118920646722"><ele>46.5</ele><time>2026-04-04T15:23:25.983Z</time></trkpt><trkpt lat="45.28292087767259" lon="10.490956793985854"><ele>47.0</ele><time>2026-04-04T15:23:26.983Z</time></trkpt><trkpt lat="45.28281916249001" lon="10.490801391298318"><ele>47.5</ele><time>2026-04-04T15:23:27.983Z</time></trkpt><trkpt lat="45.28271960247161" lon="10.490648687191385"><ele>48.0</ele><time>2026-04-04T15:23:28.983Z</time></trkpt><trkpt lat="45.28261126444214" lon="10.490499903126738"><ele>48.0</ele><time>2026-04-04T15:23:29.983Z</time></trkpt><trkpt lat="45.28250261631719" lon="10.490348831752968"><ele>48.0</ele><time>2026-04-04T15:23:30.983Z</time></trkpt><trkpt lat="45.282390701399166" lon="10.490201904998619"><ele>48.0</ele><time>2026-04-04T15:23:31.983Z</time></trkpt><trkpt lat="45.282269486923596" lon="10.490059303563026"><ele>47.666666666666664</ele><time>2026-04-04T15:23:32.983Z</time></trkpt><trkpt lat="45.282143065067395" lon="10.489926740092635"><ele>47.33333333333333</ele><time>2026-04-04T15:23:33.983Z</time></trkpt><trkpt lat="45.28201727269514" lon="10.489798483317989"><ele>47.0</ele><time>2026-04-04T15:23:34.983Z</time></trkpt><trkpt lat="45.28189964213173" lon="10.48966766738512"><ele>47.5</ele><time>2026-04-04T15:23:35.983Z</time></trkpt><trkpt lat="45.28178789438507" lon="10.489535856856435"><ele>48.0</ele><time>2026-04-04T15:23:36.983Z</time></trkpt><trkpt lat="45.281682926002766" lon="10.489425809445002"><ele>48.5</ele><time>2026-04-04T15:23:37.983Z</time></trkpt><trkpt lat="45.281584165122744" lon="10.489334253586684"><ele>49.0</ele><time>2026-04-04T15:23:38.982Z</time></trkpt><trkpt lat="45.281490711429534" lon="10.489257864123072"><ele>48.5</ele><time>2026-04-04T15:23:39.982Z</time></trkpt><trkpt lat="45.281393636790135" lon="10.489198364521016"><ele>48.0</ele><time>2026-04-04T15:23:40.982Z</time></trkpt><trkpt lat="45.28128206380031" lon="10.489144319952901"><ele>47.5</ele><time>2026-04-04T15:23:41.982Z</time></trkpt><trkpt lat="45.281165287155204" lon="10.489088147515307"><ele>47.0</ele><time>2026-04-04T15:23:42.982Z</time></trkpt><trkpt lat="45.28104992395771" lon="10.489033488134949"><ele>47.0</ele><time>2026-04-04T15:23:43.982Z</time></trkpt><trkpt lat="45.28093256841374" lon="10.488986079608528"><ele>47.0</ele><time>2026-04-04T15:23:44.982Z</time></trkpt><trkpt lat="45.280817362237364" lon="10.488942664646594"><ele>47.0</ele><time>2026-04-04T15:23:45.982Z</time></trkpt><trkpt lat="45.28070351701295" lon="10.488906400439406"><ele>47.0</ele><time>2026-04-04T15:23:46.982Z</time></trkpt><trkpt lat="45.280585344936" lon="10.488875117607826"><ele>47.0</ele><time>2026-04-04T15:23:47.982Z</time></trkpt><trkpt lat="45.280470206468" lon="10.488852445662213"><ele>47.0</ele><time>2026-04-04T15:23:48.982Z</time></trkpt><trkpt lat="45.28035549361051" lon="10.488819107055269"><ele>47.0</ele><time>2026-04-04T15:23:49.982Z</time></trkpt><trkpt lat="45.28024691170672" lon="10.488783604826446"><ele>47.0</ele><time>2026-04-04T15:23:50.982Z</time></trkpt><trkpt lat="45.28014208412718" lon="10.488747833836895"><ele>47.0</ele><time>2026-04-04T15:23:51.982Z</time></trkpt><trkpt lat="45.280047327414216" lon="10.488714361592482"><ele>47.0</ele><time>2026-04-04T15:23:52.982Z</time></trkpt><trkpt lat="45.279963502650695" lon="10.488680380960304"><ele>47.0</ele><time>2026-04-04T15:23:53.982Z</time></trkpt><trkpt lat="45.27988595160009" lon="10.488658549451463"><ele>47.0</ele><time>2026-04-04T15:23:54.982Z</time></trkpt><trkpt lat="45.27981394573796" lon="10.488657930682406"><ele>47.0</ele><time>2026-04-04T15:23:55.982Z</time></trkpt><trkpt lat="45.27974608985924" lon="10.488685660588649"><ele>47.0</ele><time>2026-04-04T15:23:56.982Z</time></trkpt><trkpt lat="45.27968928940807" lon="10.48872432314742"><ele>46.6</ele><time>2026-04-04T15:23:57.982Z</time></trkpt><trkpt lat="45.27961329959368" lon="10.488740798581286"><ele>46.2</ele><time>2026-04-04T15:23:58.982Z</time></trkpt><trkpt lat="45.279525569461015" lon="10.488786252746555"><ele>45.8</ele><time>2026-04-04T15:23:59.982Z</time></trkpt><trkpt lat="45.279418776216914" lon="10.488836811296348"><ele>45.4</ele><time>2026-04-04T15:24:00.982Z</time></trkpt><trkpt lat="45.27929640227108" lon="10.48887721205403"><ele>45.0</ele><time>2026-04-04T15:24:01.982Z</time></trkpt><trkpt lat="45.27915830050786" lon="10.488895145955555"><ele>45.0</ele><time>2026-04-04T15:24:02.982Z</time></trkpt><trkpt lat="45.27899718573023" lon="10.488932734102182"><ele>45.0</ele><time>2026-04-04T15:24:03.982Z</time></trkpt><trkpt lat="45.27882176185425" lon="10.488923420418319"><ele>45.0</ele><time>2026-04-04T15:24:04.982Z</time></trkpt><trkpt lat="45.278606459259656" lon="10.488935960826026"><ele>45.5</ele><time>2026-04-04T15:24:05.982Z</time></trkpt><trkpt lat="45.27837001176357" lon="10.488987054416716"><ele>46.0</ele><time>2026-04-04T15:24:06.982Z</time></trkpt><trkpt lat="45.27811305821553" lon="10.489072953720463"><ele>45.0</ele><time>2026-04-04T15:24:07.982Z</time></trkpt><trkpt lat="45.277837025825825" lon="10.489155632878418"><ele>44.0</ele><time>2026-04-04T15:24:08.982Z</time></trkpt><trkpt lat="45.277542934107245" lon="10.489170340461596"><ele>44.0</ele><time>2026-04-04T15:24:09.982Z</time></trkpt><trkpt lat="45.277280686483145" lon="10.489243559374616"><ele>44.0</ele><time>2026-04-04T15:24:10.982Z</time></trkpt><trkpt lat="45.277009525347616" lon="10.489336687651056"><ele>44.5</ele><time>2026-04-04T15:24:11.982Z</time></trkpt><trkpt lat="45.27676402171289" lon="10.489424459414856"><ele>45.0</ele><time>2026-04-04T15:24:12.982Z</time></trkpt><trkpt lat="45.27653866001779" lon="10.48948527610358"><ele>45.333333333333336</ele><time>2026-04-04T15:24:13.982Z</time></trkpt><trkpt lat="45.27633562618906" lon="10.48953313356265"><ele>45.66666666666667</ele><time>2026-04-04T15:24:14.982Z</time></trkpt><trkpt lat="45.276127892194104" lon="10.489582098897765"><ele>46.0</ele><time>2026-04-04T15:24:15.982Z</time></trkpt><trkpt lat="45.27593456247752" lon="10.489625606226426"><ele>45.66666666666667</ele><time>2026-04-04T15:24:16.982Z</time></trkpt><trkpt lat="45.27575013506403" lon="10.48966666918135"><ele>45.333333333333336</ele><time>2026-04-04T15:24:17.982Z</time></trkpt><trkpt lat="45.27559259827718" lon="10.489707640164056"><ele>45.0</ele><time>2026-04-04T15:24:18.982Z</time></trkpt><trkpt lat="45.275445727700514" lon="10.489782355388325"><ele>45.0</ele><time>2026-04-04T15:24:19.982Z</time></trkpt><trkpt lat="45.275306806700456" lon="10.489817515489658"><ele>45.0</ele><time>2026-04-04T15:24:20.982Z</time></trkpt><trkpt lat="45.27516724552623" lon="10.48984989245989"><ele>45.0</ele><time>2026-04-04T15:24:21.982Z</time></trkpt><trkpt lat="45.2750319372659" lon="10.489877548226463"><ele>45.0</ele><time>2026-04-04T15:24:22.982Z</time></trkpt><trkpt lat="45.27490651817369" lon="10.489890171379676"><ele>45.0</ele><time>2026-04-04T15:24:23.982Z</time></trkpt><trkpt lat="45.27479464567951" lon="10.48988884812342"><ele>45.0</ele><time>2026-04-04T15:24:24.982Z</time></trkpt><trkpt lat="45.27468726771365" lon="10.48987611588016"><ele>45.0</ele><time>2026-04-04T15:24:25.981Z</time></trkpt><trkpt lat="45.27457631947162" lon="10.489864680140528"><ele>45.0</ele><time>2026-04-04T15:24:26.981Z</time></trkpt><trkpt lat="45.27445750261826" lon="10.489860087747884"><ele>45.5</ele><time>2026-04-04T15:24:27.981Z</time></trkpt><trkpt lat="45.274329079015445" lon="10.489858935112307"><ele>46.0</ele><time>2026-04-04T15:24:28.981Z</time></trkpt><trkpt lat="45.274192706977026" lon="10.489850180864469"><ele>46.5</ele><time>2026-04-04T15:24:29.981Z</time></trkpt><trkpt lat="45.27404766805891" lon="10.489829623292174"><ele>47.0</ele><time>2026-04-04T15:24:30.981Z</time></trkpt><trkpt lat="45.27390038892383" lon="10.489812153721022"><ele>47.0</ele><time>2026-04-04T15:24:31.981Z</time></trkpt><trkpt lat="45.273764658268796" lon="10.489765838973664"><ele>47.0</ele><time>2026-04-04T15:24:32.981Z</time></trkpt><trkpt lat="45.27364333108329" lon="10.489742439566252"><ele>47.0</ele><time>2026-04-04T15:24:33.981Z</time></trkpt><trkpt lat="45.273547033043705" lon="10.489678863586606"><ele>47.0</ele><time>2026-04-04T15:24:34.984Z</time></trkpt><trkpt lat="45.27344400857595" lon="10.489638050469752"><ele>47.0</ele><time>2026-04-04T15:24:35.983Z</time></trkpt><trkpt lat="45.27331912388515" lon="10.489639207291878"><ele>47.0</ele><time>2026-04-04T15:24:36.983Z</time></trkpt><trkpt lat="45.27321807890793" lon="10.489752920574693"><ele>47.0</ele><time>2026-04-04T15:24:37.984Z</time></trkpt><trkpt lat="45.27309284732981" lon="10.489870361166522"><ele>47.0</ele><time>2026-04-04T15:24:38.984Z</time></trkpt><trkpt lat="45.27294290482986" lon="10.49000436104336"><ele>46.666666666666664</ele><time>2026-04-04T15:24:39.984Z</time></trkpt><trkpt lat="45.272777018290306" lon="10.49017560862799"><ele>46.333333333333336</ele><time>2026-04-04T15:24:40.984Z</time></trkpt><trkpt lat="45.27261209158699" lon="10.490336477047945"><ele>46.0</ele><time>2026-04-04T15:24:41.984Z</time></trkpt><trkpt lat="45.2724709383876" lon="10.490468766779042"><ele>45.66666666666667</ele><time>2026-04-04T15:24:42.984Z</time></trkpt><trkpt lat="45.27233274250162" lon="10.49056897635048"><ele>45.333333333333336</ele><time>2026-04-04T15:24:43.984Z</time></trkpt><trkpt lat="45.27217922901677" lon="10.49064360182863"><ele>45.0</ele><time>2026-04-04T15:24:44.984Z</time></trkpt><trkpt lat="45.272025930629844" lon="10.490685523182673"><ele>45.666666666666664</ele><time>2026-04-04T15:24:45.984Z</time></trkpt><trkpt lat="45.271873062832654" lon="10.490699184165077"><ele>46.33333333333333</ele><time>2026-04-04T15:24:46.984Z</time></trkpt><trkpt lat="45.27172671552603" lon="10.490727445496141"><ele>47.0</ele><time>2026-04-04T15:24:47.984Z</time></trkpt><trkpt lat="45.27157657207374" lon="10.49080593025247"><ele>47.0</ele><time>2026-04-04T15:24:48.984Z</time></trkpt><trkpt lat="45.271441506534046" lon="10.490933937705458"><ele>47.0</ele><time>2026-04-04T15:24:49.984Z</time></trkpt><trkpt lat="45.27129222751659" lon="10.491079234113966"><ele>47.0</ele><time>2026-04-04T15:24:50.984Z</time></trkpt><trkpt lat="45.27114426974391" lon="10.491238682037045"><ele>46.33333333333333</ele><time>2026-04-04T15:24:51.984Z</time></trkpt><trkpt lat="45.27101638240052" lon="10.491442618146287"><ele>45.666666666666664</ele><time>2026-04-04T15:24:52.984Z</time></trkpt><trkpt lat="45.27086969332953" lon="10.491564413032648"><ele>45.0</ele><time>2026-04-04T15:24:53.984Z</time></trkpt><trkpt lat="45.270718326412506" lon="10.491661273796481"><ele>45.0</ele><time>2026-04-04T15:24:54.984Z</time></trkpt><trkpt lat="45.270551478027585" lon="10.491760001433159"><ele>45.0</ele><time>2026-04-04T15:24:55.984Z</time></trkpt><trkpt lat="45.27037256720415" lon="10.491871956672691"><ele>45.0</ele><time>2026-04-04T15:24:56.984Z</time></trkpt><trkpt lat="45.2701672491837" lon="10.49196323539673"><ele>45.0</ele><time>2026-04-04T15:24:57.984Z</time></trkpt><trkpt lat="45.269965761844226" lon="10.49202081620055"><ele>45.0</ele><time>2026-04-04T15:24:58.984Z</time></trkpt><trkpt lat="45.26977450968836" lon="10.492068876334603"><ele>45.0</ele><time>2026-04-04T15:24:59.984Z</time></trkpt><trkpt lat="45.26960700063533" lon="10.492116551192636"><ele>44.5</ele><time>2026-04-04T15:25:00.984Z</time></trkpt><trkpt lat="45.26945274924946" lon="10.492160650589971"><ele>44.0</ele><time>2026-04-04T15:25:01.984Z</time></trkpt><trkpt lat="45.26931988776441" lon="10.492231596075053"><ele>43.5</ele><time>2026-04-04T15:25:02.984Z</time></trkpt><trkpt lat="45.26919797606421" lon="10.492265671606784"><ele>43.0</ele><time>2026-04-04T15:25:03.984Z</time></trkpt><trkpt lat="45.26909937941835" lon="10.492281174696682"><ele>43.0</ele><time>2026-04-04T15:25:04.984Z</time></trkpt><trkpt lat="45.26901382535768" lon="10.492298400255619"><ele>43.0</ele><time>2026-04-04T15:25:05.984Z</time></trkpt><trkpt lat="45.26895089738871" lon="10.492302161509652"><ele>43.0</ele><time>2026-04-04T15:25:06.983Z</time></trkpt><trkpt lat="45.26886191582578" lon="10.492219728139327"><ele>43.0</ele><time>2026-04-04T15:25:08.983Z</time></trkpt><trkpt lat="45.26882369457594" lon="10.492108553079259"><ele>43.0</ele><time>2026-04-04T15:25:09.983Z</time></trkpt><trkpt lat="45.268771998652085" lon="10.491897931375139"><ele>44.0</ele><time>2026-04-04T15:25:10.983Z</time></trkpt><trkpt lat="45.26868685111211" lon="10.491644576425594"><ele>45.0</ele><time>2026-04-04T15:25:11.983Z</time></trkpt><trkpt lat="45.268583108325075" lon="10.491367337258765"><ele>46.0</ele><time>2026-04-04T15:25:12.983Z</time></trkpt><trkpt lat="45.26847869071659" lon="10.491082709098912"><ele>46.0</ele><time>2026-04-04T15:25:13.983Z</time></trkpt><trkpt lat="45.26839120998783" lon="10.490795508755037"><ele>46.0</ele><time>2026-04-04T15:25:14.983Z</time></trkpt><trkpt lat="45.268331095285426" lon="10.49051971247356"><ele>46.0</ele><time>2026-04-04T15:25:15.983Z</time></trkpt><trkpt lat="45.26829036588079" lon="10.490236061866561"><ele>46.0</ele><time>2026-04-04T15:25:16.983Z</time></trkpt><trkpt lat="45.268276604471374" lon="10.489968083620457"><ele>46.0</ele><time>2026-04-04T15:25:17.983Z</time></trkpt><trkpt lat="45.268277600316544" lon="10.489734606308092"><ele>46.0</ele><time>2026-04-04T15:25:18.983Z</time></trkpt><trkpt lat="45.26826253544598" lon="10.489550092059"><ele>46.0</ele><time>2026-04-04T15:25:19.983Z</time></trkpt><trkpt lat="45.26821708283028" lon="10.48941449764469"><ele>46.0</ele><time>2026-04-04T15:25:20.983Z</time></trkpt><trkpt lat="45.26814344993785" lon="10.489305687055111"><ele>46.0</ele><time>2026-04-04T15:25:21.983Z</time></trkpt><trkpt lat="45.268046375485596" lon="10.489213216957857"><ele>46.0</ele><time>2026-04-04T15:25:22.983Z</time></trkpt><trkpt lat="45.267928076040626" lon="10.489139600644304"><ele>46.0</ele><time>2026-04-04T15:25:23.983Z</time></trkpt><trkpt lat="45.267814439902104" lon="10.489057800638793"><ele>46.0</ele><time>2026-04-04T15:25:24.983Z</time></trkpt><trkpt lat="45.26771304274981" lon="10.488967480537253"><ele>46.0</ele><time>2026-04-04T15:25:25.983Z</time></trkpt><trkpt lat="45.26762940501473" lon="10.488856129955078"><ele>46.0</ele><time>2026-04-04T15:25:26.983Z</time></trkpt><trkpt lat="45.26754761814595" lon="10.488710439416637"><ele>46.0</ele><time>2026-04-04T15:25:27.983Z</time></trkpt><trkpt lat="45.267459617494595" lon="10.48855188648445"><ele>46.0</ele><time>2026-04-04T15:25:28.983Z</time></trkpt><trkpt lat="45.26736298374064" lon="10.488393278956151"><ele>46.0</ele><time>2026-04-04T15:25:29.983Z</time></trkpt><trkpt lat="45.2672599988161" lon="10.488233832933998"><ele>46.0</ele><time>2026-04-04T15:25:30.983Z</time></trkpt><trkpt lat="45.267153174583" lon="10.4880815003374"><ele>46.0</ele><time>2026-04-04T15:25:31.983Z</time></trkpt><trkpt lat="45.2670549445763" lon="10.487938111444185"><ele>46.0</ele><time>2026-04-04T15:25:32.983Z</time></trkpt><trkpt lat="45.26696129272149" lon="10.487798013186131"><ele>46.0</ele><time>2026-04-04T15:25:33.983Z</time></trkpt><trkpt lat="45.266885345421954" lon="10.487646749379353"><ele>46.0</ele><time>2026-04-04T15:25:34.983Z</time></trkpt><trkpt lat="45.266794515747684" lon="10.487521999325176"><ele>46.25</ele><time>2026-04-04T15:25:35.983Z</time></trkpt><trkpt lat="45.26668185213558" lon="10.487446290431"><ele>46.5</ele><time>2026-04-04T15:25:36.983Z</time></trkpt><trkpt lat="45.26655768136583" lon="10.487386836539612"><ele>46.75</ele><time>2026-04-04T15:25:37.983Z</time></trkpt><trkpt lat="45.26641756963975" lon="10.487341138984577"><ele>47.0</ele><time>2026-04-04T15:25:38.983Z</time></trkpt><trkpt lat="45.26627683024299" lon="10.48729114214297"><ele>46.5</ele><time>2026-04-04T15:25:39.983Z</time></trkpt><trkpt lat="45.26614144849802" lon="10.487211216548012"><ele>46.0</ele><time>2026-04-04T15:25:40.983Z</time></trkpt><trkpt lat="45.26600579141054" lon="10.487140427749583"><ele>45.5</ele><time>2026-04-04T15:25:41.983Z</time></trkpt><trkpt lat="45.265865065652825" lon="10.487055488530263"><ele>45.0</ele><time>2026-04-04T15:25:42.983Z</time></trkpt><trkpt lat="45.26572738437784" lon="10.486953030951923"><ele>45.0</ele><time>2026-04-04T15:25:43.983Z</time></trkpt><trkpt lat="45.26559210804108" lon="10.486837735971262"><ele>45.0</ele><time>2026-04-04T15:25:44.983Z</time></trkpt><trkpt lat="45.26545196552142" lon="10.486705328014182"><ele>45.0</ele><time>2026-04-04T15:25:45.983Z</time></trkpt><trkpt lat="45.2653133670774" lon="10.486561698954016"><ele>45.0</ele><time>2026-04-04T15:25:46.983Z</time></trkpt><trkpt lat="45.26519031948633" lon="10.486400921023915"><ele>45.0</ele><time>2026-04-04T15:25:47.983Z</time></trkpt><trkpt lat="45.26505821197776" lon="10.486258971348423"><ele>45.0</ele><time>2026-04-04T15:25:48.983Z</time></trkpt><trkpt lat="45.26491235565021" lon="10.48613708520936"><ele>45.333333333333336</ele><time>2026-04-04T15:25:49.983Z</time></trkpt><trkpt lat="45.26478541885083" lon="10.485979131949062"><ele>45.66666666666667</ele><time>2026-04-04T15:25:50.983Z</time></trkpt><trkpt lat="45.264681205762884" lon="10.485788390754413"><ele>46.0</ele><time>2026-04-04T15:25:51.983Z</time></trkpt><trkpt lat="45.26455339533363" lon="10.485621175422288"><ele>45.333333333333336</ele><time>2026-04-04T15:25:52.983Z</time></trkpt><trkpt lat="45.264378640390575" lon="10.48549705169965"><ele>44.666666666666664</ele><time>2026-04-04T15:25:53.983Z</time></trkpt><trkpt lat="45.26420820436948" lon="10.485349652583274"><ele>44.0</ele><time>2026-04-04T15:25:54.982Z</time></trkpt><trkpt lat="45.26402865031959" lon="10.485232743378003"><ele>44.0</ele><time>2026-04-04T15:25:55.982Z</time></trkpt><trkpt lat="45.26384985982383" lon="10.485136955092036"><ele>44.0</ele><time>2026-04-04T15:25:56.982Z</time></trkpt><trkpt lat="45.26367465145411" lon="10.48506746125926"><ele>44.0</ele><time>2026-04-04T15:25:57.982Z</time></trkpt><trkpt lat="45.263509423742946" lon="10.485008597346036"><ele>44.0</ele><time>2026-04-04T15:25:58.982Z</time></trkpt><trkpt lat="45.26334729843097" lon="10.484945188151936"><ele>44.0</ele><time>2026-04-04T15:25:59.982Z</time></trkpt><trkpt lat="45.263183119919006" lon="10.484859376982904"><ele>44.0</ele><time>2026-04-04T15:26:00.982Z</time></trkpt><trkpt lat="45.26303173401631" lon="10.484755896540076"><ele>43.666666666666664</ele><time>2026-04-04T15:26:01.982Z</time></trkpt><trkpt lat="45.262879273050004" lon="10.484652234183956"><ele>43.333333333333336</ele><time>2026-04-04T15:26:02.982Z</time></trkpt><trkpt lat="45.262742708225645" lon="10.484549557450864"><ele>43.0</ele><time>2026-04-04T15:26:03.982Z</time></trkpt><trkpt lat="45.262616681845124" lon="10.484449515235532"><ele>43.0</ele><time>2026-04-04T15:26:04.982Z</time></trkpt><trkpt lat="45.26249798146784" lon="10.484348282747789"><ele>43.0</ele><time>2026-04-04T15:26:05.982Z</time></trkpt><trkpt lat="45.26238991567298" lon="10.484225012063607"><ele>43.0</ele><time>2026-04-04T15:26:06.982Z</time></trkpt><trkpt lat="45.26226934940909" lon="10.484131925654959"><ele>43.0</ele><time>2026-04-04T15:26:07.982Z</time></trkpt><trkpt lat="45.26213607767829" lon="10.484059127279277"><ele>42.66666666666667</ele><time>2026-04-04T15:26:08.982Z</time></trkpt><trkpt lat="45.26198530587903" lon="10.484025076558734"><ele>42.333333333333336</ele><time>2026-04-04T15:26:09.982Z</time></trkpt><trkpt lat="45.26184550684148" lon="10.48393796718436"><ele>42.0</ele><time>2026-04-04T15:26:10.982Z</time></trkpt><trkpt lat="45.26170360167092" lon="10.483861262915047"><ele>42.0</ele><time>2026-04-04T15:26:11.982Z</time></trkpt><trkpt lat="45.26155700849819" lon="10.483781234038073"><ele>42.0</ele><time>2026-04-04T15:26:12.982Z</time></trkpt><trkpt lat="45.26142848745779" lon="10.483659610216806"><ele>42.0</ele><time>2026-04-04T15:26:13.982Z</time></trkpt><trkpt lat="45.26131272474524" lon="10.483526349772678"><ele>43.0</ele><time>2026-04-04T15:26:14.982Z</time></trkpt><trkpt lat="45.2611968635118" lon="10.483390444033278"><ele>44.0</ele><time>2026-04-04T15:26:15.982Z</time></trkpt><trkpt lat="45.261074586273665" lon="10.48326391058113"><ele>45.0</ele><time>2026-04-04T15:26:16.982Z</time></trkpt><trkpt lat="45.26095307323757" lon="10.483137223632136"><ele>45.0</ele><time>2026-04-04T15:26:17.982Z</time></trkpt><trkpt lat="45.26081013267153" lon="10.483030080785776"><ele>45.0</ele><time>2026-04-04T15:26:18.982Z</time></trkpt><trkpt lat="45.26066024672709" lon="10.482935336216189"><ele>45.0</ele><time>2026-04-04T15:26:19.982Z</time></trkpt><trkpt lat="45.26051213219663" lon="10.48284056444187"><ele>44.333333333333336</ele><time>2026-04-04T15:26:20.982Z</time></trkpt><trkpt lat="45.26036475689155" lon="10.4827410675377"><ele>43.66666666666667</ele><time>2026-04-04T15:26:21.982Z</time></trkpt><trkpt lat="45.26021769987591" lon="10.482640962057042"><ele>43.0</ele><time>2026-04-04T15:26:22.982Z</time></trkpt><trkpt lat="45.26007234455348" lon="10.482544304354288"><ele>43.0</ele><time>2026-04-04T15:26:23.982Z</time></trkpt><trkpt lat="45.25992662999313" lon="10.482449877782539"><ele>43.0</ele><time>2026-04-04T15:26:24.982Z</time></trkpt><trkpt lat="45.25978381292126" lon="10.48234867536001"><ele>43.0</ele><time>2026-04-04T15:26:25.982Z</time></trkpt><trkpt lat="45.259637715499736" lon="10.482259948891322"><ele>43.0</ele><time>2026-04-04T15:26:26.982Z</time></trkpt><trkpt lat="45.25949532761119" lon="10.482168498868518"><ele>43.0</ele><time>2026-04-04T15:26:27.982Z</time></trkpt><trkpt lat="45.259350538733216" lon="10.482085809817603"><ele>43.0</ele><time>2026-04-04T15:26:28.982Z</time></trkpt><trkpt lat="45.259204610407025" lon="10.481998047920818"><ele>43.333333333333336</ele><time>2026-04-04T15:26:29.982Z</time></trkpt><trkpt lat="45.25905609956758" lon="10.481907449647057"><ele>43.666666666666664</ele><time>2026-04-04T15:26:30.982Z</time></trkpt><trkpt lat="45.258910263246605" lon="10.481819304047967"><ele>44.0</ele><time>2026-04-04T15:26:31.982Z</time></trkpt><trkpt lat="45.25876259666845" lon="10.481736471938296"><ele>44.0</ele><time>2026-04-04T15:26:32.982Z</time></trkpt><trkpt lat="45.25862885904235" lon="10.481661061186697"><ele>44.0</ele><time>2026-04-04T15:26:33.982Z</time></trkpt><trkpt lat="45.258508831699984" lon="10.481592221456527"><ele>44.0</ele><time>2026-04-04T15:26:34.982Z</time></trkpt><trkpt lat="45.25839299727332" lon="10.481530153747975"><ele>44.0</ele><time>2026-04-04T15:26:35.982Z</time></trkpt><trkpt lat="45.25829471864582" lon="10.481473943485812"><ele>44.0</ele><time>2026-04-04T15:26:36.982Z</time></trkpt><trkpt lat="45.258206222707386" lon="10.481409741782818"><ele>44.0</ele><time>2026-04-04T15:26:37.982Z</time></trkpt><trkpt lat="45.25816577618116" lon="10.481336451692032"><ele>44.0</ele><time>2026-04-04T15:26:38.982Z</time></trkpt><trkpt lat="45.25812915083369" lon="10.481212117506757"><ele>44.0</ele><time>2026-04-04T15:26:39.982Z</time></trkpt><trkpt lat="45.258128965887636" lon="10.481048497330159"><ele>44.0</ele><time>2026-04-04T15:26:40.984Z</time></trkpt><trkpt lat="45.2581532708871" lon="10.480882320630148"><ele>44.25</ele><time>2026-04-04T15:26:41.984Z</time></trkpt><trkpt lat="45.25817148059272" lon="10.480703727748484"><ele>44.5</ele><time>2026-04-04T15:26:42.984Z</time></trkpt><trkpt lat="45.25819860749389" lon="10.480512972015173"><ele>44.75</ele><time>2026-04-04T15:26:43.985Z</time></trkpt><trkpt lat="45.258225281599074" lon="10.480339938902944"><ele>45.0</ele><time>2026-04-04T15:26:44.984Z</time></trkpt><trkpt lat="45.25824600466013" lon="10.480145335429947"><ele>45.0</ele><time>2026-04-04T15:26:45.984Z</time></trkpt><trkpt lat="45.25827005825858" lon="10.479958618206107"><ele>45.0</ele><time>2026-04-04T15:26:46.984Z</time></trkpt><trkpt lat="45.25829152106556" lon="10.47979139108644"><ele>45.0</ele><time>2026-04-04T15:26:47.984Z</time></trkpt><trkpt lat="45.258311196342014" lon="10.479632558565024"><ele>45.0</ele><time>2026-04-04T15:26:48.984Z</time></trkpt><trkpt lat="45.25832904212876" lon="10.479477546894104"><ele>45.2</ele><time>2026-04-04T15:26:49.985Z</time></trkpt><trkpt lat="45.25834889030318" lon="10.479318543513243"><ele>45.4</ele><time>2026-04-04T15:26:50.984Z</time></trkpt><trkpt lat="45.25836647684775" lon="10.479169390866797"><ele>45.599999999999994</ele><time>2026-04-04T15:26:51.984Z</time></trkpt><trkpt lat="45.25838281667103" lon="10.479041912798932"><ele>45.8</ele><time>2026-04-04T15:26:52.984Z</time></trkpt><trkpt lat="45.25840311534763" lon="10.478920336133694"><ele>46.0</ele><time>2026-04-04T15:26:53.985Z</time></trkpt><trkpt lat="45.258422681494615" lon="10.478796747826966"><ele>46.0</ele><time>2026-04-04T15:26:54.985Z</time></trkpt><trkpt lat="45.258454104870886" lon="10.47865738585747"><ele>46.0</ele><time>2026-04-04T15:26:55.985Z</time></trkpt><trkpt lat="45.258478171128445" lon="10.47852156005611"><ele>46.0</ele><time>2026-04-04T15:26:56.985Z</time></trkpt><trkpt lat="45.258507301569374" lon="10.478370527348915"><ele>46.0</ele><time>2026-04-04T15:26:57.984Z</time></trkpt><trkpt lat="45.25853319618222" lon="10.478217164004006"><ele>46.0</ele><time>2026-04-04T15:26:58.984Z</time></trkpt><trkpt lat="45.25855864559329" lon="10.478074957184973"><ele>45.75</ele><time>2026-04-04T15:26:59.984Z</time></trkpt><trkpt lat="45.2585829850081" lon="10.477925387224436"><ele>45.5</ele><time>2026-04-04T15:27:00.984Z</time></trkpt><trkpt lat="45.25861130310488" lon="10.47778608334377"><ele>45.25</ele><time>2026-04-04T15:27:01.984Z</time></trkpt><trkpt lat="45.25864422536048" lon="10.477618737829491"><ele>45.0</ele><time>2026-04-04T15:27:02.984Z</time></trkpt><trkpt lat="45.258679481988445" lon="10.477435751453338"><ele>45.0</ele><time>2026-04-04T15:27:03.984Z</time></trkpt><trkpt lat="45.25871606642051" lon="10.477261523726487"><ele>45.0</ele><time>2026-04-04T15:27:04.984Z</time></trkpt><trkpt lat="45.25875377282385" lon="10.477078087421017"><ele>45.0</ele><time>2026-04-04T15:27:05.984Z</time></trkpt><trkpt lat="45.2587823797001" lon="10.476930125384497"><ele>45.0</ele><time>2026-04-04T15:27:06.984Z</time></trkpt><trkpt lat="45.25879625010576" lon="10.476801821236505"><ele>45.0</ele><time>2026-04-04T15:27:07.984Z</time></trkpt><trkpt lat="45.2588272868259" lon="10.476667258800795"><ele>45.0</ele><time>2026-04-04T15:27:08.984Z</time></trkpt><trkpt lat="45.258849508910096" lon="10.47653956074057"><ele>45.0</ele><time>2026-04-04T15:27:09.984Z</time></trkpt><trkpt lat="45.258873023446945" lon="10.476429272583928"><ele>45.0</ele><time>2026-04-04T15:27:10.984Z</time></trkpt><trkpt lat="45.258905776099105" lon="10.476290206742352"><ele>45.0</ele><time>2026-04-04T15:27:12.984Z</time></trkpt><trkpt lat="45.258928747766916" lon="10.47619827508395"><ele>45.0</ele><time>2026-04-04T15:27:14.984Z</time></trkpt><trkpt lat="45.25895098531221" lon="10.476098034526984"><ele>44.75</ele><time>2026-04-04T15:27:16.984Z</time></trkpt><trkpt lat="45.258971426535986" lon="10.475980972098686"><ele>44.5</ele><time>2026-04-04T15:27:17.984Z</time></trkpt><trkpt lat="45.25901133377515" lon="10.475835456700558"><ele>44.25</ele><time>2026-04-04T15:27:18.984Z</time></trkpt><trkpt lat="45.25904675029066" lon="10.475667876015502"><ele>44.0</ele><time>2026-04-04T15:27:19.984Z</time></trkpt><trkpt lat="45.25908410102802" lon="10.475488620370404"><ele>44.25</ele><time>2026-04-04T15:27:20.984Z</time></trkpt><trkpt lat="45.259110241777904" lon="10.475298371351737"><ele>44.5</ele><time>2026-04-04T15:27:21.984Z</time></trkpt><trkpt lat="45.259153225350985" lon="10.475111678169164"><ele>44.75</ele><time>2026-04-04T15:27:22.984Z</time></trkpt><trkpt lat="45.259200639414416" lon="10.474904451221649"><ele>45.0</ele><time>2026-04-04T15:27:23.984Z</time></trkpt><trkpt lat="45.25924698508183" lon="10.474709501891294"><ele>44.75</ele><time>2026-04-04T15:27:24.984Z</time></trkpt><trkpt lat="45.25929447272652" lon="10.474504588726104"><ele>44.5</ele><time>2026-04-04T15:27:25.984Z</time></trkpt><trkpt lat="45.25934384980737" lon="10.474300503463246"><ele>44.25</ele><time>2026-04-04T15:27:26.984Z</time></trkpt><trkpt lat="45.25938613925104" lon="10.474103177202482"><ele>44.0</ele><time>2026-04-04T15:27:27.984Z</time></trkpt><trkpt lat="45.25943091784246" lon="10.473906754234172"><ele>44.0</ele><time>2026-04-04T15:27:28.984Z</time></trkpt><trkpt lat="45.259472471100395" lon="10.473727018800991"><ele>44.0</ele><time>2026-04-04T15:27:29.984Z</time></trkpt><trkpt lat="45.259519951497325" lon="10.473540529283165"><ele>44.0</ele><time>2026-04-04T15:27:30.984Z</time></trkpt><trkpt lat="45.25955998277039" lon="10.47335986608789"><ele>44.0</ele><time>2026-04-04T15:27:31.984Z</time></trkpt><trkpt lat="45.25960453739268" lon="10.473170163748657"><ele>44.0</ele><time>2026-04-04T15:27:32.984Z</time></trkpt><trkpt lat="45.25964738120159" lon="10.472980141931693"><ele>44.0</ele><time>2026-04-04T15:27:33.984Z</time></trkpt><trkpt lat="45.25969206339495" lon="10.472787444787555"><ele>44.0</ele><time>2026-04-04T15:27:34.984Z</time></trkpt><trkpt lat="45.25972970951549" lon="10.472595521612337"><ele>44.0</ele><time>2026-04-04T15:27:35.984Z</time></trkpt><trkpt lat="45.25976966407034" lon="10.472399919563726"><ele>44.0</ele><time>2026-04-04T15:27:36.983Z</time></trkpt><trkpt lat="45.25981151599939" lon="10.472212011608944"><ele>44.0</ele><time>2026-04-04T15:27:37.983Z</time></trkpt><trkpt lat="45.25985642339249" lon="10.472021859744443"><ele>44.0</ele><time>2026-04-04T15:27:38.983Z</time></trkpt><trkpt lat="45.259902130676984" lon="10.471835124005985"><ele>44.0</ele><time>2026-04-04T15:27:39.983Z</time></trkpt><trkpt lat="45.25994523091343" lon="10.471650373440573"><ele>43.5</ele><time>2026-04-04T15:27:40.983Z</time></trkpt><trkpt lat="45.25998257267182" lon="10.47147127104052"><ele>43.0</ele><time>2026-04-04T15:27:41.983Z</time></trkpt><trkpt lat="45.26002375599012" lon="10.471291622926376"><ele>42.5</ele><time>2026-04-04T15:27:42.983Z</time></trkpt><trkpt lat="45.26006071436343" lon="10.471124027673959"><ele>42.0</ele><time>2026-04-04T15:27:43.983Z</time></trkpt><trkpt lat="45.26009943668074" lon="10.470964636944485"><ele>42.0</ele><time>2026-04-04T15:27:44.983Z</time></trkpt><trkpt lat="45.26013094633895" lon="10.470832882292553"><ele>42.0</ele><time>2026-04-04T15:27:45.983Z</time></trkpt><trkpt lat="45.26015710986578" lon="10.470724425759107"><ele>42.0</ele><time>2026-04-04T15:27:46.983Z</time></trkpt><trkpt lat="45.26020698758262" lon="10.470626130950814"><ele>42.0</ele><time>2026-04-04T15:27:48.983Z</time></trkpt><trkpt lat="45.26028470191756" lon="10.470663021552898"><ele>42.0</ele><time>2026-04-04T15:27:50.982Z</time></trkpt><trkpt lat="45.26036731806363" lon="10.47068315338242"><ele>42.0</ele><time>2026-04-04T15:27:51.982Z</time></trkpt><trkpt lat="45.26045243942314" lon="10.470705240153805"><ele>42.0</ele><time>2026-04-04T15:27:52.982Z</time></trkpt><trkpt lat="45.2605531399391" lon="10.47073543116848"><ele>42.0</ele><time>2026-04-04T15:27:53.982Z</time></trkpt><trkpt lat="45.26065901395506" lon="10.470756845627585"><ele>42.0</ele><time>2026-04-04T15:27:54.982Z</time></trkpt><trkpt lat="45.26077399012387" lon="10.470790207545146"><ele>42.0</ele><time>2026-04-04T15:27:55.982Z</time></trkpt><trkpt lat="45.26088744692576" lon="10.47082651254083"><ele>42.0</ele><time>2026-04-04T15:27:56.982Z</time></trkpt><trkpt lat="45.26100052684816" lon="10.470860496374499"><ele>42.0</ele><time>2026-04-04T15:27:57.982Z</time></trkpt><trkpt lat="45.26111805723079" lon="10.470898821592877"><ele>42.0</ele><time>2026-04-04T15:27:58.982Z</time></trkpt><trkpt lat="45.26122908585363" lon="10.470942938062782"><ele>42.0</ele><time>2026-04-04T15:27:59.982Z</time></trkpt><trkpt lat="45.26133450805965" lon="10.470981672667644"><ele>42.0</ele><time>2026-04-04T15:28:00.982Z</time></trkpt><trkpt lat="45.26142745716031" lon="10.47100955574055"><ele>42.0</ele><time>2026-04-04T15:28:01.982Z</time></trkpt><trkpt lat="45.2615236758957" lon="10.471001541172129"><ele>42.0</ele><time>2026-04-04T15:28:02.982Z</time></trkpt><trkpt lat="45.261621624172825" lon="10.470966250192838"><ele>42.0</ele><time>2026-04-04T15:28:03.982Z</time></trkpt><trkpt lat="45.26172099212316" lon="10.470946593314883"><ele>42.0</ele><time>2026-04-04T15:28:04.982Z</time></trkpt><trkpt lat="45.261818441932625" lon="10.470964014739321"><ele>42.0</ele><time>2026-04-04T15:28:05.982Z</time></trkpt><trkpt lat="45.26191400422658" lon="10.471025118490632"><ele>42.0</ele><time>2026-04-04T15:28:06.982Z</time></trkpt><trkpt lat="45.26201197161598" lon="10.471107972352218"><ele>42.0</ele><time>2026-04-04T15:28:07.982Z</time></trkpt><trkpt lat="45.262103575513336" lon="10.47120682931644"><ele>42.0</ele><time>2026-04-04T15:28:08.982Z</time></trkpt><trkpt lat="45.26219732392754" lon="10.471328891138294"><ele>42.0</ele><time>2026-04-04T15:28:09.982Z</time></trkpt><trkpt lat="45.26226754664599" lon="10.47148021412167"><ele>42.0</ele><time>2026-04-04T15:28:10.982Z</time></trkpt><trkpt lat="45.26236521610548" lon="10.471606431491278"><ele>42.400000000000006</ele><time>2026-04-04T15:28:11.982Z</time></trkpt><trkpt lat="45.26244799188697" lon="10.471739293591845"><ele>42.800000000000004</ele><time>2026-04-04T15:28:12.982Z</time></trkpt><trkpt lat="45.26252606221048" lon="10.471853706360974"><ele>43.2</ele><time>2026-04-04T15:28:13.982Z</time></trkpt><trkpt lat="45.26260342608914" lon="10.471960055553051"><ele>43.6</ele><time>2026-04-04T15:28:14.982Z</time></trkpt><trkpt lat="45.26266667236517" lon="10.47207100871112"><ele>44.0</ele><time>2026-04-04T15:28:15.982Z</time></trkpt><trkpt lat="45.2627127010183" lon="10.472187935232515"><ele>44.0</ele><time>2026-04-04T15:28:16.982Z</time></trkpt><trkpt lat="45.262783386383354" lon="10.472273848919238"><ele>44.0</ele><time>2026-04-04T15:28:17.982Z</time></trkpt><trkpt lat="45.26286998628474" lon="10.47233662227288"><ele>44.0</ele><time>2026-04-04T15:28:18.981Z</time></trkpt><trkpt lat="45.26296453127659" lon="10.472378186677217"><ele>44.0</ele><time>2026-04-04T15:28:19.981Z</time></trkpt><trkpt lat="45.263077663915205" lon="10.472402139024855"><ele>44.0</ele><time>2026-04-04T15:28:20.981Z</time></trkpt><trkpt lat="45.26319520988627" lon="10.472439207941067"><ele>43.75</ele><time>2026-04-04T15:28:21.981Z</time></trkpt><trkpt lat="45.26331544136901" lon="10.472468534211695"><ele>43.5</ele><time>2026-04-04T15:28:22.981Z</time></trkpt><trkpt lat="45.263435020361385" lon="10.472500305678766"><ele>43.25</ele><time>2026-04-04T15:28:23.981Z</time></trkpt><trkpt lat="45.263553875585146" lon="10.472537879899024"><ele>43.0</ele><time>2026-04-04T15:28:24.981Z</time></trkpt><trkpt lat="45.26367384434722" lon="10.472581216223121"><ele>43.0</ele><time>2026-04-04T15:28:25.981Z</time></trkpt><trkpt lat="45.26379783327674" lon="10.472623999349542"><ele>43.0</ele><time>2026-04-04T15:28:26.981Z</time></trkpt><trkpt lat="45.26391759861983" lon="10.472668673372905"><ele>43.0</ele><time>2026-04-04T15:28:27.981Z</time></trkpt><trkpt lat="45.26403977061388" lon="10.472707499381888"><ele>43.0</ele><time>2026-04-04T15:28:28.981Z</time></trkpt><trkpt lat="45.26416217859568" lon="10.472745969356964"><ele>42.5</ele><time>2026-04-04T15:28:29.981Z</time></trkpt><trkpt lat="45.26428755177855" lon="10.472771320804238"><ele>42.0</ele><time>2026-04-04T15:28:30.981Z</time></trkpt><trkpt lat="45.264409101838346" lon="10.472786094354353"><ele>41.5</ele><time>2026-04-04T15:28:31.981Z</time></trkpt><trkpt lat="45.26453316169132" lon="10.47278998140403"><ele>41.0</ele><time>2026-04-04T15:28:32.981Z</time></trkpt><trkpt lat="45.26465992150091" lon="10.472791608927896"><ele>41.0</ele><time>2026-04-04T15:28:33.981Z</time></trkpt><trkpt lat="45.26477860328173" lon="10.472792385597074"><ele>41.0</ele><time>2026-04-04T15:28:34.981Z</time></trkpt><trkpt lat="45.26490657558068" lon="10.47281331095584"><ele>41.0</ele><time>2026-04-04T15:28:35.981Z</time></trkpt><trkpt lat="45.26502835190988" lon="10.472831116874161"><ele>41.0</ele><time>2026-04-04T15:28:36.981Z</time></trkpt><trkpt lat="45.26514937602722" lon="10.472849129325883"><ele>41.75</ele><time>2026-04-04T15:28:37.981Z</time></trkpt><trkpt lat="45.26526570441512" lon="10.47286938924546"><ele>42.5</ele><time>2026-04-04T15:28:38.981Z</time></trkpt><trkpt lat="45.265382553612405" lon="10.472896193967669"><ele>43.25</ele><time>2026-04-04T15:28:39.981Z</time></trkpt><trkpt lat="45.26549911737538" lon="10.47292311385525"><ele>44.0</ele><time>2026-04-04T15:28:40.981Z</time></trkpt><trkpt lat="45.265612897005646" lon="10.472942777222222"><ele>44.0</ele><time>2026-04-04T15:28:41.981Z</time></trkpt><trkpt lat="45.265716144373464" lon="10.472958987260432"><ele>44.0</ele><time>2026-04-04T15:28:42.981Z</time></trkpt><trkpt lat="45.26580600504348" lon="10.473091624395654"><ele>44.0</ele><time>2026-04-04T15:28:43.981Z</time></trkpt><trkpt lat="45.265906407243044" lon="10.473108725781495"><ele>44.0</ele><time>2026-04-04T15:28:44.981Z</time></trkpt><trkpt lat="45.26600904271317" lon="10.473126207591786"><ele>44.0</ele><time>2026-04-04T15:28:45.981Z</time></trkpt><trkpt lat="45.26611887435537" lon="10.473044676261818"><ele>44.0</ele><time>2026-04-04T15:28:46.983Z</time></trkpt><trkpt lat="45.26621197669503" lon="10.473080033644752"><ele>44.0</ele><time>2026-04-04T15:28:47.983Z</time></trkpt><trkpt lat="45.26630785842723" lon="10.473104334054934"><ele>44.0</ele><time>2026-04-04T15:28:48.983Z</time></trkpt><trkpt lat="45.26641102528478" lon="10.473108483338065"><ele>44.0</ele><time>2026-04-04T15:28:49.983Z</time></trkpt><trkpt lat="45.26650965826265" lon="10.47310823176323"><ele>44.0</ele><time>2026-04-04T15:28:50.983Z</time></trkpt><trkpt lat="45.26660746833744" lon="10.473103747757625"><ele>44.2</ele><time>2026-04-04T15:28:51.983Z</time></trkpt><trkpt lat="45.26670475932675" lon="10.473084742387318"><ele>44.400000000000006</ele><time>2026-04-04T15:28:52.983Z</time></trkpt><trkpt lat="45.26680120163608" lon="10.473068375700334"><ele>44.6</ele><time>2026-04-04T15:28:53.983Z</time></trkpt><trkpt lat="45.266898632934975" lon="10.473077848260383"><ele>44.8</ele><time>2026-04-04T15:28:54.983Z</time></trkpt><trkpt lat="45.26699745895945" lon="10.473104329614065"><ele>45.0</ele><time>2026-04-04T15:28:55.983Z</time></trkpt><trkpt lat="45.26709304199508" lon="10.473146362089578"><ele>45.0</ele><time>2026-04-04T15:28:56.983Z</time></trkpt><trkpt lat="45.267192402874024" lon="10.473176775183456"><ele>45.0</ele><time>2026-04-04T15:28:57.983Z</time></trkpt><trkpt lat="45.267293029472185" lon="10.47318247906746"><ele>45.0</ele><time>2026-04-04T15:28:58.983Z</time></trkpt><trkpt lat="45.26738824917591" lon="10.473148826148533"><ele>45.0</ele><time>2026-04-04T15:28:59.983Z</time></trkpt><trkpt lat="45.26747896900324" lon="10.473069720867297"><ele>45.0</ele><time>2026-04-04T15:29:00.983Z</time></trkpt><trkpt lat="45.267553151302074" lon="10.472972317135161"><ele>44.8</ele><time>2026-04-04T15:29:01.983Z</time></trkpt><trkpt lat="45.26760031853726" lon="10.472856206540849"><ele>44.6</ele><time>2026-04-04T15:29:02.983Z</time></trkpt><trkpt lat="45.267649135152745" lon="10.472780973438955"><ele>44.400000000000006</ele><time>2026-04-04T15:29:03.983Z</time></trkpt><trkpt lat="45.26772460674803" lon="10.472740663834772"><ele>44.2</ele><time>2026-04-04T15:29:04.983Z</time></trkpt><trkpt lat="45.267831113842476" lon="10.472720194251606"><ele>44.0</ele><time>2026-04-04T15:29:05.983Z</time></trkpt><trkpt lat="45.26794457018828" lon="10.472698379127175"><ele>44.0</ele><time>2026-04-04T15:29:06.983Z</time></trkpt><trkpt lat="45.26805909266702" lon="10.472676601411063"><ele>44.0</ele><time>2026-04-04T15:29:07.982Z</time></trkpt><trkpt lat="45.26817451227969" lon="10.47266446678187"><ele>44.0</ele><time>2026-04-04T15:29:08.982Z</time></trkpt><trkpt lat="45.26829004102522" lon="10.472648535654274"><ele>44.0</ele><time>2026-04-04T15:29:09.982Z</time></trkpt><trkpt lat="45.268404012505385" lon="10.472639990257376"><ele>43.75</ele><time>2026-04-04T15:29:10.982Z</time></trkpt><trkpt lat="45.26851635731067" lon="10.472614509516658"><ele>43.5</ele><time>2026-04-04T15:29:11.982Z</time></trkpt><trkpt lat="45.268629119274074" lon="10.472578365975417"><ele>43.25</ele><time>2026-04-04T15:29:12.982Z</time></trkpt><trkpt lat="45.26874503479345" lon="10.47255083904734"><ele>43.0</ele><time>2026-04-04T15:29:13.982Z</time></trkpt><trkpt lat="45.268859955233864" lon="10.472537241278847"><ele>42.8</ele><time>2026-04-04T15:29:14.982Z</time></trkpt><trkpt lat="45.26897182399347" lon="10.472523322642145"><ele>42.599999999999994</ele><time>2026-04-04T15:29:15.982Z</time></trkpt><trkpt lat="45.26908377979131" lon="10.472501629314651"><ele>42.400000000000006</ele><time>2026-04-04T15:29:16.982Z</time></trkpt><trkpt lat="45.26919423803251" lon="10.472481585177649"><ele>42.2</ele><time>2026-04-04T15:29:17.982Z</time></trkpt><trkpt lat="45.26930488993746" lon="10.472460259746196"><ele>42.0</ele><time>2026-04-04T15:29:18.982Z</time></trkpt><trkpt lat="45.26941508223777" lon="10.472435265560646"><ele>42.0</ele><time>2026-04-04T15:29:19.982Z</time></trkpt><trkpt lat="45.26952327581248" lon="10.472404417404261"><ele>42.0</ele><time>2026-04-04T15:29:20.982Z</time></trkpt><trkpt lat="45.26962842568757" lon="10.47235760233201"><ele>42.0</ele><time>2026-04-04T15:29:21.982Z</time></trkpt><trkpt lat="45.2697286114232" lon="10.472290232592286"><ele>42.0</ele><time>2026-04-04T15:29:22.982Z</time></trkpt><trkpt lat="45.26981985227139" lon="10.47222154155678"><ele>42.0</ele><time>2026-04-04T15:29:23.982Z</time></trkpt><trkpt lat="45.26990821049109" lon="10.472180193350916"><ele>42.0</ele><time>2026-04-04T15:29:24.982Z</time></trkpt><trkpt lat="45.2700060159352" lon="10.472166977371325"><ele>42.0</ele><time>2026-04-04T15:29:25.982Z</time></trkpt><trkpt lat="45.270116249019786" lon="10.472161630259595"><ele>42.0</ele><time>2026-04-04T15:29:26.982Z</time></trkpt><trkpt lat="45.27021571930434" lon="10.472157859380198"><ele>42.0</ele><time>2026-04-04T15:29:27.982Z</time></trkpt><trkpt lat="45.27031865064036" lon="10.47217748992296"><ele>42.0</ele><time>2026-04-04T15:29:28.982Z</time></trkpt><trkpt lat="45.27042262863726" lon="10.472198953767483"><ele>42.0</ele><time>2026-04-04T15:29:29.982Z</time></trkpt><trkpt lat="45.27052736591838" lon="10.472231112730425"><ele>42.0</ele><time>2026-04-04T15:29:30.982Z</time></trkpt><trkpt lat="45.2706270413902" lon="10.47226305415153"><ele>42.0</ele><time>2026-04-04T15:29:31.982Z</time></trkpt><trkpt lat="45.27072553801096" lon="10.472294724664735"><ele>42.0</ele><time>2026-04-04T15:29:32.982Z</time></trkpt><trkpt lat="45.270821091107535" lon="10.47232053092757"><ele>42.0</ele><time>2026-04-04T15:29:33.982Z</time></trkpt><trkpt lat="45.27091417169556" lon="10.47234083818601"><ele>42.166666666666664</ele><time>2026-04-04T15:29:34.982Z</time></trkpt><trkpt lat="45.27099541191506" lon="10.472350691085257"><ele>42.333333333333336</ele><time>2026-04-04T15:29:35.982Z</time></trkpt><trkpt lat="45.27106466968645" lon="10.472362112119699"><ele>42.5</ele><time>2026-04-04T15:29:36.982Z</time></trkpt><trkpt lat="45.27113700666312" lon="10.472350827799634"><ele>42.66666666666667</ele><time>2026-04-04T15:29:38.982Z</time></trkpt><trkpt lat="45.271158203647" lon="10.472236839770776"><ele>42.833333333333336</ele><time>2026-04-04T15:29:40.982Z</time></trkpt><trkpt lat="45.271156504040185" lon="10.472119288367686"><ele>43.0</ele><time>2026-04-04T15:29:41.982Z</time></trkpt><trkpt lat="45.27116037531713" lon="10.471977312055769"><ele>43.0</ele><time>2026-04-04T15:29:42.982Z</time></trkpt><trkpt lat="45.27117441993018" lon="10.471815929074044"><ele>43.0</ele><time>2026-04-04T15:29:43.982Z</time></trkpt><trkpt lat="45.271192820815166" lon="10.471641619143039"><ele>43.0</ele><time>2026-04-04T15:29:44.982Z</time></trkpt><trkpt lat="45.27120321124739" lon="10.471462615387372"><ele>43.0</ele><time>2026-04-04T15:29:45.982Z</time></trkpt><trkpt lat="45.2712183058157" lon="10.471295107846881"><ele>42.833333333333336</ele><time>2026-04-04T15:29:46.982Z</time></trkpt><trkpt lat="45.271231752005995" lon="10.471151281428162"><ele>42.66666666666667</ele><time>2026-04-04T15:29:47.982Z</time></trkpt><trkpt lat="45.271245658953895" lon="10.471022665587746"><ele>42.5</ele><time>2026-04-04T15:29:48.982Z</time></trkpt><trkpt lat="45.27125612094246" lon="10.470902551629678"><ele>42.333333333333336</ele><time>2026-04-04T15:29:49.982Z</time></trkpt><trkpt lat="45.27126336115083" lon="10.470785494864465"><ele>42.166666666666664</ele><time>2026-04-04T15:29:50.982Z</time></trkpt><trkpt lat="45.27127126587193" lon="10.470667334410336"><ele>42.0</ele><time>2026-04-04T15:29:51.982Z</time></trkpt><trkpt lat="45.27128299233654" lon="10.470540626200133"><ele>42.400000000000006</ele><time>2026-04-04T15:29:52.982Z</time></trkpt><trkpt lat="45.271298314641854" lon="10.470407495657245"><ele>42.800000000000004</ele><time>2026-04-04T15:29:53.982Z</time></trkpt><trkpt lat="45.27131436181755" lon="10.470274064127244"><ele>43.2</ele><time>2026-04-04T15:29:54.981Z</time></trkpt><trkpt lat="45.2713263056637" lon="10.470141047624555"><ele>43.6</ele><time>2026-04-04T15:29:55.981Z</time></trkpt><trkpt lat="45.271336363936584" lon="10.47001344565396"><ele>44.0</ele><time>2026-04-04T15:29:56.981Z</time></trkpt><trkpt lat="45.27134577095754" lon="10.469888320164623"><ele>44.0</ele><time>2026-04-04T15:29:57.981Z</time></trkpt><trkpt lat="45.271354649775915" lon="10.469762228311218"><ele>44.0</ele><time>2026-04-04T15:29:58.981Z</time></trkpt><trkpt lat="45.27136395219022" lon="10.46964246148358"><ele>44.0</ele><time>2026-04-04T15:29:59.981Z</time></trkpt><trkpt lat="45.271377469385776" lon="10.469539077575147"><ele>44.0</ele><time>2026-04-04T15:30:00.981Z</time></trkpt><trkpt lat="45.271427831195666" lon="10.469416095444194"><ele>44.0</ele><time>2026-04-04T15:30:02.981Z</time></trkpt><trkpt lat="45.271561316493035" lon="10.469419351856569"><ele>44.2</ele><time>2026-04-04T15:30:04.981Z</time></trkpt><trkpt lat="45.27163630763934" lon="10.469438590168842"><ele>44.400000000000006</ele><time>2026-04-04T15:30:05.981Z</time></trkpt><trkpt lat="45.271736638976414" lon="10.469458058977567"><ele>44.6</ele><time>2026-04-04T15:30:06.981Z</time></trkpt><trkpt lat="45.27183163540432" lon="10.469467877324831"><ele>44.8</ele><time>2026-04-04T15:30:07.981Z</time></trkpt><trkpt lat="45.271932642427224" lon="10.469476884979759"><ele>45.0</ele><time>2026-04-04T15:30:08.981Z</time></trkpt><trkpt lat="45.27203838198618" lon="10.469495008208558"><ele>45.0</ele><time>2026-04-04T15:30:09.981Z</time></trkpt><trkpt lat="45.27213827741069" lon="10.46951016976078"><ele>45.0</ele><time>2026-04-04T15:30:10.981Z</time></trkpt><trkpt lat="45.272245150583" lon="10.46952102981862"><ele>45.0</ele><time>2026-04-04T15:30:11.981Z</time></trkpt><trkpt lat="45.272349128087754" lon="10.46953588421393"><ele>45.0</ele><time>2026-04-04T15:30:12.981Z</time></trkpt><trkpt lat="45.27245640965729" lon="10.469545270707956"><ele>45.0</ele><time>2026-04-04T15:30:13.981Z</time></trkpt><trkpt lat="45.27255859590682" lon="10.469558541555594"><ele>45.0</ele><time>2026-04-04T15:30:14.981Z</time></trkpt><trkpt lat="45.2726584582223" lon="10.469575124245376"><ele>45.0</ele><time>2026-04-04T15:30:15.981Z</time></trkpt><trkpt lat="45.27274872211289" lon="10.469584448473885"><ele>45.0</ele><time>2026-04-04T15:30:16.981Z</time></trkpt><trkpt lat="45.272842425086495" lon="10.469597401677914"><ele>45.0</ele><time>2026-04-04T15:30:17.981Z</time></trkpt><trkpt lat="45.27293104232158" lon="10.469608605849809"><ele>45.0</ele><time>2026-04-04T15:30:18.981Z</time></trkpt><trkpt lat="45.27301168994609" lon="10.469629595463037"><ele>45.333333333333336</ele><time>2026-04-04T15:30:19.981Z</time></trkpt><trkpt lat="45.2730885393428" lon="10.46963659553332"><ele>45.666666666666664</ele><time>2026-04-04T15:30:20.981Z</time></trkpt><trkpt lat="45.27319673487451" lon="10.469615548480169"><ele>46.0</ele><time>2026-04-04T15:30:22.981Z</time></trkpt><trkpt lat="45.273258108674895" lon="10.469497605157683"><ele>46.33333333333333</ele><time>2026-04-04T15:30:24.981Z</time></trkpt><trkpt lat="45.27328423207232" lon="10.4694010871585"><ele>46.666666666666664</ele><time>2026-04-04T15:30:25.981Z</time></trkpt><trkpt lat="45.27331366398924" lon="10.469300135274956"><ele>47.0</ele><time>2026-04-04T15:30:26.981Z</time></trkpt><trkpt lat="45.273350750044685" lon="10.469210773404065"><ele>47.2</ele><time>2026-04-04T15:30:27.981Z</time></trkpt><trkpt lat="45.27340067237236" lon="10.469133582386327"><ele>47.400000000000006</ele><time>2026-04-04T15:30:28.981Z</time></trkpt><trkpt lat="45.27345026744148" lon="10.469063810372479"><ele>47.599999999999994</ele><time>2026-04-04T15:30:29.981Z</time></trkpt><trkpt lat="45.27354941554048" lon="10.46897681192114"><ele>47.8</ele><time>2026-04-04T15:30:31.981Z</time></trkpt><trkpt lat="45.27364979553036" lon="10.468915710348439"><ele>48.0</ele><time>2026-04-04T15:30:33.981Z</time></trkpt><trkpt lat="45.27373654223441" lon="10.46887771066059"><ele>48.0</ele><time>2026-04-04T15:30:35.981Z</time></trkpt><trkpt lat="45.27381129601121" lon="10.46884156486654"><ele>48.0</ele><time>2026-04-04T15:30:37.981Z</time></trkpt><trkpt lat="45.27388735751898" lon="10.468803067001394"><ele>48.0</ele><time>2026-04-04T15:30:40.98Z</time></trkpt><trkpt lat="45.27394766072973" lon="10.468760113522334"><ele>48.0</ele><time>2026-04-04T15:30:44.98Z</time></trkpt><trkpt lat="45.274011757951655" lon="10.46868158102971"><ele>48.0</ele><time>2026-04-04T15:30:47.98Z</time></trkpt><trkpt lat="45.2741182773311" lon="10.468617019811123"><ele>48.0</ele><time>2026-04-04T15:30:49.98Z</time></trkpt><trkpt lat="45.27423781865543" lon="10.468552335314817"><ele>47.833333333333336</ele><time>2026-04-04T15:30:51.98Z</time></trkpt><trkpt lat="45.274360283743036" lon="10.468501994858054"><ele>47.666666666666664</ele><time>2026-04-04T15:30:53.983Z</time></trkpt><trkpt lat="45.27442086525681" lon="10.468475967982597"><ele>47.5</ele><time>2026-04-04T15:30:54.983Z</time></trkpt><trkpt lat="45.27449246245867" lon="10.46844025490655"><ele>47.33333333333333</ele><time>2026-04-04T15:30:55.983Z</time></trkpt><trkpt lat="45.27457382040029" lon="10.468406416889033"><ele>47.166666666666664</ele><time>2026-04-04T15:30:56.983Z</time></trkpt><trkpt lat="45.27465316274579" lon="10.46836825665328"><ele>47.0</ele><time>2026-04-04T15:30:57.983Z</time></trkpt><trkpt lat="45.274737855594694" lon="10.468332785952759"><ele>47.2</ele><time>2026-04-04T15:30:58.983Z</time></trkpt><trkpt lat="45.274830190684135" lon="10.46829110724631"><ele>47.400000000000006</ele><time>2026-04-04T15:30:59.984Z</time></trkpt><trkpt lat="45.27492192970022" lon="10.468252551198779"><ele>47.599999999999994</ele><time>2026-04-04T15:31:00.984Z</time></trkpt><trkpt lat="45.275013788175016" lon="10.468208476379655"><ele>47.8</ele><time>2026-04-04T15:31:01.983Z</time></trkpt><trkpt lat="45.27509984267291" lon="10.468168744977937"><ele>48.0</ele><time>2026-04-04T15:31:02.983Z</time></trkpt><trkpt lat="45.27517840912669" lon="10.468143942918164"><ele>48.0</ele><time>2026-04-04T15:31:03.983Z</time></trkpt><trkpt lat="45.27525048707885" lon="10.468122867154491"><ele>48.0</ele><time>2026-04-04T15:31:04.983Z</time></trkpt><trkpt lat="45.27531625447952" lon="10.468118478218901"><ele>48.0</ele><time>2026-04-04T15:31:05.983Z</time></trkpt><trkpt lat="45.27543563395974" lon="10.468119446047899"><ele>48.0</ele><time>2026-04-04T15:31:07.983Z</time></trkpt><trkpt lat="45.275552949468846" lon="10.468124811936873"><ele>48.0</ele><time>2026-04-04T15:31:09.983Z</time></trkpt><trkpt lat="45.275663440460555" lon="10.46813357081109"><ele>47.599999999999994</ele><time>2026-04-04T15:31:11.983Z</time></trkpt><trkpt lat="45.27577246224479" lon="10.468139038427744"><ele>47.199999999999996</ele><time>2026-04-04T15:31:13.983Z</time></trkpt><trkpt lat="45.275889104694336" lon="10.468132804864052"><ele>46.8</ele><time>2026-04-04T15:31:15.983Z</time></trkpt><trkpt lat="45.27596245081402" lon="10.468121309839717"><ele>46.4</ele><time>2026-04-04T15:31:16.983Z</time></trkpt><trkpt lat="45.276031664253175" lon="10.468123612220305"><ele>46.0</ele><time>2026-04-04T15:31:17.983Z</time></trkpt><trkpt lat="45.27611995002893" lon="10.468128982851658"><ele>46.0</ele><time>2026-04-04T15:31:18.983Z</time></trkpt><trkpt lat="45.27620293098534" lon="10.468135634714894"><ele>46.0</ele><time>2026-04-04T15:31:19.983Z</time></trkpt><trkpt lat="45.27628350204687" lon="10.468149487985555"><ele>46.0</ele><time>2026-04-04T15:31:20.983Z</time></trkpt><trkpt lat="45.27635186717001" lon="10.468172338671145"><ele>46.0</ele><time>2026-04-04T15:31:21.983Z</time></trkpt><trkpt lat="45.27642355270338" lon="10.468196989246238"><ele>46.0</ele><time>2026-04-04T15:31:22.983Z</time></trkpt><trkpt lat="45.27650110910247" lon="10.468199827217994"><ele>46.0</ele><time>2026-04-04T15:31:23.983Z</time></trkpt><trkpt lat="45.27658207971631" lon="10.468223924451939"><ele>46.333333333333336</ele><time>2026-04-04T15:31:24.983Z</time></trkpt><trkpt lat="45.27665468239979" lon="10.468251144286764"><ele>46.66666666666667</ele><time>2026-04-04T15:31:25.983Z</time></trkpt><trkpt lat="45.27673075647104" lon="10.468293632216666"><ele>47.0</ele><time>2026-04-04T15:31:26.983Z</time></trkpt><trkpt lat="45.27680651010405" lon="10.468334442242748"><ele>47.333333333333336</ele><time>2026-04-04T15:31:27.983Z</time></trkpt><trkpt lat="45.276885232478456" lon="10.468374662106394"><ele>47.666666666666664</ele><time>2026-04-04T15:31:28.983Z</time></trkpt><trkpt lat="45.27696702374286" lon="10.468409700259011"><ele>48.0</ele><time>2026-04-04T15:31:29.983Z</time></trkpt><trkpt lat="45.27705893272305" lon="10.468443456236908"><ele>48.0</ele><time>2026-04-04T15:31:30.983Z</time></trkpt><trkpt lat="45.27715266431364" lon="10.468480925265078"><ele>48.0</ele><time>2026-04-04T15:31:31.983Z</time></trkpt><trkpt lat="45.277247543765974" lon="10.468520032093865"><ele>48.0</ele><time>2026-04-04T15:31:32.983Z</time></trkpt><trkpt lat="45.27734389383958" lon="10.468562009240967"><ele>48.0</ele><time>2026-04-04T15:31:33.983Z</time></trkpt><trkpt lat="45.27743857602069" lon="10.46860102129781"><ele>48.0</ele><time>2026-04-04T15:31:34.983Z</time></trkpt><trkpt lat="45.27753129159062" lon="10.46863896274668"><ele>48.0</ele><time>2026-04-04T15:31:35.983Z</time></trkpt><trkpt lat="45.277623676305836" lon="10.468678240078372"><ele>48.0</ele><time>2026-04-04T15:31:36.983Z</time></trkpt><trkpt lat="45.27771510964336" lon="10.46871748930598"><ele>48.0</ele><time>2026-04-04T15:31:37.983Z</time></trkpt><trkpt lat="45.27780848678117" lon="10.468753435988516"><ele>48.0</ele><time>2026-04-04T15:31:38.983Z</time></trkpt><trkpt lat="45.27789499987144" lon="10.46878910172436"><ele>48.0</ele><time>2026-04-04T15:31:39.983Z</time></trkpt><trkpt lat="45.27796945991371" lon="10.468822338000102"><ele>47.833333333333336</ele><time>2026-04-04T15:31:40.983Z</time></trkpt><trkpt lat="45.27804067535506" lon="10.468859786626954"><ele>47.666666666666664</ele><time>2026-04-04T15:31:41.982Z</time></trkpt><trkpt lat="45.27814944694485" lon="10.46891245618797"><ele>47.5</ele><time>2026-04-04T15:31:43.982Z</time></trkpt><trkpt lat="45.278224206029186" lon="10.46892373958049"><ele>47.33333333333333</ele><time>2026-04-04T15:31:45.982Z</time></trkpt><trkpt lat="45.27824376636818" lon="10.468826690170307"><ele>47.166666666666664</ele><time>2026-04-04T15:31:47.982Z</time></trkpt><trkpt lat="45.27821923719753" lon="10.468743297547398"><ele>47.0</ele><time>2026-04-04T15:31:48.982Z</time></trkpt><trkpt lat="45.278179106828304" lon="10.46865240958073"><ele>46.8</ele><time>2026-04-04T15:31:49.982Z</time></trkpt><trkpt lat="45.27815483378523" lon="10.468528943454837"><ele>46.6</ele><time>2026-04-04T15:31:50.982Z</time></trkpt><trkpt lat="45.2781642733863" lon="10.468375063797046"><ele>46.4</ele><time>2026-04-04T15:31:51.982Z</time></trkpt><trkpt lat="45.278185016658064" lon="10.468214944986366"><ele>46.199999999999996</ele><time>2026-04-04T15:31:52.982Z</time></trkpt><trkpt lat="45.27821745684612" lon="10.468053684630984"><ele>46.0</ele><time>2026-04-04T15:31:53.982Z</time></trkpt><trkpt lat="45.27825059937038" lon="10.467895806941351"><ele>46.0</ele><time>2026-04-04T15:31:54.982Z</time></trkpt><trkpt lat="45.27828307495435" lon="10.467732278553754"><ele>46.0</ele><time>2026-04-04T15:31:55.982Z</time></trkpt><trkpt lat="45.27831075240234" lon="10.467560578051133"><ele>46.0</ele><time>2026-04-04T15:31:56.982Z</time></trkpt><trkpt lat="45.27834299798654" lon="10.467384869116989"><ele>46.0</ele><time>2026-04-04T15:31:57.982Z</time></trkpt><trkpt lat="45.27837372031051" lon="10.467204844265105"><ele>45.75</ele><time>2026-04-04T15:31:58.982Z</time></trkpt><trkpt lat="45.278404826732945" lon="10.467034511148752"><ele>45.5</ele><time>2026-04-04T15:31:59.982Z</time></trkpt><trkpt lat="45.278434158469445" lon="10.466861006789486"><ele>45.25</ele><time>2026-04-04T15:32:00.982Z</time></trkpt><trkpt lat="45.2784595721244" lon="10.466696877557357"><ele>45.0</ele><time>2026-04-04T15:32:01.982Z</time></trkpt><trkpt lat="45.278482541392734" lon="10.466527611046905"><ele>45.0</ele><time>2026-04-04T15:32:02.982Z</time></trkpt><trkpt lat="45.27850762210982" lon="10.466363295405866"><ele>45.0</ele><time>2026-04-04T15:32:03.982Z</time></trkpt><trkpt lat="45.27852692923956" lon="10.466208327399578"><ele>45.0</ele><time>2026-04-04T15:32:04.982Z</time></trkpt><trkpt lat="45.2785392081674" lon="10.466056813317548"><ele>45.0</ele><time>2026-04-04T15:32:05.982Z</time></trkpt><trkpt lat="45.27854629582251" lon="10.465911603958379"><ele>45.0</ele><time>2026-04-04T15:32:06.982Z</time></trkpt><trkpt lat="45.278555083689604" lon="10.465795775002341"><ele>46.0</ele><time>2026-04-04T15:32:07.982Z</time></trkpt><trkpt lat="45.27905600745345" lon="10.465305870296714"><ele>46.0</ele><time>2026-04-04T15:32:17.313Z</time></trkpt><trkpt lat="45.27911871208328" lon="10.465245200862727"><ele>46.0</ele><time>2026-04-04T15:32:19.313Z</time></trkpt><trkpt lat="45.27910658893253" lon="10.465146272606642"><ele>46.0</ele><time>2026-04-04T15:32:21.263Z</time></trkpt><trkpt lat="45.279123460512196" lon="10.465040138180845"><ele>46.0</ele><time>2026-04-04T15:32:22.213Z</time></trkpt><trkpt lat="45.279130100723954" lon="10.464920450458559"><ele>46.0</ele><time>2026-04-04T15:32:23.162Z</time></trkpt><trkpt lat="45.27913327658087" lon="10.4647936127923"><ele>46.0</ele><time>2026-04-04T15:32:24.113Z</time></trkpt><trkpt lat="45.279134296628655" lon="10.464669841527904"><ele>46.199999999999996</ele><time>2026-04-04T15:32:25.064Z</time></trkpt><trkpt lat="45.2791305578452" lon="10.4645405686133"><ele>46.4</ele><time>2026-04-04T15:32:26.015Z</time></trkpt><trkpt lat="45.27912242459996" lon="10.464401482787412"><ele>46.6</ele><time>2026-04-04T15:32:26.987Z</time></trkpt><trkpt lat="45.2791071801649" lon="10.464253184683818"><ele>46.8</ele><time>2026-04-04T15:32:27.988Z</time></trkpt><trkpt lat="45.27908959059183" lon="10.464103444824806"><ele>47.0</ele><time>2026-04-04T15:32:28.989Z</time></trkpt><trkpt lat="45.27907169896536" lon="10.463958808648085"><ele>47.0</ele><time>2026-04-04T15:32:29.989Z</time></trkpt><trkpt lat="45.27906135662735" lon="10.463802666009885"><ele>47.0</ele><time>2026-04-04T15:32:30.99Z</time></trkpt><trkpt lat="45.27905907871112" lon="10.463650953482432"><ele>47.0</ele><time>2026-04-04T15:32:31.991Z</time></trkpt><trkpt lat="45.27906084302369" lon="10.463497962724384"><ele>47.0</ele><time>2026-04-04T15:32:32.992Z</time></trkpt><trkpt lat="45.27906908202947" lon="10.46334527383628"><ele>47.0</ele><time>2026-04-04T15:32:33.992Z</time></trkpt><trkpt lat="45.27907952960937" lon="10.463196194465626"><ele>47.0</ele><time>2026-04-04T15:32:34.993Z</time></trkpt><trkpt lat="45.27909098090584" lon="10.463074929958307"><ele>47.0</ele><time>2026-04-04T15:32:35.993Z</time></trkpt><trkpt lat="45.27910147678422" lon="10.462950000681326"><ele>47.0</ele><time>2026-04-04T15:32:36.994Z</time></trkpt><trkpt lat="45.27910463530114" lon="10.462854160761536"><ele>47.0</ele><time>2026-04-04T15:32:37.994Z</time></trkpt><trkpt lat="45.2790398630943" lon="10.462753157157564"><ele>47.0</ele><time>2026-04-04T15:32:39.995Z</time></trkpt><trkpt lat="45.27895821474239" lon="10.462720148917088"><ele>47.0</ele><time>2026-04-04T15:32:40.995Z</time></trkpt><trkpt lat="45.27887495252417" lon="10.46271981288619"><ele>47.0</ele><time>2026-04-04T15:32:41.995Z</time></trkpt><trkpt lat="45.27875724010492" lon="10.462711029689874"><ele>47.0</ele><time>2026-04-04T15:32:42.996Z</time></trkpt><trkpt lat="45.27861489922342" lon="10.462687216297903"><ele>47.0</ele><time>2026-04-04T15:32:43.996Z</time></trkpt><trkpt lat="45.27848583888633" lon="10.462661481574445"><ele>47.0</ele><time>2026-04-04T15:32:44.996Z</time></trkpt><trkpt lat="45.27835864664347" lon="10.462632075068274"><ele>47.0</ele><time>2026-04-04T15:32:45.997Z</time></trkpt><trkpt lat="45.27822743260687" lon="10.462592772976079"><ele>47.0</ele><time>2026-04-04T15:32:46.997Z</time></trkpt><trkpt lat="45.2781045118764" lon="10.462546651189559"><ele>47.0</ele><time>2026-04-04T15:32:47.997Z</time></trkpt><trkpt lat="45.27798156729769" lon="10.46249562671809"><ele>47.0</ele><time>2026-04-04T15:32:48.997Z</time></trkpt><trkpt lat="45.27782624945832" lon="10.462491639566078"><ele>47.5</ele><time>2026-04-04T15:32:49.997Z</time></trkpt><trkpt lat="45.277700038150755" lon="10.462441253411773"><ele>48.0</ele><time>2026-04-04T15:32:50.998Z</time></trkpt><trkpt lat="45.277588686913994" lon="10.462397028839643"><ele>48.5</ele><time>2026-04-04T15:32:51.998Z</time></trkpt><trkpt lat="45.277488244214254" lon="10.462335911396401"><ele>49.0</ele><time>2026-04-04T15:32:52.998Z</time></trkpt><trkpt lat="45.27740116549625" lon="10.462228990092106"><ele>48.800000000000004</ele><time>2026-04-04T15:32:53.998Z</time></trkpt><trkpt lat="45.27736606603542" lon="10.46205952730652"><ele>48.6</ele><time>2026-04-04T15:32:54.998Z</time></trkpt><trkpt lat="45.27732682950439" lon="10.461895058211633"><ele>48.4</ele><time>2026-04-04T15:32:55.998Z</time></trkpt><trkpt lat="45.277283321539095" lon="10.461764263896344"><ele>48.2</ele><time>2026-04-04T15:32:56.998Z</time></trkpt><trkpt lat="45.27723295813973" lon="10.461663350908172"><ele>48.0</ele><time>2026-04-04T15:32:57.999Z</time></trkpt><trkpt lat="45.27716881807657" lon="10.461583759989564"><ele>48.0</ele><time>2026-04-04T15:32:58.999Z</time></trkpt><trkpt lat="45.27710267610531" lon="10.461537574133011"><ele>48.0</ele><time>2026-04-04T15:32:59.999Z</time></trkpt><trkpt lat="45.27703877662583" lon="10.461522611378415"><ele>48.0</ele><time>2026-04-04T15:33:00.999Z</time></trkpt><trkpt lat="45.27694417110828" lon="10.461547315404598"><ele>48.0</ele><time>2026-04-04T15:33:02.999Z</time></trkpt><trkpt lat="45.27686046672966" lon="10.461528494250341"><ele>48.0</ele><time>2026-04-04T15:33:05.999Z</time></trkpt><trkpt lat="45.276861534709965" lon="10.461416759239855"><ele>48.0</ele><time>2026-04-04T15:33:08.999Z</time></trkpt><trkpt lat="45.27684939161979" lon="10.461258466295645"><ele>48.0</ele><time>2026-04-04T15:33:11.999Z</time></trkpt><trkpt lat="45.276845032814826" lon="10.461166375102545"><ele>48.0</ele><time>2026-04-04T15:33:12.999Z</time></trkpt><trkpt lat="45.27684153298478" lon="10.461055834886457"><ele>48.0</ele><time>2026-04-04T15:33:13.999Z</time></trkpt><trkpt lat="45.27683821028818" lon="10.460933623195526"><ele>48.0</ele><time>2026-04-04T15:33:14.999Z</time></trkpt><trkpt lat="45.27682910078134" lon="10.460802895567522"><ele>48.0</ele><time>2026-04-04T15:33:15.999Z</time></trkpt><trkpt lat="45.27681706723403" lon="10.460672911955776"><ele>48.0</ele><time>2026-04-04T15:33:16.999Z</time></trkpt><trkpt lat="45.27681383121001" lon="10.460520537674455"><ele>47.8</ele><time>2026-04-04T15:33:18Z</time></trkpt><trkpt lat="45.276811199390494" lon="10.460361682797968"><ele>47.599999999999994</ele><time>2026-04-04T15:33:19Z</time></trkpt><trkpt lat="45.27680010414295" lon="10.460203909625351"><ele>47.400000000000006</ele><time>2026-04-04T15:33:20Z</time></trkpt><trkpt lat="45.27680844726349" lon="10.460046114265104"><ele>47.2</ele><time>2026-04-04T15:33:21Z</time></trkpt><trkpt lat="45.27680215902789" lon="10.459890705107561"><ele>47.0</ele><time>2026-04-04T15:33:22Z</time></trkpt><trkpt lat="45.276796580900736" lon="10.459740234245658"><ele>46.8</ele><time>2026-04-04T15:33:23Z</time></trkpt><trkpt lat="45.276791962141225" lon="10.459610087333818"><ele>46.6</ele><time>2026-04-04T15:33:24Z</time></trkpt><trkpt lat="45.27678972836906" lon="10.459498044723404"><ele>46.4</ele><time>2026-04-04T15:33:25Z</time></trkpt><trkpt lat="45.27678439610906" lon="10.459399366294253"><ele>46.199999999999996</ele><time>2026-04-04T15:33:26Z</time></trkpt><trkpt lat="45.276778631424534" lon="10.459255067781747"><ele>46.0</ele><time>2026-04-04T15:33:28Z</time></trkpt><trkpt lat="45.27688480872066" lon="10.459208031793658"><ele>46.0</ele><time>2026-04-04T15:33:31Z</time></trkpt><trkpt lat="45.27697283674066" lon="10.459218633106543"><ele>46.0</ele><time>2026-04-04T15:33:32Z</time></trkpt><trkpt lat="45.27706764290424" lon="10.459218802301663"><ele>46.0</ele><time>2026-04-04T15:33:33Z</time></trkpt><trkpt lat="45.27716258740687" lon="10.459206408976215"><ele>46.0</ele><time>2026-04-04T15:33:34Z</time></trkpt><trkpt lat="45.27726781323625" lon="10.459194686875525"><ele>46.0</ele><time>2026-04-04T15:33:35Z</time></trkpt><trkpt lat="45.277375503462935" lon="10.4591783385642"><ele>46.0</ele><time>2026-04-04T15:33:36Z</time></trkpt><trkpt lat="45.277494478606854" lon="10.459145568125194"><ele>46.0</ele><time>2026-04-04T15:33:37Z</time></trkpt><trkpt lat="45.27760949410809" lon="10.459100283988427"><ele>46.0</ele><time>2026-04-04T15:33:38Z</time></trkpt><trkpt lat="45.27771568317105" lon="10.45905536597814"><ele>46.0</ele><time>2026-04-04T15:33:39Z</time></trkpt><trkpt lat="45.27781052326082" lon="10.459013578304873"><ele>46.0</ele><time>2026-04-04T15:33:40Z</time></trkpt><trkpt lat="45.27788465894915" lon="10.458980312387855"><ele>46.0</ele><time>2026-04-04T15:33:40.999Z</time></trkpt><trkpt lat="45.27795993074812" lon="10.458930775790728"><ele>46.0</ele><time>2026-04-04T15:33:41.999Z</time></trkpt><trkpt lat="45.278030694031926" lon="10.458857744431532"><ele>46.0</ele><time>2026-04-04T15:33:42.999Z</time></trkpt><trkpt lat="45.27809224132024" lon="10.458766120320368"><ele>46.0</ele><time>2026-04-04T15:33:43.999Z</time></trkpt><trkpt lat="45.27814428940378" lon="10.45867222674905"><ele>46.0</ele><time>2026-04-04T15:33:44.999Z</time></trkpt><trkpt lat="45.27819822423228" lon="10.458585828369612"><ele>46.0</ele><time>2026-04-04T15:33:45.999Z</time></trkpt><trkpt lat="45.27824491002867" lon="10.45851113092321"><ele>46.0</ele><time>2026-04-04T15:33:46.999Z</time></trkpt><trkpt lat="45.278268231247516" lon="10.458328431968992"><ele>46.0</ele><time>2026-04-04T15:33:48.999Z</time></trkpt><trkpt lat="45.27825824694733" lon="10.458208101844843"><ele>46.0</ele><time>2026-04-04T15:33:49.999Z</time></trkpt><trkpt lat="45.27825188119404" lon="10.458071087223828"><ele>46.0</ele><time>2026-04-04T15:33:50.999Z</time></trkpt><trkpt lat="45.27824329529957" lon="10.457931305027124"><ele>45.75</ele><time>2026-04-04T15:33:51.999Z</time></trkpt><trkpt lat="45.278227376293984" lon="10.457767550828013"><ele>45.5</ele><time>2026-04-04T15:33:52.999Z</time></trkpt><trkpt lat="45.278214477630236" lon="10.457612900257704"><ele>45.25</ele><time>2026-04-04T15:33:53.999Z</time></trkpt><trkpt lat="45.27820333512819" lon="10.457448156072259"><ele>45.0</ele><time>2026-04-04T15:33:54.999Z</time></trkpt><trkpt lat="45.27819433625575" lon="10.457275741277588"><ele>45.5</ele><time>2026-04-04T15:33:55.999Z</time></trkpt><trkpt lat="45.27818399722471" lon="10.457100447780055"><ele>46.0</ele><time>2026-04-04T15:33:56.999Z</time></trkpt><trkpt lat="45.27817137724972" lon="10.456928350654053"><ele>46.5</ele><time>2026-04-04T15:33:57.999Z</time></trkpt><trkpt lat="45.27816448433175" lon="10.456764984678312"><ele>47.0</ele><time>2026-04-04T15:33:58.999Z</time></trkpt><trkpt lat="45.27815245396018" lon="10.456628104896971"><ele>47.0</ele><time>2026-04-04T15:33:59.999Z</time></trkpt><trkpt lat="45.278142017811916" lon="10.456516259153197"><ele>47.0</ele><time>2026-04-04T15:34:00.999Z</time></trkpt><trkpt lat="45.27812573214998" lon="10.45641580951432"><ele>47.0</ele><time>2026-04-04T15:34:01.999Z</time></trkpt><trkpt lat="45.278121724339655" lon="10.45629213235939"><ele>47.0</ele><time>2026-04-04T15:34:03.999Z</time></trkpt><trkpt lat="45.27825026397495" lon="10.456247696270301"><ele>47.0</ele><time>2026-04-04T15:34:05.999Z</time></trkpt><trkpt lat="45.27835251035669" lon="10.456238045375335"><ele>47.0</ele><time>2026-04-04T15:34:06.999Z</time></trkpt><trkpt lat="45.27845047026476" lon="10.456220598821178"><ele>47.0</ele><time>2026-04-04T15:34:07.999Z</time></trkpt><trkpt lat="45.27853883154262" lon="10.456200241623595"><ele>47.0</ele><time>2026-04-04T15:34:08.999Z</time></trkpt><trkpt lat="45.27861764083095" lon="10.45617885442923"><ele>47.0</ele><time>2026-04-04T15:34:09.999Z</time></trkpt><trkpt lat="45.27868221961629" lon="10.456166063589356"><ele>47.0</ele><time>2026-04-04T15:34:10.999Z</time></trkpt><trkpt lat="45.27874501916496" lon="10.456146483174138"><ele>47.0</ele><time>2026-04-04T15:34:11.999Z</time></trkpt><trkpt lat="45.27881173447007" lon="10.456061309843612"><ele>47.0</ele><time>2026-04-04T15:34:13.999Z</time></trkpt><trkpt lat="45.27881069765852" lon="10.455965025888462"><ele>47.0</ele><time>2026-04-04T15:34:14.999Z</time></trkpt><trkpt lat="45.278788779625934" lon="10.45583021817444"><ele>47.0</ele><time>2026-04-04T15:34:15.999Z</time></trkpt><trkpt lat="45.27876172892512" lon="10.455678053797424"><ele>47.0</ele><time>2026-04-04T15:34:16.999Z</time></trkpt><trkpt lat="45.27873148086387" lon="10.455505336833154"><ele>47.0</ele><time>2026-04-04T15:34:17.999Z</time></trkpt><trkpt lat="45.278706396528975" lon="10.455330191365528"><ele>47.75</ele><time>2026-04-04T15:34:18.999Z</time></trkpt><trkpt lat="45.2786829582695" lon="10.455159248022648"><ele>48.5</ele><time>2026-04-04T15:34:19.999Z</time></trkpt><trkpt lat="45.278658013819125" lon="10.454996037175619"><ele>49.25</ele><time>2026-04-04T15:34:20.999Z</time></trkpt><trkpt lat="45.27862955880123" lon="10.454823357666521"><ele>50.0</ele><time>2026-04-04T15:34:21.999Z</time></trkpt><trkpt lat="45.278601661908155" lon="10.454656468225972"><ele>50.75</ele><time>2026-04-04T15:34:22.999Z</time></trkpt><trkpt lat="45.278576230495126" lon="10.454495071853882"><ele>51.5</ele><time>2026-04-04T15:34:23.999Z</time></trkpt><trkpt lat="45.27855220779279" lon="10.454338201316313"><ele>52.25</ele><time>2026-04-04T15:34:24.999Z</time></trkpt><trkpt lat="45.278527519964896" lon="10.454175612574753"><ele>53.0</ele><time>2026-04-04T15:34:25.999Z</time></trkpt><trkpt lat="45.278503431991204" lon="10.454014311779254"><ele>53.0</ele><time>2026-04-04T15:34:26.999Z</time></trkpt><trkpt lat="45.27847697922143" lon="10.45384659631469"><ele>53.0</ele><time>2026-04-04T15:34:27.999Z</time></trkpt><trkpt lat="45.278452770526" lon="10.453687053451869"><ele>53.0</ele><time>2026-04-04T15:34:28.999Z</time></trkpt><trkpt lat="45.2784371751829" lon="10.453547571392642"><ele>53.0</ele><time>2026-04-04T15:34:29.999Z</time></trkpt><trkpt lat="45.2784241012937" lon="10.453426409132014"><ele>53.0</ele><time>2026-04-04T15:34:30.999Z</time></trkpt><trkpt lat="45.278415560872" lon="10.45332854818798"><ele>52.4</ele><time>2026-04-04T15:34:31.999Z</time></trkpt><trkpt lat="45.278398746936546" lon="10.453240446431753"><ele>51.8</ele><time>2026-04-04T15:34:32.999Z</time></trkpt><trkpt lat="45.27840320548364" lon="10.453121804417796"><ele>51.2</ele><time>2026-04-04T15:34:34.999Z</time></trkpt><trkpt lat="45.27851518636704" lon="10.453077706449696"><ele>50.6</ele><time>2026-04-04T15:34:36.999Z</time></trkpt><trkpt lat="45.27860217624725" lon="10.453068279557325"><ele>50.0</ele><time>2026-04-04T15:34:37.999Z</time></trkpt><trkpt lat="45.27870157446081" lon="10.453061974748609"><ele>50.0</ele><time>2026-04-04T15:34:38.999Z</time></trkpt><trkpt lat="45.2788065827314" lon="10.45305649441888"><ele>50.0</ele><time>2026-04-04T15:34:39.999Z</time></trkpt><trkpt lat="45.278925954121185" lon="10.453046576102665"><ele>50.0</ele><time>2026-04-04T15:34:40.999Z</time></trkpt><trkpt lat="45.27904623120406" lon="10.453038103019745"><ele>50.0</ele><time>2026-04-04T15:34:41.999Z</time></trkpt><trkpt lat="45.27916346283463" lon="10.453025284236567"><ele>49.5</ele><time>2026-04-04T15:34:42.999Z</time></trkpt><trkpt lat="45.27927860840975" lon="10.453010914652143"><ele>49.0</ele><time>2026-04-04T15:34:43.999Z</time></trkpt><trkpt lat="45.27939534955402" lon="10.45298791825907"><ele>48.5</ele><time>2026-04-04T15:34:44.998Z</time></trkpt><trkpt lat="45.27951096856296" lon="10.452973439589051"><ele>48.0</ele><time>2026-04-04T15:34:45.998Z</time></trkpt><trkpt lat="45.27962951547789" lon="10.452908105404001"><ele>48.0</ele><time>2026-04-04T15:34:46.998Z</time></trkpt><trkpt lat="45.27974945790523" lon="10.452850808053888"><ele>48.0</ele><time>2026-04-04T15:34:47.998Z</time></trkpt><trkpt lat="45.27987930723484" lon="10.452795046114668"><ele>48.0</ele><time>2026-04-04T15:34:48.998Z</time></trkpt><trkpt lat="45.28000957327899" lon="10.452747764783847"><ele>48.0</ele><time>2026-04-04T15:34:49.998Z</time></trkpt><trkpt lat="45.2801388736505" lon="10.452706893963752"><ele>47.5</ele><time>2026-04-04T15:34:50.998Z</time></trkpt><trkpt lat="45.2802659951336" lon="10.452655364030713"><ele>47.0</ele><time>2026-04-04T15:34:51.998Z</time></trkpt><trkpt lat="45.28039708750959" lon="10.452602571333177"><ele>46.5</ele><time>2026-04-04T15:34:52.998Z</time></trkpt><trkpt lat="45.28053177011527" lon="10.452552934766922"><ele>46.0</ele><time>2026-04-04T15:34:53.998Z</time></trkpt><trkpt lat="45.2806722106367" lon="10.452499757493984"><ele>46.0</ele><time>2026-04-04T15:34:54.998Z</time></trkpt><trkpt lat="45.28081029350723" lon="10.452450985102212"><ele>46.0</ele><time>2026-04-04T15:34:55.998Z</time></trkpt><trkpt lat="45.280944809949204" lon="10.452404460874968"><ele>46.0</ele><time>2026-04-04T15:34:56.998Z</time></trkpt><trkpt lat="45.28107560334718" lon="10.452353676275099"><ele>46.0</ele><time>2026-04-04T15:34:57.998Z</time></trkpt><trkpt lat="45.28120710103746" lon="10.452299450875852"><ele>46.0</ele><time>2026-04-04T15:34:58.998Z</time></trkpt><trkpt lat="45.2813387442372" lon="10.452239947242251"><ele>46.0</ele><time>2026-04-04T15:34:59.998Z</time></trkpt><trkpt lat="45.28146912174539" lon="10.452180020141476"><ele>46.0</ele><time>2026-04-04T15:35:00.998Z</time></trkpt><trkpt lat="45.28159617505406" lon="10.452116079929528"><ele>46.0</ele><time>2026-04-04T15:35:01.998Z</time></trkpt><trkpt lat="45.281711187934015" lon="10.452066010955567"><ele>46.0</ele><time>2026-04-04T15:35:02.998Z</time></trkpt><trkpt lat="45.28182365964918" lon="10.452035701982624"><ele>46.0</ele><time>2026-04-04T15:35:03.998Z</time></trkpt><trkpt lat="45.28194672084005" lon="10.45202848856509"><ele>46.0</ele><time>2026-04-04T15:35:04.998Z</time></trkpt><trkpt lat="45.28206167746307" lon="10.452013720142501"><ele>46.0</ele><time>2026-04-04T15:35:05.998Z</time></trkpt><trkpt lat="45.28216125883289" lon="10.451998285153078"><ele>46.0</ele><time>2026-04-04T15:35:06.998Z</time></trkpt><trkpt lat="45.282246355622796" lon="10.451981966342657"><ele>46.0</ele><time>2026-04-04T15:35:07.998Z</time></trkpt><trkpt lat="45.28234093259328" lon="10.451927807945516"><ele>46.0</ele><time>2026-04-04T15:35:09.998Z</time></trkpt><trkpt lat="45.28233491484484" lon="10.451742520613214"><ele>46.0</ele><time>2026-04-04T15:35:11.998Z</time></trkpt><trkpt lat="45.28230431730753" lon="10.451594357151286"><ele>46.0</ele><time>2026-04-04T15:35:12.998Z</time></trkpt><trkpt lat="45.282278973638846" lon="10.451428919561796"><ele>46.0</ele><time>2026-04-04T15:35:13.998Z</time></trkpt><trkpt lat="45.28226244627442" lon="10.451267502751637"><ele>46.0</ele><time>2026-04-04T15:35:14.998Z</time></trkpt><trkpt lat="45.282245274750196" lon="10.451118722652788"><ele>46.0</ele><time>2026-04-04T15:35:15.998Z</time></trkpt><trkpt lat="45.282230794488335" lon="10.450984804971704"><ele>46.0</ele><time>2026-04-04T15:35:16.998Z</time></trkpt><trkpt lat="45.282219871983855" lon="10.450868284824223"><ele>46.0</ele><time>2026-04-04T15:35:17.998Z</time></trkpt><trkpt lat="45.2822440411261" lon="10.450741228671113"><ele>46.199999999999996</ele><time>2026-04-04T15:35:19.998Z</time></trkpt><trkpt lat="45.28236599077767" lon="10.450744528518547"><ele>46.4</ele><time>2026-04-04T15:35:21.998Z</time></trkpt><trkpt lat="45.28244546975015" lon="10.450764713524489"><ele>46.6</ele><time>2026-04-04T15:35:22.998Z</time></trkpt><trkpt lat="45.28254848200727" lon="10.450787308104957"><ele>46.8</ele><time>2026-04-04T15:35:23.998Z</time></trkpt><trkpt lat="45.28266607257256" lon="10.450799875494"><ele>47.0</ele><time>2026-04-04T15:35:24.998Z</time></trkpt><trkpt lat="45.282787255847765" lon="10.450826647464455"><ele>47.0</ele><time>2026-04-04T15:35:25.998Z</time></trkpt><trkpt lat="45.2829196189248" lon="10.450856637037653"><ele>47.0</ele><time>2026-04-04T15:35:26.998Z</time></trkpt><trkpt lat="45.28305542694728" lon="10.450891265461467"><ele>47.0</ele><time>2026-04-04T15:35:27.998Z</time></trkpt><trkpt lat="45.28318994024428" lon="10.450929209486157"><ele>47.0</ele><time>2026-04-04T15:35:28.998Z</time></trkpt><trkpt lat="45.28333345532877" lon="10.450973935018341"><ele>47.33333333333333</ele><time>2026-04-04T15:35:29.998Z</time></trkpt><trkpt lat="45.283480089555816" lon="10.451016141781025"><ele>47.666666666666664</ele><time>2026-04-04T15:35:30.998Z</time></trkpt><trkpt lat="45.283631704368844" lon="10.451055449212687"><ele>48.0</ele><time>2026-04-04T15:35:31.998Z</time></trkpt><trkpt lat="45.283781491919854" lon="10.451092066080994"><ele>48.0</ele><time>2026-04-04T15:35:32.998Z</time></trkpt><trkpt lat="45.283930438216835" lon="10.451134565936444"><ele>48.0</ele><time>2026-04-04T15:35:33.998Z</time></trkpt><trkpt lat="45.28407592954682" lon="10.45117206491956"><ele>48.0</ele><time>2026-04-04T15:35:34.998Z</time></trkpt><trkpt lat="45.28422565838975" lon="10.451207901310934"><ele>48.0</ele><time>2026-04-04T15:35:35.998Z</time></trkpt><trkpt lat="45.28438368768046" lon="10.451246848021515"><ele>48.0</ele><time>2026-04-04T15:35:36.998Z</time></trkpt><trkpt lat="45.2845299830233" lon="10.451279520393912"><ele>48.0</ele><time>2026-04-04T15:35:37.998Z</time></trkpt><trkpt lat="45.28468086702148" lon="10.451314581686933"><ele>48.0</ele><time>2026-04-04T15:35:38.998Z</time></trkpt><trkpt lat="45.284832568006806" lon="10.451349814008884"><ele>48.0</ele><time>2026-04-04T15:35:39.998Z</time></trkpt><trkpt lat="45.28498387505766" lon="10.45138364078889"><ele>48.0</ele><time>2026-04-04T15:35:40.998Z</time></trkpt><trkpt lat="45.28513642172786" lon="10.451408265596397"><ele>48.0</ele><time>2026-04-04T15:35:41.997Z</time></trkpt><trkpt lat="45.28529381552696" lon="10.4514263124694"><ele>48.0</ele><time>2026-04-04T15:35:42.997Z</time></trkpt><trkpt lat="45.2854512647982" lon="10.451435814474687"><ele>48.0</ele><time>2026-04-04T15:35:43.997Z</time></trkpt><trkpt lat="45.28560834731906" lon="10.451441966366186"><ele>48.33333333333333</ele><time>2026-04-04T15:35:44.997Z</time></trkpt><trkpt lat="45.285762247543715" lon="10.451443409217203"><ele>48.666666666666664</ele><time>2026-04-04T15:35:45.997Z</time></trkpt><trkpt lat="45.28591861270705" lon="10.451453292336938"><ele>49.0</ele><time>2026-04-04T15:35:46.997Z</time></trkpt><trkpt lat="45.28606329968539" lon="10.451458287810755"><ele>49.0</ele><time>2026-04-04T15:35:47.997Z</time></trkpt><trkpt lat="45.28619044104282" lon="10.45146140652354"><ele>49.0</ele><time>2026-04-04T15:35:48.997Z</time></trkpt><trkpt lat="45.28631001235888" lon="10.451468035868263"><ele>49.0</ele><time>2026-04-04T15:35:49.997Z</time></trkpt><trkpt lat="45.286419676641486" lon="10.451468342327667"><ele>49.0</ele><time>2026-04-04T15:35:50.997Z</time></trkpt><trkpt lat="45.28653185191483" lon="10.45146910723706"><ele>49.0</ele><time>2026-04-04T15:35:51.997Z</time></trkpt><trkpt lat="45.28664183855435" lon="10.451471549255654"><ele>49.0</ele><time>2026-04-04T15:35:52.997Z</time></trkpt><trkpt lat="45.286734221063526" lon="10.451478655778685"><ele>49.0</ele><time>2026-04-04T15:35:53.997Z</time></trkpt><trkpt lat="45.286814728720444" lon="10.45148322837827"><ele>49.0</ele><time>2026-04-04T15:35:54.997Z</time></trkpt><trkpt lat="45.28687737940367" lon="10.451496958727333"><ele>49.0</ele><time>2026-04-04T15:35:55.997Z</time></trkpt><trkpt lat="45.286966728153075" lon="10.451607758000323"><ele>48.99999999999999</ele><time>2026-04-04T15:35:57.997Z</time></trkpt><trkpt lat="45.28697492140264" lon="10.45172209398397"><ele>49.0</ele><time>2026-04-04T15:35:58.997Z</time></trkpt><trkpt lat="45.287005920018046" lon="10.451845595173328"><ele>49.0</ele><time>2026-04-04T15:35:59.997Z</time></trkpt><trkpt lat="45.2870298857831" lon="10.451945038047816"><ele>49.0</ele><time>2026-04-04T15:36:00.997Z</time></trkpt><trkpt lat="45.28707956458068" lon="10.452034907704657"><ele>48.99999999999999</ele><time>2026-04-04T15:36:01.997Z</time></trkpt><trkpt lat="45.28716560622136" lon="10.452064908503656"><ele>49.0</ele><time>2026-04-04T15:36:02.997Z</time></trkpt><trkpt lat="45.2872587894344" lon="10.452069404649093"><ele>48.5</ele><time>2026-04-04T15:36:03.997Z</time></trkpt><trkpt lat="45.28736381146669" lon="10.4520583143313"><ele>48.0</ele><time>2026-04-04T15:36:04.997Z</time></trkpt><trkpt lat="45.287476935487184" lon="10.452044392635065"><ele>47.5</ele><time>2026-04-04T15:36:05.997Z</time></trkpt><trkpt lat="45.28760673384848" lon="10.452035776292867"><ele>47.0</ele><time>2026-04-04T15:36:06.997Z</time></trkpt><trkpt lat="45.287744557721936" lon="10.452030745951198"><ele>47.0</ele><time>2026-04-04T15:36:07.997Z</time></trkpt><trkpt lat="45.28788105059536" lon="10.452024653642743"><ele>47.0</ele><time>2026-04-04T15:36:08.997Z</time></trkpt><trkpt lat="45.28802495186333" lon="10.452017194353303"><ele>47.0</ele><time>2026-04-04T15:36:09.997Z</time></trkpt><trkpt lat="45.2881648281242" lon="10.452001563352153"><ele>47.0</ele><time>2026-04-04T15:36:10.997Z</time></trkpt><trkpt lat="45.28830499456404" lon="10.451978350976265"><ele>47.0</ele><time>2026-04-04T15:36:11.997Z</time></trkpt><trkpt lat="45.2884455789257" lon="10.451935528807093"><ele>47.0</ele><time>2026-04-04T15:36:12.997Z</time></trkpt><trkpt lat="45.28859265851914" lon="10.451910757953094"><ele>47.0</ele><time>2026-04-04T15:36:13.997Z</time></trkpt><trkpt lat="45.28873622131444" lon="10.451909785392923"><ele>47.0</ele><time>2026-04-04T15:36:14.997Z</time></trkpt><trkpt lat="45.28888088451837" lon="10.451914575940728"><ele>47.25</ele><time>2026-04-04T15:36:15.997Z</time></trkpt><trkpt lat="45.28902595837438" lon="10.451918363694018"><ele>47.5</ele><time>2026-04-04T15:36:16.997Z</time></trkpt><trkpt lat="45.289174316846044" lon="10.451909867488363"><ele>47.75</ele><time>2026-04-04T15:36:17.997Z</time></trkpt><trkpt lat="45.28932349258976" lon="10.451915246578729"><ele>48.0</ele><time>2026-04-04T15:36:18.997Z</time></trkpt><trkpt lat="45.28946727997216" lon="10.451924002673126"><ele>48.0</ele><time>2026-04-04T15:36:19.997Z</time></trkpt><trkpt lat="45.28960865028595" lon="10.451927734237575"><ele>48.0</ele><time>2026-04-04T15:36:20.997Z</time></trkpt><trkpt lat="45.28974692341912" lon="10.451927978985605"><ele>48.0</ele><time>2026-04-04T15:36:21.997Z</time></trkpt><trkpt lat="45.28988337031676" lon="10.451928434262935"><ele>48.0</ele><time>2026-04-04T15:36:22.997Z</time></trkpt><trkpt lat="45.2900194596048" lon="10.451930724598169"><ele>48.25</ele><time>2026-04-04T15:36:23.997Z</time></trkpt><trkpt lat="45.290155124937996" lon="10.451936364909907"><ele>48.5</ele><time>2026-04-04T15:36:24.997Z</time></trkpt><trkpt lat="45.290289219251946" lon="10.451938110751533"><ele>48.75</ele><time>2026-04-04T15:36:25.997Z</time></trkpt><trkpt lat="45.29041693772119" lon="10.451938496700636"><ele>49.0</ele><time>2026-04-04T15:36:26.997Z</time></trkpt><trkpt lat="45.290542174383695" lon="10.45193936563151"><ele>49.0</ele><time>2026-04-04T15:36:27.997Z</time></trkpt><trkpt lat="45.290666773802805" lon="10.451941810874358"><ele>49.0</ele><time>2026-04-04T15:36:28.997Z</time></trkpt><trkpt lat="45.290779077529365" lon="10.451947689699455"><ele>49.0</ele><time>2026-04-04T15:36:29.997Z</time></trkpt><trkpt lat="45.290884063565144" lon="10.45195252853424"><ele>49.0</ele><time>2026-04-04T15:36:30.997Z</time></trkpt><trkpt lat="45.29099729380946" lon="10.451956572942196"><ele>49.0</ele><time>2026-04-04T15:36:31.997Z</time></trkpt><trkpt lat="45.29110158699808" lon="10.452009808497175"><ele>49.0</ele><time>2026-04-04T15:36:32.997Z</time></trkpt><trkpt lat="45.29123237912093" lon="10.451964826193631"><ele>49.0</ele><time>2026-04-04T15:36:33.997Z</time></trkpt><trkpt lat="45.29134944923701" lon="10.451961051409295"><ele>49.0</ele><time>2026-04-04T15:36:34.997Z</time></trkpt><trkpt lat="45.291474041701036" lon="10.451974314478774"><ele>49.0</ele><time>2026-04-04T15:36:35.997Z</time></trkpt><trkpt lat="45.291601139871" lon="10.451985526983508"><ele>49.0</ele><time>2026-04-04T15:36:36.997Z</time></trkpt><trkpt lat="45.29172446105287" lon="10.452012224053707"><ele>49.0</ele><time>2026-04-04T15:36:37.997Z</time></trkpt><trkpt lat="45.291842984075025" lon="10.452059557664393"><ele>49.0</ele><time>2026-04-04T15:36:38.996Z</time></trkpt><trkpt lat="45.29196811516638" lon="10.45208793837524"><ele>49.0</ele><time>2026-04-04T15:36:39.996Z</time></trkpt><trkpt lat="45.29209252871418" lon="10.452112912055282"><ele>49.0</ele><time>2026-04-04T15:36:40.996Z</time></trkpt><trkpt lat="45.29221988959966" lon="10.452135966911115"><ele>49.0</ele><time>2026-04-04T15:36:41.996Z</time></trkpt><trkpt lat="45.292344535206176" lon="10.452129579979186"><ele>49.0</ele><time>2026-04-04T15:36:42.996Z</time></trkpt><trkpt lat="45.29246554823514" lon="10.45214626655041"><ele>49.0</ele><time>2026-04-04T15:36:43.996Z</time></trkpt><trkpt lat="45.29258620952561" lon="10.452154774811973"><ele>49.0</ele><time>2026-04-04T15:36:44.996Z</time></trkpt><trkpt lat="45.292703349264016" lon="10.452154350009462"><ele>49.0</ele><time>2026-04-04T15:36:45.996Z</time></trkpt><trkpt lat="45.29282460496272" lon="10.452156024313663"><ele>49.0</ele><time>2026-04-04T15:36:46.996Z</time></trkpt><trkpt lat="45.29294376115331" lon="10.452150833096946"><ele>49.0</ele><time>2026-04-04T15:36:47.996Z</time></trkpt><trkpt lat="45.29306014367473" lon="10.452151151074172"><ele>49.0</ele><time>2026-04-04T15:36:48.996Z</time></trkpt><trkpt lat="45.29317078802974" lon="10.45215719393516"><ele>49.0</ele><time>2026-04-04T15:36:49.996Z</time></trkpt><trkpt lat="45.2932782286926" lon="10.45217282213512"><ele>49.0</ele><time>2026-04-04T15:36:50.996Z</time></trkpt><trkpt lat="45.29337970802573" lon="10.452195887988278"><ele>49.0</ele><time>2026-04-04T15:36:51.996Z</time></trkpt><trkpt lat="45.293473108756395" lon="10.452229879878798"><ele>49.0</ele><time>2026-04-04T15:36:52.996Z</time></trkpt><trkpt lat="45.293565738843434" lon="10.452265692624195"><ele>49.0</ele><time>2026-04-04T15:36:53.996Z</time></trkpt><trkpt lat="45.293651911127114" lon="10.452302529181363"><ele>49.0</ele><time>2026-04-04T15:36:54.996Z</time></trkpt><trkpt lat="45.29373693482729" lon="10.45233791537809"><ele>49.0</ele><time>2026-04-04T15:36:55.996Z</time></trkpt><trkpt lat="45.293828477254586" lon="10.452360441836706"><ele>49.0</ele><time>2026-04-04T15:36:56.996Z</time></trkpt><trkpt lat="45.29391188449852" lon="10.452412956295545"><ele>49.0</ele><time>2026-04-04T15:36:57.996Z</time></trkpt><trkpt lat="45.29397994232612" lon="10.452480459024056"><ele>49.0</ele><time>2026-04-04T15:36:58.996Z</time></trkpt><trkpt lat="45.294058427457294" lon="10.452544722544214"><ele>49.0</ele><time>2026-04-04T15:36:59.996Z</time></trkpt><trkpt lat="45.29413806878188" lon="10.452609932753198"><ele>49.0</ele><time>2026-04-04T15:37:00.996Z</time></trkpt><trkpt lat="45.29431718492076" lon="10.45242255572941"><ele>49.0</ele><time>2026-04-04T15:37:01.996Z</time></trkpt><trkpt lat="45.29441496825258" lon="10.452439294345663"><ele>49.0</ele><time>2026-04-04T15:37:02.996Z</time></trkpt><trkpt lat="45.29452229394891" lon="10.45245886829575"><ele>49.0</ele><time>2026-04-04T15:37:03.996Z</time></trkpt><trkpt lat="45.29462029008288" lon="10.452468818317447"><ele>49.0</ele><time>2026-04-04T15:37:04.996Z</time></trkpt><trkpt lat="45.294716577475405" lon="10.452473664335361"><ele>49.0</ele><time>2026-04-04T15:37:05.996Z</time></trkpt><trkpt lat="45.294802399390996" lon="10.452469165533655"><ele>49.49999999999999</ele><time>2026-04-04T15:37:06.996Z</time></trkpt><trkpt lat="45.29488594429217" lon="10.452465235974838"><ele>50.0</ele><time>2026-04-04T15:37:07.996Z</time></trkpt><trkpt lat="45.29497994605849" lon="10.452456838065071"><ele>50.5</ele><time>2026-04-04T15:37:08.996Z</time></trkpt><trkpt lat="45.29505679702687" lon="10.452442211419914"><ele>51.0</ele><time>2026-04-04T15:37:09.996Z</time></trkpt><trkpt lat="45.295137823407195" lon="10.452426966302882"><ele>51.49999999999999</ele><time>2026-04-04T15:37:10.996Z</time></trkpt><trkpt lat="45.29521907754653" lon="10.45241002219664"><ele>52.0</ele><time>2026-04-04T15:37:11.996Z</time></trkpt><trkpt lat="45.29528990302349" lon="10.452389061656234"><ele>51.99999999999999</ele><time>2026-04-04T15:37:12.996Z</time></trkpt><trkpt lat="45.2953631593834" lon="10.45237221655286"><ele>52.0</ele><time>2026-04-04T15:37:13.996Z</time></trkpt><trkpt lat="45.29547727495572" lon="10.452380962695807"><ele>52.0</ele><time>2026-04-04T15:37:15.996Z</time></trkpt><trkpt lat="45.295567230197086" lon="10.452379302523589"><ele>52.0</ele><time>2026-04-04T15:37:17.996Z</time></trkpt><trkpt lat="45.29564261929306" lon="10.452393251374394"><ele>51.99999999999999</ele><time>2026-04-04T15:37:19.996Z</time></trkpt><trkpt lat="45.29572805778661" lon="10.452390893553927"><ele>52.0</ele><time>2026-04-04T15:37:21.996Z</time></trkpt><trkpt lat="45.29579169980723" lon="10.452393555892792"><ele>51.6</ele><time>2026-04-04T15:37:22.996Z</time></trkpt><trkpt lat="45.2958623046211" lon="10.452393569219728"><ele>51.2</ele><time>2026-04-04T15:37:23.996Z</time></trkpt><trkpt lat="45.295937902161185" lon="10.452392350121388"><ele>50.8</ele><time>2026-04-04T15:37:24.996Z</time></trkpt><trkpt lat="45.29600480959522" lon="10.452395480456472"><ele>50.4</ele><time>2026-04-04T15:37:25.996Z</time></trkpt><trkpt lat="45.29611720005479" lon="10.45242805211748"><ele>50.0</ele><time>2026-04-04T15:37:27.996Z</time></trkpt><trkpt lat="45.29624596831527" lon="10.452482339196917"><ele>50.00000000000001</ele><time>2026-04-04T15:37:29.996Z</time></trkpt><trkpt lat="45.29632337980796" lon="10.452500157667957"><ele>50.0</ele><time>2026-04-04T15:37:30.996Z</time></trkpt><trkpt lat="45.29640580195915" lon="10.452516195279458"><ele>50.0</ele><time>2026-04-04T15:37:31.996Z</time></trkpt><trkpt lat="45.29648977879266" lon="10.452529951677723"><ele>50.0</ele><time>2026-04-04T15:37:32.996Z</time></trkpt><trkpt lat="45.29657649808488" lon="10.452546380600065"><ele>50.00000000000001</ele><time>2026-04-04T15:37:33.996Z</time></trkpt><trkpt lat="45.29666313878939" lon="10.452565534761838"><ele>50.0</ele><time>2026-04-04T15:37:34.996Z</time></trkpt><trkpt lat="45.296751977530754" lon="10.4525841128719"><ele>49.8</ele><time>2026-04-04T15:37:35.996Z</time></trkpt><trkpt lat="45.29684684453938" lon="10.452598571108012"><ele>49.6</ele><time>2026-04-04T15:37:36.995Z</time></trkpt><trkpt lat="45.296945892910585" lon="10.452614288085954"><ele>49.400000000000006</ele><time>2026-04-04T15:37:37.995Z</time></trkpt><trkpt lat="45.297042091746405" lon="10.452638375084163"><ele>49.2</ele><time>2026-04-04T15:37:38.995Z</time></trkpt><trkpt lat="45.297137571304965" lon="10.452661437951543"><ele>49.0</ele><time>2026-04-04T15:37:39.995Z</time></trkpt><trkpt lat="45.29723541894416" lon="10.45268151465786"><ele>48.99999999999999</ele><time>2026-04-04T15:37:40.995Z</time></trkpt><trkpt lat="45.29732578073359" lon="10.45269925903066"><ele>49.0</ele><time>2026-04-04T15:37:41.995Z</time></trkpt><trkpt lat="45.297405730366144" lon="10.45272035898573"><ele>49.0</ele><time>2026-04-04T15:37:42.995Z</time></trkpt><trkpt lat="45.29747635724432" lon="10.452736124944332"><ele>49.0</ele><time>2026-04-04T15:37:43.995Z</time></trkpt><trkpt lat="45.29754324683035" lon="10.452748631554995"><ele>48.99999999999999</ele><time>2026-04-04T15:37:44.995Z</time></trkpt><trkpt lat="45.2976584522223" lon="10.452751887058966"><ele>49.0</ele><time>2026-04-04T15:37:46.995Z</time></trkpt><trkpt lat="45.29772785771961" lon="10.452633756957818"><ele>49.0</ele><time>2026-04-04T15:37:48.995Z</time></trkpt><trkpt lat="45.297742720981695" lon="10.452530857572349"><ele>49.0</ele><time>2026-04-04T15:37:49.995Z</time></trkpt><trkpt lat="45.297733084700944" lon="10.452385426645732"><ele>49.0</ele><time>2026-04-04T15:37:50.995Z</time></trkpt><trkpt lat="45.29772542337361" lon="10.452215160374854"><ele>49.0</ele><time>2026-04-04T15:37:51.995Z</time></trkpt><trkpt lat="45.29773855399826" lon="10.452005935178773"><ele>49.0</ele><time>2026-04-04T15:37:52.995Z</time></trkpt><trkpt lat="45.29775266882034" lon="10.451783638732804"><ele>49.0</ele><time>2026-04-04T15:37:53.995Z</time></trkpt><trkpt lat="45.29776124500139" lon="10.451558301495519"><ele>49.0</ele><time>2026-04-04T15:37:54.995Z</time></trkpt><trkpt lat="45.297770184235176" lon="10.451339293442743"><ele>49.0</ele><time>2026-04-04T15:37:55.995Z</time></trkpt><trkpt lat="45.29778026459892" lon="10.451133970628117"><ele>49.0</ele><time>2026-04-04T15:37:56.995Z</time></trkpt><trkpt lat="45.297790864338964" lon="10.45093525649127"><ele>49.0</ele><time>2026-04-04T15:37:57.995Z</time></trkpt><trkpt lat="45.29780132165216" lon="10.450739166256808"><ele>49.0</ele><time>2026-04-04T15:37:58.995Z</time></trkpt><trkpt lat="45.297812465405876" lon="10.450546213386742"><ele>49.0</ele><time>2026-04-04T15:37:59.995Z</time></trkpt><trkpt lat="45.29782376562989" lon="10.450350481421246"><ele>49.0</ele><time>2026-04-04T15:38:00.995Z</time></trkpt><trkpt lat="45.29783307932596" lon="10.450157304743934"><ele>49.0</ele><time>2026-04-04T15:38:01.995Z</time></trkpt><trkpt lat="45.29783793624118" lon="10.449984654324854"><ele>49.0</ele><time>2026-04-04T15:38:02.995Z</time></trkpt><trkpt lat="45.297848900054355" lon="10.449834522221249"><ele>49.0</ele><time>2026-04-04T15:38:03.995Z</time></trkpt><trkpt lat="45.297857736422365" lon="10.449685813791287"><ele>49.2</ele><time>2026-04-04T15:38:04.995Z</time></trkpt><trkpt lat="45.29786860022769" lon="10.449553228353196"><ele>49.400000000000006</ele><time>2026-04-04T15:38:05.995Z</time></trkpt><trkpt lat="45.297881457076365" lon="10.449434982298698"><ele>49.6</ele><time>2026-04-04T15:38:06.995Z</time></trkpt><trkpt lat="45.29789368488281" lon="10.449328751814663"><ele>49.8</ele><time>2026-04-04T15:38:07.995Z</time></trkpt><trkpt lat="45.29792698697073" lon="10.449198366109359"><ele>50.0</ele><time>2026-04-04T15:38:09.995Z</time></trkpt><trkpt lat="45.298030774297416" lon="10.449134363754464"><ele>50.00000000000001</ele><time>2026-04-04T15:38:11.995Z</time></trkpt><trkpt lat="45.29810762927215" lon="10.449127082644777"><ele>50.0</ele><time>2026-04-04T15:38:12.995Z</time></trkpt><trkpt lat="45.298196041272504" lon="10.449117534510359"><ele>50.0</ele><time>2026-04-04T15:38:13.995Z</time></trkpt><trkpt lat="45.298293456834564" lon="10.44909482461592"><ele>50.0</ele><time>2026-04-04T15:38:14.995Z</time></trkpt><trkpt lat="45.2983868800089" lon="10.44906833125229"><ele>50.00000000000001</ele><time>2026-04-04T15:38:15.995Z</time></trkpt><trkpt lat="45.29847241132924" lon="10.449049186076188"><ele>50.0</ele><time>2026-04-04T15:38:16.995Z</time></trkpt><trkpt lat="45.29854546564208" lon="10.44902759789479"><ele>50.0</ele><time>2026-04-04T15:38:17.995Z</time></trkpt><trkpt lat="45.29861632815492" lon="10.448945686713337"><ele>50.0</ele><time>2026-04-04T15:38:19.995Z</time></trkpt><trkpt lat="45.29862654421073" lon="10.448847887493407"><ele>50.0</ele><time>2026-04-04T15:38:20.995Z</time></trkpt><trkpt lat="45.29862338852523" lon="10.448722952224747"><ele>50.0</ele><time>2026-04-04T15:38:21.995Z</time></trkpt><trkpt lat="45.29862336079606" lon="10.448578554093974"><ele>50.0</ele><time>2026-04-04T15:38:22.995Z</time></trkpt><trkpt lat="45.298629927743384" lon="10.448423147766976"><ele>49.8</ele><time>2026-04-04T15:38:23.995Z</time></trkpt><trkpt lat="45.29864861506912" lon="10.448257407098072"><ele>49.6</ele><time>2026-04-04T15:38:24.995Z</time></trkpt><trkpt lat="45.298672223521855" lon="10.448101999030197"><ele>49.400000000000006</ele><time>2026-04-04T15:38:25.995Z</time></trkpt><trkpt lat="45.298703316877656" lon="10.447951698413938"><ele>49.2</ele><time>2026-04-04T15:38:26.995Z</time></trkpt><trkpt lat="45.29873371582217" lon="10.44780333101299"><ele>49.0</ele><time>2026-04-04T15:38:27.995Z</time></trkpt><trkpt lat="45.29875748568385" lon="10.447648316409033"><ele>49.0</ele><time>2026-04-04T15:38:28.995Z</time></trkpt><trkpt lat="45.29876887506604" lon="10.44748966180986"><ele>49.0</ele><time>2026-04-04T15:38:29.995Z</time></trkpt><trkpt lat="45.298764554482034" lon="10.44732197390268"><ele>49.0</ele><time>2026-04-04T15:38:30.995Z</time></trkpt><trkpt lat="45.29876916632695" lon="10.447158624884047"><ele>49.0</ele><time>2026-04-04T15:38:31.995Z</time></trkpt><trkpt lat="45.29876805273555" lon="10.446997009816636"><ele>49.25</ele><time>2026-04-04T15:38:32.995Z</time></trkpt><trkpt lat="45.298771144402394" lon="10.446833640658804"><ele>49.5</ele><time>2026-04-04T15:38:33.994Z</time></trkpt><trkpt lat="45.29876974823718" lon="10.446667673061876"><ele>49.75</ele><time>2026-04-04T15:38:34.994Z</time></trkpt><trkpt lat="45.29876837208496" lon="10.446502941577362"><ele>50.0</ele><time>2026-04-04T15:38:35.994Z</time></trkpt><trkpt lat="45.29876849002885" lon="10.44633824912909"><ele>50.0</ele><time>2026-04-04T15:38:36.994Z</time></trkpt><trkpt lat="45.29877183752426" lon="10.446174588143666"><ele>50.0</ele><time>2026-04-04T15:38:37.994Z</time></trkpt><trkpt lat="45.298773593384034" lon="10.44601074540856"><ele>50.0</ele><time>2026-04-04T15:38:38.994Z</time></trkpt><trkpt lat="45.29877502898847" lon="10.445844223944903"><ele>50.0</ele><time>2026-04-04T15:38:39.994Z</time></trkpt><trkpt lat="45.29877371755117" lon="10.445680181731891"><ele>50.0</ele><time>2026-04-04T15:38:40.994Z</time></trkpt><trkpt lat="45.29878065159691" lon="10.445514877771053"><ele>50.0</ele><time>2026-04-04T15:38:41.994Z</time></trkpt><trkpt lat="45.29878672392012" lon="10.445348400776096"><ele>50.0</ele><time>2026-04-04T15:38:42.994Z</time></trkpt><trkpt lat="45.29878859915732" lon="10.445185645587467"><ele>50.0</ele><time>2026-04-04T15:38:43.994Z</time></trkpt><trkpt lat="45.29879026651363" lon="10.445025079367628"><ele>50.0</ele><time>2026-04-04T15:38:44.994Z</time></trkpt><trkpt lat="45.298789672907446" lon="10.444853995270329"><ele>50.0</ele><time>2026-04-04T15:38:45.994Z</time></trkpt><trkpt lat="45.29879045316876" lon="10.444701107830168"><ele>50.0</ele><time>2026-04-04T15:38:46.994Z</time></trkpt><trkpt lat="45.298777490288835" lon="10.444545800778412"><ele>50.0</ele><time>2026-04-04T15:38:47.994Z</time></trkpt><trkpt lat="45.29876941152858" lon="10.444389061657658"><ele>50.0</ele><time>2026-04-04T15:38:48.994Z</time></trkpt><trkpt lat="45.29878566551587" lon="10.444238403706054"><ele>50.0</ele><time>2026-04-04T15:38:49.994Z</time></trkpt><trkpt lat="45.29881051806649" lon="10.444092475858966"><ele>50.0</ele><time>2026-04-04T15:38:50.994Z</time></trkpt><trkpt lat="45.29882641817115" lon="10.443941853689813"><ele>50.0</ele><time>2026-04-04T15:38:51.994Z</time></trkpt><trkpt lat="45.2988193927467" lon="10.4438027885186"><ele>50.0</ele><time>2026-04-04T15:38:52.994Z</time></trkpt><trkpt lat="45.29877941641769" lon="10.443649328663245"><ele>50.0</ele><time>2026-04-04T15:38:53.994Z</time></trkpt><trkpt lat="45.29872788358995" lon="10.443500422925808"><ele>50.0</ele><time>2026-04-04T15:38:54.994Z</time></trkpt><trkpt lat="45.29868870958979" lon="10.443349600567783"><ele>50.0</ele><time>2026-04-04T15:38:55.994Z</time></trkpt><trkpt lat="45.298645671195935" lon="10.443195753208897"><ele>50.0</ele><time>2026-04-04T15:38:56.994Z</time></trkpt><trkpt lat="45.29860090152607" lon="10.44304145480323"><ele>50.0</ele><time>2026-04-04T15:38:57.994Z</time></trkpt><trkpt lat="45.298563754094744" lon="10.442903414362046"><ele>50.00000000000001</ele><time>2026-04-04T15:38:58.994Z</time></trkpt><trkpt lat="45.298526027938166" lon="10.44275829811585"><ele>50.0</ele><time>2026-04-04T15:38:59.994Z</time></trkpt><trkpt lat="45.298494391385134" lon="10.442634418845627"><ele>50.0</ele><time>2026-04-04T15:39:00.994Z</time></trkpt><trkpt lat="45.298477052141436" lon="10.44253102456303"><ele>50.0</ele><time>2026-04-04T15:39:01.994Z</time></trkpt><trkpt lat="45.29847422634843" lon="10.442439239617597"><ele>50.00000000000001</ele><time>2026-04-04T15:39:02.994Z</time></trkpt><trkpt lat="45.29849546892482" lon="10.442351943199435"><ele>50.0</ele><time>2026-04-04T15:39:03.994Z</time></trkpt><trkpt lat="45.298542390205924" lon="10.442258418016365"><ele>50.0</ele><time>2026-04-04T15:39:04.994Z</time></trkpt><trkpt lat="45.29861000767627" lon="10.442170571685425"><ele>50.0</ele><time>2026-04-04T15:39:05.994Z</time></trkpt><trkpt lat="45.29869339478337" lon="10.442077970644592"><ele>50.0</ele><time>2026-04-04T15:39:06.994Z</time></trkpt><trkpt lat="45.298778195084246" lon="10.441980846888345"><ele>50.0</ele><time>2026-04-04T15:39:07.994Z</time></trkpt><trkpt lat="45.298863294563944" lon="10.44187987956584"><ele>50.0</ele><time>2026-04-04T15:39:08.994Z</time></trkpt><trkpt lat="45.29894867912483" lon="10.441785765449424"><ele>49.75</ele><time>2026-04-04T15:39:09.994Z</time></trkpt><trkpt lat="45.29903438564336" lon="10.441678016530041"><ele>49.5</ele><time>2026-04-04T15:39:10.994Z</time></trkpt><trkpt lat="45.29912563119364" lon="10.441573608615716"><ele>49.25</ele><time>2026-04-04T15:39:11.994Z</time></trkpt><trkpt lat="45.29921677018069" lon="10.441467520038643"><ele>49.0</ele><time>2026-04-04T15:39:12.994Z</time></trkpt><trkpt lat="45.29931113678418" lon="10.441358927625837"><ele>48.75</ele><time>2026-04-04T15:39:13.994Z</time></trkpt><trkpt lat="45.29940676722589" lon="10.441250423264984"><ele>48.5</ele><time>2026-04-04T15:39:14.994Z</time></trkpt><trkpt lat="45.299498524314124" lon="10.441140198001811"><ele>48.25</ele><time>2026-04-04T15:39:15.994Z</time></trkpt><trkpt lat="45.299591639365424" lon="10.441029240992227"><ele>48.0</ele><time>2026-04-04T15:39:16.994Z</time></trkpt><trkpt lat="45.29968950758564" lon="10.440921544491674"><ele>48.25</ele><time>2026-04-04T15:39:17.994Z</time></trkpt><trkpt lat="45.29978155305237" lon="10.440808679140984"><ele>48.5</ele><time>2026-04-04T15:39:18.994Z</time></trkpt><trkpt lat="45.29988047425718" lon="10.440692395665813"><ele>48.75</ele><time>2026-04-04T15:39:19.994Z</time></trkpt><trkpt lat="45.29997560200507" lon="10.440579057888824"><ele>49.0</ele><time>2026-04-04T15:39:20.994Z</time></trkpt><trkpt lat="45.30007089018521" lon="10.440467697969536"><ele>49.5</ele><time>2026-04-04T15:39:21.994Z</time></trkpt><trkpt lat="45.300167389919295" lon="10.44035888857305"><ele>50.0</ele><time>2026-04-04T15:39:22.994Z</time></trkpt><trkpt lat="45.300263270182676" lon="10.44025378846676"><ele>50.5</ele><time>2026-04-04T15:39:23.994Z</time></trkpt><trkpt lat="45.30036104061952" lon="10.440144813837549"><ele>51.0</ele><time>2026-04-04T15:39:24.994Z</time></trkpt><trkpt lat="45.300461197507076" lon="10.440029720197632"><ele>51.0</ele><time>2026-04-04T15:39:25.994Z</time></trkpt><trkpt lat="45.30055789413692" lon="10.43990804434642"><ele>51.0</ele><time>2026-04-04T15:39:26.994Z</time></trkpt><trkpt lat="45.30065824798358" lon="10.4397879227823"><ele>51.0</ele><time>2026-04-04T15:39:27.994Z</time></trkpt><trkpt lat="45.300761109199755" lon="10.43966812832958"><ele>51.0</ele><time>2026-04-04T15:39:28.994Z</time></trkpt><trkpt lat="45.300866942902324" lon="10.43955038910941"><ele>50.5</ele><time>2026-04-04T15:39:29.994Z</time></trkpt><trkpt lat="45.30097328288336" lon="10.439437434902741"><ele>50.0</ele><time>2026-04-04T15:39:30.993Z</time></trkpt><trkpt lat="45.30108382720411" lon="10.439331068243009"><ele>49.5</ele><time>2026-04-04T15:39:31.993Z</time></trkpt><trkpt lat="45.30119617545893" lon="10.439227467761624"><ele>49.0</ele><time>2026-04-04T15:39:32.993Z</time></trkpt><trkpt lat="45.30130683746801" lon="10.439117108454752"><ele>49.0</ele><time>2026-04-04T15:39:33.993Z</time></trkpt><trkpt lat="45.301413864043745" lon="10.439005232132661"><ele>49.0</ele><time>2026-04-04T15:39:34.993Z</time></trkpt><trkpt lat="45.301514611795426" lon="10.438876189945402"><ele>49.0</ele><time>2026-04-04T15:39:35.993Z</time></trkpt><trkpt lat="45.3016097557055" lon="10.438743733715022"><ele>49.0</ele><time>2026-04-04T15:39:36.993Z</time></trkpt><trkpt lat="45.30169676544475" lon="10.438612291195348"><ele>49.2</ele><time>2026-04-04T15:39:37.993Z</time></trkpt><trkpt lat="45.30177045016252" lon="10.438500592001109"><ele>49.400000000000006</ele><time>2026-04-04T15:39:38.993Z</time></trkpt><trkpt lat="45.30182917316403" lon="10.43841322295979"><ele>49.6</ele><time>2026-04-04T15:39:39.993Z</time></trkpt><trkpt lat="45.30187407566246" lon="10.438342236703"><ele>49.8</ele><time>2026-04-04T15:39:41.993Z</time></trkpt><trkpt lat="45.30191173076755" lon="10.438505065408995"><ele>50.0</ele><time>2026-04-04T15:39:46.993Z</time></trkpt><trkpt lat="45.301936376959176" lon="10.438682157684088"><ele>51.0</ele><time>2026-04-04T15:39:48.993Z</time></trkpt><trkpt lat="45.30195792814771" lon="10.438942009617925"><ele>52.0</ele><time>2026-04-04T15:39:50.993Z</time></trkpt><trkpt lat="45.302110384745454" lon="10.43940325334325"><ele>52.0</ele><time>2026-04-04T15:39:52.993Z</time></trkpt><trkpt lat="45.30214094982759" lon="10.439565170785093"><ele>52.0</ele><time>2026-04-04T15:39:53.993Z</time></trkpt><trkpt lat="45.302175087612646" lon="10.439726432793645"><ele>52.0</ele><time>2026-04-04T15:39:54.993Z</time></trkpt><trkpt lat="45.30221215976185" lon="10.439886505875998"><ele>52.0</ele><time>2026-04-04T15:39:55.993Z</time></trkpt><trkpt lat="45.30224973780213" lon="10.440047301044496"><ele>52.0</ele><time>2026-04-04T15:39:56.993Z</time></trkpt><trkpt lat="45.302284902774176" lon="10.440210013285805"><ele>52.0</ele><time>2026-04-04T15:39:57.993Z</time></trkpt><trkpt lat="45.3023096620128" lon="10.44037598477536"><ele>52.0</ele><time>2026-04-04T15:39:58.993Z</time></trkpt><trkpt lat="45.302327809464266" lon="10.440544955929052"><ele>52.0</ele><time>2026-04-04T15:39:59.993Z</time></trkpt><trkpt lat="45.3023437485317" lon="10.440718993559537"><ele>52.0</ele><time>2026-04-04T15:40:00.993Z</time></trkpt><trkpt lat="45.30235804142168" lon="10.440896946061448"><ele>52.0</ele><time>2026-04-04T15:40:01.993Z</time></trkpt><trkpt lat="45.302374570067244" lon="10.44108174690149"><ele>52.0</ele><time>2026-04-04T15:40:02.993Z</time></trkpt><trkpt lat="45.30239181374327" lon="10.441260207422955"><ele>52.0</ele><time>2026-04-04T15:40:03.993Z</time></trkpt><trkpt lat="45.30241497208176" lon="10.441438815582817"><ele>51.5</ele><time>2026-04-04T15:40:04.993Z</time></trkpt><trkpt lat="45.30244350605453" lon="10.441620318037332"><ele>51.0</ele><time>2026-04-04T15:40:05.993Z</time></trkpt><trkpt lat="45.30247610378293" lon="10.441846095942958"><ele>50.5</ele><time>2026-04-04T15:40:06.993Z</time></trkpt><trkpt lat="45.30251081885372" lon="10.4420327776882"><ele>50.0</ele><time>2026-04-04T15:40:07.993Z</time></trkpt><trkpt lat="45.30254449637225" lon="10.442218649852595"><ele>50.0</ele><time>2026-04-04T15:40:08.993Z</time></trkpt><trkpt lat="45.30257007080647" lon="10.44240093348101"><ele>50.0</ele><time>2026-04-04T15:40:09.993Z</time></trkpt><trkpt lat="45.30259746103567" lon="10.442582087340252"><ele>50.0</ele><time>2026-04-04T15:40:10.993Z</time></trkpt><trkpt lat="45.30262267823438" lon="10.44276324676371"><ele>50.0</ele><time>2026-04-04T15:40:11.993Z</time></trkpt><trkpt lat="45.30264908439517" lon="10.442946263847412"><ele>50.25</ele><time>2026-04-04T15:40:12.993Z</time></trkpt><trkpt lat="45.30267656117567" lon="10.443126647925926"><ele>50.5</ele><time>2026-04-04T15:40:13.993Z</time></trkpt><trkpt lat="45.302705099931075" lon="10.44329706213708"><ele>50.75</ele><time>2026-04-04T15:40:14.993Z</time></trkpt><trkpt lat="45.30273667717527" lon="10.44348424520278"><ele>51.0</ele><time>2026-04-04T15:40:15.993Z</time></trkpt><trkpt lat="45.302764353401855" lon="10.44367366296736"><ele>50.75</ele><time>2026-04-04T15:40:16.993Z</time></trkpt><trkpt lat="45.30278533070783" lon="10.443863229187304"><ele>50.5</ele><time>2026-04-04T15:40:17.993Z</time></trkpt><trkpt lat="45.30281449958275" lon="10.444052127035906"><ele>50.25</ele><time>2026-04-04T15:40:18.993Z</time></trkpt><trkpt lat="45.30285481546163" lon="10.444239484099008"><ele>50.0</ele><time>2026-04-04T15:40:19.993Z</time></trkpt><trkpt lat="45.30288642855879" lon="10.444423203241"><ele>50.0</ele><time>2026-04-04T15:40:20.993Z</time></trkpt><trkpt lat="45.30292535650862" lon="10.444580293825801"><ele>50.0</ele><time>2026-04-04T15:40:21.993Z</time></trkpt><trkpt lat="45.30296582924371" lon="10.444739425913557"><ele>50.0</ele><time>2026-04-04T15:40:22.993Z</time></trkpt><trkpt lat="45.30300268602971" lon="10.444872805891912"><ele>50.0</ele><time>2026-04-04T15:40:23.993Z</time></trkpt><trkpt lat="45.303034777823655" lon="10.4449915618423"><ele>50.0</ele><time>2026-04-04T15:40:24.993Z</time></trkpt><trkpt lat="45.30307091019377" lon="10.445130617141293"><ele>50.0</ele><time>2026-04-04T15:40:25.993Z</time></trkpt><trkpt lat="45.30308780693268" lon="10.445287163318467"><ele>50.0</ele><time>2026-04-04T15:40:26.993Z</time></trkpt><trkpt lat="45.303080533071444" lon="10.44544004382119"><ele>50.0</ele><time>2026-04-04T15:40:27.992Z</time></trkpt><trkpt lat="45.30306163355669" lon="10.44558890813934"><ele>50.0</ele><time>2026-04-04T15:40:28.992Z</time></trkpt><trkpt lat="45.3030423501686" lon="10.445759804226006"><ele>50.0</ele><time>2026-04-04T15:40:29.992Z</time></trkpt><trkpt lat="45.30302510423963" lon="10.445926101407828"><ele>50.0</ele><time>2026-04-04T15:40:30.992Z</time></trkpt><trkpt lat="45.30300404344053" lon="10.446093146161113"><ele>50.0</ele><time>2026-04-04T15:40:31.992Z</time></trkpt><trkpt lat="45.3029874019093" lon="10.446265565665476"><ele>50.0</ele><time>2026-04-04T15:40:32.992Z</time></trkpt><trkpt lat="45.30296958897742" lon="10.44642734384882"><ele>50.0</ele><time>2026-04-04T15:40:33.992Z</time></trkpt><trkpt lat="45.30295419994602" lon="10.446579481318597"><ele>50.0</ele><time>2026-04-04T15:40:34.992Z</time></trkpt><trkpt lat="45.30293970277244" lon="10.446725034860423"><ele>50.0</ele><time>2026-04-04T15:40:35.992Z</time></trkpt><trkpt lat="45.30292525911659" lon="10.446869727923666"><ele>50.0</ele><time>2026-04-04T15:40:36.992Z</time></trkpt><trkpt lat="45.30291011232884" lon="10.447014668693477"><ele>50.0</ele><time>2026-04-04T15:40:37.992Z</time></trkpt><trkpt lat="45.302893227979126" lon="10.447163213444162"><ele>50.0</ele><time>2026-04-04T15:40:38.992Z</time></trkpt><trkpt lat="45.30287542947981" lon="10.447312082952697"><ele>50.2</ele><time>2026-04-04T15:40:39.992Z</time></trkpt><trkpt lat="45.30285631227387" lon="10.447460799023515"><ele>50.4</ele><time>2026-04-04T15:40:40.992Z</time></trkpt><trkpt lat="45.30283586728139" lon="10.447602869270048"><ele>50.599999999999994</ele><time>2026-04-04T15:40:41.992Z</time></trkpt><trkpt lat="45.30281107656293" lon="10.447746180814827"><ele>50.8</ele><time>2026-04-04T15:40:42.992Z</time></trkpt><trkpt lat="45.30278758852359" lon="10.447895022964616"><ele>51.0</ele><time>2026-04-04T15:40:43.992Z</time></trkpt><trkpt lat="45.30276249979084" lon="10.448030301662987"><ele>51.0</ele><time>2026-04-04T15:40:44.992Z</time></trkpt><trkpt lat="45.302740295581216" lon="10.448171584951035"><ele>51.0</ele><time>2026-04-04T15:40:45.992Z</time></trkpt><trkpt lat="45.30273835516837" lon="10.448334118470125"><ele>51.0</ele><time>2026-04-04T15:40:46.992Z</time></trkpt><trkpt lat="45.30273302175392" lon="10.448490746871474"><ele>51.0</ele><time>2026-04-04T15:40:47.992Z</time></trkpt><trkpt lat="45.30272928285976" lon="10.448648604546255"><ele>51.0</ele><time>2026-04-04T15:40:48.992Z</time></trkpt><trkpt lat="45.302725379810944" lon="10.44880815968345"><ele>51.0</ele><time>2026-04-04T15:40:49.992Z</time></trkpt><trkpt lat="45.30272139006625" lon="10.448970410494713"><ele>51.0</ele><time>2026-04-04T15:40:50.992Z</time></trkpt><trkpt lat="45.30270889375953" lon="10.44912918416571"><ele>51.0</ele><time>2026-04-04T15:40:51.992Z</time></trkpt><trkpt lat="45.30269421290742" lon="10.449300358674062"><ele>51.0</ele><time>2026-04-04T15:40:52.992Z</time></trkpt><trkpt lat="45.3026786892567" lon="10.449476152738846"><ele>51.25</ele><time>2026-04-04T15:40:53.992Z</time></trkpt><trkpt lat="45.302668467758075" lon="10.449641402647055"><ele>51.5</ele><time>2026-04-04T15:40:54.992Z</time></trkpt><trkpt lat="45.30265997870137" lon="10.449818672630181"><ele>51.75</ele><time>2026-04-04T15:40:55.992Z</time></trkpt><trkpt lat="45.30265721930167" lon="10.449990358526021"><ele>52.0</ele><time>2026-04-04T15:40:56.992Z</time></trkpt><trkpt lat="45.30266262295377" lon="10.450169049235077"><ele>52.0</ele><time>2026-04-04T15:40:57.992Z</time></trkpt><trkpt lat="45.30266970067932" lon="10.45035161408875"><ele>52.0</ele><time>2026-04-04T15:40:58.992Z</time></trkpt><trkpt lat="45.30268166081789" lon="10.450525764464903"><ele>52.0</ele><time>2026-04-04T15:40:59.992Z</time></trkpt><trkpt lat="45.302697896032114" lon="10.450702959790165"><ele>52.0</ele><time>2026-04-04T15:41:00.992Z</time></trkpt><trkpt lat="45.302706021207634" lon="10.450877967683683"><ele>52.0</ele><time>2026-04-04T15:41:01.992Z</time></trkpt><trkpt lat="45.30270665373136" lon="10.451053013467668"><ele>52.0</ele><time>2026-04-04T15:41:02.992Z</time></trkpt><trkpt lat="45.302700032592966" lon="10.451227038669336"><ele>52.0</ele><time>2026-04-04T15:41:03.992Z</time></trkpt><trkpt lat="45.30267530430451" lon="10.451402590829398"><ele>52.0</ele><time>2026-04-04T15:41:04.992Z</time></trkpt><trkpt lat="45.30263927346814" lon="10.451576975358533"><ele>52.0</ele><time>2026-04-04T15:41:05.992Z</time></trkpt><trkpt lat="45.30259955297849" lon="10.451746665201652"><ele>52.0</ele><time>2026-04-04T15:41:06.992Z</time></trkpt><trkpt lat="45.30255626978663" lon="10.451926140078173"><ele>52.0</ele><time>2026-04-04T15:41:07.992Z</time></trkpt><trkpt lat="45.30251579154843" lon="10.452107737112671"><ele>52.0</ele><time>2026-04-04T15:41:08.992Z</time></trkpt><trkpt lat="45.30247760255436" lon="10.452288318435029"><ele>52.25</ele><time>2026-04-04T15:41:09.992Z</time></trkpt><trkpt lat="45.30243611703168" lon="10.452472505771818"><ele>52.5</ele><time>2026-04-04T15:41:10.992Z</time></trkpt><trkpt lat="45.302398344256346" lon="10.452650270985266"><ele>52.75</ele><time>2026-04-04T15:41:11.992Z</time></trkpt><trkpt lat="45.302362066386905" lon="10.452828608829858"><ele>53.0</ele><time>2026-04-04T15:41:12.992Z</time></trkpt><trkpt lat="45.30232612476723" lon="10.452997748049595"><ele>53.0</ele><time>2026-04-04T15:41:13.992Z</time></trkpt><trkpt lat="45.302291424817014" lon="10.45315441899543"><ele>53.0</ele><time>2026-04-04T15:41:14.992Z</time></trkpt><trkpt lat="45.30225014053691" lon="10.453297702745298"><ele>53.0</ele><time>2026-04-04T15:41:15.992Z</time></trkpt><trkpt lat="45.302201502887556" lon="10.45343869241416"><ele>53.0</ele><time>2026-04-04T15:41:16.992Z</time></trkpt><trkpt lat="45.3021414152127" lon="10.453551264140627"><ele>53.0</ele><time>2026-04-04T15:41:17.992Z</time></trkpt><trkpt lat="45.30208409214772" lon="10.453655976852517"><ele>52.8</ele><time>2026-04-04T15:41:18.992Z</time></trkpt><trkpt lat="45.302036597878065" lon="10.453775788532186"><ele>52.599999999999994</ele><time>2026-04-04T15:41:19.992Z</time></trkpt><trkpt lat="45.30201304761671" lon="10.453910415299829"><ele>52.400000000000006</ele><time>2026-04-04T15:41:20.992Z</time></trkpt><trkpt lat="45.30199557614444" lon="10.454070046949841"><ele>52.2</ele><time>2026-04-04T15:41:21.992Z</time></trkpt><trkpt lat="45.30198093285992" lon="10.454239880926538"><ele>52.0</ele><time>2026-04-04T15:41:22.992Z</time></trkpt><trkpt lat="45.301957747775106" lon="10.454404272337479"><ele>52.0</ele><time>2026-04-04T15:41:23.992Z</time></trkpt><trkpt lat="45.301913644851005" lon="10.454564153736618"><ele>52.0</ele><time>2026-04-04T15:41:24.992Z</time></trkpt><trkpt lat="45.30186753777014" lon="10.454730264670362"><ele>52.0</ele><time>2026-04-04T15:41:25.991Z</time></trkpt><trkpt lat="45.301818151612196" lon="10.454880092863611"><ele>52.0</ele><time>2026-04-04T15:41:26.991Z</time></trkpt><trkpt lat="45.301769970704676" lon="10.455034148262554"><ele>52.0</ele><time>2026-04-04T15:41:27.991Z</time></trkpt><trkpt lat="45.30173648688844" lon="10.45519282737517"><ele>52.0</ele><time>2026-04-04T15:41:28.991Z</time></trkpt><trkpt lat="45.30171675103199" lon="10.45536908344977"><ele>52.0</ele><time>2026-04-04T15:41:29.991Z</time></trkpt><trkpt lat="45.301702253983116" lon="10.455546410164757"><ele>52.0</ele><time>2026-04-04T15:41:30.991Z</time></trkpt><trkpt lat="45.30167847768977" lon="10.455708791540182"><ele>52.0</ele><time>2026-04-04T15:41:31.991Z</time></trkpt><trkpt lat="45.301655271590874" lon="10.455873493760048"><ele>52.0</ele><time>2026-04-04T15:41:32.991Z</time></trkpt><trkpt lat="45.30163366271912" lon="10.45604892217595"><ele>52.0</ele><time>2026-04-04T15:41:33.991Z</time></trkpt><trkpt lat="45.30160668161291" lon="10.456222372996129"><ele>52.0</ele><time>2026-04-04T15:41:34.991Z</time></trkpt><trkpt lat="45.30157022934648" lon="10.456385376434772"><ele>52.0</ele><time>2026-04-04T15:41:35.991Z</time></trkpt><trkpt lat="45.30153589772441" lon="10.456540693112986"><ele>52.0</ele><time>2026-04-04T15:41:36.991Z</time></trkpt><trkpt lat="45.301497767257786" lon="10.45670524898984"><ele>52.0</ele><time>2026-04-04T15:41:37.991Z</time></trkpt><trkpt lat="45.301460936611726" lon="10.456868402808523"><ele>52.0</ele><time>2026-04-04T15:41:38.991Z</time></trkpt><trkpt lat="45.30142749052645" lon="10.457016030020768"><ele>51.6</ele><time>2026-04-04T15:41:39.991Z</time></trkpt><trkpt lat="45.301399080291716" lon="10.457155729839902"><ele>51.2</ele><time>2026-04-04T15:41:40.991Z</time></trkpt><trkpt lat="45.30137667818274" lon="10.45728647709329"><ele>50.8</ele><time>2026-04-04T15:41:41.991Z</time></trkpt><trkpt lat="45.30135654227294" lon="10.45741982504648"><ele>50.4</ele><time>2026-04-04T15:41:42.991Z</time></trkpt><trkpt lat="45.301340489877276" lon="10.457560535852291"><ele>50.0</ele><time>2026-04-04T15:41:43.991Z</time></trkpt><trkpt lat="45.30132241038276" lon="10.457699537116023"><ele>50.0</ele><time>2026-04-04T15:41:44.991Z</time></trkpt><trkpt lat="45.301302862004704" lon="10.457845240381882"><ele>50.0</ele><time>2026-04-04T15:41:45.991Z</time></trkpt><trkpt lat="45.3012794943748" lon="10.458001130039237"><ele>50.0</ele><time>2026-04-04T15:41:46.991Z</time></trkpt><trkpt lat="45.30124992429123" lon="10.458147570848487"><ele>50.0</ele><time>2026-04-04T15:41:47.991Z</time></trkpt><trkpt lat="45.30121773183613" lon="10.458285761926057"><ele>50.0</ele><time>2026-04-04T15:41:48.991Z</time></trkpt><trkpt lat="45.301186199353005" lon="10.458439305155077"><ele>50.25</ele><time>2026-04-04T15:41:49.991Z</time></trkpt><trkpt lat="45.30116053901088" lon="10.458597738727258"><ele>50.5</ele><time>2026-04-04T15:41:50.991Z</time></trkpt><trkpt lat="45.30112765379102" lon="10.458755100139527"><ele>50.75</ele><time>2026-04-04T15:41:51.991Z</time></trkpt><trkpt lat="45.30109547716406" lon="10.458917466588943"><ele>51.0</ele><time>2026-04-04T15:41:52.991Z</time></trkpt><trkpt lat="45.30106442312423" lon="10.459077459673285"><ele>51.0</ele><time>2026-04-04T15:41:53.991Z</time></trkpt><trkpt lat="45.30103129794343" lon="10.459239956893763"><ele>51.0</ele><time>2026-04-04T15:41:54.991Z</time></trkpt><trkpt lat="45.30099737834653" lon="10.459407150941855"><ele>51.0</ele><time>2026-04-04T15:41:55.991Z</time></trkpt><trkpt lat="45.30096218770665" lon="10.459576439883394"><ele>51.0</ele><time>2026-04-04T15:41:56.991Z</time></trkpt><trkpt lat="45.300927170423535" lon="10.459745379722397"><ele>50.75</ele><time>2026-04-04T15:41:57.991Z</time></trkpt><trkpt lat="45.30089334186891" lon="10.459920301503729"><ele>50.5</ele><time>2026-04-04T15:41:58.991Z</time></trkpt><trkpt lat="45.300855197461374" lon="10.460089861490957"><ele>50.25</ele><time>2026-04-04T15:41:59.991Z</time></trkpt><trkpt lat="45.30082066385536" lon="10.460259229140686"><ele>50.0</ele><time>2026-04-04T15:42:00.991Z</time></trkpt><trkpt lat="45.3007875565916" lon="10.460426747479268"><ele>50.0</ele><time>2026-04-04T15:42:01.991Z</time></trkpt><trkpt lat="45.30075307444858" lon="10.460597500356165"><ele>50.0</ele><time>2026-04-04T15:42:02.991Z</time></trkpt><trkpt lat="45.300718214585885" lon="10.460767975223986"><ele>50.0</ele><time>2026-04-04T15:42:03.991Z</time></trkpt><trkpt lat="45.30068329460371" lon="10.46093039641111"><ele>50.0</ele><time>2026-04-04T15:42:04.991Z</time></trkpt><trkpt lat="45.30065792780503" lon="10.461079796078318"><ele>50.0</ele><time>2026-04-04T15:42:05.991Z</time></trkpt><trkpt lat="45.300636084631954" lon="10.461209623156822"><ele>50.0</ele><time>2026-04-04T15:42:06.991Z</time></trkpt><trkpt lat="45.30061636562428" lon="10.461346818463484"><ele>50.0</ele><time>2026-04-04T15:42:07.991Z</time></trkpt><trkpt lat="45.30058832215607" lon="10.461484485656545"><ele>50.0</ele><time>2026-04-04T15:42:08.991Z</time></trkpt><trkpt lat="45.300562913309726" lon="10.461608360551924"><ele>50.0</ele><time>2026-04-04T15:42:09.991Z</time></trkpt><trkpt lat="45.300548826027686" lon="10.461732662053647"><ele>50.16666666666667</ele><time>2026-04-04T15:42:10.991Z</time></trkpt><trkpt lat="45.300525869698916" lon="10.461851292545907"><ele>50.333333333333336</ele><time>2026-04-04T15:42:11.991Z</time></trkpt><trkpt lat="45.30049392058611" lon="10.461938093095744"><ele>50.5</ele><time>2026-04-04T15:42:12.991Z</time></trkpt><trkpt lat="45.30046043843552" lon="10.46205709094509"><ele>50.66666666666667</ele><time>2026-04-04T15:42:14.991Z</time></trkpt><trkpt lat="45.30039317946042" lon="10.462088192913546"><ele>50.833333333333336</ele><time>2026-04-04T15:42:16.991Z</time></trkpt><trkpt lat="45.30033076114357" lon="10.462054215956043"><ele>51.0</ele><time>2026-04-04T15:42:17.991Z</time></trkpt><trkpt lat="45.30025308579781" lon="10.4619961717248"><ele>51.0</ele><time>2026-04-04T15:42:18.991Z</time></trkpt><trkpt lat="45.30015719718877" lon="10.461942458529467"><ele>51.0</ele><time>2026-04-04T15:42:19.991Z</time></trkpt><trkpt lat="45.30005175454973" lon="10.461902084754326"><ele>51.0</ele><time>2026-04-04T15:42:20.991Z</time></trkpt><trkpt lat="45.299938333562004" lon="10.4618626200076"><ele>51.0</ele><time>2026-04-04T15:42:21.991Z</time></trkpt><trkpt lat="45.299813881178856" lon="10.46181761235492"><ele>50.75</ele><time>2026-04-04T15:42:22.99Z</time></trkpt><trkpt lat="45.299689501688604" lon="10.461768601014779"><ele>50.5</ele><time>2026-04-04T15:42:23.99Z</time></trkpt><trkpt lat="45.299561745885285" lon="10.461727988675678"><ele>50.25</ele><time>2026-04-04T15:42:24.99Z</time></trkpt><trkpt lat="45.2994331564892" lon="10.461709188967784"><ele>50.0</ele><time>2026-04-04T15:42:25.99Z</time></trkpt><trkpt lat="45.299305255068255" lon="10.461703012088357"><ele>50.0</ele><time>2026-04-04T15:42:26.99Z</time></trkpt><trkpt lat="45.29918059621285" lon="10.461697408247979"><ele>50.0</ele><time>2026-04-04T15:42:27.99Z</time></trkpt><trkpt lat="45.299057277985455" lon="10.461667981324018"><ele>50.0</ele><time>2026-04-04T15:42:28.99Z</time></trkpt><trkpt lat="45.29893390067675" lon="10.461618770785533"><ele>50.0</ele><time>2026-04-04T15:42:29.99Z</time></trkpt><trkpt lat="45.29881229394666" lon="10.461566752492732"><ele>49.5</ele><time>2026-04-04T15:42:30.99Z</time></trkpt><trkpt lat="45.29868613782294" lon="10.461526173051663"><ele>49.0</ele><time>2026-04-04T15:42:31.99Z</time></trkpt><trkpt lat="45.29857084071499" lon="10.46148453315987"><ele>48.5</ele><time>2026-04-04T15:42:32.99Z</time></trkpt><trkpt lat="45.298466453794475" lon="10.461442844030486"><ele>48.0</ele><time>2026-04-04T15:42:33.99Z</time></trkpt><trkpt lat="45.29836423032133" lon="10.461385854316338"><ele>48.0</ele><time>2026-04-04T15:42:34.99Z</time></trkpt><trkpt lat="45.29827865049977" lon="10.461283908849353"><ele>48.0</ele><time>2026-04-04T15:42:35.99Z</time></trkpt><trkpt lat="45.298181821876184" lon="10.461211717288426"><ele>48.0</ele><time>2026-04-04T15:42:36.99Z</time></trkpt><trkpt lat="45.29808604031085" lon="10.461147731143907"><ele>48.0</ele><time>2026-04-04T15:42:37.99Z</time></trkpt><trkpt lat="45.29798935031763" lon="10.461101460799329"><ele>48.0</ele><time>2026-04-04T15:42:38.99Z</time></trkpt><trkpt lat="45.297886176621596" lon="10.461069045910822"><ele>48.4</ele><time>2026-04-04T15:42:39.99Z</time></trkpt><trkpt lat="45.29778861040837" lon="10.461051131050317"><ele>48.8</ele><time>2026-04-04T15:42:40.99Z</time></trkpt><trkpt lat="45.29769002283953" lon="10.461037352595834"><ele>49.2</ele><time>2026-04-04T15:42:41.99Z</time></trkpt><trkpt lat="45.29759299829893" lon="10.461025314553345"><ele>49.6</ele><time>2026-04-04T15:42:42.99Z</time></trkpt><trkpt lat="45.29749453921985" lon="10.461015624710672"><ele>50.0</ele><time>2026-04-04T15:42:43.99Z</time></trkpt><trkpt lat="45.2974020519832" lon="10.461031667690795"><ele>50.00000000000001</ele><time>2026-04-04T15:42:44.99Z</time></trkpt><trkpt lat="45.297319081167196" lon="10.46105641900086"><ele>50.0</ele><time>2026-04-04T15:42:45.99Z</time></trkpt><trkpt lat="45.29724116421224" lon="10.461063337003935"><ele>50.0</ele><time>2026-04-04T15:42:46.99Z</time></trkpt><trkpt lat="45.29716844279659" lon="10.461055814171619"><ele>50.0</ele><time>2026-04-04T15:42:47.99Z</time></trkpt><trkpt lat="45.297090653700465" lon="10.461073266602627"><ele>50.00000000000001</ele><time>2026-04-04T15:42:48.99Z</time></trkpt><trkpt lat="45.29703684530227" lon="10.461126788157216"><ele>50.0</ele><time>2026-04-04T15:42:49.99Z</time></trkpt><trkpt lat="45.29697679466867" lon="10.461245271910416"><ele>49.8</ele><time>2026-04-04T15:42:51.99Z</time></trkpt><trkpt lat="45.29692410221612" lon="10.46131890976642"><ele>49.6</ele><time>2026-04-04T15:42:52.99Z</time></trkpt><trkpt lat="45.29685910956096" lon="10.46141088535449"><ele>49.400000000000006</ele><time>2026-04-04T15:42:53.99Z</time></trkpt><trkpt lat="45.29679011919635" lon="10.461520857793538"><ele>49.2</ele><time>2026-04-04T15:42:54.99Z</time></trkpt><trkpt lat="45.2967259377681" lon="10.461636686399865"><ele>49.0</ele><time>2026-04-04T15:42:55.99Z</time></trkpt><trkpt lat="45.29666680025029" lon="10.461763959744383"><ele>49.0</ele><time>2026-04-04T15:42:56.99Z</time></trkpt><trkpt lat="45.296616714942374" lon="10.461893622927162"><ele>49.0</ele><time>2026-04-04T15:42:57.99Z</time></trkpt><trkpt lat="45.29660256505737" lon="10.46204762632496"><ele>49.0</ele><time>2026-04-04T15:42:58.99Z</time></trkpt><trkpt lat="45.29659085274748" lon="10.462192313475365"><ele>49.0</ele><time>2026-04-04T15:42:59.99Z</time></trkpt><trkpt lat="45.29659174892238" lon="10.462335626349157"><ele>49.0</ele><time>2026-04-04T15:43:00.99Z</time></trkpt><trkpt lat="45.29659225733283" lon="10.462480002531622"><ele>48.800000000000004</ele><time>2026-04-04T15:43:01.99Z</time></trkpt><trkpt lat="45.29658191131945" lon="10.462625431371354"><ele>48.6</ele><time>2026-04-04T15:43:02.99Z</time></trkpt><trkpt lat="45.296574872234046" lon="10.46277347275016"><ele>48.4</ele><time>2026-04-04T15:43:03.99Z</time></trkpt><trkpt lat="45.29656953022437" lon="10.462921965037697"><ele>48.2</ele><time>2026-04-04T15:43:04.99Z</time></trkpt><trkpt lat="45.296565644119376" lon="10.463071885631905"><ele>48.0</ele><time>2026-04-04T15:43:05.99Z</time></trkpt><trkpt lat="45.29655768133022" lon="10.463225176574406"><ele>47.75</ele><time>2026-04-04T15:43:06.99Z</time></trkpt><trkpt lat="45.296543527994395" lon="10.463374135505275"><ele>47.5</ele><time>2026-04-04T15:43:07.99Z</time></trkpt><trkpt lat="45.2965157714193" lon="10.463529563256499"><ele>47.25</ele><time>2026-04-04T15:43:08.99Z</time></trkpt><trkpt lat="45.29647887971433" lon="10.463680898546812"><ele>47.0</ele><time>2026-04-04T15:43:09.99Z</time></trkpt><trkpt lat="45.29643587664404" lon="10.463840226673295"><ele>47.0</ele><time>2026-04-04T15:43:10.99Z</time></trkpt><trkpt lat="45.29639318219673" lon="10.46398837304631"><ele>47.0</ele><time>2026-04-04T15:43:11.99Z</time></trkpt><trkpt lat="45.296362309833455" lon="10.464129733617302"><ele>47.0</ele><time>2026-04-04T15:43:12.99Z</time></trkpt><trkpt lat="45.296322980928316" lon="10.464223960183679"><ele>47.0</ele><time>2026-04-04T15:43:13.99Z</time></trkpt><trkpt lat="45.296300124785326" lon="10.464399967760203"><ele>47.0</ele><time>2026-04-04T15:43:15.99Z</time></trkpt><trkpt lat="45.29612837176138" lon="10.464448358471829"><ele>47.0</ele><time>2026-04-04T15:43:16.99Z</time></trkpt><trkpt lat="45.29601444165556" lon="10.464496653622861"><ele>47.0</ele><time>2026-04-04T15:43:17.99Z</time></trkpt><trkpt lat="45.295890902364064" lon="10.46452936285792"><ele>47.0</ele><time>2026-04-04T15:43:18.99Z</time></trkpt><trkpt lat="45.295756885772384" lon="10.464568472359513"><ele>47.0</ele><time>2026-04-04T15:43:19.989Z</time></trkpt><trkpt lat="45.29561960726431" lon="10.464612320090696"><ele>47.5</ele><time>2026-04-04T15:43:20.989Z</time></trkpt><trkpt lat="45.29548203825386" lon="10.464663337052691"><ele>48.0</ele><time>2026-04-04T15:43:21.989Z</time></trkpt><trkpt lat="45.29534691337715" lon="10.464714463015211"><ele>48.5</ele><time>2026-04-04T15:43:22.989Z</time></trkpt><trkpt lat="45.29521754287939" lon="10.46476351691949"><ele>49.0</ele><time>2026-04-04T15:43:23.989Z</time></trkpt><trkpt lat="45.29509728830787" lon="10.464804163772206"><ele>48.99999999999999</ele><time>2026-04-04T15:43:24.989Z</time></trkpt><trkpt lat="45.294992030628954" lon="10.464850740054786"><ele>49.0</ele><time>2026-04-04T15:43:25.989Z</time></trkpt><trkpt lat="45.294895065832556" lon="10.464884090518943"><ele>49.0</ele><time>2026-04-04T15:43:26.989Z</time></trkpt><trkpt lat="45.294814398474784" lon="10.464915313098333"><ele>49.0</ele><time>2026-04-04T15:43:27.989Z</time></trkpt><trkpt lat="45.294734138206536" lon="10.464937249610058"><ele>48.99999999999999</ele><time>2026-04-04T15:43:28.989Z</time></trkpt><trkpt lat="45.294660666657286" lon="10.464944891991035"><ele>49.0</ele><time>2026-04-04T15:43:29.989Z</time></trkpt><trkpt lat="45.29457842115697" lon="10.464935596591028"><ele>48.83333333333333</ele><time>2026-04-04T15:43:30.989Z</time></trkpt><trkpt lat="45.29449540487066" lon="10.464914404237087"><ele>48.666666666666664</ele><time>2026-04-04T15:43:31.989Z</time></trkpt><trkpt lat="45.29441530872508" lon="10.46490989013552"><ele>48.5</ele><time>2026-04-04T15:43:32.989Z</time></trkpt><trkpt lat="45.294348610291" lon="10.464950869309297"><ele>48.33333333333333</ele><time>2026-04-04T15:43:33.989Z</time></trkpt><trkpt lat="45.29430744118043" lon="10.465028870715292"><ele>48.166666666666664</ele><time>2026-04-04T15:43:34.989Z</time></trkpt><trkpt lat="45.29427140386342" lon="10.465126800082082"><ele>48.0</ele><time>2026-04-04T15:43:35.989Z</time></trkpt><trkpt lat="45.294312231252" lon="10.465263669720676"><ele>48.0</ele><time>2026-04-04T15:43:36.989Z</time></trkpt><trkpt lat="45.294350647962446" lon="10.465397850591266"><ele>48.0</ele><time>2026-04-04T15:43:37.989Z</time></trkpt><trkpt lat="45.294372939685616" lon="10.465546209085849"><ele>48.0</ele><time>2026-04-04T15:43:38.989Z</time></trkpt><trkpt lat="45.29435745255983" lon="10.465703547430746"><ele>48.0</ele><time>2026-04-04T15:43:39.989Z</time></trkpt><trkpt lat="45.2943031074582" lon="10.465853242160792"><ele>48.0</ele><time>2026-04-04T15:43:40.989Z</time></trkpt><trkpt lat="45.29424220229645" lon="10.465996818509048"><ele>48.333333333333336</ele><time>2026-04-04T15:43:41.989Z</time></trkpt><trkpt lat="45.29418703004143" lon="10.466138046516468"><ele>48.66666666666667</ele><time>2026-04-04T15:43:42.989Z</time></trkpt><trkpt lat="45.29413504177777" lon="10.466245753863303"><ele>49.0</ele><time>2026-04-04T15:43:43.989Z</time></trkpt><trkpt lat="45.29408156842085" lon="10.466300371587682"><ele>49.333333333333336</ele><time>2026-04-04T15:43:44.989Z</time></trkpt><trkpt lat="45.29401276117928" lon="10.466326586266113"><ele>49.66666666666667</ele><time>2026-04-04T15:43:45.989Z</time></trkpt><trkpt lat="45.29391648194547" lon="10.466295566829267"><ele>50.0</ele><time>2026-04-04T15:43:46.989Z</time></trkpt><trkpt lat="45.29381571446102" lon="10.466242776952134"><ele>50.5</ele><time>2026-04-04T15:43:47.989Z</time></trkpt><trkpt lat="45.2937084088279" lon="10.46617001583235"><ele>51.0</ele><time>2026-04-04T15:43:48.989Z</time></trkpt><trkpt lat="45.29358994657515" lon="10.466126792116494"><ele>51.5</ele><time>2026-04-04T15:43:49.989Z</time></trkpt><trkpt lat="45.293476526660235" lon="10.466085408177957"><ele>52.0</ele><time>2026-04-04T15:43:50.989Z</time></trkpt><trkpt lat="45.29336619166677" lon="10.466045150609212"><ele>52.0</ele><time>2026-04-04T15:43:51.989Z</time></trkpt><trkpt lat="45.29325470487223" lon="10.466015605539107"><ele>52.0</ele><time>2026-04-04T15:43:52.989Z</time></trkpt><trkpt lat="45.29314304008118" lon="10.466000783713286"><ele>52.0</ele><time>2026-04-04T15:43:53.989Z</time></trkpt><trkpt lat="45.29303140369657" lon="10.466011949561238"><ele>52.0</ele><time>2026-04-04T15:43:54.989Z</time></trkpt><trkpt lat="45.29291921217353" lon="10.466055652777888"><ele>51.5</ele><time>2026-04-04T15:43:55.989Z</time></trkpt><trkpt lat="45.29280844772729" lon="10.46612012374694"><ele>51.0</ele><time>2026-04-04T15:43:56.989Z</time></trkpt><trkpt lat="45.29270314853197" lon="10.466205368633"><ele>50.5</ele><time>2026-04-04T15:43:57.989Z</time></trkpt><trkpt lat="45.29261118530103" lon="10.466325139446063"><ele>50.0</ele><time>2026-04-04T15:43:58.989Z</time></trkpt><trkpt lat="45.29254106523224" lon="10.466461046693311"><ele>50.0</ele><time>2026-04-04T15:43:59.989Z</time></trkpt><trkpt lat="45.29247203370664" lon="10.466583662622705"><ele>50.0</ele><time>2026-04-04T15:44:00.989Z</time></trkpt><trkpt lat="45.292405991331364" lon="10.466725523654443"><ele>50.0</ele><time>2026-04-04T15:44:01.989Z</time></trkpt><trkpt lat="45.29233543035688" lon="10.466861591639445"><ele>50.0</ele><time>2026-04-04T15:44:02.989Z</time></trkpt><trkpt lat="45.29226269685287" lon="10.46699528112409"><ele>49.8</ele><time>2026-04-04T15:44:03.989Z</time></trkpt><trkpt lat="45.292197221750875" lon="10.46712707768762"><ele>49.6</ele><time>2026-04-04T15:44:04.989Z</time></trkpt><trkpt lat="45.29213458093475" lon="10.467258357911238"><ele>49.400000000000006</ele><time>2026-04-04T15:44:05.989Z</time></trkpt><trkpt lat="45.29207304200074" lon="10.467386958160125"><ele>49.2</ele><time>2026-04-04T15:44:06.989Z</time></trkpt><trkpt lat="45.292009250965" lon="10.467518368135858"><ele>49.0</ele><time>2026-04-04T15:44:07.989Z</time></trkpt><trkpt lat="45.29194015124291" lon="10.4676552370869"><ele>49.0</ele><time>2026-04-04T15:44:08.989Z</time></trkpt><trkpt lat="45.291867769779834" lon="10.46779417241152"><ele>49.0</ele><time>2026-04-04T15:44:09.989Z</time></trkpt><trkpt lat="45.291792467660805" lon="10.467934932420984"><ele>49.0</ele><time>2026-04-04T15:44:10.989Z</time></trkpt><trkpt lat="45.291718691437886" lon="10.468074043523801"><ele>49.0</ele><time>2026-04-04T15:44:11.989Z</time></trkpt><trkpt lat="45.29164595655055" lon="10.468217563117074"><ele>49.25</ele><time>2026-04-04T15:44:12.989Z</time></trkpt><trkpt lat="45.291572817189895" lon="10.46836671866144"><ele>49.5</ele><time>2026-04-04T15:44:13.989Z</time></trkpt><trkpt lat="45.291502020796486" lon="10.46851715345847"><ele>49.75</ele><time>2026-04-04T15:44:14.989Z</time></trkpt><trkpt lat="45.29143084180761" lon="10.468673641939038"><ele>50.0</ele><time>2026-04-04T15:44:15.989Z</time></trkpt><trkpt lat="45.29136411875838" lon="10.468819795799893"><ele>50.0</ele><time>2026-04-04T15:44:16.988Z</time></trkpt><trkpt lat="45.29130311778321" lon="10.468968874010471"><ele>50.0</ele><time>2026-04-04T15:44:17.988Z</time></trkpt><trkpt lat="45.29123828294711" lon="10.469107127355631"><ele>50.0</ele><time>2026-04-04T15:44:18.988Z</time></trkpt><trkpt lat="45.29117612847477" lon="10.469249643445668"><ele>50.0</ele><time>2026-04-04T15:44:19.988Z</time></trkpt><trkpt lat="45.29110995024315" lon="10.469392186724342"><ele>50.0</ele><time>2026-04-04T15:44:20.988Z</time></trkpt><trkpt lat="45.29104806884113" lon="10.469524314598962"><ele>50.0</ele><time>2026-04-04T15:44:21.988Z</time></trkpt><trkpt lat="45.29099586129681" lon="10.469638774388216"><ele>50.0</ele><time>2026-04-04T15:44:22.988Z</time></trkpt><trkpt lat="45.290944760716144" lon="10.469752863086981"><ele>50.0</ele><time>2026-04-04T15:44:23.988Z</time></trkpt><trkpt lat="45.29089160851133" lon="10.469861137721692"><ele>50.0</ele><time>2026-04-04T15:44:24.988Z</time></trkpt><trkpt lat="45.29084493820394" lon="10.469961629434929"><ele>49.8</ele><time>2026-04-04T15:44:25.988Z</time></trkpt><trkpt lat="45.290806122572576" lon="10.470045741280282"><ele>49.6</ele><time>2026-04-04T15:44:26.988Z</time></trkpt><trkpt lat="45.29074540361777" lon="10.470180500227853"><ele>49.400000000000006</ele><time>2026-04-04T15:44:28.988Z</time></trkpt><trkpt lat="45.290703793435235" lon="10.470258519448922"><ele>49.2</ele><time>2026-04-04T15:44:30.988Z</time></trkpt><trkpt lat="45.29079107285501" lon="10.470396926288121"><ele>49.0</ele><time>2026-04-04T15:44:32.988Z</time></trkpt><trkpt lat="45.290876644234324" lon="10.470450616135437"><ele>49.0</ele><time>2026-04-04T15:44:33.988Z</time></trkpt><trkpt lat="45.290967812682844" lon="10.470514209810514"><ele>49.0</ele><time>2026-04-04T15:44:34.988Z</time></trkpt><trkpt lat="45.291065026892916" lon="10.470596223728537"><ele>49.0</ele><time>2026-04-04T15:44:35.988Z</time></trkpt><trkpt lat="45.291168724753064" lon="10.470681856634222"><ele>49.0</ele><time>2026-04-04T15:44:36.988Z</time></trkpt><trkpt lat="45.291263842488185" lon="10.470764914855225"><ele>49.0</ele><time>2026-04-04T15:44:37.988Z</time></trkpt><trkpt lat="45.291357024499625" lon="10.470856253287463"><ele>48.99999999999999</ele><time>2026-04-04T15:44:38.988Z</time></trkpt><trkpt lat="45.29144073391215" lon="10.470939810707662"><ele>49.0</ele><time>2026-04-04T15:44:39.988Z</time></trkpt><trkpt lat="45.29152058393088" lon="10.471003662586387"><ele>49.0</ele><time>2026-04-04T15:44:40.988Z</time></trkpt><trkpt lat="45.29159056468962" lon="10.471059436992709"><ele>49.0</ele><time>2026-04-04T15:44:41.988Z</time></trkpt><trkpt lat="45.291644539837286" lon="10.47110687007667"><ele>48.99999999999999</ele><time>2026-04-04T15:44:42.988Z</time></trkpt><trkpt lat="45.291738749987324" lon="10.471186159856986"><ele>49.0</ele><time>2026-04-04T15:44:44.988Z</time></trkpt><trkpt lat="45.29177766196133" lon="10.47132207320073"><ele>49.0</ele><time>2026-04-04T15:44:46.988Z</time></trkpt><trkpt lat="45.29175207627515" lon="10.471424196290625"><ele>49.0</ele><time>2026-04-04T15:44:47.988Z</time></trkpt><trkpt lat="45.29171217483788" lon="10.471540843928004"><ele>49.0</ele><time>2026-04-04T15:44:48.988Z</time></trkpt><trkpt lat="45.2916670607181" lon="10.471667157782862"><ele>49.0</ele><time>2026-04-04T15:44:49.988Z</time></trkpt><trkpt lat="45.29162117490984" lon="10.471783626317459"><ele>49.0</ele><time>2026-04-04T15:44:50.988Z</time></trkpt><trkpt lat="45.291578247937444" lon="10.471908177574067"><ele>49.0</ele><time>2026-04-04T15:44:51.988Z</time></trkpt><trkpt lat="45.291537302196545" lon="10.47202939774487"><ele>49.0</ele><time>2026-04-04T15:44:52.988Z</time></trkpt><trkpt lat="45.29149403809881" lon="10.472159896645142"><ele>49.0</ele><time>2026-04-04T15:44:53.988Z</time></trkpt><trkpt lat="45.29144644676202" lon="10.472298045722843"><ele>49.0</ele><time>2026-04-04T15:44:54.988Z</time></trkpt><trkpt lat="45.29140451433074" lon="10.472428129117429"><ele>49.0</ele><time>2026-04-04T15:44:55.988Z</time></trkpt><trkpt lat="45.2913617092263" lon="10.472558560414596"><ele>49.400000000000006</ele><time>2026-04-04T15:44:56.988Z</time></trkpt><trkpt lat="45.29131507739639" lon="10.472684993360529"><ele>49.8</ele><time>2026-04-04T15:44:57.988Z</time></trkpt><trkpt lat="45.29127006651917" lon="10.472811774759368"><ele>50.2</ele><time>2026-04-04T15:44:58.988Z</time></trkpt><trkpt lat="45.29122724709988" lon="10.472933482059027"><ele>50.599999999999994</ele><time>2026-04-04T15:44:59.988Z</time></trkpt><trkpt lat="45.2911782776024" lon="10.473066246493406"><ele>51.0</ele><time>2026-04-04T15:45:00.988Z</time></trkpt><trkpt lat="45.29113766288643" lon="10.473185797450775"><ele>51.166666666666664</ele><time>2026-04-04T15:45:01.988Z</time></trkpt><trkpt lat="45.291096978605964" lon="10.473299469554139"><ele>51.33333333333333</ele><time>2026-04-04T15:45:02.988Z</time></trkpt><trkpt lat="45.29105942254879" lon="10.473411259205056"><ele>51.5</ele><time>2026-04-04T15:45:03.988Z</time></trkpt><trkpt lat="45.29101853219554" lon="10.473514722004603"><ele>51.666666666666664</ele><time>2026-04-04T15:45:04.988Z</time></trkpt><trkpt lat="45.290981058280714" lon="10.473607932342993"><ele>51.83333333333333</ele><time>2026-04-04T15:45:05.988Z</time></trkpt><trkpt lat="45.29094540536924" lon="10.473687828145476"><ele>52.0</ele><time>2026-04-04T15:45:06.988Z</time></trkpt><trkpt lat="45.29088498807113" lon="10.473805811532387"><ele>51.6</ele><time>2026-04-04T15:45:08.988Z</time></trkpt><trkpt lat="45.29086459339298" lon="10.47389676198978"><ele>51.2</ele><time>2026-04-04T15:45:11.988Z</time></trkpt><trkpt lat="45.290735185081296" lon="10.473878881924128"><ele>50.8</ele><time>2026-04-04T15:45:13.987Z</time></trkpt><trkpt lat="45.2906732374988" lon="10.473961641600555"><ele>50.4</ele><time>2026-04-04T15:45:14.987Z</time></trkpt><trkpt lat="45.2906277992438" lon="10.47407897210994"><ele>50.0</ele><time>2026-04-04T15:45:15.987Z</time></trkpt><trkpt lat="45.29059099534844" lon="10.474205601888398"><ele>50.0</ele><time>2026-04-04T15:45:16.987Z</time></trkpt><trkpt lat="45.290551840977855" lon="10.474348312276472"><ele>50.0</ele><time>2026-04-04T15:45:17.987Z</time></trkpt><trkpt lat="45.29051202044621" lon="10.47448677465954"><ele>50.0</ele><time>2026-04-04T15:45:18.987Z</time></trkpt><trkpt lat="45.29046988484392" lon="10.474624207305714"><ele>50.0</ele><time>2026-04-04T15:45:19.987Z</time></trkpt><trkpt lat="45.29042710732047" lon="10.47476905100035"><ele>50.0</ele><time>2026-04-04T15:45:20.987Z</time></trkpt><trkpt lat="45.29038189419579" lon="10.474907977400097"><ele>50.0</ele><time>2026-04-04T15:45:21.987Z</time></trkpt><trkpt lat="45.29034095003708" lon="10.475054010034112"><ele>50.0</ele><time>2026-04-04T15:45:22.987Z</time></trkpt><trkpt lat="45.29029702227304" lon="10.47520299059557"><ele>50.0</ele><time>2026-04-04T15:45:23.987Z</time></trkpt><trkpt lat="45.29025118709509" lon="10.47535804837557"><ele>50.0</ele><time>2026-04-04T15:45:24.987Z</time></trkpt><trkpt lat="45.290206117235456" lon="10.475512371090822"><ele>50.0</ele><time>2026-04-04T15:45:25.987Z</time></trkpt><trkpt lat="45.29016073761784" lon="10.475666333198536"><ele>50.0</ele><time>2026-04-04T15:45:26.987Z</time></trkpt><trkpt lat="45.29011493872109" lon="10.475811281997784"><ele>50.0</ele><time>2026-04-04T15:45:27.987Z</time></trkpt><trkpt lat="45.290072660942954" lon="10.475959373289115"><ele>50.0</ele><time>2026-04-04T15:45:28.987Z</time></trkpt><trkpt lat="45.290033925204945" lon="10.476115511432319"><ele>50.0</ele><time>2026-04-04T15:45:29.987Z</time></trkpt><trkpt lat="45.28998010693968" lon="10.476260214123334"><ele>50.0</ele><time>2026-04-04T15:45:30.987Z</time></trkpt><trkpt lat="45.2899347793608" lon="10.476411263325854"><ele>50.0</ele><time>2026-04-04T15:45:31.987Z</time></trkpt><trkpt lat="45.28987089329219" lon="10.476546711646897"><ele>50.0</ele><time>2026-04-04T15:45:32.987Z</time></trkpt><trkpt lat="45.28980173901335" lon="10.476678902923934"><ele>49.8</ele><time>2026-04-04T15:45:33.987Z</time></trkpt><trkpt lat="45.289731571457075" lon="10.476805722059998"><ele>49.6</ele><time>2026-04-04T15:45:34.987Z</time></trkpt><trkpt lat="45.289660976040736" lon="10.476923758108581"><ele>49.400000000000006</ele><time>2026-04-04T15:45:35.987Z</time></trkpt><trkpt lat="45.289601079720974" lon="10.477033379520652"><ele>49.2</ele><time>2026-04-04T15:45:36.987Z</time></trkpt><trkpt lat="45.289547038181446" lon="10.477133069805568"><ele>49.0</ele><time>2026-04-04T15:45:37.987Z</time></trkpt><trkpt lat="45.28949756665446" lon="10.477224964286362"><ele>49.0</ele><time>2026-04-04T15:45:38.987Z</time></trkpt><trkpt lat="45.289449955310985" lon="10.477302213220561"><ele>49.0</ele><time>2026-04-04T15:45:39.987Z</time></trkpt><trkpt lat="45.28938411355689" lon="10.477374272988634"><ele>49.0</ele><time>2026-04-04T15:45:41.987Z</time></trkpt><trkpt lat="45.28929914961598" lon="10.477247666934023"><ele>49.0</ele><time>2026-04-04T15:45:42.987Z</time></trkpt><trkpt lat="45.28923740087136" lon="10.477164690118306"><ele>49.0</ele><time>2026-04-04T15:45:43.987Z</time></trkpt><trkpt lat="45.28915042336547" lon="10.477073588791486"><ele>49.0</ele><time>2026-04-04T15:45:44.987Z</time></trkpt><trkpt lat="45.28907160768112" lon="10.476967423034909"><ele>49.0</ele><time>2026-04-04T15:45:45.987Z</time></trkpt><trkpt lat="45.28899088494742" lon="10.476854388944272"><ele>49.0</ele><time>2026-04-04T15:45:46.987Z</time></trkpt><trkpt lat="45.28891203232189" lon="10.476743865167846"><ele>49.0</ele><time>2026-04-04T15:45:47.987Z</time></trkpt><trkpt lat="45.288834066120046" lon="10.476642421882685"><ele>49.0</ele><time>2026-04-04T15:45:48.987Z</time></trkpt><trkpt lat="45.28876183039821" lon="10.476551854724015"><ele>49.33333333333333</ele><time>2026-04-04T15:45:49.987Z</time></trkpt><trkpt lat="45.2886947448826" lon="10.476465439419888"><ele>49.666666666666664</ele><time>2026-04-04T15:45:50.987Z</time></trkpt><trkpt lat="45.28864682212341" lon="10.47636744818653"><ele>50.0</ele><time>2026-04-04T15:45:51.987Z</time></trkpt><trkpt lat="45.288593550843956" lon="10.476292239517957"><ele>50.33333333333333</ele><time>2026-04-04T15:45:52.987Z</time></trkpt><trkpt lat="45.28854997527843" lon="10.476202341482713"><ele>50.666666666666664</ele><time>2026-04-04T15:45:54.987Z</time></trkpt><trkpt lat="45.28861830021123" lon="10.476070491757964"><ele>51.0</ele><time>2026-04-04T15:45:56.987Z</time></trkpt><trkpt lat="45.28868090689696" lon="10.476000753514786"><ele>51.166666666666664</ele><time>2026-04-04T15:45:57.987Z</time></trkpt><trkpt lat="45.28874546198336" lon="10.475903387359603"><ele>51.33333333333333</ele><time>2026-04-04T15:45:58.987Z</time></trkpt><trkpt lat="45.288809988826856" lon="10.47581973485757"><ele>51.5</ele><time>2026-04-04T15:45:59.987Z</time></trkpt><trkpt lat="45.28887866488978" lon="10.475724874154858"><ele>51.666666666666664</ele><time>2026-04-04T15:46:00.987Z</time></trkpt><trkpt lat="45.28894199913857" lon="10.475636211066796"><ele>51.83333333333333</ele><time>2026-04-04T15:46:01.987Z</time></trkpt><trkpt lat="45.28899697272427" lon="10.475561572822139"><ele>52.0</ele><time>2026-04-04T15:46:02.987Z</time></trkpt><trkpt lat="45.28906365434215" lon="10.475444017079244"><ele>51.83333333333333</ele><time>2026-04-04T15:46:04.987Z</time></trkpt><trkpt lat="45.28911031102141" lon="10.475367161057006"><ele>51.666666666666664</ele><time>2026-04-04T15:46:07.987Z</time></trkpt><trkpt lat="45.28917291338069" lon="10.475352172772823"><ele>51.5</ele><time>2026-04-04T15:47:20.985Z</time></trkpt><trkpt lat="45.28910909081121" lon="10.475372320153795"><ele>51.33333333333333</ele><time>2026-04-04T15:48:06.984Z</time></trkpt><trkpt lat="45.28903964745658" lon="10.475374215065203"><ele>51.166666666666664</ele><time>2026-04-04T15:48:08.984Z</time></trkpt><trkpt lat="45.28890616351284" lon="10.47538931528037"><ele>51.0</ele><time>2026-04-04T15:49:07.983Z</time></trkpt><trkpt lat="45.28889376268468" lon="10.475299533212045"><ele>51.0</ele><time>2026-04-04T15:49:38.983Z</time></trkpt><trkpt lat="45.288835813989856" lon="10.475172374927777"><ele>51.0</ele><time>2026-04-04T15:49:54.983Z</time></trkpt><trkpt lat="45.28895187251644" lon="10.47515440635285"><ele>50.0</ele><time>2026-04-04T15:50:41.982Z</time></trkpt></trkseg></trk></gpx>